<?xml version="1.0" encoding="UTF-8" standalone="no" ?>
<gpx xmlns="http://www.topografix.com/GPX/1/1" xmlns:xsi="http://www.w3.org/2001/XMLSchema-instance" xsi:schemaLocation="http://www.topografix.com/GPX/1/1 http://www.topografix.com/GPX/1/1/gpx.xsd" version="1.1" creator="VisuGPX - https://www.visugpx.com">
  <metadata>
    <name>Rando_ARCHELANGE</name>
    <desc><![CDATA[randonnée VTT Archelange, massif de la Serre.]]></desc>
  </metadata>
  <trk>
    <name><![CDATA[Archelange_2014-05-25-01]]></name>
    <trkseg>
      <trkpt lat="47.14083" lon="5.51596">
        <ele>287</ele>
        <time>2014-05-25T06:44:04Z</time>
      </trkpt>
      <trkpt lat="47.14085" lon="5.51599">
        <ele>286</ele>
        <time>2014-05-25T06:44:18Z</time>
      </trkpt>
      <trkpt lat="47.14091" lon="5.51588">
        <ele>286.8</ele>
        <time>2014-05-25T06:46:59Z</time>
      </trkpt>
      <trkpt lat="47.14098" lon="5.51575">
        <ele>286.9</ele>
        <time>2014-05-25T06:47:05Z</time>
      </trkpt>
      <trkpt lat="47.14105" lon="5.51564">
        <ele>286.4</ele>
        <time>2014-05-25T06:47:10Z</time>
      </trkpt>
      <trkpt lat="47.14107" lon="5.51551">
        <ele>286.4</ele>
        <time>2014-05-25T06:47:14Z</time>
      </trkpt>
      <trkpt lat="47.1411" lon="5.51537">
        <ele>287</ele>
        <time>2014-05-25T06:47:18Z</time>
      </trkpt>
      <trkpt lat="47.14113" lon="5.51522">
        <ele>286.5</ele>
        <time>2014-05-25T06:47:23Z</time>
      </trkpt>
      <trkpt lat="47.14116" lon="5.51507">
        <ele>286.4</ele>
        <time>2014-05-25T06:47:27Z</time>
      </trkpt>
      <trkpt lat="47.1412" lon="5.51492">
        <ele>286</ele>
        <time>2014-05-25T06:47:31Z</time>
      </trkpt>
      <trkpt lat="47.14122" lon="5.51476">
        <ele>286.5</ele>
        <time>2014-05-25T06:47:35Z</time>
      </trkpt>
      <trkpt lat="47.14122" lon="5.51461">
        <ele>285.2</ele>
        <time>2014-05-25T06:47:39Z</time>
      </trkpt>
      <trkpt lat="47.14122" lon="5.51446">
        <ele>285.4</ele>
        <time>2014-05-25T06:47:43Z</time>
      </trkpt>
      <trkpt lat="47.14123" lon="5.51429">
        <ele>286.1</ele>
        <time>2014-05-25T06:47:48Z</time>
      </trkpt>
      <trkpt lat="47.14124" lon="5.51413">
        <ele>286.3</ele>
        <time>2014-05-25T06:47:52Z</time>
      </trkpt>
      <trkpt lat="47.14126" lon="5.51399">
        <ele>286.3</ele>
        <time>2014-05-25T06:47:55Z</time>
      </trkpt>
      <trkpt lat="47.14128" lon="5.51382">
        <ele>285.9</ele>
        <time>2014-05-25T06:47:59Z</time>
      </trkpt>
      <trkpt lat="47.1413" lon="5.51369">
        <ele>285.3</ele>
        <time>2014-05-25T06:48:02Z</time>
      </trkpt>
      <trkpt lat="47.1414" lon="5.51367">
        <ele>285.3</ele>
        <time>2014-05-25T06:48:07Z</time>
      </trkpt>
      <trkpt lat="47.14145" lon="5.51356">
        <ele>284</ele>
        <time>2014-05-25T06:48:12Z</time>
      </trkpt>
      <trkpt lat="47.14148" lon="5.5134">
        <ele>284.3</ele>
        <time>2014-05-25T06:48:16Z</time>
      </trkpt>
      <trkpt lat="47.14155" lon="5.5133">
        <ele>283.6</ele>
        <time>2014-05-25T06:48:23Z</time>
      </trkpt>
      <trkpt lat="47.14166" lon="5.51333">
        <ele>283.6</ele>
        <time>2014-05-25T06:48:28Z</time>
      </trkpt>
      <trkpt lat="47.14175" lon="5.51339">
        <ele>283.5</ele>
        <time>2014-05-25T06:48:33Z</time>
      </trkpt>
      <trkpt lat="47.14184" lon="5.51341">
        <ele>282.8</ele>
        <time>2014-05-25T06:48:46Z</time>
      </trkpt>
      <trkpt lat="47.14192" lon="5.51333">
        <ele>282.2</ele>
        <time>2014-05-25T06:52:12Z</time>
      </trkpt>
      <trkpt lat="47.14183" lon="5.51337">
        <ele>283.2</ele>
        <time>2014-05-25T07:08:34Z</time>
      </trkpt>
      <trkpt lat="47.14182" lon="5.51323">
        <ele>283</ele>
        <time>2014-05-25T07:11:17Z</time>
      </trkpt>
      <trkpt lat="47.14191" lon="5.51316">
        <ele>282.7</ele>
        <time>2014-05-25T07:11:26Z</time>
      </trkpt>
      <trkpt lat="47.14201" lon="5.51316">
        <ele>282.8</ele>
        <time>2014-05-25T07:11:31Z</time>
      </trkpt>
      <trkpt lat="47.1421" lon="5.51315">
        <ele>282.5</ele>
        <time>2014-05-25T07:11:36Z</time>
      </trkpt>
      <trkpt lat="47.1422" lon="5.51313">
        <ele>282.4</ele>
        <time>2014-05-25T07:11:43Z</time>
      </trkpt>
      <trkpt lat="47.14231" lon="5.51315">
        <ele>282.1</ele>
        <time>2014-05-25T07:11:51Z</time>
      </trkpt>
      <trkpt lat="47.1424" lon="5.5132">
        <ele>282.2</ele>
        <time>2014-05-25T07:11:56Z</time>
      </trkpt>
      <trkpt lat="47.1425" lon="5.51328">
        <ele>281.6</ele>
        <time>2014-05-25T07:12:01Z</time>
      </trkpt>
      <trkpt lat="47.14259" lon="5.51336">
        <ele>281.2</ele>
        <time>2014-05-25T07:12:05Z</time>
      </trkpt>
      <trkpt lat="47.14269" lon="5.51343">
        <ele>281.3</ele>
        <time>2014-05-25T07:12:09Z</time>
      </trkpt>
      <trkpt lat="47.14277" lon="5.51348">
        <ele>281.2</ele>
        <time>2014-05-25T07:12:13Z</time>
      </trkpt>
      <trkpt lat="47.14286" lon="5.51352">
        <ele>280.7</ele>
        <time>2014-05-25T07:12:18Z</time>
      </trkpt>
      <trkpt lat="47.14269" lon="5.51337">
        <ele>280.9</ele>
        <time>2014-05-25T07:12:28Z</time>
      </trkpt>
      <trkpt lat="47.14261" lon="5.5133">
        <ele>281.1</ele>
        <time>2014-05-25T07:12:31Z</time>
      </trkpt>
      <trkpt lat="47.14253" lon="5.51323">
        <ele>281.3</ele>
        <time>2014-05-25T07:12:34Z</time>
      </trkpt>
      <trkpt lat="47.14243" lon="5.51314">
        <ele>281.8</ele>
        <time>2014-05-25T07:12:38Z</time>
      </trkpt>
      <trkpt lat="47.14233" lon="5.5131">
        <ele>281.9</ele>
        <time>2014-05-25T07:12:42Z</time>
      </trkpt>
      <trkpt lat="47.14223" lon="5.5131">
        <ele>282.1</ele>
        <time>2014-05-25T07:12:46Z</time>
      </trkpt>
      <trkpt lat="47.14214" lon="5.51313">
        <ele>282.2</ele>
        <time>2014-05-25T07:12:51Z</time>
      </trkpt>
      <trkpt lat="47.14203" lon="5.5132">
        <ele>282.6</ele>
        <time>2014-05-25T07:13:32Z</time>
      </trkpt>
      <trkpt lat="47.14212" lon="5.51316">
        <ele>282.3</ele>
        <time>2014-05-25T07:15:37Z</time>
      </trkpt>
      <trkpt lat="47.14222" lon="5.51313">
        <ele>282.1</ele>
        <time>2014-05-25T07:15:42Z</time>
      </trkpt>
      <trkpt lat="47.14233" lon="5.51313">
        <ele>281.8</ele>
        <time>2014-05-25T07:15:46Z</time>
      </trkpt>
      <trkpt lat="47.14241" lon="5.5132">
        <ele>281.9</ele>
        <time>2014-05-25T07:15:49Z</time>
      </trkpt>
      <trkpt lat="47.1425" lon="5.51327">
        <ele>282</ele>
        <time>2014-05-25T07:15:52Z</time>
      </trkpt>
      <trkpt lat="47.14259" lon="5.51334">
        <ele>281.8</ele>
        <time>2014-05-25T07:15:55Z</time>
      </trkpt>
      <trkpt lat="47.14268" lon="5.51339">
        <ele>281.5</ele>
        <time>2014-05-25T07:15:58Z</time>
      </trkpt>
      <trkpt lat="47.14287" lon="5.5135">
        <ele>280.8</ele>
        <time>2014-05-25T07:16:04Z</time>
      </trkpt>
      <trkpt lat="47.14298" lon="5.51355">
        <ele>280.4</ele>
        <time>2014-05-25T07:16:07Z</time>
      </trkpt>
      <trkpt lat="47.14307" lon="5.5136">
        <ele>280.4</ele>
        <time>2014-05-25T07:16:09Z</time>
      </trkpt>
      <trkpt lat="47.1432" lon="5.51365">
        <ele>279.8</ele>
        <time>2014-05-25T07:16:12Z</time>
      </trkpt>
      <trkpt lat="47.14332" lon="5.51372">
        <ele>279.3</ele>
        <time>2014-05-25T07:16:15Z</time>
      </trkpt>
      <trkpt lat="47.14342" lon="5.51382">
        <ele>279.2</ele>
        <time>2014-05-25T07:16:18Z</time>
      </trkpt>
      <trkpt lat="47.14353" lon="5.51392">
        <ele>278.6</ele>
        <time>2014-05-25T07:16:21Z</time>
      </trkpt>
      <trkpt lat="47.14363" lon="5.51403">
        <ele>278.5</ele>
        <time>2014-05-25T07:16:24Z</time>
      </trkpt>
      <trkpt lat="47.14372" lon="5.5141">
        <ele>278</ele>
        <time>2014-05-25T07:16:27Z</time>
      </trkpt>
      <trkpt lat="47.14382" lon="5.51416">
        <ele>275.5</ele>
        <time>2014-05-25T07:32:07Z</time>
      </trkpt>
      <trkpt lat="47.14365" lon="5.51403">
        <ele>276.9</ele>
        <time>2014-05-25T07:32:21Z</time>
      </trkpt>
      <trkpt lat="47.14374" lon="5.51412">
        <ele>276.8</ele>
        <time>2014-05-25T07:32:27Z</time>
      </trkpt>
      <trkpt lat="47.14383" lon="5.51417">
        <ele>276.5</ele>
        <time>2014-05-25T07:32:32Z</time>
      </trkpt>
      <trkpt lat="47.14394" lon="5.51424">
        <ele>274.3</ele>
        <time>2014-05-25T07:37:00Z</time>
      </trkpt>
      <trkpt lat="47.14411" lon="5.51432">
        <ele>273.6</ele>
        <time>2014-05-25T07:37:06Z</time>
      </trkpt>
      <trkpt lat="47.14423" lon="5.51436">
        <ele>273.3</ele>
        <time>2014-05-25T07:37:09Z</time>
      </trkpt>
      <trkpt lat="47.14433" lon="5.51439">
        <ele>272.7</ele>
        <time>2014-05-25T07:37:11Z</time>
      </trkpt>
      <trkpt lat="47.14443" lon="5.51441">
        <ele>272.4</ele>
        <time>2014-05-25T07:37:13Z</time>
      </trkpt>
      <trkpt lat="47.14453" lon="5.51444">
        <ele>271.7</ele>
        <time>2014-05-25T07:37:15Z</time>
      </trkpt>
      <trkpt lat="47.14463" lon="5.51447">
        <ele>271.7</ele>
        <time>2014-05-25T07:37:17Z</time>
      </trkpt>
      <trkpt lat="47.14474" lon="5.5145">
        <ele>272</ele>
        <time>2014-05-25T07:37:19Z</time>
      </trkpt>
      <trkpt lat="47.14486" lon="5.51452">
        <ele>271.8</ele>
        <time>2014-05-25T07:37:21Z</time>
      </trkpt>
      <trkpt lat="47.14497" lon="5.51453">
        <ele>271.4</ele>
        <time>2014-05-25T07:37:23Z</time>
      </trkpt>
      <trkpt lat="47.14508" lon="5.51453">
        <ele>271.5</ele>
        <time>2014-05-25T07:37:25Z</time>
      </trkpt>
      <trkpt lat="47.14519" lon="5.51453">
        <ele>271.5</ele>
        <time>2014-05-25T07:37:27Z</time>
      </trkpt>
      <trkpt lat="47.14529" lon="5.5145">
        <ele>271.2</ele>
        <time>2014-05-25T07:37:29Z</time>
      </trkpt>
      <trkpt lat="47.14539" lon="5.51444">
        <ele>271</ele>
        <time>2014-05-25T07:37:31Z</time>
      </trkpt>
      <trkpt lat="47.14548" lon="5.51437">
        <ele>271.1</ele>
        <time>2014-05-25T07:37:33Z</time>
      </trkpt>
      <trkpt lat="47.14558" lon="5.5143">
        <ele>271.1</ele>
        <time>2014-05-25T07:37:35Z</time>
      </trkpt>
      <trkpt lat="47.14568" lon="5.51425">
        <ele>271</ele>
        <time>2014-05-25T07:37:37Z</time>
      </trkpt>
      <trkpt lat="47.14579" lon="5.51421">
        <ele>270.9</ele>
        <time>2014-05-25T07:37:39Z</time>
      </trkpt>
      <trkpt lat="47.1459" lon="5.51418">
        <ele>270.8</ele>
        <time>2014-05-25T07:37:41Z</time>
      </trkpt>
      <trkpt lat="47.146" lon="5.51415">
        <ele>271.1</ele>
        <time>2014-05-25T07:37:43Z</time>
      </trkpt>
      <trkpt lat="47.1461" lon="5.51414">
        <ele>271.3</ele>
        <time>2014-05-25T07:37:45Z</time>
      </trkpt>
      <trkpt lat="47.1462" lon="5.51413">
        <ele>271.7</ele>
        <time>2014-05-25T07:37:48Z</time>
      </trkpt>
      <trkpt lat="47.14631" lon="5.51414">
        <ele>271.4</ele>
        <time>2014-05-25T07:37:51Z</time>
      </trkpt>
      <trkpt lat="47.14644" lon="5.51419">
        <ele>270.9</ele>
        <time>2014-05-25T07:37:54Z</time>
      </trkpt>
      <trkpt lat="47.14654" lon="5.51422">
        <ele>270.8</ele>
        <time>2014-05-25T07:37:56Z</time>
      </trkpt>
      <trkpt lat="47.14666" lon="5.51428">
        <ele>271.1</ele>
        <time>2014-05-25T07:37:59Z</time>
      </trkpt>
      <trkpt lat="47.14676" lon="5.5143">
        <ele>271.3</ele>
        <time>2014-05-25T07:38:02Z</time>
      </trkpt>
      <trkpt lat="47.14699" lon="5.51437">
        <ele>272.5</ele>
        <time>2014-05-25T07:38:08Z</time>
      </trkpt>
      <trkpt lat="47.14708" lon="5.51441">
        <ele>273.2</ele>
        <time>2014-05-25T07:38:11Z</time>
      </trkpt>
      <trkpt lat="47.14717" lon="5.51446">
        <ele>273.4</ele>
        <time>2014-05-25T07:38:15Z</time>
      </trkpt>
      <trkpt lat="47.14726" lon="5.51451">
        <ele>274.1</ele>
        <time>2014-05-25T07:38:19Z</time>
      </trkpt>
      <trkpt lat="47.14731" lon="5.51463">
        <ele>275</ele>
        <time>2014-05-25T07:38:24Z</time>
      </trkpt>
      <trkpt lat="47.14733" lon="5.51477">
        <ele>275.7</ele>
        <time>2014-05-25T07:38:28Z</time>
      </trkpt>
      <trkpt lat="47.14735" lon="5.51492">
        <ele>276.8</ele>
        <time>2014-05-25T07:38:32Z</time>
      </trkpt>
      <trkpt lat="47.14733" lon="5.51508">
        <ele>277.6</ele>
        <time>2014-05-25T07:38:36Z</time>
      </trkpt>
      <trkpt lat="47.14732" lon="5.51525">
        <ele>278.2</ele>
        <time>2014-05-25T07:38:40Z</time>
      </trkpt>
      <trkpt lat="47.1473" lon="5.51538">
        <ele>279.1</ele>
        <time>2014-05-25T07:38:43Z</time>
      </trkpt>
      <trkpt lat="47.1473" lon="5.51554">
        <ele>279.9</ele>
        <time>2014-05-25T07:38:46Z</time>
      </trkpt>
      <trkpt lat="47.14728" lon="5.51568">
        <ele>280.1</ele>
        <time>2014-05-25T07:38:49Z</time>
      </trkpt>
      <trkpt lat="47.14728" lon="5.51582">
        <ele>280.1</ele>
        <time>2014-05-25T07:38:52Z</time>
      </trkpt>
      <trkpt lat="47.14728" lon="5.51597">
        <ele>280.8</ele>
        <time>2014-05-25T07:38:56Z</time>
      </trkpt>
      <trkpt lat="47.1473" lon="5.51611">
        <ele>281.5</ele>
        <time>2014-05-25T07:38:59Z</time>
      </trkpt>
      <trkpt lat="47.14732" lon="5.51626">
        <ele>281.9</ele>
        <time>2014-05-25T07:39:02Z</time>
      </trkpt>
      <trkpt lat="47.14735" lon="5.51642">
        <ele>282.6</ele>
        <time>2014-05-25T07:39:06Z</time>
      </trkpt>
      <trkpt lat="47.14747" lon="5.51666">
        <ele>283.2</ele>
        <time>2014-05-25T07:39:12Z</time>
      </trkpt>
      <trkpt lat="47.14754" lon="5.51676">
        <ele>283.3</ele>
        <time>2014-05-25T07:39:15Z</time>
      </trkpt>
      <trkpt lat="47.14762" lon="5.51687">
        <ele>284</ele>
        <time>2014-05-25T07:39:18Z</time>
      </trkpt>
      <trkpt lat="47.14768" lon="5.51698">
        <ele>284.3</ele>
        <time>2014-05-25T07:39:21Z</time>
      </trkpt>
      <trkpt lat="47.14775" lon="5.51708">
        <ele>284.6</ele>
        <time>2014-05-25T07:39:24Z</time>
      </trkpt>
      <trkpt lat="47.14782" lon="5.51717">
        <ele>285.2</ele>
        <time>2014-05-25T07:39:27Z</time>
      </trkpt>
      <trkpt lat="47.14788" lon="5.51728">
        <ele>285.3</ele>
        <time>2014-05-25T07:39:30Z</time>
      </trkpt>
      <trkpt lat="47.14795" lon="5.51739">
        <ele>285.7</ele>
        <time>2014-05-25T07:39:33Z</time>
      </trkpt>
      <trkpt lat="47.14802" lon="5.5175">
        <ele>285.9</ele>
        <time>2014-05-25T07:39:36Z</time>
      </trkpt>
      <trkpt lat="47.14811" lon="5.51761">
        <ele>286.4</ele>
        <time>2014-05-25T07:39:40Z</time>
      </trkpt>
      <trkpt lat="47.14819" lon="5.51773">
        <ele>286.9</ele>
        <time>2014-05-25T07:39:44Z</time>
      </trkpt>
      <trkpt lat="47.14828" lon="5.51782">
        <ele>287.6</ele>
        <time>2014-05-25T07:39:48Z</time>
      </trkpt>
      <trkpt lat="47.14838" lon="5.51792">
        <ele>288</ele>
        <time>2014-05-25T07:39:52Z</time>
      </trkpt>
      <trkpt lat="47.14847" lon="5.51802">
        <ele>289</ele>
        <time>2014-05-25T07:39:56Z</time>
      </trkpt>
      <trkpt lat="47.14856" lon="5.51812">
        <ele>289.9</ele>
        <time>2014-05-25T07:40:00Z</time>
      </trkpt>
      <trkpt lat="47.14865" lon="5.51823">
        <ele>290.7</ele>
        <time>2014-05-25T07:40:04Z</time>
      </trkpt>
      <trkpt lat="47.14872" lon="5.51833">
        <ele>291.4</ele>
        <time>2014-05-25T07:40:08Z</time>
      </trkpt>
      <trkpt lat="47.1489" lon="5.51854">
        <ele>292.6</ele>
        <time>2014-05-25T07:40:16Z</time>
      </trkpt>
      <trkpt lat="47.14899" lon="5.51864">
        <ele>293</ele>
        <time>2014-05-25T07:40:20Z</time>
      </trkpt>
      <trkpt lat="47.14907" lon="5.51876">
        <ele>294</ele>
        <time>2014-05-25T07:40:24Z</time>
      </trkpt>
      <trkpt lat="47.14915" lon="5.51887">
        <ele>294.6</ele>
        <time>2014-05-25T07:40:28Z</time>
      </trkpt>
      <trkpt lat="47.14922" lon="5.51899">
        <ele>295.2</ele>
        <time>2014-05-25T07:40:32Z</time>
      </trkpt>
      <trkpt lat="47.14929" lon="5.51913">
        <ele>296.1</ele>
        <time>2014-05-25T07:40:36Z</time>
      </trkpt>
      <trkpt lat="47.14936" lon="5.51923">
        <ele>296.1</ele>
        <time>2014-05-25T07:40:39Z</time>
      </trkpt>
      <trkpt lat="47.14943" lon="5.51933">
        <ele>296.5</ele>
        <time>2014-05-25T07:40:42Z</time>
      </trkpt>
      <trkpt lat="47.1495" lon="5.51942">
        <ele>297.2</ele>
        <time>2014-05-25T07:40:45Z</time>
      </trkpt>
      <trkpt lat="47.14958" lon="5.51954">
        <ele>297.7</ele>
        <time>2014-05-25T07:40:49Z</time>
      </trkpt>
      <trkpt lat="47.14963" lon="5.51968">
        <ele>298.4</ele>
        <time>2014-05-25T07:40:53Z</time>
      </trkpt>
      <trkpt lat="47.1497" lon="5.51982">
        <ele>298.7</ele>
        <time>2014-05-25T07:40:57Z</time>
      </trkpt>
      <trkpt lat="47.14975" lon="5.51993">
        <ele>298.9</ele>
        <time>2014-05-25T07:41:00Z</time>
      </trkpt>
      <trkpt lat="47.14982" lon="5.52005">
        <ele>299.1</ele>
        <time>2014-05-25T07:41:04Z</time>
      </trkpt>
      <trkpt lat="47.14989" lon="5.52018">
        <ele>299.4</ele>
        <time>2014-05-25T07:41:07Z</time>
      </trkpt>
      <trkpt lat="47.14995" lon="5.5203">
        <ele>299.9</ele>
        <time>2014-05-25T07:41:10Z</time>
      </trkpt>
      <trkpt lat="47.15009" lon="5.52056">
        <ele>300.2</ele>
        <time>2014-05-25T07:41:16Z</time>
      </trkpt>
      <trkpt lat="47.15016" lon="5.52071">
        <ele>300.2</ele>
        <time>2014-05-25T07:41:19Z</time>
      </trkpt>
      <trkpt lat="47.15023" lon="5.52086">
        <ele>299.9</ele>
        <time>2014-05-25T07:41:22Z</time>
      </trkpt>
      <trkpt lat="47.15029" lon="5.52097">
        <ele>300.2</ele>
        <time>2014-05-25T07:41:24Z</time>
      </trkpt>
      <trkpt lat="47.15036" lon="5.52109">
        <ele>300</ele>
        <time>2014-05-25T07:41:26Z</time>
      </trkpt>
      <trkpt lat="47.15042" lon="5.52122">
        <ele>299.6</ele>
        <time>2014-05-25T07:41:28Z</time>
      </trkpt>
      <trkpt lat="47.15049" lon="5.52135">
        <ele>299.4</ele>
        <time>2014-05-25T07:41:30Z</time>
      </trkpt>
      <trkpt lat="47.15057" lon="5.52148">
        <ele>299.2</ele>
        <time>2014-05-25T07:41:32Z</time>
      </trkpt>
      <trkpt lat="47.15064" lon="5.52161">
        <ele>299</ele>
        <time>2014-05-25T07:41:34Z</time>
      </trkpt>
      <trkpt lat="47.15071" lon="5.52173">
        <ele>298.5</ele>
        <time>2014-05-25T07:41:36Z</time>
      </trkpt>
      <trkpt lat="47.15079" lon="5.52187">
        <ele>298</ele>
        <time>2014-05-25T07:41:38Z</time>
      </trkpt>
      <trkpt lat="47.15085" lon="5.52199">
        <ele>297.7</ele>
        <time>2014-05-25T07:41:40Z</time>
      </trkpt>
      <trkpt lat="47.15092" lon="5.5221">
        <ele>297.4</ele>
        <time>2014-05-25T07:41:42Z</time>
      </trkpt>
      <trkpt lat="47.15099" lon="5.52221">
        <ele>297.2</ele>
        <time>2014-05-25T07:41:44Z</time>
      </trkpt>
      <trkpt lat="47.15108" lon="5.52232">
        <ele>296.6</ele>
        <time>2014-05-25T07:41:46Z</time>
      </trkpt>
      <trkpt lat="47.15117" lon="5.52242">
        <ele>295.6</ele>
        <time>2014-05-25T07:41:48Z</time>
      </trkpt>
      <trkpt lat="47.15127" lon="5.52252">
        <ele>295.2</ele>
        <time>2014-05-25T07:41:50Z</time>
      </trkpt>
      <trkpt lat="47.15137" lon="5.52261">
        <ele>294.8</ele>
        <time>2014-05-25T07:41:52Z</time>
      </trkpt>
      <trkpt lat="47.15146" lon="5.5227">
        <ele>294.5</ele>
        <time>2014-05-25T07:41:54Z</time>
      </trkpt>
      <trkpt lat="47.15155" lon="5.52278">
        <ele>294.3</ele>
        <time>2014-05-25T07:41:56Z</time>
      </trkpt>
      <trkpt lat="47.15163" lon="5.52287">
        <ele>294.1</ele>
        <time>2014-05-25T07:41:58Z</time>
      </trkpt>
      <trkpt lat="47.15171" lon="5.52295">
        <ele>294.2</ele>
        <time>2014-05-25T07:42:00Z</time>
      </trkpt>
      <trkpt lat="47.1518" lon="5.52305">
        <ele>294.6</ele>
        <time>2014-05-25T07:42:02Z</time>
      </trkpt>
      <trkpt lat="47.15188" lon="5.52317">
        <ele>295.1</ele>
        <time>2014-05-25T07:42:04Z</time>
      </trkpt>
      <trkpt lat="47.15192" lon="5.52332">
        <ele>295.7</ele>
        <time>2014-05-25T07:42:06Z</time>
      </trkpt>
      <trkpt lat="47.15196" lon="5.52351">
        <ele>296.5</ele>
        <time>2014-05-25T07:42:09Z</time>
      </trkpt>
      <trkpt lat="47.15199" lon="5.5237">
        <ele>297.2</ele>
        <time>2014-05-25T07:42:12Z</time>
      </trkpt>
      <trkpt lat="47.152" lon="5.524">
        <ele>299</ele>
        <time>2014-05-25T07:42:18Z</time>
      </trkpt>
      <trkpt lat="47.15199" lon="5.52417">
        <ele>299.9</ele>
        <time>2014-05-25T07:42:22Z</time>
      </trkpt>
      <trkpt lat="47.15198" lon="5.52431">
        <ele>300.6</ele>
        <time>2014-05-25T07:42:25Z</time>
      </trkpt>
      <trkpt lat="47.15198" lon="5.52447">
        <ele>301.1</ele>
        <time>2014-05-25T07:42:28Z</time>
      </trkpt>
      <trkpt lat="47.15196" lon="5.52462">
        <ele>301</ele>
        <time>2014-05-25T07:42:31Z</time>
      </trkpt>
      <trkpt lat="47.15196" lon="5.52479">
        <ele>301.4</ele>
        <time>2014-05-25T07:42:35Z</time>
      </trkpt>
      <trkpt lat="47.15197" lon="5.52496">
        <ele>301.9</ele>
        <time>2014-05-25T07:42:39Z</time>
      </trkpt>
      <trkpt lat="47.15197" lon="5.52512">
        <ele>302.4</ele>
        <time>2014-05-25T07:42:42Z</time>
      </trkpt>
      <trkpt lat="47.15197" lon="5.52529">
        <ele>302.5</ele>
        <time>2014-05-25T07:42:45Z</time>
      </trkpt>
      <trkpt lat="47.15193" lon="5.52545">
        <ele>302.4</ele>
        <time>2014-05-25T07:42:48Z</time>
      </trkpt>
      <trkpt lat="47.15187" lon="5.52562">
        <ele>302.3</ele>
        <time>2014-05-25T07:42:51Z</time>
      </trkpt>
      <trkpt lat="47.15184" lon="5.52575">
        <ele>302.3</ele>
        <time>2014-05-25T07:42:53Z</time>
      </trkpt>
      <trkpt lat="47.15183" lon="5.5259">
        <ele>302.2</ele>
        <time>2014-05-25T07:42:55Z</time>
      </trkpt>
      <trkpt lat="47.15182" lon="5.52604">
        <ele>301.7</ele>
        <time>2014-05-25T07:42:57Z</time>
      </trkpt>
      <trkpt lat="47.15182" lon="5.5262">
        <ele>301.3</ele>
        <time>2014-05-25T07:42:59Z</time>
      </trkpt>
      <trkpt lat="47.15182" lon="5.52635">
        <ele>301</ele>
        <time>2014-05-25T07:43:01Z</time>
      </trkpt>
      <trkpt lat="47.15182" lon="5.5265">
        <ele>300.9</ele>
        <time>2014-05-25T07:43:03Z</time>
      </trkpt>
      <trkpt lat="47.15184" lon="5.52666">
        <ele>300.3</ele>
        <time>2014-05-25T07:43:05Z</time>
      </trkpt>
      <trkpt lat="47.15186" lon="5.52682">
        <ele>299.5</ele>
        <time>2014-05-25T07:43:07Z</time>
      </trkpt>
      <trkpt lat="47.15191" lon="5.52698">
        <ele>299.4</ele>
        <time>2014-05-25T07:43:09Z</time>
      </trkpt>
      <trkpt lat="47.15196" lon="5.52716">
        <ele>298.8</ele>
        <time>2014-05-25T07:43:11Z</time>
      </trkpt>
      <trkpt lat="47.15203" lon="5.52733">
        <ele>298</ele>
        <time>2014-05-25T07:43:13Z</time>
      </trkpt>
      <trkpt lat="47.15218" lon="5.52762">
        <ele>297.3</ele>
        <time>2014-05-25T07:43:17Z</time>
      </trkpt>
      <trkpt lat="47.15226" lon="5.52775">
        <ele>296.4</ele>
        <time>2014-05-25T07:43:19Z</time>
      </trkpt>
      <trkpt lat="47.15234" lon="5.52789">
        <ele>295.7</ele>
        <time>2014-05-25T07:43:21Z</time>
      </trkpt>
      <trkpt lat="47.15242" lon="5.52804">
        <ele>295.4</ele>
        <time>2014-05-25T07:43:23Z</time>
      </trkpt>
      <trkpt lat="47.15251" lon="5.52822">
        <ele>295.1</ele>
        <time>2014-05-25T07:43:25Z</time>
      </trkpt>
      <trkpt lat="47.1526" lon="5.52838">
        <ele>295</ele>
        <time>2014-05-25T07:43:27Z</time>
      </trkpt>
      <trkpt lat="47.15271" lon="5.52852">
        <ele>294.6</ele>
        <time>2014-05-25T07:43:29Z</time>
      </trkpt>
      <trkpt lat="47.15283" lon="5.52864">
        <ele>294.5</ele>
        <time>2014-05-25T07:43:31Z</time>
      </trkpt>
      <trkpt lat="47.15294" lon="5.52872">
        <ele>294.7</ele>
        <time>2014-05-25T07:43:33Z</time>
      </trkpt>
      <trkpt lat="47.15305" lon="5.52878">
        <ele>294.9</ele>
        <time>2014-05-25T07:43:35Z</time>
      </trkpt>
      <trkpt lat="47.15314" lon="5.52886">
        <ele>295.4</ele>
        <time>2014-05-25T07:43:37Z</time>
      </trkpt>
      <trkpt lat="47.15322" lon="5.52895">
        <ele>296.2</ele>
        <time>2014-05-25T07:43:39Z</time>
      </trkpt>
      <trkpt lat="47.15329" lon="5.52904">
        <ele>296.5</ele>
        <time>2014-05-25T07:43:41Z</time>
      </trkpt>
      <trkpt lat="47.15336" lon="5.52915">
        <ele>297</ele>
        <time>2014-05-25T07:43:43Z</time>
      </trkpt>
      <trkpt lat="47.15347" lon="5.52926">
        <ele>297.7</ele>
        <time>2014-05-25T07:43:46Z</time>
      </trkpt>
      <trkpt lat="47.15356" lon="5.52935">
        <ele>297.8</ele>
        <time>2014-05-25T07:43:49Z</time>
      </trkpt>
      <trkpt lat="47.15368" lon="5.5294">
        <ele>298.6</ele>
        <time>2014-05-25T07:43:52Z</time>
      </trkpt>
      <trkpt lat="47.15377" lon="5.52948">
        <ele>298.6</ele>
        <time>2014-05-25T07:43:55Z</time>
      </trkpt>
      <trkpt lat="47.15385" lon="5.52958">
        <ele>298.6</ele>
        <time>2014-05-25T07:43:58Z</time>
      </trkpt>
      <trkpt lat="47.15391" lon="5.5297">
        <ele>298.4</ele>
        <time>2014-05-25T07:44:00Z</time>
      </trkpt>
      <trkpt lat="47.15396" lon="5.52984">
        <ele>297.6</ele>
        <time>2014-05-25T07:44:02Z</time>
      </trkpt>
      <trkpt lat="47.15401" lon="5.53">
        <ele>296.9</ele>
        <time>2014-05-25T07:44:04Z</time>
      </trkpt>
      <trkpt lat="47.15405" lon="5.5302">
        <ele>296</ele>
        <time>2014-05-25T07:44:06Z</time>
      </trkpt>
      <trkpt lat="47.15408" lon="5.5304">
        <ele>294.9</ele>
        <time>2014-05-25T07:44:08Z</time>
      </trkpt>
      <trkpt lat="47.15414" lon="5.53058">
        <ele>294.1</ele>
        <time>2014-05-25T07:44:10Z</time>
      </trkpt>
      <trkpt lat="47.1542" lon="5.53075">
        <ele>293</ele>
        <time>2014-05-25T07:44:12Z</time>
      </trkpt>
      <trkpt lat="47.15424" lon="5.53092">
        <ele>291.7</ele>
        <time>2014-05-25T07:44:14Z</time>
      </trkpt>
      <trkpt lat="47.15425" lon="5.53135">
        <ele>289.5</ele>
        <time>2014-05-25T07:44:18Z</time>
      </trkpt>
      <trkpt lat="47.15425" lon="5.53156">
        <ele>288.2</ele>
        <time>2014-05-25T07:44:20Z</time>
      </trkpt>
      <trkpt lat="47.15429" lon="5.53176">
        <ele>286.7</ele>
        <time>2014-05-25T07:44:22Z</time>
      </trkpt>
      <trkpt lat="47.15435" lon="5.53198">
        <ele>285.5</ele>
        <time>2014-05-25T07:44:24Z</time>
      </trkpt>
      <trkpt lat="47.15441" lon="5.53219">
        <ele>284.8</ele>
        <time>2014-05-25T07:44:26Z</time>
      </trkpt>
      <trkpt lat="47.15445" lon="5.53238">
        <ele>283.7</ele>
        <time>2014-05-25T07:44:28Z</time>
      </trkpt>
      <trkpt lat="47.15447" lon="5.53253">
        <ele>282.8</ele>
        <time>2014-05-25T07:44:30Z</time>
      </trkpt>
      <trkpt lat="47.1545" lon="5.53267">
        <ele>281.7</ele>
        <time>2014-05-25T07:44:32Z</time>
      </trkpt>
      <trkpt lat="47.15453" lon="5.53281">
        <ele>281.1</ele>
        <time>2014-05-25T07:44:34Z</time>
      </trkpt>
      <trkpt lat="47.15454" lon="5.53295">
        <ele>279</ele>
        <time>2014-05-25T07:44:36Z</time>
      </trkpt>
      <trkpt lat="47.15456" lon="5.53311">
        <ele>278.2</ele>
        <time>2014-05-25T07:44:38Z</time>
      </trkpt>
      <trkpt lat="47.15458" lon="5.53328">
        <ele>277.3</ele>
        <time>2014-05-25T07:44:40Z</time>
      </trkpt>
      <trkpt lat="47.15463" lon="5.53345">
        <ele>276.7</ele>
        <time>2014-05-25T07:44:42Z</time>
      </trkpt>
      <trkpt lat="47.1547" lon="5.53364">
        <ele>276.1</ele>
        <time>2014-05-25T07:44:44Z</time>
      </trkpt>
      <trkpt lat="47.1548" lon="5.5338">
        <ele>275.2</ele>
        <time>2014-05-25T07:44:46Z</time>
      </trkpt>
      <trkpt lat="47.15488" lon="5.53396">
        <ele>274</ele>
        <time>2014-05-25T07:44:48Z</time>
      </trkpt>
      <trkpt lat="47.15494" lon="5.53412">
        <ele>272.9</ele>
        <time>2014-05-25T07:44:50Z</time>
      </trkpt>
      <trkpt lat="47.15499" lon="5.5343">
        <ele>272.1</ele>
        <time>2014-05-25T07:44:52Z</time>
      </trkpt>
      <trkpt lat="47.15502" lon="5.53446">
        <ele>271</ele>
        <time>2014-05-25T07:44:54Z</time>
      </trkpt>
      <trkpt lat="47.15504" lon="5.53464">
        <ele>269.5</ele>
        <time>2014-05-25T07:44:57Z</time>
      </trkpt>
      <trkpt lat="47.15505" lon="5.53478">
        <ele>268.5</ele>
        <time>2014-05-25T07:45:01Z</time>
      </trkpt>
      <trkpt lat="47.15508" lon="5.53494">
        <ele>268.3</ele>
        <time>2014-05-25T07:45:11Z</time>
      </trkpt>
      <trkpt lat="47.15514" lon="5.53505">
        <ele>268.3</ele>
        <time>2014-05-25T07:45:15Z</time>
      </trkpt>
      <trkpt lat="47.15527" lon="5.53524">
        <ele>267.7</ele>
        <time>2014-05-25T07:45:25Z</time>
      </trkpt>
      <trkpt lat="47.15535" lon="5.53536">
        <ele>267.2</ele>
        <time>2014-05-25T07:45:29Z</time>
      </trkpt>
      <trkpt lat="47.15544" lon="5.53552">
        <ele>266.2</ele>
        <time>2014-05-25T07:45:32Z</time>
      </trkpt>
      <trkpt lat="47.15555" lon="5.53561">
        <ele>265.3</ele>
        <time>2014-05-25T07:45:35Z</time>
      </trkpt>
      <trkpt lat="47.15563" lon="5.5357">
        <ele>264.6</ele>
        <time>2014-05-25T07:45:38Z</time>
      </trkpt>
      <trkpt lat="47.1557" lon="5.5358">
        <ele>263.4</ele>
        <time>2014-05-25T07:45:42Z</time>
      </trkpt>
      <trkpt lat="47.1558" lon="5.53582">
        <ele>262.3</ele>
        <time>2014-05-25T07:45:45Z</time>
      </trkpt>
      <trkpt lat="47.15594" lon="5.53574">
        <ele>260</ele>
        <time>2014-05-25T07:45:48Z</time>
      </trkpt>
      <trkpt lat="47.15611" lon="5.53567">
        <ele>258.8</ele>
        <time>2014-05-25T07:45:50Z</time>
      </trkpt>
      <trkpt lat="47.15628" lon="5.53563">
        <ele>257.8</ele>
        <time>2014-05-25T07:45:52Z</time>
      </trkpt>
      <trkpt lat="47.15643" lon="5.53563">
        <ele>257.6</ele>
        <time>2014-05-25T07:45:54Z</time>
      </trkpt>
      <trkpt lat="47.15655" lon="5.53565">
        <ele>258</ele>
        <time>2014-05-25T07:45:56Z</time>
      </trkpt>
      <trkpt lat="47.15665" lon="5.53566">
        <ele>258.3</ele>
        <time>2014-05-25T07:46:00Z</time>
      </trkpt>
      <trkpt lat="47.15676" lon="5.53565">
        <ele>258.8</ele>
        <time>2014-05-25T07:46:04Z</time>
      </trkpt>
      <trkpt lat="47.15685" lon="5.5356">
        <ele>259.2</ele>
        <time>2014-05-25T07:46:07Z</time>
      </trkpt>
      <trkpt lat="47.15696" lon="5.53554">
        <ele>259.2</ele>
        <time>2014-05-25T07:46:09Z</time>
      </trkpt>
      <trkpt lat="47.15704" lon="5.53546">
        <ele>258.8</ele>
        <time>2014-05-25T07:46:11Z</time>
      </trkpt>
      <trkpt lat="47.15712" lon="5.53535">
        <ele>257.7</ele>
        <time>2014-05-25T07:46:13Z</time>
      </trkpt>
      <trkpt lat="47.15723" lon="5.53523">
        <ele>256.5</ele>
        <time>2014-05-25T07:46:15Z</time>
      </trkpt>
      <trkpt lat="47.15732" lon="5.5351">
        <ele>254.8</ele>
        <time>2014-05-25T07:46:17Z</time>
      </trkpt>
      <trkpt lat="47.1574" lon="5.53481">
        <ele>254.1</ele>
        <time>2014-05-25T07:46:24Z</time>
      </trkpt>
      <trkpt lat="47.1575" lon="5.53479">
        <ele>254.3</ele>
        <time>2014-05-25T07:46:29Z</time>
      </trkpt>
      <trkpt lat="47.15759" lon="5.53481">
        <ele>254.1</ele>
        <time>2014-05-25T07:46:34Z</time>
      </trkpt>
      <trkpt lat="47.15767" lon="5.53487">
        <ele>252.8</ele>
        <time>2014-05-25T07:46:38Z</time>
      </trkpt>
      <trkpt lat="47.15775" lon="5.53496">
        <ele>251.6</ele>
        <time>2014-05-25T07:46:41Z</time>
      </trkpt>
      <trkpt lat="47.15784" lon="5.53505">
        <ele>249.3</ele>
        <time>2014-05-25T07:46:45Z</time>
      </trkpt>
      <trkpt lat="47.15793" lon="5.53508">
        <ele>247.6</ele>
        <time>2014-05-25T07:46:51Z</time>
      </trkpt>
      <trkpt lat="47.15803" lon="5.53509">
        <ele>245.5</ele>
        <time>2014-05-25T07:46:59Z</time>
      </trkpt>
      <trkpt lat="47.15813" lon="5.53509">
        <ele>242.9</ele>
        <time>2014-05-25T07:47:07Z</time>
      </trkpt>
      <trkpt lat="47.15822" lon="5.53508">
        <ele>240.9</ele>
        <time>2014-05-25T07:47:14Z</time>
      </trkpt>
      <trkpt lat="47.15832" lon="5.5351">
        <ele>238.8</ele>
        <time>2014-05-25T07:47:23Z</time>
      </trkpt>
      <trkpt lat="47.15846" lon="5.53527">
        <ele>235.3</ele>
        <time>2014-05-25T07:47:35Z</time>
      </trkpt>
      <trkpt lat="47.15845" lon="5.5354">
        <ele>234.9</ele>
        <time>2014-05-25T07:47:39Z</time>
      </trkpt>
      <trkpt lat="47.15841" lon="5.53556">
        <ele>234.6</ele>
        <time>2014-05-25T07:47:44Z</time>
      </trkpt>
      <trkpt lat="47.15841" lon="5.5357">
        <ele>234.6</ele>
        <time>2014-05-25T07:47:49Z</time>
      </trkpt>
      <trkpt lat="47.15849" lon="5.5356">
        <ele>235.7</ele>
        <time>2014-05-25T07:48:01Z</time>
      </trkpt>
      <trkpt lat="47.15856" lon="5.53552">
        <ele>236.6</ele>
        <time>2014-05-25T07:48:09Z</time>
      </trkpt>
      <trkpt lat="47.15864" lon="5.53546">
        <ele>238.4</ele>
        <time>2014-05-25T07:48:16Z</time>
      </trkpt>
      <trkpt lat="47.15873" lon="5.53543">
        <ele>239.5</ele>
        <time>2014-05-25T07:48:20Z</time>
      </trkpt>
      <trkpt lat="47.15883" lon="5.53537">
        <ele>240.1</ele>
        <time>2014-05-25T07:48:26Z</time>
      </trkpt>
      <trkpt lat="47.159" lon="5.53526">
        <ele>240.7</ele>
        <time>2014-05-25T07:48:47Z</time>
      </trkpt>
      <trkpt lat="47.15904" lon="5.53514">
        <ele>240.6</ele>
        <time>2014-05-25T07:48:57Z</time>
      </trkpt>
      <trkpt lat="47.15907" lon="5.53499">
        <ele>240.5</ele>
        <time>2014-05-25T07:49:05Z</time>
      </trkpt>
      <trkpt lat="47.15914" lon="5.53488">
        <ele>241.1</ele>
        <time>2014-05-25T07:49:09Z</time>
      </trkpt>
      <trkpt lat="47.15913" lon="5.53474">
        <ele>241.1</ele>
        <time>2014-05-25T07:49:34Z</time>
      </trkpt>
      <trkpt lat="47.15922" lon="5.53451">
        <ele>241</ele>
        <time>2014-05-25T07:50:03Z</time>
      </trkpt>
      <trkpt lat="47.1593" lon="5.53439">
        <ele>241.2</ele>
        <time>2014-05-25T07:50:21Z</time>
      </trkpt>
      <trkpt lat="47.15934" lon="5.53426">
        <ele>240.9</ele>
        <time>2014-05-25T07:50:30Z</time>
      </trkpt>
      <trkpt lat="47.15939" lon="5.53415">
        <ele>241.4</ele>
        <time>2014-05-25T07:50:39Z</time>
      </trkpt>
      <trkpt lat="47.1595" lon="5.53392">
        <ele>241.6</ele>
        <time>2014-05-25T07:51:03Z</time>
      </trkpt>
      <trkpt lat="47.15956" lon="5.53382">
        <ele>241.2</ele>
        <time>2014-05-25T07:51:12Z</time>
      </trkpt>
      <trkpt lat="47.15965" lon="5.53375">
        <ele>241.1</ele>
        <time>2014-05-25T07:51:27Z</time>
      </trkpt>
      <trkpt lat="47.15974" lon="5.53374">
        <ele>242.5</ele>
        <time>2014-05-25T07:51:38Z</time>
      </trkpt>
      <trkpt lat="47.15983" lon="5.53379">
        <ele>245</ele>
        <time>2014-05-25T07:52:01Z</time>
      </trkpt>
      <trkpt lat="47.15999" lon="5.53395">
        <ele>250.2</ele>
        <time>2014-05-25T07:52:22Z</time>
      </trkpt>
      <trkpt lat="47.16007" lon="5.53402">
        <ele>252.4</ele>
        <time>2014-05-25T07:52:31Z</time>
      </trkpt>
      <trkpt lat="47.16015" lon="5.53411">
        <ele>254.6</ele>
        <time>2014-05-25T07:52:40Z</time>
      </trkpt>
      <trkpt lat="47.16022" lon="5.5342">
        <ele>256.5</ele>
        <time>2014-05-25T07:52:49Z</time>
      </trkpt>
      <trkpt lat="47.1603" lon="5.53428">
        <ele>259</ele>
        <time>2014-05-25T07:52:59Z</time>
      </trkpt>
      <trkpt lat="47.16036" lon="5.53439">
        <ele>261.1</ele>
        <time>2014-05-25T07:53:06Z</time>
      </trkpt>
      <trkpt lat="47.16048" lon="5.53461">
        <ele>264.7</ele>
        <time>2014-05-25T07:53:25Z</time>
      </trkpt>
      <trkpt lat="47.16056" lon="5.53471">
        <ele>266</ele>
        <time>2014-05-25T07:53:31Z</time>
      </trkpt>
      <trkpt lat="47.16064" lon="5.53477">
        <ele>266.8</ele>
        <time>2014-05-25T07:53:38Z</time>
      </trkpt>
      <trkpt lat="47.16073" lon="5.53486">
        <ele>268.4</ele>
        <time>2014-05-25T07:53:45Z</time>
      </trkpt>
      <trkpt lat="47.16081" lon="5.53495">
        <ele>269.5</ele>
        <time>2014-05-25T07:53:51Z</time>
      </trkpt>
      <trkpt lat="47.16089" lon="5.53504">
        <ele>270.6</ele>
        <time>2014-05-25T07:53:57Z</time>
      </trkpt>
      <trkpt lat="47.16094" lon="5.53515">
        <ele>271.3</ele>
        <time>2014-05-25T07:54:01Z</time>
      </trkpt>
      <trkpt lat="47.16102" lon="5.53524">
        <ele>272.3</ele>
        <time>2014-05-25T07:54:06Z</time>
      </trkpt>
      <trkpt lat="47.1611" lon="5.53533">
        <ele>274.2</ele>
        <time>2014-05-25T07:54:12Z</time>
      </trkpt>
      <trkpt lat="47.16126" lon="5.53556">
        <ele>275.2</ele>
        <time>2014-05-25T07:54:20Z</time>
      </trkpt>
      <trkpt lat="47.16134" lon="5.53566">
        <ele>276.3</ele>
        <time>2014-05-25T07:54:24Z</time>
      </trkpt>
      <trkpt lat="47.16143" lon="5.53574">
        <ele>277.1</ele>
        <time>2014-05-25T07:54:28Z</time>
      </trkpt>
      <trkpt lat="47.16149" lon="5.53584">
        <ele>277.8</ele>
        <time>2014-05-25T07:54:32Z</time>
      </trkpt>
      <trkpt lat="47.16156" lon="5.53593">
        <ele>279</ele>
        <time>2014-05-25T07:54:37Z</time>
      </trkpt>
      <trkpt lat="47.16163" lon="5.53601">
        <ele>279.3</ele>
        <time>2014-05-25T07:54:41Z</time>
      </trkpt>
      <trkpt lat="47.16171" lon="5.53611">
        <ele>280.1</ele>
        <time>2014-05-25T07:54:46Z</time>
      </trkpt>
      <trkpt lat="47.16178" lon="5.53621">
        <ele>280.6</ele>
        <time>2014-05-25T07:54:50Z</time>
      </trkpt>
      <trkpt lat="47.16185" lon="5.5363">
        <ele>281.5</ele>
        <time>2014-05-25T07:54:54Z</time>
      </trkpt>
      <trkpt lat="47.16192" lon="5.53639">
        <ele>282.3</ele>
        <time>2014-05-25T07:54:59Z</time>
      </trkpt>
      <trkpt lat="47.16198" lon="5.53651">
        <ele>282.5</ele>
        <time>2014-05-25T07:55:02Z</time>
      </trkpt>
      <trkpt lat="47.16203" lon="5.53661">
        <ele>283</ele>
        <time>2014-05-25T07:55:06Z</time>
      </trkpt>
      <trkpt lat="47.16211" lon="5.53673">
        <ele>283.7</ele>
        <time>2014-05-25T07:55:11Z</time>
      </trkpt>
      <trkpt lat="47.16219" lon="5.53682">
        <ele>284.1</ele>
        <time>2014-05-25T07:55:15Z</time>
      </trkpt>
      <trkpt lat="47.16234" lon="5.53703">
        <ele>285.2</ele>
        <time>2014-05-25T07:55:23Z</time>
      </trkpt>
      <trkpt lat="47.16244" lon="5.5371">
        <ele>286.2</ele>
        <time>2014-05-25T07:55:27Z</time>
      </trkpt>
      <trkpt lat="47.16254" lon="5.53721">
        <ele>286.5</ele>
        <time>2014-05-25T07:55:31Z</time>
      </trkpt>
      <trkpt lat="47.1626" lon="5.53733">
        <ele>287</ele>
        <time>2014-05-25T07:55:34Z</time>
      </trkpt>
      <trkpt lat="47.16267" lon="5.53746">
        <ele>287.6</ele>
        <time>2014-05-25T07:55:39Z</time>
      </trkpt>
      <trkpt lat="47.16271" lon="5.53759">
        <ele>287.7</ele>
        <time>2014-05-25T07:55:44Z</time>
      </trkpt>
      <trkpt lat="47.16275" lon="5.53774">
        <ele>287.4</ele>
        <time>2014-05-25T07:55:49Z</time>
      </trkpt>
      <trkpt lat="47.16276" lon="5.53789">
        <ele>287.5</ele>
        <time>2014-05-25T07:55:55Z</time>
      </trkpt>
      <trkpt lat="47.16279" lon="5.53804">
        <ele>287.8</ele>
        <time>2014-05-25T07:56:01Z</time>
      </trkpt>
      <trkpt lat="47.16277" lon="5.53818">
        <ele>287.6</ele>
        <time>2014-05-25T07:56:05Z</time>
      </trkpt>
      <trkpt lat="47.16272" lon="5.53831">
        <ele>287.1</ele>
        <time>2014-05-25T07:56:08Z</time>
      </trkpt>
      <trkpt lat="47.16265" lon="5.53843">
        <ele>286.9</ele>
        <time>2014-05-25T07:56:11Z</time>
      </trkpt>
      <trkpt lat="47.16258" lon="5.53855">
        <ele>286.5</ele>
        <time>2014-05-25T07:56:15Z</time>
      </trkpt>
      <trkpt lat="47.16252" lon="5.53865">
        <ele>286.2</ele>
        <time>2014-05-25T07:56:19Z</time>
      </trkpt>
      <trkpt lat="47.1624" lon="5.53891">
        <ele>287.6</ele>
        <time>2014-05-25T07:56:27Z</time>
      </trkpt>
      <trkpt lat="47.16233" lon="5.53905">
        <ele>288.8</ele>
        <time>2014-05-25T07:56:31Z</time>
      </trkpt>
      <trkpt lat="47.16224" lon="5.53916">
        <ele>289.3</ele>
        <time>2014-05-25T07:56:34Z</time>
      </trkpt>
      <trkpt lat="47.16217" lon="5.53929">
        <ele>289.4</ele>
        <time>2014-05-25T07:56:37Z</time>
      </trkpt>
      <trkpt lat="47.1621" lon="5.5394">
        <ele>289.7</ele>
        <time>2014-05-25T07:56:40Z</time>
      </trkpt>
      <trkpt lat="47.16204" lon="5.53951">
        <ele>289.9</ele>
        <time>2014-05-25T07:56:43Z</time>
      </trkpt>
      <trkpt lat="47.16195" lon="5.53962">
        <ele>289.5</ele>
        <time>2014-05-25T07:56:46Z</time>
      </trkpt>
      <trkpt lat="47.16185" lon="5.53973">
        <ele>289.2</ele>
        <time>2014-05-25T07:56:49Z</time>
      </trkpt>
      <trkpt lat="47.16178" lon="5.53982">
        <ele>288.9</ele>
        <time>2014-05-25T07:56:51Z</time>
      </trkpt>
      <trkpt lat="47.1617" lon="5.53994">
        <ele>288.5</ele>
        <time>2014-05-25T07:56:53Z</time>
      </trkpt>
      <trkpt lat="47.1616" lon="5.54009">
        <ele>287.4</ele>
        <time>2014-05-25T07:56:55Z</time>
      </trkpt>
      <trkpt lat="47.1615" lon="5.54023">
        <ele>286.4</ele>
        <time>2014-05-25T07:56:57Z</time>
      </trkpt>
      <trkpt lat="47.16138" lon="5.54042">
        <ele>284.9</ele>
        <time>2014-05-25T07:56:59Z</time>
      </trkpt>
      <trkpt lat="47.16129" lon="5.54058">
        <ele>282.9</ele>
        <time>2014-05-25T07:57:01Z</time>
      </trkpt>
      <trkpt lat="47.16123" lon="5.54078">
        <ele>281.6</ele>
        <time>2014-05-25T07:57:03Z</time>
      </trkpt>
      <trkpt lat="47.16122" lon="5.54101">
        <ele>280.5</ele>
        <time>2014-05-25T07:57:05Z</time>
      </trkpt>
      <trkpt lat="47.16123" lon="5.54125">
        <ele>279.2</ele>
        <time>2014-05-25T07:57:07Z</time>
      </trkpt>
      <trkpt lat="47.16124" lon="5.54147">
        <ele>278.1</ele>
        <time>2014-05-25T07:57:09Z</time>
      </trkpt>
      <trkpt lat="47.16123" lon="5.54168">
        <ele>277</ele>
        <time>2014-05-25T07:57:11Z</time>
      </trkpt>
      <trkpt lat="47.16121" lon="5.54189">
        <ele>275.2</ele>
        <time>2014-05-25T07:57:13Z</time>
      </trkpt>
      <trkpt lat="47.16119" lon="5.54212">
        <ele>274</ele>
        <time>2014-05-25T07:57:15Z</time>
      </trkpt>
      <trkpt lat="47.16118" lon="5.54235">
        <ele>272.8</ele>
        <time>2014-05-25T07:57:17Z</time>
      </trkpt>
      <trkpt lat="47.16118" lon="5.54259">
        <ele>271.5</ele>
        <time>2014-05-25T07:57:19Z</time>
      </trkpt>
      <trkpt lat="47.16116" lon="5.5428">
        <ele>270</ele>
        <time>2014-05-25T07:57:21Z</time>
      </trkpt>
      <trkpt lat="47.16111" lon="5.54308">
        <ele>267.4</ele>
        <time>2014-05-25T07:57:27Z</time>
      </trkpt>
      <trkpt lat="47.16117" lon="5.54322">
        <ele>267.3</ele>
        <time>2014-05-25T07:57:33Z</time>
      </trkpt>
      <trkpt lat="47.16125" lon="5.54331">
        <ele>267.4</ele>
        <time>2014-05-25T07:57:36Z</time>
      </trkpt>
      <trkpt lat="47.16133" lon="5.54341">
        <ele>267.2</ele>
        <time>2014-05-25T07:57:39Z</time>
      </trkpt>
      <trkpt lat="47.1614" lon="5.54353">
        <ele>267.5</ele>
        <time>2014-05-25T07:57:42Z</time>
      </trkpt>
      <trkpt lat="47.16148" lon="5.54362">
        <ele>268.1</ele>
        <time>2014-05-25T07:57:46Z</time>
      </trkpt>
      <trkpt lat="47.1616" lon="5.54368">
        <ele>269</ele>
        <time>2014-05-25T07:57:50Z</time>
      </trkpt>
      <trkpt lat="47.1617" lon="5.54372">
        <ele>269.8</ele>
        <time>2014-05-25T07:57:53Z</time>
      </trkpt>
      <trkpt lat="47.16179" lon="5.54375">
        <ele>270.8</ele>
        <time>2014-05-25T07:57:56Z</time>
      </trkpt>
      <trkpt lat="47.16188" lon="5.54387">
        <ele>271.6</ele>
        <time>2014-05-25T07:58:00Z</time>
      </trkpt>
      <trkpt lat="47.16196" lon="5.54401">
        <ele>272</ele>
        <time>2014-05-25T07:58:03Z</time>
      </trkpt>
      <trkpt lat="47.16204" lon="5.54414">
        <ele>272.1</ele>
        <time>2014-05-25T07:58:06Z</time>
      </trkpt>
      <trkpt lat="47.16212" lon="5.54426">
        <ele>272.2</ele>
        <time>2014-05-25T07:58:08Z</time>
      </trkpt>
      <trkpt lat="47.16222" lon="5.54435">
        <ele>273.3</ele>
        <time>2014-05-25T07:58:11Z</time>
      </trkpt>
      <trkpt lat="47.16229" lon="5.54446">
        <ele>273.6</ele>
        <time>2014-05-25T07:58:14Z</time>
      </trkpt>
      <trkpt lat="47.16239" lon="5.54457">
        <ele>273.7</ele>
        <time>2014-05-25T07:58:18Z</time>
      </trkpt>
      <trkpt lat="47.16246" lon="5.54464">
        <ele>274.3</ele>
        <time>2014-05-25T07:58:21Z</time>
      </trkpt>
      <trkpt lat="47.16255" lon="5.54475">
        <ele>274.6</ele>
        <time>2014-05-25T07:58:25Z</time>
      </trkpt>
      <trkpt lat="47.1627" lon="5.54492">
        <ele>274.7</ele>
        <time>2014-05-25T07:58:31Z</time>
      </trkpt>
      <trkpt lat="47.16278" lon="5.54499">
        <ele>275.1</ele>
        <time>2014-05-25T07:58:34Z</time>
      </trkpt>
      <trkpt lat="47.16287" lon="5.54506">
        <ele>275.8</ele>
        <time>2014-05-25T07:58:37Z</time>
      </trkpt>
      <trkpt lat="47.16298" lon="5.54513">
        <ele>276.6</ele>
        <time>2014-05-25T07:58:40Z</time>
      </trkpt>
      <trkpt lat="47.16308" lon="5.54521">
        <ele>277.1</ele>
        <time>2014-05-25T07:58:44Z</time>
      </trkpt>
      <trkpt lat="47.16317" lon="5.54528">
        <ele>277.5</ele>
        <time>2014-05-25T07:58:48Z</time>
      </trkpt>
      <trkpt lat="47.16326" lon="5.54525">
        <ele>279.1</ele>
        <time>2014-05-25T07:58:54Z</time>
      </trkpt>
      <trkpt lat="47.16332" lon="5.54515">
        <ele>281.2</ele>
        <time>2014-05-25T07:59:01Z</time>
      </trkpt>
      <trkpt lat="47.16334" lon="5.54501">
        <ele>283.3</ele>
        <time>2014-05-25T07:59:07Z</time>
      </trkpt>
      <trkpt lat="47.16338" lon="5.54485">
        <ele>284.4</ele>
        <time>2014-05-25T07:59:12Z</time>
      </trkpt>
      <trkpt lat="47.1634" lon="5.54471">
        <ele>285.3</ele>
        <time>2014-05-25T07:59:17Z</time>
      </trkpt>
      <trkpt lat="47.16341" lon="5.54457">
        <ele>286.8</ele>
        <time>2014-05-25T07:59:22Z</time>
      </trkpt>
      <trkpt lat="47.16345" lon="5.54443">
        <ele>287.7</ele>
        <time>2014-05-25T07:59:27Z</time>
      </trkpt>
      <trkpt lat="47.16348" lon="5.54412">
        <ele>289.2</ele>
        <time>2014-05-25T07:59:37Z</time>
      </trkpt>
      <trkpt lat="47.1635" lon="5.54397">
        <ele>289.7</ele>
        <time>2014-05-25T07:59:41Z</time>
      </trkpt>
      <trkpt lat="47.16351" lon="5.54383">
        <ele>290.2</ele>
        <time>2014-05-25T07:59:45Z</time>
      </trkpt>
      <trkpt lat="47.1635" lon="5.54369">
        <ele>291.1</ele>
        <time>2014-05-25T07:59:51Z</time>
      </trkpt>
      <trkpt lat="47.16357" lon="5.54358">
        <ele>291.4</ele>
        <time>2014-05-25T07:59:56Z</time>
      </trkpt>
      <trkpt lat="47.16364" lon="5.54349">
        <ele>292.6</ele>
        <time>2014-05-25T08:00:02Z</time>
      </trkpt>
      <trkpt lat="47.16373" lon="5.54342">
        <ele>292.7</ele>
        <time>2014-05-25T08:00:07Z</time>
      </trkpt>
      <trkpt lat="47.1638" lon="5.54332">
        <ele>293.9</ele>
        <time>2014-05-25T08:00:11Z</time>
      </trkpt>
      <trkpt lat="47.16389" lon="5.54323">
        <ele>294.1</ele>
        <time>2014-05-25T08:00:14Z</time>
      </trkpt>
      <trkpt lat="47.16399" lon="5.54316">
        <ele>294.1</ele>
        <time>2014-05-25T08:00:18Z</time>
      </trkpt>
      <trkpt lat="47.16406" lon="5.54305">
        <ele>293.7</ele>
        <time>2014-05-25T08:00:21Z</time>
      </trkpt>
      <trkpt lat="47.16414" lon="5.54297">
        <ele>293.6</ele>
        <time>2014-05-25T08:00:23Z</time>
      </trkpt>
      <trkpt lat="47.16423" lon="5.54287">
        <ele>292.5</ele>
        <time>2014-05-25T08:00:25Z</time>
      </trkpt>
      <trkpt lat="47.1643" lon="5.54273">
        <ele>291.7</ele>
        <time>2014-05-25T08:00:27Z</time>
      </trkpt>
      <trkpt lat="47.16435" lon="5.54259">
        <ele>290.5</ele>
        <time>2014-05-25T08:00:29Z</time>
      </trkpt>
      <trkpt lat="47.16444" lon="5.5423">
        <ele>288.4</ele>
        <time>2014-05-25T08:00:33Z</time>
      </trkpt>
      <trkpt lat="47.16446" lon="5.54214">
        <ele>287.3</ele>
        <time>2014-05-25T08:00:35Z</time>
      </trkpt>
      <trkpt lat="47.16447" lon="5.54196">
        <ele>286</ele>
        <time>2014-05-25T08:00:37Z</time>
      </trkpt>
      <trkpt lat="47.16446" lon="5.54177">
        <ele>285.1</ele>
        <time>2014-05-25T08:00:39Z</time>
      </trkpt>
      <trkpt lat="47.16443" lon="5.54158">
        <ele>284.3</ele>
        <time>2014-05-25T08:00:41Z</time>
      </trkpt>
      <trkpt lat="47.16446" lon="5.54139">
        <ele>283.4</ele>
        <time>2014-05-25T08:00:43Z</time>
      </trkpt>
      <trkpt lat="47.16452" lon="5.54126">
        <ele>283.5</ele>
        <time>2014-05-25T08:00:45Z</time>
      </trkpt>
      <trkpt lat="47.16462" lon="5.54118">
        <ele>282.6</ele>
        <time>2014-05-25T08:00:47Z</time>
      </trkpt>
      <trkpt lat="47.16472" lon="5.54112">
        <ele>281.8</ele>
        <time>2014-05-25T08:00:49Z</time>
      </trkpt>
      <trkpt lat="47.16485" lon="5.54111">
        <ele>281.5</ele>
        <time>2014-05-25T08:00:52Z</time>
      </trkpt>
      <trkpt lat="47.16495" lon="5.54116">
        <ele>281.6</ele>
        <time>2014-05-25T08:00:56Z</time>
      </trkpt>
      <trkpt lat="47.16505" lon="5.5412">
        <ele>282.2</ele>
        <time>2014-05-25T08:01:02Z</time>
      </trkpt>
      <trkpt lat="47.16514" lon="5.54123">
        <ele>295</ele>
        <time>2014-05-25T08:01:55Z</time>
      </trkpt>
      <trkpt lat="47.1653" lon="5.54146">
        <ele>297.3</ele>
        <time>2014-05-25T08:02:07Z</time>
      </trkpt>
      <trkpt lat="47.16536" lon="5.54157">
        <ele>297.7</ele>
        <time>2014-05-25T08:02:09Z</time>
      </trkpt>
      <trkpt lat="47.16543" lon="5.54167">
        <ele>297.7</ele>
        <time>2014-05-25T08:02:11Z</time>
      </trkpt>
      <trkpt lat="47.16551" lon="5.54175">
        <ele>298.3</ele>
        <time>2014-05-25T08:02:14Z</time>
      </trkpt>
      <trkpt lat="47.16558" lon="5.54183">
        <ele>298.4</ele>
        <time>2014-05-25T08:02:16Z</time>
      </trkpt>
      <trkpt lat="47.16566" lon="5.54193">
        <ele>298.9</ele>
        <time>2014-05-25T08:02:19Z</time>
      </trkpt>
      <trkpt lat="47.16578" lon="5.54206">
        <ele>298.7</ele>
        <time>2014-05-25T08:02:22Z</time>
      </trkpt>
      <trkpt lat="47.16587" lon="5.54214">
        <ele>298.9</ele>
        <time>2014-05-25T08:02:24Z</time>
      </trkpt>
      <trkpt lat="47.16595" lon="5.54226">
        <ele>298.7</ele>
        <time>2014-05-25T08:02:26Z</time>
      </trkpt>
      <trkpt lat="47.16603" lon="5.54239">
        <ele>299.1</ele>
        <time>2014-05-25T08:02:28Z</time>
      </trkpt>
      <trkpt lat="47.16611" lon="5.54248">
        <ele>299.3</ele>
        <time>2014-05-25T08:02:30Z</time>
      </trkpt>
      <trkpt lat="47.1662" lon="5.54259">
        <ele>300</ele>
        <time>2014-05-25T08:02:33Z</time>
      </trkpt>
      <trkpt lat="47.1663" lon="5.54269">
        <ele>300.4</ele>
        <time>2014-05-25T08:02:36Z</time>
      </trkpt>
      <trkpt lat="47.16639" lon="5.54277">
        <ele>300.5</ele>
        <time>2014-05-25T08:02:39Z</time>
      </trkpt>
      <trkpt lat="47.16651" lon="5.54288">
        <ele>301.1</ele>
        <time>2014-05-25T08:02:42Z</time>
      </trkpt>
      <trkpt lat="47.16657" lon="5.54299">
        <ele>301.7</ele>
        <time>2014-05-25T08:02:44Z</time>
      </trkpt>
      <trkpt lat="47.16671" lon="5.54304">
        <ele>302.1</ele>
        <time>2014-05-25T08:02:46Z</time>
      </trkpt>
      <trkpt lat="47.1668" lon="5.54313">
        <ele>303</ele>
        <time>2014-05-25T08:02:49Z</time>
      </trkpt>
      <trkpt lat="47.16688" lon="5.54323">
        <ele>304.1</ele>
        <time>2014-05-25T08:02:53Z</time>
      </trkpt>
      <trkpt lat="47.16697" lon="5.54332">
        <ele>304.4</ele>
        <time>2014-05-25T08:02:57Z</time>
      </trkpt>
      <trkpt lat="47.16712" lon="5.5435">
        <ele>304.7</ele>
        <time>2014-05-25T08:03:06Z</time>
      </trkpt>
      <trkpt lat="47.16719" lon="5.54359">
        <ele>304.4</ele>
        <time>2014-05-25T08:03:11Z</time>
      </trkpt>
      <trkpt lat="47.16727" lon="5.54372">
        <ele>304.2</ele>
        <time>2014-05-25T08:03:16Z</time>
      </trkpt>
      <trkpt lat="47.16732" lon="5.54385">
        <ele>302.7</ele>
        <time>2014-05-25T08:03:21Z</time>
      </trkpt>
      <trkpt lat="47.1674" lon="5.54395">
        <ele>284</ele>
        <time>2014-05-25T08:04:22Z</time>
      </trkpt>
      <trkpt lat="47.1676" lon="5.54409">
        <ele>281.2</ele>
        <time>2014-05-25T08:04:29Z</time>
      </trkpt>
      <trkpt lat="47.1677" lon="5.54415">
        <ele>281</ele>
        <time>2014-05-25T08:04:33Z</time>
      </trkpt>
      <trkpt lat="47.16779" lon="5.54423">
        <ele>280.4</ele>
        <time>2014-05-25T08:04:37Z</time>
      </trkpt>
      <trkpt lat="47.16792" lon="5.54454">
        <ele>285</ele>
        <time>2014-05-25T08:04:59Z</time>
      </trkpt>
      <trkpt lat="47.16794" lon="5.5447">
        <ele>286.7</ele>
        <time>2014-05-25T08:05:06Z</time>
      </trkpt>
      <trkpt lat="47.16797" lon="5.54482">
        <ele>287.8</ele>
        <time>2014-05-25T08:05:12Z</time>
      </trkpt>
      <trkpt lat="47.16802" lon="5.54494">
        <ele>288.9</ele>
        <time>2014-05-25T08:05:18Z</time>
      </trkpt>
      <trkpt lat="47.1681" lon="5.54501">
        <ele>291.9</ele>
        <time>2014-05-25T08:05:34Z</time>
      </trkpt>
      <trkpt lat="47.16824" lon="5.54524">
        <ele>296.4</ele>
        <time>2014-05-25T08:07:27Z</time>
      </trkpt>
      <trkpt lat="47.16835" lon="5.54545">
        <ele>303.6</ele>
        <time>2014-05-25T08:08:07Z</time>
      </trkpt>
      <trkpt lat="47.16838" lon="5.54559">
        <ele>306</ele>
        <time>2014-05-25T08:08:19Z</time>
      </trkpt>
      <trkpt lat="47.16838" lon="5.54573">
        <ele>307.6</ele>
        <time>2014-05-25T08:08:31Z</time>
      </trkpt>
      <trkpt lat="47.16829" lon="5.54598">
        <ele>310.8</ele>
        <time>2014-05-25T08:08:49Z</time>
      </trkpt>
      <trkpt lat="47.16823" lon="5.5461">
        <ele>311.5</ele>
        <time>2014-05-25T08:08:56Z</time>
      </trkpt>
      <trkpt lat="47.16816" lon="5.5462">
        <ele>312.9</ele>
        <time>2014-05-25T08:09:02Z</time>
      </trkpt>
      <trkpt lat="47.16807" lon="5.5463">
        <ele>313.4</ele>
        <time>2014-05-25T08:09:05Z</time>
      </trkpt>
      <trkpt lat="47.16801" lon="5.54641">
        <ele>314.8</ele>
        <time>2014-05-25T08:09:10Z</time>
      </trkpt>
      <trkpt lat="47.16802" lon="5.54655">
        <ele>317.1</ele>
        <time>2014-05-25T08:09:17Z</time>
      </trkpt>
      <trkpt lat="47.16811" lon="5.54657">
        <ele>318.7</ele>
        <time>2014-05-25T08:09:25Z</time>
      </trkpt>
      <trkpt lat="47.16822" lon="5.54656">
        <ele>319.3</ele>
        <time>2014-05-25T08:09:32Z</time>
      </trkpt>
      <trkpt lat="47.16842" lon="5.54658">
        <ele>321.6</ele>
        <time>2014-05-25T08:09:44Z</time>
      </trkpt>
      <trkpt lat="47.16851" lon="5.54656">
        <ele>322.7</ele>
        <time>2014-05-25T08:09:49Z</time>
      </trkpt>
      <trkpt lat="47.1686" lon="5.54654">
        <ele>322.9</ele>
        <time>2014-05-25T08:09:54Z</time>
      </trkpt>
      <trkpt lat="47.16869" lon="5.54654">
        <ele>323.5</ele>
        <time>2014-05-25T08:10:03Z</time>
      </trkpt>
      <trkpt lat="47.16879" lon="5.54657">
        <ele>325.3</ele>
        <time>2014-05-25T08:10:12Z</time>
      </trkpt>
      <trkpt lat="47.16888" lon="5.54661">
        <ele>327.1</ele>
        <time>2014-05-25T08:10:18Z</time>
      </trkpt>
      <trkpt lat="47.16897" lon="5.54667">
        <ele>328.8</ele>
        <time>2014-05-25T08:10:25Z</time>
      </trkpt>
      <trkpt lat="47.16906" lon="5.5467">
        <ele>330.8</ele>
        <time>2014-05-25T08:10:35Z</time>
      </trkpt>
      <trkpt lat="47.16922" lon="5.54685">
        <ele>333.1</ele>
        <time>2014-05-25T08:10:59Z</time>
      </trkpt>
      <trkpt lat="47.16928" lon="5.54694">
        <ele>334.2</ele>
        <time>2014-05-25T08:11:08Z</time>
      </trkpt>
      <trkpt lat="47.16935" lon="5.54705">
        <ele>335.5</ele>
        <time>2014-05-25T08:11:17Z</time>
      </trkpt>
      <trkpt lat="47.16942" lon="5.54716">
        <ele>336.6</ele>
        <time>2014-05-25T08:11:22Z</time>
      </trkpt>
      <trkpt lat="47.16949" lon="5.54726">
        <ele>337.9</ele>
        <time>2014-05-25T08:11:28Z</time>
      </trkpt>
      <trkpt lat="47.16955" lon="5.54735">
        <ele>337.4</ele>
        <time>2014-05-25T08:11:33Z</time>
      </trkpt>
      <trkpt lat="47.16964" lon="5.54746">
        <ele>337.9</ele>
        <time>2014-05-25T08:11:38Z</time>
      </trkpt>
      <trkpt lat="47.16984" lon="5.54761">
        <ele>338.3</ele>
        <time>2014-05-25T08:11:45Z</time>
      </trkpt>
      <trkpt lat="47.16991" lon="5.54773">
        <ele>338.5</ele>
        <time>2014-05-25T08:11:49Z</time>
      </trkpt>
      <trkpt lat="47.16998" lon="5.54784">
        <ele>339.1</ele>
        <time>2014-05-25T08:11:51Z</time>
      </trkpt>
      <trkpt lat="47.17004" lon="5.54793">
        <ele>338.7</ele>
        <time>2014-05-25T08:11:53Z</time>
      </trkpt>
      <trkpt lat="47.17013" lon="5.54804">
        <ele>337.3</ele>
        <time>2014-05-25T08:11:56Z</time>
      </trkpt>
      <trkpt lat="47.17019" lon="5.54816">
        <ele>337.3</ele>
        <time>2014-05-25T08:11:58Z</time>
      </trkpt>
      <trkpt lat="47.17026" lon="5.54829">
        <ele>336.3</ele>
        <time>2014-05-25T08:12:00Z</time>
      </trkpt>
      <trkpt lat="47.17033" lon="5.54844">
        <ele>335.3</ele>
        <time>2014-05-25T08:12:02Z</time>
      </trkpt>
      <trkpt lat="47.17037" lon="5.54864">
        <ele>334.3</ele>
        <time>2014-05-25T08:12:04Z</time>
      </trkpt>
      <trkpt lat="47.17043" lon="5.5488">
        <ele>332.6</ele>
        <time>2014-05-25T08:12:06Z</time>
      </trkpt>
      <trkpt lat="47.1705" lon="5.54895">
        <ele>331.7</ele>
        <time>2014-05-25T08:12:08Z</time>
      </trkpt>
      <trkpt lat="47.17055" lon="5.54907">
        <ele>329.8</ele>
        <time>2014-05-25T08:12:10Z</time>
      </trkpt>
      <trkpt lat="47.17061" lon="5.5492">
        <ele>328.8</ele>
        <time>2014-05-25T08:12:12Z</time>
      </trkpt>
      <trkpt lat="47.17065" lon="5.54934">
        <ele>327.5</ele>
        <time>2014-05-25T08:12:14Z</time>
      </trkpt>
      <trkpt lat="47.17067" lon="5.54949">
        <ele>326.2</ele>
        <time>2014-05-25T08:12:16Z</time>
      </trkpt>
      <trkpt lat="47.17068" lon="5.54968">
        <ele>324.8</ele>
        <time>2014-05-25T08:12:18Z</time>
      </trkpt>
      <trkpt lat="47.17067" lon="5.54993">
        <ele>323</ele>
        <time>2014-05-25T08:12:20Z</time>
      </trkpt>
      <trkpt lat="47.17066" lon="5.55006">
        <ele>322.5</ele>
        <time>2014-05-25T08:12:21Z</time>
      </trkpt>
      <trkpt lat="47.17067" lon="5.5503">
        <ele>321.2</ele>
        <time>2014-05-25T08:12:23Z</time>
      </trkpt>
      <trkpt lat="47.17068" lon="5.55051">
        <ele>320</ele>
        <time>2014-05-25T08:12:25Z</time>
      </trkpt>
      <trkpt lat="47.17075" lon="5.55073">
        <ele>318.5</ele>
        <time>2014-05-25T08:12:27Z</time>
      </trkpt>
      <trkpt lat="47.17083" lon="5.55091">
        <ele>316.7</ele>
        <time>2014-05-25T08:12:29Z</time>
      </trkpt>
      <trkpt lat="47.17095" lon="5.55103">
        <ele>315.3</ele>
        <time>2014-05-25T08:12:31Z</time>
      </trkpt>
      <trkpt lat="47.17109" lon="5.55116">
        <ele>313.8</ele>
        <time>2014-05-25T08:12:33Z</time>
      </trkpt>
      <trkpt lat="47.1712" lon="5.55132">
        <ele>312.6</ele>
        <time>2014-05-25T08:12:35Z</time>
      </trkpt>
      <trkpt lat="47.17135" lon="5.55149">
        <ele>311</ele>
        <time>2014-05-25T08:12:37Z</time>
      </trkpt>
      <trkpt lat="47.17142" lon="5.55158">
        <ele>310.4</ele>
        <time>2014-05-25T08:12:38Z</time>
      </trkpt>
      <trkpt lat="47.17149" lon="5.55168">
        <ele>309.2</ele>
        <time>2014-05-25T08:12:39Z</time>
      </trkpt>
      <trkpt lat="47.17157" lon="5.55176">
        <ele>308.5</ele>
        <time>2014-05-25T08:12:40Z</time>
      </trkpt>
      <trkpt lat="47.17179" lon="5.55198">
        <ele>305.2</ele>
        <time>2014-05-25T08:12:44Z</time>
      </trkpt>
      <trkpt lat="47.17187" lon="5.55213">
        <ele>303.7</ele>
        <time>2014-05-25T08:12:46Z</time>
      </trkpt>
      <trkpt lat="47.17193" lon="5.5523">
        <ele>302.6</ele>
        <time>2014-05-25T08:12:48Z</time>
      </trkpt>
      <trkpt lat="47.17198" lon="5.5525">
        <ele>301.4</ele>
        <time>2014-05-25T08:12:50Z</time>
      </trkpt>
      <trkpt lat="47.17201" lon="5.55275">
        <ele>300.7</ele>
        <time>2014-05-25T08:12:52Z</time>
      </trkpt>
      <trkpt lat="47.17203" lon="5.55299">
        <ele>299.6</ele>
        <time>2014-05-25T08:12:54Z</time>
      </trkpt>
      <trkpt lat="47.17206" lon="5.5532">
        <ele>298.4</ele>
        <time>2014-05-25T08:12:56Z</time>
      </trkpt>
      <trkpt lat="47.17209" lon="5.55339">
        <ele>296.9</ele>
        <time>2014-05-25T08:12:58Z</time>
      </trkpt>
      <trkpt lat="47.1721" lon="5.55361">
        <ele>295.4</ele>
        <time>2014-05-25T08:13:00Z</time>
      </trkpt>
      <trkpt lat="47.17209" lon="5.5538">
        <ele>293.2</ele>
        <time>2014-05-25T08:13:02Z</time>
      </trkpt>
      <trkpt lat="47.1721" lon="5.55396">
        <ele>290.8</ele>
        <time>2014-05-25T08:13:04Z</time>
      </trkpt>
      <trkpt lat="47.17214" lon="5.55413">
        <ele>288.8</ele>
        <time>2014-05-25T08:13:07Z</time>
      </trkpt>
      <trkpt lat="47.17222" lon="5.55429">
        <ele>286.3</ele>
        <time>2014-05-25T08:13:10Z</time>
      </trkpt>
      <trkpt lat="47.17229" lon="5.5544">
        <ele>284.6</ele>
        <time>2014-05-25T08:13:12Z</time>
      </trkpt>
      <trkpt lat="47.17233" lon="5.55458">
        <ele>282.2</ele>
        <time>2014-05-25T08:13:15Z</time>
      </trkpt>
      <trkpt lat="47.17235" lon="5.55474">
        <ele>280.6</ele>
        <time>2014-05-25T08:13:18Z</time>
      </trkpt>
      <trkpt lat="47.17239" lon="5.55487">
        <ele>279.4</ele>
        <time>2014-05-25T08:13:22Z</time>
      </trkpt>
      <trkpt lat="47.17246" lon="5.55496">
        <ele>279.3</ele>
        <time>2014-05-25T08:13:25Z</time>
      </trkpt>
      <trkpt lat="47.17253" lon="5.55508">
        <ele>281</ele>
        <time>2014-05-25T08:13:29Z</time>
      </trkpt>
      <trkpt lat="47.17262" lon="5.55515">
        <ele>282.4</ele>
        <time>2014-05-25T08:13:33Z</time>
      </trkpt>
      <trkpt lat="47.17274" lon="5.55516">
        <ele>282</ele>
        <time>2014-05-25T08:13:36Z</time>
      </trkpt>
      <trkpt lat="47.17283" lon="5.55513">
        <ele>281.7</ele>
        <time>2014-05-25T08:13:38Z</time>
      </trkpt>
      <trkpt lat="47.17292" lon="5.55509">
        <ele>281.6</ele>
        <time>2014-05-25T08:13:40Z</time>
      </trkpt>
      <trkpt lat="47.17303" lon="5.55506">
        <ele>281.4</ele>
        <time>2014-05-25T08:13:42Z</time>
      </trkpt>
      <trkpt lat="47.17326" lon="5.55501">
        <ele>282</ele>
        <time>2014-05-25T08:13:48Z</time>
      </trkpt>
      <trkpt lat="47.17339" lon="5.55501">
        <ele>282.4</ele>
        <time>2014-05-25T08:13:51Z</time>
      </trkpt>
      <trkpt lat="47.17351" lon="5.55501">
        <ele>282.1</ele>
        <time>2014-05-25T08:13:54Z</time>
      </trkpt>
      <trkpt lat="47.17362" lon="5.55504">
        <ele>282.4</ele>
        <time>2014-05-25T08:13:57Z</time>
      </trkpt>
      <trkpt lat="47.17373" lon="5.55507">
        <ele>282.2</ele>
        <time>2014-05-25T08:14:01Z</time>
      </trkpt>
      <trkpt lat="47.17382" lon="5.55508">
        <ele>282.4</ele>
        <time>2014-05-25T08:14:04Z</time>
      </trkpt>
      <trkpt lat="47.17392" lon="5.55509">
        <ele>282.8</ele>
        <time>2014-05-25T08:14:08Z</time>
      </trkpt>
      <trkpt lat="47.17402" lon="5.55505">
        <ele>285.2</ele>
        <time>2014-05-25T08:14:14Z</time>
      </trkpt>
      <trkpt lat="47.17414" lon="5.55507">
        <ele>286.1</ele>
        <time>2014-05-25T08:14:18Z</time>
      </trkpt>
      <trkpt lat="47.17425" lon="5.55507">
        <ele>285.9</ele>
        <time>2014-05-25T08:14:22Z</time>
      </trkpt>
      <trkpt lat="47.17434" lon="5.55508">
        <ele>286.2</ele>
        <time>2014-05-25T08:14:25Z</time>
      </trkpt>
      <trkpt lat="47.17443" lon="5.55504">
        <ele>287.6</ele>
        <time>2014-05-25T08:14:30Z</time>
      </trkpt>
      <trkpt lat="47.17451" lon="5.55497">
        <ele>290</ele>
        <time>2014-05-25T08:14:37Z</time>
      </trkpt>
      <trkpt lat="47.17461" lon="5.55494">
        <ele>292.8</ele>
        <time>2014-05-25T08:14:45Z</time>
      </trkpt>
      <trkpt lat="47.17483" lon="5.55495">
        <ele>292.6</ele>
        <time>2014-05-25T08:14:54Z</time>
      </trkpt>
      <trkpt lat="47.17493" lon="5.55498">
        <ele>292.3</ele>
        <time>2014-05-25T08:14:57Z</time>
      </trkpt>
      <trkpt lat="47.17504" lon="5.555">
        <ele>292.9</ele>
        <time>2014-05-25T08:15:00Z</time>
      </trkpt>
      <trkpt lat="47.17514" lon="5.55501">
        <ele>293.4</ele>
        <time>2014-05-25T08:15:03Z</time>
      </trkpt>
      <trkpt lat="47.17523" lon="5.55499">
        <ele>292.9</ele>
        <time>2014-05-25T08:15:06Z</time>
      </trkpt>
      <trkpt lat="47.17532" lon="5.55493">
        <ele>292.6</ele>
        <time>2014-05-25T08:15:08Z</time>
      </trkpt>
      <trkpt lat="47.17542" lon="5.55487">
        <ele>291.9</ele>
        <time>2014-05-25T08:15:11Z</time>
      </trkpt>
      <trkpt lat="47.17551" lon="5.55482">
        <ele>294.2</ele>
        <time>2014-05-25T08:15:19Z</time>
      </trkpt>
      <trkpt lat="47.17558" lon="5.55471">
        <ele>294.4</ele>
        <time>2014-05-25T08:15:29Z</time>
      </trkpt>
      <trkpt lat="47.17567" lon="5.55464">
        <ele>296.2</ele>
        <time>2014-05-25T08:15:35Z</time>
      </trkpt>
      <trkpt lat="47.17576" lon="5.55458">
        <ele>297</ele>
        <time>2014-05-25T08:15:41Z</time>
      </trkpt>
      <trkpt lat="47.17585" lon="5.55459">
        <ele>298.3</ele>
        <time>2014-05-25T08:15:48Z</time>
      </trkpt>
      <trkpt lat="47.17601" lon="5.55481">
        <ele>301.1</ele>
        <time>2014-05-25T08:16:03Z</time>
      </trkpt>
      <trkpt lat="47.17602" lon="5.55497">
        <ele>301.1</ele>
        <time>2014-05-25T08:16:07Z</time>
      </trkpt>
      <trkpt lat="47.17604" lon="5.55514">
        <ele>300.6</ele>
        <time>2014-05-25T08:16:10Z</time>
      </trkpt>
      <trkpt lat="47.17607" lon="5.55527">
        <ele>300.1</ele>
        <time>2014-05-25T08:16:12Z</time>
      </trkpt>
      <trkpt lat="47.17611" lon="5.55539">
        <ele>300.1</ele>
        <time>2014-05-25T08:16:17Z</time>
      </trkpt>
      <trkpt lat="47.17608" lon="5.55551">
        <ele>300.1</ele>
        <time>2014-05-25T08:16:22Z</time>
      </trkpt>
      <trkpt lat="47.17607" lon="5.55567">
        <ele>299.2</ele>
        <time>2014-05-25T08:16:26Z</time>
      </trkpt>
      <trkpt lat="47.17614" lon="5.55576">
        <ele>299.6</ele>
        <time>2014-05-25T08:16:47Z</time>
      </trkpt>
      <trkpt lat="47.17622" lon="5.55584">
        <ele>299.8</ele>
        <time>2014-05-25T08:16:51Z</time>
      </trkpt>
      <trkpt lat="47.1764" lon="5.55595">
        <ele>302.6</ele>
        <time>2014-05-25T08:17:05Z</time>
      </trkpt>
      <trkpt lat="47.17647" lon="5.55604">
        <ele>303.9</ele>
        <time>2014-05-25T08:17:11Z</time>
      </trkpt>
      <trkpt lat="47.17655" lon="5.55614">
        <ele>304.5</ele>
        <time>2014-05-25T08:17:17Z</time>
      </trkpt>
      <trkpt lat="47.17663" lon="5.55622">
        <ele>306.2</ele>
        <time>2014-05-25T08:17:22Z</time>
      </trkpt>
      <trkpt lat="47.17672" lon="5.55629">
        <ele>307.2</ele>
        <time>2014-05-25T08:17:26Z</time>
      </trkpt>
      <trkpt lat="47.1768" lon="5.55635">
        <ele>307.6</ele>
        <time>2014-05-25T08:17:30Z</time>
      </trkpt>
      <trkpt lat="47.1769" lon="5.55639">
        <ele>308.8</ele>
        <time>2014-05-25T08:17:35Z</time>
      </trkpt>
      <trkpt lat="47.17698" lon="5.55648">
        <ele>310.2</ele>
        <time>2014-05-25T08:17:40Z</time>
      </trkpt>
      <trkpt lat="47.17706" lon="5.55656">
        <ele>311.7</ele>
        <time>2014-05-25T08:17:45Z</time>
      </trkpt>
      <trkpt lat="47.17712" lon="5.55665">
        <ele>311.8</ele>
        <time>2014-05-25T08:17:49Z</time>
      </trkpt>
      <trkpt lat="47.17721" lon="5.55673">
        <ele>312.1</ele>
        <time>2014-05-25T08:17:52Z</time>
      </trkpt>
      <trkpt lat="47.17731" lon="5.5568">
        <ele>313</ele>
        <time>2014-05-25T08:17:57Z</time>
      </trkpt>
      <trkpt lat="47.1775" lon="5.55697">
        <ele>313.9</ele>
        <time>2014-05-25T08:18:06Z</time>
      </trkpt>
      <trkpt lat="47.17759" lon="5.55705">
        <ele>313.8</ele>
        <time>2014-05-25T08:18:09Z</time>
      </trkpt>
      <trkpt lat="47.17769" lon="5.5571">
        <ele>313.4</ele>
        <time>2014-05-25T08:18:12Z</time>
      </trkpt>
      <trkpt lat="47.1778" lon="5.55713">
        <ele>313.5</ele>
        <time>2014-05-25T08:18:15Z</time>
      </trkpt>
      <trkpt lat="47.17789" lon="5.55714">
        <ele>314.1</ele>
        <time>2014-05-25T08:18:18Z</time>
      </trkpt>
      <trkpt lat="47.17801" lon="5.55718">
        <ele>314.7</ele>
        <time>2014-05-25T08:18:22Z</time>
      </trkpt>
      <trkpt lat="47.1781" lon="5.55723">
        <ele>315</ele>
        <time>2014-05-25T08:18:25Z</time>
      </trkpt>
      <trkpt lat="47.17821" lon="5.55726">
        <ele>315.8</ele>
        <time>2014-05-25T08:18:29Z</time>
      </trkpt>
      <trkpt lat="47.17831" lon="5.55727">
        <ele>315.9</ele>
        <time>2014-05-25T08:18:33Z</time>
      </trkpt>
      <trkpt lat="47.17842" lon="5.55727">
        <ele>316.9</ele>
        <time>2014-05-25T08:18:37Z</time>
      </trkpt>
      <trkpt lat="47.17852" lon="5.55731">
        <ele>317.3</ele>
        <time>2014-05-25T08:18:41Z</time>
      </trkpt>
      <trkpt lat="47.17862" lon="5.55735">
        <ele>318.7</ele>
        <time>2014-05-25T08:18:47Z</time>
      </trkpt>
      <trkpt lat="47.17872" lon="5.55738">
        <ele>319.9</ele>
        <time>2014-05-25T08:18:52Z</time>
      </trkpt>
      <trkpt lat="47.17882" lon="5.5574">
        <ele>321.6</ele>
        <time>2014-05-25T08:18:57Z</time>
      </trkpt>
      <trkpt lat="47.1789" lon="5.55747">
        <ele>323.1</ele>
        <time>2014-05-25T08:19:03Z</time>
      </trkpt>
      <trkpt lat="47.17906" lon="5.55763">
        <ele>325.5</ele>
        <time>2014-05-25T08:19:16Z</time>
      </trkpt>
      <trkpt lat="47.17913" lon="5.55772">
        <ele>327</ele>
        <time>2014-05-25T08:19:23Z</time>
      </trkpt>
      <trkpt lat="47.17921" lon="5.5578">
        <ele>328.4</ele>
        <time>2014-05-25T08:19:27Z</time>
      </trkpt>
      <trkpt lat="47.1793" lon="5.55784">
        <ele>329.3</ele>
        <time>2014-05-25T08:19:33Z</time>
      </trkpt>
      <trkpt lat="47.1794" lon="5.55784">
        <ele>330.7</ele>
        <time>2014-05-25T08:19:39Z</time>
      </trkpt>
      <trkpt lat="47.1795" lon="5.55782">
        <ele>332</ele>
        <time>2014-05-25T08:19:46Z</time>
      </trkpt>
      <trkpt lat="47.1796" lon="5.55784">
        <ele>333.1</ele>
        <time>2014-05-25T08:19:54Z</time>
      </trkpt>
      <trkpt lat="47.17969" lon="5.55786">
        <ele>334.7</ele>
        <time>2014-05-25T08:20:01Z</time>
      </trkpt>
      <trkpt lat="47.17976" lon="5.55776">
        <ele>336.6</ele>
        <time>2014-05-25T08:20:13Z</time>
      </trkpt>
      <trkpt lat="47.17989" lon="5.55755">
        <ele>339.1</ele>
        <time>2014-05-25T08:20:26Z</time>
      </trkpt>
      <trkpt lat="47.17994" lon="5.55743">
        <ele>339.9</ele>
        <time>2014-05-25T08:20:30Z</time>
      </trkpt>
      <trkpt lat="47.17999" lon="5.55731">
        <ele>340.3</ele>
        <time>2014-05-25T08:20:34Z</time>
      </trkpt>
      <trkpt lat="47.18005" lon="5.5572">
        <ele>340.9</ele>
        <time>2014-05-25T08:20:38Z</time>
      </trkpt>
      <trkpt lat="47.1801" lon="5.55709">
        <ele>340.7</ele>
        <time>2014-05-25T08:20:42Z</time>
      </trkpt>
      <trkpt lat="47.18018" lon="5.55698">
        <ele>341.7</ele>
        <time>2014-05-25T08:20:48Z</time>
      </trkpt>
      <trkpt lat="47.18025" lon="5.55686">
        <ele>342.7</ele>
        <time>2014-05-25T08:20:53Z</time>
      </trkpt>
      <trkpt lat="47.18032" lon="5.55673">
        <ele>342.8</ele>
        <time>2014-05-25T08:20:57Z</time>
      </trkpt>
      <trkpt lat="47.18037" lon="5.55657">
        <ele>342.9</ele>
        <time>2014-05-25T08:21:01Z</time>
      </trkpt>
      <trkpt lat="47.18042" lon="5.55645">
        <ele>343.6</ele>
        <time>2014-05-25T08:21:06Z</time>
      </trkpt>
      <trkpt lat="47.1805" lon="5.55634">
        <ele>344</ele>
        <time>2014-05-25T08:21:10Z</time>
      </trkpt>
      <trkpt lat="47.18055" lon="5.5562">
        <ele>344.4</ele>
        <time>2014-05-25T08:21:14Z</time>
      </trkpt>
      <trkpt lat="47.18062" lon="5.55607">
        <ele>344.4</ele>
        <time>2014-05-25T08:21:18Z</time>
      </trkpt>
      <trkpt lat="47.18076" lon="5.55583">
        <ele>343.5</ele>
        <time>2014-05-25T08:21:22Z</time>
      </trkpt>
      <trkpt lat="47.18082" lon="5.5557">
        <ele>343.2</ele>
        <time>2014-05-25T08:21:24Z</time>
      </trkpt>
      <trkpt lat="47.1809" lon="5.55557">
        <ele>343.3</ele>
        <time>2014-05-25T08:21:27Z</time>
      </trkpt>
      <trkpt lat="47.18098" lon="5.5555">
        <ele>343</ele>
        <time>2014-05-25T08:21:30Z</time>
      </trkpt>
      <trkpt lat="47.18108" lon="5.55554">
        <ele>344</ele>
        <time>2014-05-25T08:21:35Z</time>
      </trkpt>
      <trkpt lat="47.18118" lon="5.5556">
        <ele>345.2</ele>
        <time>2014-05-25T08:21:40Z</time>
      </trkpt>
      <trkpt lat="47.18128" lon="5.55565">
        <ele>345.5</ele>
        <time>2014-05-25T08:21:45Z</time>
      </trkpt>
      <trkpt lat="47.18137" lon="5.55572">
        <ele>346.1</ele>
        <time>2014-05-25T08:21:50Z</time>
      </trkpt>
      <trkpt lat="47.18145" lon="5.55583">
        <ele>347</ele>
        <time>2014-05-25T08:21:55Z</time>
      </trkpt>
      <trkpt lat="47.18155" lon="5.55591">
        <ele>347.6</ele>
        <time>2014-05-25T08:21:59Z</time>
      </trkpt>
      <trkpt lat="47.18164" lon="5.55599">
        <ele>347.2</ele>
        <time>2014-05-25T08:22:03Z</time>
      </trkpt>
      <trkpt lat="47.18173" lon="5.55607">
        <ele>347.9</ele>
        <time>2014-05-25T08:22:08Z</time>
      </trkpt>
      <trkpt lat="47.18183" lon="5.55616">
        <ele>348.4</ele>
        <time>2014-05-25T08:22:12Z</time>
      </trkpt>
      <trkpt lat="47.1819" lon="5.55624">
        <ele>348.6</ele>
        <time>2014-05-25T08:22:16Z</time>
      </trkpt>
      <trkpt lat="47.18198" lon="5.55633">
        <ele>350.1</ele>
        <time>2014-05-25T08:22:21Z</time>
      </trkpt>
      <trkpt lat="47.18214" lon="5.55651">
        <ele>352.4</ele>
        <time>2014-05-25T08:22:31Z</time>
      </trkpt>
      <trkpt lat="47.18221" lon="5.5566">
        <ele>353</ele>
        <time>2014-05-25T08:22:35Z</time>
      </trkpt>
      <trkpt lat="47.18227" lon="5.5567">
        <ele>354.4</ele>
        <time>2014-05-25T08:22:40Z</time>
      </trkpt>
      <trkpt lat="47.18234" lon="5.55679">
        <ele>355.7</ele>
        <time>2014-05-25T08:22:46Z</time>
      </trkpt>
      <trkpt lat="47.18241" lon="5.55689">
        <ele>357.2</ele>
        <time>2014-05-25T08:22:51Z</time>
      </trkpt>
      <trkpt lat="47.18249" lon="5.557">
        <ele>358</ele>
        <time>2014-05-25T08:22:57Z</time>
      </trkpt>
      <trkpt lat="47.18256" lon="5.55712">
        <ele>358.6</ele>
        <time>2014-05-25T08:23:01Z</time>
      </trkpt>
      <trkpt lat="47.18262" lon="5.55724">
        <ele>358.8</ele>
        <time>2014-05-25T08:23:06Z</time>
      </trkpt>
      <trkpt lat="47.18271" lon="5.55731">
        <ele>359.2</ele>
        <time>2014-05-25T08:23:11Z</time>
      </trkpt>
      <trkpt lat="47.18279" lon="5.55739">
        <ele>359.8</ele>
        <time>2014-05-25T08:23:15Z</time>
      </trkpt>
      <trkpt lat="47.18287" lon="5.55749">
        <ele>360.3</ele>
        <time>2014-05-25T08:23:20Z</time>
      </trkpt>
      <trkpt lat="47.18297" lon="5.55757">
        <ele>360.7</ele>
        <time>2014-05-25T08:23:24Z</time>
      </trkpt>
      <trkpt lat="47.18315" lon="5.55769">
        <ele>361.7</ele>
        <time>2014-05-25T08:23:31Z</time>
      </trkpt>
      <trkpt lat="47.18323" lon="5.55778">
        <ele>362.1</ele>
        <time>2014-05-25T08:23:34Z</time>
      </trkpt>
      <trkpt lat="47.18331" lon="5.55785">
        <ele>361.9</ele>
        <time>2014-05-25T08:23:37Z</time>
      </trkpt>
      <trkpt lat="47.18339" lon="5.55795">
        <ele>362.5</ele>
        <time>2014-05-25T08:23:41Z</time>
      </trkpt>
      <trkpt lat="47.18347" lon="5.55807">
        <ele>362.4</ele>
        <time>2014-05-25T08:23:45Z</time>
      </trkpt>
      <trkpt lat="47.18354" lon="5.55818">
        <ele>363.2</ele>
        <time>2014-05-25T08:23:49Z</time>
      </trkpt>
      <trkpt lat="47.1836" lon="5.55828">
        <ele>363.9</ele>
        <time>2014-05-25T08:23:54Z</time>
      </trkpt>
      <trkpt lat="47.18368" lon="5.55837">
        <ele>365.4</ele>
        <time>2014-05-25T08:23:59Z</time>
      </trkpt>
      <trkpt lat="47.18381" lon="5.55845">
        <ele>365.4</ele>
        <time>2014-05-25T08:24:03Z</time>
      </trkpt>
      <trkpt lat="47.1839" lon="5.55855">
        <ele>365.8</ele>
        <time>2014-05-25T08:24:06Z</time>
      </trkpt>
      <trkpt lat="47.18399" lon="5.55863">
        <ele>366.1</ele>
        <time>2014-05-25T08:24:10Z</time>
      </trkpt>
      <trkpt lat="47.18406" lon="5.55875">
        <ele>366.7</ele>
        <time>2014-05-25T08:24:15Z</time>
      </trkpt>
      <trkpt lat="47.18413" lon="5.55885">
        <ele>367.4</ele>
        <time>2014-05-25T08:24:18Z</time>
      </trkpt>
      <trkpt lat="47.18422" lon="5.55896">
        <ele>368.3</ele>
        <time>2014-05-25T08:24:22Z</time>
      </trkpt>
      <trkpt lat="47.18429" lon="5.55906">
        <ele>368.9</ele>
        <time>2014-05-25T08:24:25Z</time>
      </trkpt>
      <trkpt lat="47.18437" lon="5.55915">
        <ele>368.7</ele>
        <time>2014-05-25T08:24:28Z</time>
      </trkpt>
      <trkpt lat="47.18455" lon="5.55935">
        <ele>369</ele>
        <time>2014-05-25T08:24:34Z</time>
      </trkpt>
      <trkpt lat="47.18463" lon="5.55945">
        <ele>369.8</ele>
        <time>2014-05-25T08:24:37Z</time>
      </trkpt>
      <trkpt lat="47.18471" lon="5.55954">
        <ele>370.1</ele>
        <time>2014-05-25T08:24:40Z</time>
      </trkpt>
      <trkpt lat="47.18479" lon="5.55963">
        <ele>370.1</ele>
        <time>2014-05-25T08:24:43Z</time>
      </trkpt>
      <trkpt lat="47.18488" lon="5.55972">
        <ele>369.9</ele>
        <time>2014-05-25T08:24:46Z</time>
      </trkpt>
      <trkpt lat="47.18496" lon="5.55982">
        <ele>369.4</ele>
        <time>2014-05-25T08:24:49Z</time>
      </trkpt>
      <trkpt lat="47.18503" lon="5.55993">
        <ele>369.6</ele>
        <time>2014-05-25T08:24:51Z</time>
      </trkpt>
      <trkpt lat="47.1851" lon="5.56001">
        <ele>369.5</ele>
        <time>2014-05-25T08:24:53Z</time>
      </trkpt>
      <trkpt lat="47.1852" lon="5.5601">
        <ele>368.9</ele>
        <time>2014-05-25T08:24:56Z</time>
      </trkpt>
      <trkpt lat="47.18529" lon="5.56021">
        <ele>368.3</ele>
        <time>2014-05-25T08:24:59Z</time>
      </trkpt>
      <trkpt lat="47.18535" lon="5.56031">
        <ele>367.7</ele>
        <time>2014-05-25T08:25:01Z</time>
      </trkpt>
      <trkpt lat="47.18541" lon="5.56042">
        <ele>366.4</ele>
        <time>2014-05-25T08:25:03Z</time>
      </trkpt>
      <trkpt lat="47.1855" lon="5.56058">
        <ele>366</ele>
        <time>2014-05-25T08:25:05Z</time>
      </trkpt>
      <trkpt lat="47.18561" lon="5.56075">
        <ele>365.4</ele>
        <time>2014-05-25T08:25:07Z</time>
      </trkpt>
      <trkpt lat="47.1857" lon="5.56088">
        <ele>364.1</ele>
        <time>2014-05-25T08:25:09Z</time>
      </trkpt>
      <trkpt lat="47.1858" lon="5.561">
        <ele>362.7</ele>
        <time>2014-05-25T08:25:11Z</time>
      </trkpt>
      <trkpt lat="47.18589" lon="5.5611">
        <ele>361.1</ele>
        <time>2014-05-25T08:25:13Z</time>
      </trkpt>
      <trkpt lat="47.18595" lon="5.56119">
        <ele>360</ele>
        <time>2014-05-25T08:25:15Z</time>
      </trkpt>
      <trkpt lat="47.18604" lon="5.56132">
        <ele>357.5</ele>
        <time>2014-05-25T08:25:19Z</time>
      </trkpt>
      <trkpt lat="47.1861" lon="5.56141">
        <ele>356.3</ele>
        <time>2014-05-25T08:25:21Z</time>
      </trkpt>
      <trkpt lat="47.18619" lon="5.56155">
        <ele>353.6</ele>
        <time>2014-05-25T08:25:23Z</time>
      </trkpt>
      <trkpt lat="47.18629" lon="5.56168">
        <ele>351.4</ele>
        <time>2014-05-25T08:25:25Z</time>
      </trkpt>
      <trkpt lat="47.18638" lon="5.56174">
        <ele>348.8</ele>
        <time>2014-05-25T08:25:28Z</time>
      </trkpt>
      <trkpt lat="47.18649" lon="5.56177">
        <ele>346.8</ele>
        <time>2014-05-25T08:25:34Z</time>
      </trkpt>
      <trkpt lat="47.18667" lon="5.56188">
        <ele>347.1</ele>
        <time>2014-05-25T08:25:54Z</time>
      </trkpt>
      <trkpt lat="47.18676" lon="5.56192">
        <ele>347.8</ele>
        <time>2014-05-25T08:26:01Z</time>
      </trkpt>
      <trkpt lat="47.18682" lon="5.56203">
        <ele>348.5</ele>
        <time>2014-05-25T08:26:07Z</time>
      </trkpt>
      <trkpt lat="47.1869" lon="5.56213">
        <ele>349.6</ele>
        <time>2014-05-25T08:26:12Z</time>
      </trkpt>
      <trkpt lat="47.18696" lon="5.56224">
        <ele>349.7</ele>
        <time>2014-05-25T08:26:15Z</time>
      </trkpt>
      <trkpt lat="47.18701" lon="5.56238">
        <ele>349.6</ele>
        <time>2014-05-25T08:26:19Z</time>
      </trkpt>
      <trkpt lat="47.18709" lon="5.56246">
        <ele>349.8</ele>
        <time>2014-05-25T08:26:22Z</time>
      </trkpt>
      <trkpt lat="47.18718" lon="5.56256">
        <ele>349.9</ele>
        <time>2014-05-25T08:26:25Z</time>
      </trkpt>
      <trkpt lat="47.18727" lon="5.56264">
        <ele>350.4</ele>
        <time>2014-05-25T08:26:28Z</time>
      </trkpt>
      <trkpt lat="47.18734" lon="5.56277">
        <ele>349.9</ele>
        <time>2014-05-25T08:26:32Z</time>
      </trkpt>
      <trkpt lat="47.18742" lon="5.56289">
        <ele>350.4</ele>
        <time>2014-05-25T08:26:37Z</time>
      </trkpt>
      <trkpt lat="47.18757" lon="5.56301">
        <ele>350.9</ele>
        <time>2014-05-25T08:26:44Z</time>
      </trkpt>
      <trkpt lat="47.18765" lon="5.56309">
        <ele>351.8</ele>
        <time>2014-05-25T08:26:49Z</time>
      </trkpt>
      <trkpt lat="47.18774" lon="5.56319">
        <ele>353</ele>
        <time>2014-05-25T08:26:54Z</time>
      </trkpt>
      <trkpt lat="47.18781" lon="5.56328">
        <ele>354</ele>
        <time>2014-05-25T08:26:59Z</time>
      </trkpt>
      <trkpt lat="47.18789" lon="5.56338">
        <ele>355.7</ele>
        <time>2014-05-25T08:27:06Z</time>
      </trkpt>
      <trkpt lat="47.18795" lon="5.56347">
        <ele>356.8</ele>
        <time>2014-05-25T08:27:11Z</time>
      </trkpt>
      <trkpt lat="47.18802" lon="5.56358">
        <ele>357.3</ele>
        <time>2014-05-25T08:27:16Z</time>
      </trkpt>
      <trkpt lat="47.18809" lon="5.56369">
        <ele>358.1</ele>
        <time>2014-05-25T08:27:22Z</time>
      </trkpt>
      <trkpt lat="47.18816" lon="5.56378">
        <ele>360.2</ele>
        <time>2014-05-25T08:27:28Z</time>
      </trkpt>
      <trkpt lat="47.18823" lon="5.56387">
        <ele>360.9</ele>
        <time>2014-05-25T08:27:34Z</time>
      </trkpt>
      <trkpt lat="47.18829" lon="5.564">
        <ele>361.6</ele>
        <time>2014-05-25T08:27:40Z</time>
      </trkpt>
      <trkpt lat="47.1884" lon="5.56427">
        <ele>363.8</ele>
        <time>2014-05-25T08:27:50Z</time>
      </trkpt>
      <trkpt lat="47.18846" lon="5.5644">
        <ele>364.4</ele>
        <time>2014-05-25T08:27:55Z</time>
      </trkpt>
      <trkpt lat="47.18851" lon="5.56454">
        <ele>365</ele>
        <time>2014-05-25T08:28:01Z</time>
      </trkpt>
      <trkpt lat="47.18857" lon="5.56466">
        <ele>365.6</ele>
        <time>2014-05-25T08:28:06Z</time>
      </trkpt>
      <trkpt lat="47.18862" lon="5.56478">
        <ele>366.2</ele>
        <time>2014-05-25T08:28:11Z</time>
      </trkpt>
      <trkpt lat="47.18867" lon="5.56491">
        <ele>367.3</ele>
        <time>2014-05-25T08:28:16Z</time>
      </trkpt>
      <trkpt lat="47.18874" lon="5.56502">
        <ele>367.3</ele>
        <time>2014-05-25T08:28:20Z</time>
      </trkpt>
      <trkpt lat="47.18879" lon="5.56514">
        <ele>368.1</ele>
        <time>2014-05-25T08:28:24Z</time>
      </trkpt>
      <trkpt lat="47.18885" lon="5.56524">
        <ele>368.9</ele>
        <time>2014-05-25T08:28:28Z</time>
      </trkpt>
      <trkpt lat="47.1889" lon="5.56536">
        <ele>369.1</ele>
        <time>2014-05-25T08:28:32Z</time>
      </trkpt>
      <trkpt lat="47.18895" lon="5.56549">
        <ele>369.7</ele>
        <time>2014-05-25T08:28:37Z</time>
      </trkpt>
      <trkpt lat="47.189" lon="5.5656">
        <ele>370.4</ele>
        <time>2014-05-25T08:28:43Z</time>
      </trkpt>
      <trkpt lat="47.18911" lon="5.56586">
        <ele>371.6</ele>
        <time>2014-05-25T08:28:52Z</time>
      </trkpt>
      <trkpt lat="47.18917" lon="5.56597">
        <ele>372.7</ele>
        <time>2014-05-25T08:28:58Z</time>
      </trkpt>
      <trkpt lat="47.18923" lon="5.5661">
        <ele>373</ele>
        <time>2014-05-25T08:29:03Z</time>
      </trkpt>
      <trkpt lat="47.1893" lon="5.56623">
        <ele>374</ele>
        <time>2014-05-25T08:29:08Z</time>
      </trkpt>
      <trkpt lat="47.18935" lon="5.56636">
        <ele>374.9</ele>
        <time>2014-05-25T08:29:12Z</time>
      </trkpt>
      <trkpt lat="47.1894" lon="5.5665">
        <ele>375.3</ele>
        <time>2014-05-25T08:29:16Z</time>
      </trkpt>
      <trkpt lat="47.18947" lon="5.56663">
        <ele>376.1</ele>
        <time>2014-05-25T08:29:20Z</time>
      </trkpt>
      <trkpt lat="47.18955" lon="5.56671">
        <ele>376.8</ele>
        <time>2014-05-25T08:29:23Z</time>
      </trkpt>
      <trkpt lat="47.18961" lon="5.56682">
        <ele>376.7</ele>
        <time>2014-05-25T08:29:27Z</time>
      </trkpt>
      <trkpt lat="47.18967" lon="5.56694">
        <ele>376.8</ele>
        <time>2014-05-25T08:29:31Z</time>
      </trkpt>
      <trkpt lat="47.18973" lon="5.56707">
        <ele>376.9</ele>
        <time>2014-05-25T08:29:36Z</time>
      </trkpt>
      <trkpt lat="47.18978" lon="5.56719">
        <ele>377.5</ele>
        <time>2014-05-25T08:29:40Z</time>
      </trkpt>
      <trkpt lat="47.18983" lon="5.56733">
        <ele>377.6</ele>
        <time>2014-05-25T08:29:44Z</time>
      </trkpt>
      <trkpt lat="47.18996" lon="5.56757">
        <ele>378.1</ele>
        <time>2014-05-25T08:29:50Z</time>
      </trkpt>
      <trkpt lat="47.19001" lon="5.56773">
        <ele>377.9</ele>
        <time>2014-05-25T08:29:53Z</time>
      </trkpt>
      <trkpt lat="47.19005" lon="5.56787">
        <ele>378.4</ele>
        <time>2014-05-25T08:29:56Z</time>
      </trkpt>
      <trkpt lat="47.19011" lon="5.56799">
        <ele>377.9</ele>
        <time>2014-05-25T08:29:59Z</time>
      </trkpt>
      <trkpt lat="47.19015" lon="5.56813">
        <ele>377.4</ele>
        <time>2014-05-25T08:30:02Z</time>
      </trkpt>
      <trkpt lat="47.19019" lon="5.56828">
        <ele>376.8</ele>
        <time>2014-05-25T08:30:05Z</time>
      </trkpt>
      <trkpt lat="47.19025" lon="5.56841">
        <ele>375.6</ele>
        <time>2014-05-25T08:30:08Z</time>
      </trkpt>
      <trkpt lat="47.19031" lon="5.56858">
        <ele>374.7</ele>
        <time>2014-05-25T08:30:11Z</time>
      </trkpt>
      <trkpt lat="47.19038" lon="5.56874">
        <ele>373.9</ele>
        <time>2014-05-25T08:30:13Z</time>
      </trkpt>
      <trkpt lat="47.19046" lon="5.56887">
        <ele>372.4</ele>
        <time>2014-05-25T08:30:15Z</time>
      </trkpt>
      <trkpt lat="47.19055" lon="5.56898">
        <ele>370.4</ele>
        <time>2014-05-25T08:30:18Z</time>
      </trkpt>
      <trkpt lat="47.19062" lon="5.5691">
        <ele>368.2</ele>
        <time>2014-05-25T08:30:21Z</time>
      </trkpt>
      <trkpt lat="47.19069" lon="5.56923">
        <ele>366.2</ele>
        <time>2014-05-25T08:30:24Z</time>
      </trkpt>
      <trkpt lat="47.19075" lon="5.56936">
        <ele>363.7</ele>
        <time>2014-05-25T08:30:27Z</time>
      </trkpt>
      <trkpt lat="47.19082" lon="5.5695">
        <ele>360.7</ele>
        <time>2014-05-25T08:30:29Z</time>
      </trkpt>
      <trkpt lat="47.19087" lon="5.56963">
        <ele>358.2</ele>
        <time>2014-05-25T08:30:31Z</time>
      </trkpt>
      <trkpt lat="47.19091" lon="5.56975">
        <ele>355.7</ele>
        <time>2014-05-25T08:30:34Z</time>
      </trkpt>
      <trkpt lat="47.19097" lon="5.56987">
        <ele>353.1</ele>
        <time>2014-05-25T08:30:39Z</time>
      </trkpt>
      <trkpt lat="47.19102" lon="5.57">
        <ele>351.5</ele>
        <time>2014-05-25T08:30:45Z</time>
      </trkpt>
      <trkpt lat="47.1916" lon="5.57141">
        <ele>367</ele>
        <time>2014-05-25T08:32:52Z</time>
      </trkpt>
      <trkpt lat="47.19166" lon="5.57155">
        <ele>366.3</ele>
        <time>2014-05-25T08:32:54Z</time>
      </trkpt>
      <trkpt lat="47.1917" lon="5.5717">
        <ele>366.3</ele>
        <time>2014-05-25T08:32:56Z</time>
      </trkpt>
      <trkpt lat="47.19167" lon="5.57189">
        <ele>365.6</ele>
        <time>2014-05-25T08:32:59Z</time>
      </trkpt>
      <trkpt lat="47.19166" lon="5.57203">
        <ele>365.5</ele>
        <time>2014-05-25T08:33:01Z</time>
      </trkpt>
      <trkpt lat="47.19163" lon="5.57218">
        <ele>365</ele>
        <time>2014-05-25T08:33:03Z</time>
      </trkpt>
      <trkpt lat="47.19157" lon="5.57233">
        <ele>363.9</ele>
        <time>2014-05-25T08:33:05Z</time>
      </trkpt>
      <trkpt lat="47.1915" lon="5.57249">
        <ele>362.7</ele>
        <time>2014-05-25T08:33:07Z</time>
      </trkpt>
      <trkpt lat="47.19142" lon="5.57271">
        <ele>360.8</ele>
        <time>2014-05-25T08:33:09Z</time>
      </trkpt>
      <trkpt lat="47.19135" lon="5.57296">
        <ele>359.5</ele>
        <time>2014-05-25T08:33:11Z</time>
      </trkpt>
      <trkpt lat="47.19126" lon="5.57314">
        <ele>358.8</ele>
        <time>2014-05-25T08:33:12Z</time>
      </trkpt>
      <trkpt lat="47.1912" lon="5.57325">
        <ele>357.8</ele>
        <time>2014-05-25T08:33:13Z</time>
      </trkpt>
      <trkpt lat="47.19113" lon="5.57338">
        <ele>356.9</ele>
        <time>2014-05-25T08:33:14Z</time>
      </trkpt>
      <trkpt lat="47.19108" lon="5.57351">
        <ele>355.8</ele>
        <time>2014-05-25T08:33:15Z</time>
      </trkpt>
      <trkpt lat="47.19103" lon="5.57362">
        <ele>354.8</ele>
        <time>2014-05-25T08:33:16Z</time>
      </trkpt>
      <trkpt lat="47.19097" lon="5.57375">
        <ele>354.2</ele>
        <time>2014-05-25T08:33:17Z</time>
      </trkpt>
      <trkpt lat="47.19087" lon="5.57394">
        <ele>353.8</ele>
        <time>2014-05-25T08:33:19Z</time>
      </trkpt>
      <trkpt lat="47.19077" lon="5.57408">
        <ele>353.6</ele>
        <time>2014-05-25T08:33:21Z</time>
      </trkpt>
      <trkpt lat="47.1907" lon="5.57415">
        <ele>354.1</ele>
        <time>2014-05-25T08:33:23Z</time>
      </trkpt>
      <trkpt lat="47.19062" lon="5.57425">
        <ele>354.5</ele>
        <time>2014-05-25T08:33:27Z</time>
      </trkpt>
      <trkpt lat="47.19055" lon="5.57434">
        <ele>356.7</ele>
        <time>2014-05-25T08:33:31Z</time>
      </trkpt>
      <trkpt lat="47.19046" lon="5.57443">
        <ele>357.8</ele>
        <time>2014-05-25T08:33:35Z</time>
      </trkpt>
      <trkpt lat="47.19039" lon="5.57451">
        <ele>359.3</ele>
        <time>2014-05-25T08:33:40Z</time>
      </trkpt>
      <trkpt lat="47.19032" lon="5.57461">
        <ele>360</ele>
        <time>2014-05-25T08:33:45Z</time>
      </trkpt>
      <trkpt lat="47.19021" lon="5.57484">
        <ele>360.4</ele>
        <time>2014-05-25T08:33:53Z</time>
      </trkpt>
      <trkpt lat="47.19016" lon="5.57495">
        <ele>360.6</ele>
        <time>2014-05-25T08:33:57Z</time>
      </trkpt>
      <trkpt lat="47.19005" lon="5.57499">
        <ele>361</ele>
        <time>2014-05-25T08:34:02Z</time>
      </trkpt>
      <trkpt lat="47.18995" lon="5.57488">
        <ele>360.9</ele>
        <time>2014-05-25T08:34:05Z</time>
      </trkpt>
      <trkpt lat="47.18988" lon="5.57479">
        <ele>359.5</ele>
        <time>2014-05-25T08:34:07Z</time>
      </trkpt>
      <trkpt lat="47.1898" lon="5.5747">
        <ele>358.2</ele>
        <time>2014-05-25T08:34:09Z</time>
      </trkpt>
      <trkpt lat="47.18972" lon="5.57461">
        <ele>356.8</ele>
        <time>2014-05-25T08:34:11Z</time>
      </trkpt>
      <trkpt lat="47.18964" lon="5.57453">
        <ele>355.7</ele>
        <time>2014-05-25T08:34:13Z</time>
      </trkpt>
      <trkpt lat="47.18957" lon="5.57443">
        <ele>353.9</ele>
        <time>2014-05-25T08:34:15Z</time>
      </trkpt>
      <trkpt lat="47.18949" lon="5.57435">
        <ele>352</ele>
        <time>2014-05-25T08:34:17Z</time>
      </trkpt>
      <trkpt lat="47.18942" lon="5.57426">
        <ele>350.9</ele>
        <time>2014-05-25T08:34:19Z</time>
      </trkpt>
      <trkpt lat="47.18935" lon="5.57416">
        <ele>348.4</ele>
        <time>2014-05-25T08:34:21Z</time>
      </trkpt>
      <trkpt lat="47.18928" lon="5.57407">
        <ele>346.8</ele>
        <time>2014-05-25T08:34:23Z</time>
      </trkpt>
      <trkpt lat="47.18919" lon="5.57393">
        <ele>343.6</ele>
        <time>2014-05-25T08:34:26Z</time>
      </trkpt>
      <trkpt lat="47.18909" lon="5.57392">
        <ele>341.6</ele>
        <time>2014-05-25T08:34:29Z</time>
      </trkpt>
      <trkpt lat="47.18902" lon="5.57404">
        <ele>340.5</ele>
        <time>2014-05-25T08:34:31Z</time>
      </trkpt>
      <trkpt lat="47.18893" lon="5.57415">
        <ele>339.1</ele>
        <time>2014-05-25T08:34:33Z</time>
      </trkpt>
      <trkpt lat="47.18885" lon="5.57428">
        <ele>338.3</ele>
        <time>2014-05-25T08:34:35Z</time>
      </trkpt>
      <trkpt lat="47.18877" lon="5.57442">
        <ele>337.7</ele>
        <time>2014-05-25T08:34:37Z</time>
      </trkpt>
      <trkpt lat="47.18869" lon="5.57456">
        <ele>337.3</ele>
        <time>2014-05-25T08:34:39Z</time>
      </trkpt>
      <trkpt lat="47.18861" lon="5.57469">
        <ele>336.4</ele>
        <time>2014-05-25T08:34:41Z</time>
      </trkpt>
      <trkpt lat="47.18855" lon="5.57481">
        <ele>335.7</ele>
        <time>2014-05-25T08:34:43Z</time>
      </trkpt>
      <trkpt lat="47.18846" lon="5.57495">
        <ele>335</ele>
        <time>2014-05-25T08:34:45Z</time>
      </trkpt>
      <trkpt lat="47.18838" lon="5.57514">
        <ele>333.7</ele>
        <time>2014-05-25T08:34:47Z</time>
      </trkpt>
      <trkpt lat="47.18824" lon="5.57553">
        <ele>330.9</ele>
        <time>2014-05-25T08:34:51Z</time>
      </trkpt>
      <trkpt lat="47.18818" lon="5.5757">
        <ele>329.3</ele>
        <time>2014-05-25T08:34:53Z</time>
      </trkpt>
      <trkpt lat="47.18813" lon="5.57585">
        <ele>327.7</ele>
        <time>2014-05-25T08:34:55Z</time>
      </trkpt>
      <trkpt lat="47.18807" lon="5.576">
        <ele>325.9</ele>
        <time>2014-05-25T08:34:58Z</time>
      </trkpt>
      <trkpt lat="47.188" lon="5.57608">
        <ele>324.6</ele>
        <time>2014-05-25T08:35:01Z</time>
      </trkpt>
      <trkpt lat="47.1879" lon="5.57617">
        <ele>322.6</ele>
        <time>2014-05-25T08:35:04Z</time>
      </trkpt>
      <trkpt lat="47.18782" lon="5.57623">
        <ele>320.7</ele>
        <time>2014-05-25T08:35:06Z</time>
      </trkpt>
      <trkpt lat="47.18775" lon="5.57635">
        <ele>318.5</ele>
        <time>2014-05-25T08:35:08Z</time>
      </trkpt>
      <trkpt lat="47.1877" lon="5.57646">
        <ele>316.2</ele>
        <time>2014-05-25T08:35:10Z</time>
      </trkpt>
      <trkpt lat="47.18763" lon="5.57661">
        <ele>314.2</ele>
        <time>2014-05-25T08:35:12Z</time>
      </trkpt>
      <trkpt lat="47.18758" lon="5.57676">
        <ele>311.9</ele>
        <time>2014-05-25T08:35:14Z</time>
      </trkpt>
      <trkpt lat="47.18751" lon="5.5769">
        <ele>310.4</ele>
        <time>2014-05-25T08:35:16Z</time>
      </trkpt>
      <trkpt lat="47.18739" lon="5.57694">
        <ele>309</ele>
        <time>2014-05-25T08:35:18Z</time>
      </trkpt>
      <trkpt lat="47.18728" lon="5.57692">
        <ele>307.9</ele>
        <time>2014-05-25T08:35:20Z</time>
      </trkpt>
      <trkpt lat="47.18718" lon="5.57686">
        <ele>306.1</ele>
        <time>2014-05-25T08:35:22Z</time>
      </trkpt>
      <trkpt lat="47.18706" lon="5.57679">
        <ele>304</ele>
        <time>2014-05-25T08:35:25Z</time>
      </trkpt>
      <trkpt lat="47.18695" lon="5.57675">
        <ele>301.4</ele>
        <time>2014-05-25T08:35:28Z</time>
      </trkpt>
      <trkpt lat="47.18685" lon="5.57671">
        <ele>300</ele>
        <time>2014-05-25T08:35:30Z</time>
      </trkpt>
      <trkpt lat="47.18675" lon="5.57667">
        <ele>298.6</ele>
        <time>2014-05-25T08:35:32Z</time>
      </trkpt>
      <trkpt lat="47.18665" lon="5.57667">
        <ele>296.7</ele>
        <time>2014-05-25T08:35:34Z</time>
      </trkpt>
      <trkpt lat="47.18656" lon="5.57675">
        <ele>292.9</ele>
        <time>2014-05-25T08:35:38Z</time>
      </trkpt>
      <trkpt lat="47.18652" lon="5.5769">
        <ele>291.3</ele>
        <time>2014-05-25T08:35:41Z</time>
      </trkpt>
      <trkpt lat="47.18648" lon="5.57708">
        <ele>289.4</ele>
        <time>2014-05-25T08:35:44Z</time>
      </trkpt>
      <trkpt lat="47.18643" lon="5.57721">
        <ele>288</ele>
        <time>2014-05-25T08:35:47Z</time>
      </trkpt>
      <trkpt lat="47.18637" lon="5.57732">
        <ele>285.8</ele>
        <time>2014-05-25T08:35:50Z</time>
      </trkpt>
      <trkpt lat="47.18619" lon="5.5772">
        <ele>283</ele>
        <time>2014-05-25T08:35:56Z</time>
      </trkpt>
      <trkpt lat="47.18614" lon="5.57704">
        <ele>281.7</ele>
        <time>2014-05-25T08:36:00Z</time>
      </trkpt>
      <trkpt lat="47.18613" lon="5.57689">
        <ele>281.1</ele>
        <time>2014-05-25T08:36:03Z</time>
      </trkpt>
      <trkpt lat="47.18614" lon="5.57672">
        <ele>279</ele>
        <time>2014-05-25T08:36:07Z</time>
      </trkpt>
      <trkpt lat="47.18611" lon="5.57658">
        <ele>279.1</ele>
        <time>2014-05-25T08:36:10Z</time>
      </trkpt>
      <trkpt lat="47.18604" lon="5.57648">
        <ele>278.9</ele>
        <time>2014-05-25T08:36:13Z</time>
      </trkpt>
      <trkpt lat="47.18601" lon="5.57635">
        <ele>278.8</ele>
        <time>2014-05-25T08:36:16Z</time>
      </trkpt>
      <trkpt lat="47.18595" lon="5.57622">
        <ele>279.3</ele>
        <time>2014-05-25T08:36:19Z</time>
      </trkpt>
      <trkpt lat="47.18587" lon="5.57614">
        <ele>280.3</ele>
        <time>2014-05-25T08:36:22Z</time>
      </trkpt>
      <trkpt lat="47.18576" lon="5.57605">
        <ele>281.7</ele>
        <time>2014-05-25T08:36:26Z</time>
      </trkpt>
      <trkpt lat="47.18565" lon="5.57603">
        <ele>280.2</ele>
        <time>2014-05-25T08:36:29Z</time>
      </trkpt>
      <trkpt lat="47.18554" lon="5.57603">
        <ele>281</ele>
        <time>2014-05-25T08:36:32Z</time>
      </trkpt>
      <trkpt lat="47.18545" lon="5.57604">
        <ele>281.9</ele>
        <time>2014-05-25T08:36:34Z</time>
      </trkpt>
      <trkpt lat="47.18536" lon="5.57606">
        <ele>282.3</ele>
        <time>2014-05-25T08:36:36Z</time>
      </trkpt>
      <trkpt lat="47.18526" lon="5.57608">
        <ele>282.4</ele>
        <time>2014-05-25T08:36:38Z</time>
      </trkpt>
      <trkpt lat="47.18515" lon="5.57608">
        <ele>282.4</ele>
        <time>2014-05-25T08:36:41Z</time>
      </trkpt>
      <trkpt lat="47.18503" lon="5.57608">
        <ele>282.7</ele>
        <time>2014-05-25T08:36:44Z</time>
      </trkpt>
      <trkpt lat="47.18491" lon="5.57606">
        <ele>282.9</ele>
        <time>2014-05-25T08:36:47Z</time>
      </trkpt>
      <trkpt lat="47.18482" lon="5.57605">
        <ele>283</ele>
        <time>2014-05-25T08:36:49Z</time>
      </trkpt>
      <trkpt lat="47.1847" lon="5.57606">
        <ele>283.3</ele>
        <time>2014-05-25T08:36:52Z</time>
      </trkpt>
      <trkpt lat="47.18466" lon="5.5763">
        <ele>290.5</ele>
        <time>2014-05-25T08:37:28Z</time>
      </trkpt>
      <trkpt lat="47.18467" lon="5.57645">
        <ele>291.4</ele>
        <time>2014-05-25T08:37:32Z</time>
      </trkpt>
      <trkpt lat="47.18471" lon="5.57657">
        <ele>292.7</ele>
        <time>2014-05-25T08:37:40Z</time>
      </trkpt>
      <trkpt lat="47.18474" lon="5.57671">
        <ele>293.6</ele>
        <time>2014-05-25T08:37:55Z</time>
      </trkpt>
      <trkpt lat="47.18487" lon="5.5769">
        <ele>297.5</ele>
        <time>2014-05-25T08:38:14Z</time>
      </trkpt>
      <trkpt lat="47.18495" lon="5.577">
        <ele>299.2</ele>
        <time>2014-05-25T08:38:22Z</time>
      </trkpt>
      <trkpt lat="47.18503" lon="5.57708">
        <ele>300.7</ele>
        <time>2014-05-25T08:38:32Z</time>
      </trkpt>
      <trkpt lat="47.1851" lon="5.57716">
        <ele>301.8</ele>
        <time>2014-05-25T08:38:39Z</time>
      </trkpt>
      <trkpt lat="47.18518" lon="5.57725">
        <ele>303.5</ele>
        <time>2014-05-25T08:38:47Z</time>
      </trkpt>
      <trkpt lat="47.18527" lon="5.57735">
        <ele>304.2</ele>
        <time>2014-05-25T08:38:54Z</time>
      </trkpt>
      <trkpt lat="47.18534" lon="5.57745">
        <ele>304.8</ele>
        <time>2014-05-25T08:39:00Z</time>
      </trkpt>
      <trkpt lat="47.18548" lon="5.57767">
        <ele>306.7</ele>
        <time>2014-05-25T08:39:10Z</time>
      </trkpt>
      <trkpt lat="47.18554" lon="5.57779">
        <ele>307.4</ele>
        <time>2014-05-25T08:39:15Z</time>
      </trkpt>
      <trkpt lat="47.18561" lon="5.57791">
        <ele>308.1</ele>
        <time>2014-05-25T08:39:21Z</time>
      </trkpt>
      <trkpt lat="47.18567" lon="5.57803">
        <ele>308.7</ele>
        <time>2014-05-25T08:39:26Z</time>
      </trkpt>
      <trkpt lat="47.18573" lon="5.57814">
        <ele>308.7</ele>
        <time>2014-05-25T08:39:30Z</time>
      </trkpt>
      <trkpt lat="47.18581" lon="5.57823">
        <ele>309.2</ele>
        <time>2014-05-25T08:39:34Z</time>
      </trkpt>
      <trkpt lat="47.18588" lon="5.57833">
        <ele>309.2</ele>
        <time>2014-05-25T08:39:38Z</time>
      </trkpt>
      <trkpt lat="47.18596" lon="5.57841">
        <ele>309.4</ele>
        <time>2014-05-25T08:39:42Z</time>
      </trkpt>
      <trkpt lat="47.18604" lon="5.57848">
        <ele>309.3</ele>
        <time>2014-05-25T08:39:47Z</time>
      </trkpt>
      <trkpt lat="47.18614" lon="5.57855">
        <ele>310.1</ele>
        <time>2014-05-25T08:39:51Z</time>
      </trkpt>
      <trkpt lat="47.18623" lon="5.57862">
        <ele>311</ele>
        <time>2014-05-25T08:39:56Z</time>
      </trkpt>
      <trkpt lat="47.18631" lon="5.57872">
        <ele>312</ele>
        <time>2014-05-25T08:40:02Z</time>
      </trkpt>
      <trkpt lat="47.18649" lon="5.57891">
        <ele>313.5</ele>
        <time>2014-05-25T08:40:11Z</time>
      </trkpt>
      <trkpt lat="47.18658" lon="5.57898">
        <ele>315.1</ele>
        <time>2014-05-25T08:40:17Z</time>
      </trkpt>
      <trkpt lat="47.18665" lon="5.57906">
        <ele>316.5</ele>
        <time>2014-05-25T08:40:22Z</time>
      </trkpt>
      <trkpt lat="47.18673" lon="5.57913">
        <ele>317.4</ele>
        <time>2014-05-25T08:40:28Z</time>
      </trkpt>
      <trkpt lat="47.18682" lon="5.57921">
        <ele>318.9</ele>
        <time>2014-05-25T08:40:35Z</time>
      </trkpt>
      <trkpt lat="47.18691" lon="5.57928">
        <ele>320.1</ele>
        <time>2014-05-25T08:40:41Z</time>
      </trkpt>
      <trkpt lat="47.18699" lon="5.57934">
        <ele>321.1</ele>
        <time>2014-05-25T08:40:49Z</time>
      </trkpt>
      <trkpt lat="47.18707" lon="5.57943">
        <ele>322.3</ele>
        <time>2014-05-25T08:40:56Z</time>
      </trkpt>
      <trkpt lat="47.18715" lon="5.57951">
        <ele>323.8</ele>
        <time>2014-05-25T08:41:04Z</time>
      </trkpt>
      <trkpt lat="47.18733" lon="5.57965">
        <ele>327.2</ele>
        <time>2014-05-25T08:41:19Z</time>
      </trkpt>
      <trkpt lat="47.18741" lon="5.57973">
        <ele>328.9</ele>
        <time>2014-05-25T08:41:28Z</time>
      </trkpt>
      <trkpt lat="47.18748" lon="5.57981">
        <ele>329.8</ele>
        <time>2014-05-25T08:41:37Z</time>
      </trkpt>
      <trkpt lat="47.18757" lon="5.57988">
        <ele>330</ele>
        <time>2014-05-25T08:41:53Z</time>
      </trkpt>
      <trkpt lat="47.18766" lon="5.57998">
        <ele>331.1</ele>
        <time>2014-05-25T08:42:00Z</time>
      </trkpt>
      <trkpt lat="47.18773" lon="5.58007">
        <ele>332.7</ele>
        <time>2014-05-25T08:42:07Z</time>
      </trkpt>
      <trkpt lat="47.18789" lon="5.58023">
        <ele>334.2</ele>
        <time>2014-05-25T08:42:20Z</time>
      </trkpt>
      <trkpt lat="47.18798" lon="5.58029">
        <ele>335.5</ele>
        <time>2014-05-25T08:42:26Z</time>
      </trkpt>
      <trkpt lat="47.18805" lon="5.58037">
        <ele>336.3</ele>
        <time>2014-05-25T08:42:32Z</time>
      </trkpt>
      <trkpt lat="47.18813" lon="5.58046">
        <ele>337.8</ele>
        <time>2014-05-25T08:42:38Z</time>
      </trkpt>
      <trkpt lat="47.18821" lon="5.58054">
        <ele>338.9</ele>
        <time>2014-05-25T08:42:44Z</time>
      </trkpt>
      <trkpt lat="47.18829" lon="5.58062">
        <ele>339.2</ele>
        <time>2014-05-25T08:42:51Z</time>
      </trkpt>
      <trkpt lat="47.18836" lon="5.58072">
        <ele>339.7</ele>
        <time>2014-05-25T08:42:57Z</time>
      </trkpt>
      <trkpt lat="47.18844" lon="5.58078">
        <ele>340.5</ele>
        <time>2014-05-25T08:43:02Z</time>
      </trkpt>
      <trkpt lat="47.18853" lon="5.58087">
        <ele>341.9</ele>
        <time>2014-05-25T08:43:08Z</time>
      </trkpt>
      <trkpt lat="47.18868" lon="5.58102">
        <ele>344.3</ele>
        <time>2014-05-25T08:43:20Z</time>
      </trkpt>
      <trkpt lat="47.18877" lon="5.58108">
        <ele>344.8</ele>
        <time>2014-05-25T08:43:26Z</time>
      </trkpt>
      <trkpt lat="47.18884" lon="5.58116">
        <ele>346.9</ele>
        <time>2014-05-25T08:43:33Z</time>
      </trkpt>
      <trkpt lat="47.18892" lon="5.58125">
        <ele>346.5</ele>
        <time>2014-05-25T08:43:37Z</time>
      </trkpt>
      <trkpt lat="47.189" lon="5.58132">
        <ele>347.4</ele>
        <time>2014-05-25T08:43:43Z</time>
      </trkpt>
      <trkpt lat="47.18908" lon="5.5814">
        <ele>348.9</ele>
        <time>2014-05-25T08:43:50Z</time>
      </trkpt>
      <trkpt lat="47.18916" lon="5.5815">
        <ele>350.2</ele>
        <time>2014-05-25T08:43:57Z</time>
      </trkpt>
      <trkpt lat="47.18924" lon="5.58158">
        <ele>351</ele>
        <time>2014-05-25T08:44:02Z</time>
      </trkpt>
      <trkpt lat="47.18932" lon="5.58166">
        <ele>351.2</ele>
        <time>2014-05-25T08:44:06Z</time>
      </trkpt>
      <trkpt lat="47.1894" lon="5.58172">
        <ele>351.9</ele>
        <time>2014-05-25T08:44:11Z</time>
      </trkpt>
      <trkpt lat="47.18957" lon="5.58188">
        <ele>354.1</ele>
        <time>2014-05-25T08:44:23Z</time>
      </trkpt>
      <trkpt lat="47.18965" lon="5.58198">
        <ele>355.5</ele>
        <time>2014-05-25T08:44:30Z</time>
      </trkpt>
      <trkpt lat="47.18974" lon="5.58209">
        <ele>356.4</ele>
        <time>2014-05-25T08:44:36Z</time>
      </trkpt>
      <trkpt lat="47.18981" lon="5.5822">
        <ele>357.2</ele>
        <time>2014-05-25T08:44:42Z</time>
      </trkpt>
      <trkpt lat="47.18989" lon="5.5823">
        <ele>358.6</ele>
        <time>2014-05-25T08:44:48Z</time>
      </trkpt>
      <trkpt lat="47.18998" lon="5.58236">
        <ele>359.7</ele>
        <time>2014-05-25T08:44:54Z</time>
      </trkpt>
      <trkpt lat="47.19007" lon="5.58242">
        <ele>359.5</ele>
        <time>2014-05-25T08:44:58Z</time>
      </trkpt>
      <trkpt lat="47.19016" lon="5.58247">
        <ele>358.9</ele>
        <time>2014-05-25T08:45:02Z</time>
      </trkpt>
      <trkpt lat="47.19027" lon="5.58258">
        <ele>359.2</ele>
        <time>2014-05-25T08:45:07Z</time>
      </trkpt>
      <trkpt lat="47.19034" lon="5.58268">
        <ele>359.4</ele>
        <time>2014-05-25T08:45:10Z</time>
      </trkpt>
      <trkpt lat="47.19045" lon="5.58277">
        <ele>360.1</ele>
        <time>2014-05-25T08:45:14Z</time>
      </trkpt>
      <trkpt lat="47.19062" lon="5.58293">
        <ele>360.4</ele>
        <time>2014-05-25T08:45:21Z</time>
      </trkpt>
      <trkpt lat="47.19072" lon="5.58298">
        <ele>360.4</ele>
        <time>2014-05-25T08:45:24Z</time>
      </trkpt>
      <trkpt lat="47.19081" lon="5.58304">
        <ele>360.8</ele>
        <time>2014-05-25T08:45:27Z</time>
      </trkpt>
      <trkpt lat="47.1909" lon="5.5831">
        <ele>360.9</ele>
        <time>2014-05-25T08:45:30Z</time>
      </trkpt>
      <trkpt lat="47.19099" lon="5.58316">
        <ele>361.2</ele>
        <time>2014-05-25T08:45:33Z</time>
      </trkpt>
      <trkpt lat="47.19109" lon="5.58324">
        <ele>361</ele>
        <time>2014-05-25T08:45:36Z</time>
      </trkpt>
      <trkpt lat="47.1912" lon="5.58332">
        <ele>361.2</ele>
        <time>2014-05-25T08:45:39Z</time>
      </trkpt>
      <trkpt lat="47.19129" lon="5.5834">
        <ele>361.1</ele>
        <time>2014-05-25T08:45:42Z</time>
      </trkpt>
      <trkpt lat="47.19138" lon="5.58348">
        <ele>360.9</ele>
        <time>2014-05-25T08:45:45Z</time>
      </trkpt>
      <trkpt lat="47.19148" lon="5.58361">
        <ele>360.7</ele>
        <time>2014-05-25T08:45:48Z</time>
      </trkpt>
      <trkpt lat="47.19153" lon="5.58373">
        <ele>360.1</ele>
        <time>2014-05-25T08:45:50Z</time>
      </trkpt>
      <trkpt lat="47.19158" lon="5.58385">
        <ele>360</ele>
        <time>2014-05-25T08:45:52Z</time>
      </trkpt>
      <trkpt lat="47.19166" lon="5.58397">
        <ele>359.9</ele>
        <time>2014-05-25T08:45:54Z</time>
      </trkpt>
      <trkpt lat="47.19175" lon="5.58406">
        <ele>359.6</ele>
        <time>2014-05-25T08:45:56Z</time>
      </trkpt>
      <trkpt lat="47.19184" lon="5.58417">
        <ele>359.1</ele>
        <time>2014-05-25T08:45:58Z</time>
      </trkpt>
      <trkpt lat="47.19193" lon="5.58427">
        <ele>358.4</ele>
        <time>2014-05-25T08:46:00Z</time>
      </trkpt>
      <trkpt lat="47.19203" lon="5.58438">
        <ele>357.9</ele>
        <time>2014-05-25T08:46:02Z</time>
      </trkpt>
      <trkpt lat="47.19215" lon="5.58448">
        <ele>357.7</ele>
        <time>2014-05-25T08:46:04Z</time>
      </trkpt>
      <trkpt lat="47.1923" lon="5.5846">
        <ele>356.7</ele>
        <time>2014-05-25T08:46:06Z</time>
      </trkpt>
      <trkpt lat="47.19246" lon="5.58472">
        <ele>355.9</ele>
        <time>2014-05-25T08:46:08Z</time>
      </trkpt>
      <trkpt lat="47.19254" lon="5.58477">
        <ele>355.8</ele>
        <time>2014-05-25T08:46:09Z</time>
      </trkpt>
      <trkpt lat="47.19264" lon="5.58486">
        <ele>355.8</ele>
        <time>2014-05-25T08:46:10Z</time>
      </trkpt>
      <trkpt lat="47.19278" lon="5.58498">
        <ele>354.9</ele>
        <time>2014-05-25T08:46:12Z</time>
      </trkpt>
      <trkpt lat="47.1929" lon="5.5851">
        <ele>355.2</ele>
        <time>2014-05-25T08:46:14Z</time>
      </trkpt>
      <trkpt lat="47.19299" lon="5.5852">
        <ele>355.3</ele>
        <time>2014-05-25T08:46:16Z</time>
      </trkpt>
      <trkpt lat="47.19316" lon="5.58532">
        <ele>355</ele>
        <time>2014-05-25T08:46:20Z</time>
      </trkpt>
      <trkpt lat="47.19325" lon="5.58539">
        <ele>355.2</ele>
        <time>2014-05-25T08:46:23Z</time>
      </trkpt>
      <trkpt lat="47.19334" lon="5.58544">
        <ele>356.3</ele>
        <time>2014-05-25T08:46:26Z</time>
      </trkpt>
      <trkpt lat="47.19343" lon="5.5855">
        <ele>357.1</ele>
        <time>2014-05-25T08:46:30Z</time>
      </trkpt>
      <trkpt lat="47.19353" lon="5.58557">
        <ele>358.3</ele>
        <time>2014-05-25T08:46:35Z</time>
      </trkpt>
      <trkpt lat="47.19361" lon="5.58563">
        <ele>359.1</ele>
        <time>2014-05-25T08:46:39Z</time>
      </trkpt>
      <trkpt lat="47.19369" lon="5.58572">
        <ele>359.7</ele>
        <time>2014-05-25T08:46:42Z</time>
      </trkpt>
      <trkpt lat="47.19379" lon="5.58579">
        <ele>360.6</ele>
        <time>2014-05-25T08:46:46Z</time>
      </trkpt>
      <trkpt lat="47.19389" lon="5.58586">
        <ele>362.3</ele>
        <time>2014-05-25T08:46:52Z</time>
      </trkpt>
      <trkpt lat="47.19396" lon="5.58595">
        <ele>363.2</ele>
        <time>2014-05-25T08:46:57Z</time>
      </trkpt>
      <trkpt lat="47.19404" lon="5.58604">
        <ele>364.1</ele>
        <time>2014-05-25T08:47:02Z</time>
      </trkpt>
      <trkpt lat="47.19412" lon="5.58613">
        <ele>365.4</ele>
        <time>2014-05-25T08:47:07Z</time>
      </trkpt>
      <trkpt lat="47.1942" lon="5.58622">
        <ele>366</ele>
        <time>2014-05-25T08:47:11Z</time>
      </trkpt>
      <trkpt lat="47.19427" lon="5.58631">
        <ele>366.4</ele>
        <time>2014-05-25T08:47:15Z</time>
      </trkpt>
      <trkpt lat="47.19434" lon="5.5864">
        <ele>367.2</ele>
        <time>2014-05-25T08:47:19Z</time>
      </trkpt>
      <trkpt lat="47.19451" lon="5.58658">
        <ele>367.7</ele>
        <time>2014-05-25T08:47:28Z</time>
      </trkpt>
      <trkpt lat="47.19458" lon="5.58667">
        <ele>368.9</ele>
        <time>2014-05-25T08:47:33Z</time>
      </trkpt>
      <trkpt lat="47.19465" lon="5.58678">
        <ele>368.3</ele>
        <time>2014-05-25T08:47:37Z</time>
      </trkpt>
      <trkpt lat="47.19472" lon="5.5869">
        <ele>369</ele>
        <time>2014-05-25T08:47:41Z</time>
      </trkpt>
      <trkpt lat="47.19481" lon="5.58702">
        <ele>369.2</ele>
        <time>2014-05-25T08:47:44Z</time>
      </trkpt>
      <trkpt lat="47.19488" lon="5.58712">
        <ele>369.6</ele>
        <time>2014-05-25T08:47:47Z</time>
      </trkpt>
      <trkpt lat="47.19496" lon="5.58724">
        <ele>368.7</ele>
        <time>2014-05-25T08:47:50Z</time>
      </trkpt>
      <trkpt lat="47.19504" lon="5.58734">
        <ele>369.4</ele>
        <time>2014-05-25T08:47:53Z</time>
      </trkpt>
      <trkpt lat="47.19512" lon="5.58743">
        <ele>369.5</ele>
        <time>2014-05-25T08:47:56Z</time>
      </trkpt>
      <trkpt lat="47.19517" lon="5.58756">
        <ele>369.5</ele>
        <time>2014-05-25T08:47:59Z</time>
      </trkpt>
      <trkpt lat="47.19521" lon="5.58771">
        <ele>369.5</ele>
        <time>2014-05-25T08:48:02Z</time>
      </trkpt>
      <trkpt lat="47.19525" lon="5.58783">
        <ele>368.9</ele>
        <time>2014-05-25T08:48:05Z</time>
      </trkpt>
      <trkpt lat="47.19526" lon="5.58802">
        <ele>368.8</ele>
        <time>2014-05-25T08:48:08Z</time>
      </trkpt>
      <trkpt lat="47.19524" lon="5.58816">
        <ele>368.8</ele>
        <time>2014-05-25T08:48:10Z</time>
      </trkpt>
      <trkpt lat="47.19522" lon="5.5883">
        <ele>368.5</ele>
        <time>2014-05-25T08:48:12Z</time>
      </trkpt>
      <trkpt lat="47.19523" lon="5.58848">
        <ele>367.8</ele>
        <time>2014-05-25T08:48:14Z</time>
      </trkpt>
      <trkpt lat="47.19519" lon="5.58864">
        <ele>366.8</ele>
        <time>2014-05-25T08:48:16Z</time>
      </trkpt>
      <trkpt lat="47.19515" lon="5.58884">
        <ele>366.1</ele>
        <time>2014-05-25T08:48:18Z</time>
      </trkpt>
      <trkpt lat="47.19513" lon="5.58906">
        <ele>364.9</ele>
        <time>2014-05-25T08:48:20Z</time>
      </trkpt>
      <trkpt lat="47.19524" lon="5.58939">
        <ele>363.9</ele>
        <time>2014-05-25T08:48:24Z</time>
      </trkpt>
      <trkpt lat="47.19533" lon="5.58949">
        <ele>364</ele>
        <time>2014-05-25T08:48:26Z</time>
      </trkpt>
      <trkpt lat="47.19542" lon="5.58961">
        <ele>363.6</ele>
        <time>2014-05-25T08:48:29Z</time>
      </trkpt>
      <trkpt lat="47.1955" lon="5.58969">
        <ele>363.9</ele>
        <time>2014-05-25T08:48:32Z</time>
      </trkpt>
      <trkpt lat="47.19558" lon="5.58981">
        <ele>364.1</ele>
        <time>2014-05-25T08:48:35Z</time>
      </trkpt>
      <trkpt lat="47.19568" lon="5.58988">
        <ele>364.3</ele>
        <time>2014-05-25T08:48:38Z</time>
      </trkpt>
      <trkpt lat="47.19578" lon="5.58991">
        <ele>364.5</ele>
        <time>2014-05-25T08:48:41Z</time>
      </trkpt>
      <trkpt lat="47.19591" lon="5.59001">
        <ele>365.4</ele>
        <time>2014-05-25T08:48:44Z</time>
      </trkpt>
      <trkpt lat="47.19602" lon="5.59012">
        <ele>365.3</ele>
        <time>2014-05-25T08:48:46Z</time>
      </trkpt>
      <trkpt lat="47.19611" lon="5.59025">
        <ele>366.1</ele>
        <time>2014-05-25T08:48:49Z</time>
      </trkpt>
      <trkpt lat="47.19619" lon="5.59034">
        <ele>365.8</ele>
        <time>2014-05-25T08:48:52Z</time>
      </trkpt>
      <trkpt lat="47.19625" lon="5.59043">
        <ele>365.5</ele>
        <time>2014-05-25T08:48:55Z</time>
      </trkpt>
      <trkpt lat="47.19632" lon="5.59055">
        <ele>366.2</ele>
        <time>2014-05-25T08:48:58Z</time>
      </trkpt>
      <trkpt lat="47.1964" lon="5.59064">
        <ele>366.7</ele>
        <time>2014-05-25T08:49:01Z</time>
      </trkpt>
      <trkpt lat="47.19649" lon="5.59075">
        <ele>367</ele>
        <time>2014-05-25T08:49:05Z</time>
      </trkpt>
      <trkpt lat="47.19659" lon="5.59089">
        <ele>367.5</ele>
        <time>2014-05-25T08:49:09Z</time>
      </trkpt>
      <trkpt lat="47.19667" lon="5.59101">
        <ele>368.4</ele>
        <time>2014-05-25T08:49:12Z</time>
      </trkpt>
      <trkpt lat="47.19675" lon="5.59113">
        <ele>368.5</ele>
        <time>2014-05-25T08:49:15Z</time>
      </trkpt>
      <trkpt lat="47.19683" lon="5.59126">
        <ele>369</ele>
        <time>2014-05-25T08:49:18Z</time>
      </trkpt>
      <trkpt lat="47.1969" lon="5.59138">
        <ele>369.3</ele>
        <time>2014-05-25T08:49:21Z</time>
      </trkpt>
      <trkpt lat="47.19706" lon="5.59157">
        <ele>370</ele>
        <time>2014-05-25T08:49:28Z</time>
      </trkpt>
      <trkpt lat="47.19713" lon="5.59168">
        <ele>370.8</ele>
        <time>2014-05-25T08:49:31Z</time>
      </trkpt>
      <trkpt lat="47.19721" lon="5.59178">
        <ele>371.2</ele>
        <time>2014-05-25T08:49:34Z</time>
      </trkpt>
      <trkpt lat="47.19729" lon="5.59188">
        <ele>371.4</ele>
        <time>2014-05-25T08:49:38Z</time>
      </trkpt>
      <trkpt lat="47.19738" lon="5.592">
        <ele>371.8</ele>
        <time>2014-05-25T08:49:42Z</time>
      </trkpt>
      <trkpt lat="47.19745" lon="5.59208">
        <ele>371.8</ele>
        <time>2014-05-25T08:49:45Z</time>
      </trkpt>
      <trkpt lat="47.19752" lon="5.5922">
        <ele>372.3</ele>
        <time>2014-05-25T08:49:48Z</time>
      </trkpt>
      <trkpt lat="47.19759" lon="5.59229">
        <ele>372.5</ele>
        <time>2014-05-25T08:49:51Z</time>
      </trkpt>
      <trkpt lat="47.19768" lon="5.59235">
        <ele>372.4</ele>
        <time>2014-05-25T08:49:54Z</time>
      </trkpt>
      <trkpt lat="47.19778" lon="5.59244">
        <ele>373</ele>
        <time>2014-05-25T08:49:57Z</time>
      </trkpt>
      <trkpt lat="47.19789" lon="5.59254">
        <ele>373.5</ele>
        <time>2014-05-25T08:50:00Z</time>
      </trkpt>
      <trkpt lat="47.19801" lon="5.59262">
        <ele>373.6</ele>
        <time>2014-05-25T08:50:03Z</time>
      </trkpt>
      <trkpt lat="47.19809" lon="5.59269">
        <ele>373.7</ele>
        <time>2014-05-25T08:50:05Z</time>
      </trkpt>
      <trkpt lat="47.19817" lon="5.59276">
        <ele>373.4</ele>
        <time>2014-05-25T08:50:07Z</time>
      </trkpt>
      <trkpt lat="47.19826" lon="5.59283">
        <ele>373.1</ele>
        <time>2014-05-25T08:50:09Z</time>
      </trkpt>
      <trkpt lat="47.19835" lon="5.59291">
        <ele>373.1</ele>
        <time>2014-05-25T08:50:11Z</time>
      </trkpt>
      <trkpt lat="47.19844" lon="5.59298">
        <ele>373.1</ele>
        <time>2014-05-25T08:50:13Z</time>
      </trkpt>
      <trkpt lat="47.19854" lon="5.59305">
        <ele>373</ele>
        <time>2014-05-25T08:50:15Z</time>
      </trkpt>
      <trkpt lat="47.19864" lon="5.59315">
        <ele>373.2</ele>
        <time>2014-05-25T08:50:17Z</time>
      </trkpt>
      <trkpt lat="47.19874" lon="5.59324">
        <ele>372.7</ele>
        <time>2014-05-25T08:50:19Z</time>
      </trkpt>
      <trkpt lat="47.19883" lon="5.59333">
        <ele>373.1</ele>
        <time>2014-05-25T08:50:21Z</time>
      </trkpt>
      <trkpt lat="47.19891" lon="5.5934">
        <ele>373.4</ele>
        <time>2014-05-25T08:50:23Z</time>
      </trkpt>
      <trkpt lat="47.19913" lon="5.59355">
        <ele>373.7</ele>
        <time>2014-05-25T08:50:29Z</time>
      </trkpt>
      <trkpt lat="47.19923" lon="5.59361">
        <ele>373.7</ele>
        <time>2014-05-25T08:50:32Z</time>
      </trkpt>
      <trkpt lat="47.19932" lon="5.59367">
        <ele>374.3</ele>
        <time>2014-05-25T08:50:35Z</time>
      </trkpt>
      <trkpt lat="47.19941" lon="5.59372">
        <ele>374.6</ele>
        <time>2014-05-25T08:50:38Z</time>
      </trkpt>
      <trkpt lat="47.19951" lon="5.59379">
        <ele>375.3</ele>
        <time>2014-05-25T08:50:41Z</time>
      </trkpt>
      <trkpt lat="47.19962" lon="5.59385">
        <ele>376</ele>
        <time>2014-05-25T08:50:44Z</time>
      </trkpt>
      <trkpt lat="47.19973" lon="5.59392">
        <ele>376</ele>
        <time>2014-05-25T08:50:47Z</time>
      </trkpt>
      <trkpt lat="47.19985" lon="5.59399">
        <ele>376.2</ele>
        <time>2014-05-25T08:50:50Z</time>
      </trkpt>
      <trkpt lat="47.19997" lon="5.594">
        <ele>376.2</ele>
        <time>2014-05-25T08:50:53Z</time>
      </trkpt>
      <trkpt lat="47.20006" lon="5.59403">
        <ele>376.2</ele>
        <time>2014-05-25T08:50:55Z</time>
      </trkpt>
      <trkpt lat="47.20016" lon="5.59401">
        <ele>376.5</ele>
        <time>2014-05-25T08:50:57Z</time>
      </trkpt>
      <trkpt lat="47.20026" lon="5.59393">
        <ele>376.4</ele>
        <time>2014-05-25T08:50:59Z</time>
      </trkpt>
      <trkpt lat="47.20036" lon="5.59386">
        <ele>376.5</ele>
        <time>2014-05-25T08:51:01Z</time>
      </trkpt>
      <trkpt lat="47.20045" lon="5.59379">
        <ele>376.4</ele>
        <time>2014-05-25T08:51:03Z</time>
      </trkpt>
      <trkpt lat="47.20054" lon="5.59371">
        <ele>376</ele>
        <time>2014-05-25T08:51:05Z</time>
      </trkpt>
      <trkpt lat="47.20064" lon="5.59363">
        <ele>376</ele>
        <time>2014-05-25T08:51:07Z</time>
      </trkpt>
      <trkpt lat="47.20073" lon="5.59359">
        <ele>376.4</ele>
        <time>2014-05-25T08:51:09Z</time>
      </trkpt>
      <trkpt lat="47.2008" lon="5.59369">
        <ele>376.1</ele>
        <time>2014-05-25T08:51:13Z</time>
      </trkpt>
      <trkpt lat="47.20082" lon="5.59382">
        <ele>376.6</ele>
        <time>2014-05-25T08:51:17Z</time>
      </trkpt>
      <trkpt lat="47.20081" lon="5.59396">
        <ele>377.5</ele>
        <time>2014-05-25T08:51:21Z</time>
      </trkpt>
      <trkpt lat="47.20088" lon="5.59411">
        <ele>378.4</ele>
        <time>2014-05-25T08:51:26Z</time>
      </trkpt>
      <trkpt lat="47.201" lon="5.59434">
        <ele>378</ele>
        <time>2014-05-25T08:51:35Z</time>
      </trkpt>
      <trkpt lat="47.20108" lon="5.59446">
        <ele>378.7</ele>
        <time>2014-05-25T08:51:39Z</time>
      </trkpt>
      <trkpt lat="47.20117" lon="5.59454">
        <ele>378.9</ele>
        <time>2014-05-25T08:51:42Z</time>
      </trkpt>
      <trkpt lat="47.20124" lon="5.59466">
        <ele>379.1</ele>
        <time>2014-05-25T08:51:45Z</time>
      </trkpt>
      <trkpt lat="47.20133" lon="5.59477">
        <ele>379.4</ele>
        <time>2014-05-25T08:51:48Z</time>
      </trkpt>
      <trkpt lat="47.20142" lon="5.59488">
        <ele>380</ele>
        <time>2014-05-25T08:51:50Z</time>
      </trkpt>
      <trkpt lat="47.20151" lon="5.59497">
        <ele>379.5</ele>
        <time>2014-05-25T08:51:52Z</time>
      </trkpt>
      <trkpt lat="47.20158" lon="5.59505">
        <ele>378.7</ele>
        <time>2014-05-25T08:51:54Z</time>
      </trkpt>
      <trkpt lat="47.20167" lon="5.5952">
        <ele>378.6</ele>
        <time>2014-05-25T08:51:57Z</time>
      </trkpt>
      <trkpt lat="47.20176" lon="5.59534">
        <ele>378.5</ele>
        <time>2014-05-25T08:52:00Z</time>
      </trkpt>
      <trkpt lat="47.20185" lon="5.59545">
        <ele>377.5</ele>
        <time>2014-05-25T08:52:03Z</time>
      </trkpt>
      <trkpt lat="47.20194" lon="5.59558">
        <ele>377</ele>
        <time>2014-05-25T08:52:06Z</time>
      </trkpt>
      <trkpt lat="47.20201" lon="5.5957">
        <ele>377.1</ele>
        <time>2014-05-25T08:52:08Z</time>
      </trkpt>
      <trkpt lat="47.20209" lon="5.59583">
        <ele>376.1</ele>
        <time>2014-05-25T08:52:10Z</time>
      </trkpt>
      <trkpt lat="47.20218" lon="5.59593">
        <ele>375.6</ele>
        <time>2014-05-25T08:52:12Z</time>
      </trkpt>
      <trkpt lat="47.20227" lon="5.59603">
        <ele>374.3</ele>
        <time>2014-05-25T08:52:14Z</time>
      </trkpt>
      <trkpt lat="47.20238" lon="5.59616">
        <ele>374.5</ele>
        <time>2014-05-25T08:52:16Z</time>
      </trkpt>
      <trkpt lat="47.20248" lon="5.59624">
        <ele>374.5</ele>
        <time>2014-05-25T08:52:18Z</time>
      </trkpt>
      <trkpt lat="47.2026" lon="5.59634">
        <ele>375.4</ele>
        <time>2014-05-25T08:52:21Z</time>
      </trkpt>
      <trkpt lat="47.2027" lon="5.59636">
        <ele>375.2</ele>
        <time>2014-05-25T08:52:24Z</time>
      </trkpt>
      <trkpt lat="47.20279" lon="5.5963">
        <ele>376.2</ele>
        <time>2014-05-25T08:52:28Z</time>
      </trkpt>
      <trkpt lat="47.20295" lon="5.59633">
        <ele>377.5</ele>
        <time>2014-05-25T08:52:38Z</time>
      </trkpt>
      <trkpt lat="47.20297" lon="5.5965">
        <ele>376.7</ele>
        <time>2014-05-25T08:52:41Z</time>
      </trkpt>
      <trkpt lat="47.20297" lon="5.59666">
        <ele>375.9</ele>
        <time>2014-05-25T08:52:43Z</time>
      </trkpt>
      <trkpt lat="47.20297" lon="5.59683">
        <ele>375.2</ele>
        <time>2014-05-25T08:52:45Z</time>
      </trkpt>
      <trkpt lat="47.20298" lon="5.59702">
        <ele>375.5</ele>
        <time>2014-05-25T08:52:47Z</time>
      </trkpt>
      <trkpt lat="47.20301" lon="5.59723">
        <ele>374.9</ele>
        <time>2014-05-25T08:52:49Z</time>
      </trkpt>
      <trkpt lat="47.20306" lon="5.59742">
        <ele>374</ele>
        <time>2014-05-25T08:52:51Z</time>
      </trkpt>
      <trkpt lat="47.20311" lon="5.59764">
        <ele>373.9</ele>
        <time>2014-05-25T08:52:53Z</time>
      </trkpt>
      <trkpt lat="47.20314" lon="5.59784">
        <ele>373.2</ele>
        <time>2014-05-25T08:52:55Z</time>
      </trkpt>
      <trkpt lat="47.20317" lon="5.59803">
        <ele>373</ele>
        <time>2014-05-25T08:52:57Z</time>
      </trkpt>
      <trkpt lat="47.2032" lon="5.59822">
        <ele>372</ele>
        <time>2014-05-25T08:52:59Z</time>
      </trkpt>
      <trkpt lat="47.20323" lon="5.5984">
        <ele>372.4</ele>
        <time>2014-05-25T08:53:01Z</time>
      </trkpt>
      <trkpt lat="47.20324" lon="5.59859">
        <ele>371.6</ele>
        <time>2014-05-25T08:53:03Z</time>
      </trkpt>
      <trkpt lat="47.2032" lon="5.59879">
        <ele>371</ele>
        <time>2014-05-25T08:53:05Z</time>
      </trkpt>
      <trkpt lat="47.20316" lon="5.59896">
        <ele>371.2</ele>
        <time>2014-05-25T08:53:07Z</time>
      </trkpt>
      <trkpt lat="47.20315" lon="5.59912">
        <ele>371</ele>
        <time>2014-05-25T08:53:09Z</time>
      </trkpt>
      <trkpt lat="47.20313" lon="5.59928">
        <ele>371</ele>
        <time>2014-05-25T08:53:11Z</time>
      </trkpt>
      <trkpt lat="47.2031" lon="5.59946">
        <ele>371.1</ele>
        <time>2014-05-25T08:53:13Z</time>
      </trkpt>
      <trkpt lat="47.20307" lon="5.59964">
        <ele>371</ele>
        <time>2014-05-25T08:53:15Z</time>
      </trkpt>
      <trkpt lat="47.20305" lon="5.59982">
        <ele>371.1</ele>
        <time>2014-05-25T08:53:17Z</time>
      </trkpt>
      <trkpt lat="47.20304" lon="5.60001">
        <ele>370.8</ele>
        <time>2014-05-25T08:53:19Z</time>
      </trkpt>
      <trkpt lat="47.20304" lon="5.60019">
        <ele>370.6</ele>
        <time>2014-05-25T08:53:21Z</time>
      </trkpt>
      <trkpt lat="47.20303" lon="5.6004">
        <ele>370.3</ele>
        <time>2014-05-25T08:53:23Z</time>
      </trkpt>
      <trkpt lat="47.20302" lon="5.60062">
        <ele>370.2</ele>
        <time>2014-05-25T08:53:25Z</time>
      </trkpt>
      <trkpt lat="47.203" lon="5.60084">
        <ele>370</ele>
        <time>2014-05-25T08:53:27Z</time>
      </trkpt>
      <trkpt lat="47.20297" lon="5.60104">
        <ele>369.6</ele>
        <time>2014-05-25T08:53:29Z</time>
      </trkpt>
      <trkpt lat="47.20291" lon="5.60137">
        <ele>369.4</ele>
        <time>2014-05-25T08:53:33Z</time>
      </trkpt>
      <trkpt lat="47.2029" lon="5.60152">
        <ele>369.5</ele>
        <time>2014-05-25T08:53:35Z</time>
      </trkpt>
      <trkpt lat="47.20289" lon="5.60168">
        <ele>369.8</ele>
        <time>2014-05-25T08:53:37Z</time>
      </trkpt>
      <trkpt lat="47.20288" lon="5.60184">
        <ele>370.3</ele>
        <time>2014-05-25T08:53:39Z</time>
      </trkpt>
      <trkpt lat="47.20288" lon="5.60198">
        <ele>370.7</ele>
        <time>2014-05-25T08:53:41Z</time>
      </trkpt>
      <trkpt lat="47.20287" lon="5.60211">
        <ele>370.6</ele>
        <time>2014-05-25T08:53:43Z</time>
      </trkpt>
      <trkpt lat="47.20285" lon="5.60226">
        <ele>371.1</ele>
        <time>2014-05-25T08:53:45Z</time>
      </trkpt>
      <trkpt lat="47.20284" lon="5.60241">
        <ele>371.9</ele>
        <time>2014-05-25T08:53:47Z</time>
      </trkpt>
      <trkpt lat="47.20282" lon="5.60258">
        <ele>372.4</ele>
        <time>2014-05-25T08:53:50Z</time>
      </trkpt>
      <trkpt lat="47.20277" lon="5.60272">
        <ele>372</ele>
        <time>2014-05-25T08:53:53Z</time>
      </trkpt>
      <trkpt lat="47.20271" lon="5.60288">
        <ele>372</ele>
        <time>2014-05-25T08:53:56Z</time>
      </trkpt>
      <trkpt lat="47.20265" lon="5.60302">
        <ele>372</ele>
        <time>2014-05-25T08:53:59Z</time>
      </trkpt>
      <trkpt lat="47.20258" lon="5.60318">
        <ele>372.3</ele>
        <time>2014-05-25T08:54:02Z</time>
      </trkpt>
      <trkpt lat="47.20252" lon="5.6033">
        <ele>371.9</ele>
        <time>2014-05-25T08:54:04Z</time>
      </trkpt>
      <trkpt lat="47.20247" lon="5.60344">
        <ele>371</ele>
        <time>2014-05-25T08:54:06Z</time>
      </trkpt>
      <trkpt lat="47.20244" lon="5.60356">
        <ele>370.3</ele>
        <time>2014-05-25T08:54:08Z</time>
      </trkpt>
      <trkpt lat="47.20241" lon="5.60369">
        <ele>369.6</ele>
        <time>2014-05-25T08:54:10Z</time>
      </trkpt>
      <trkpt lat="47.20237" lon="5.60386">
        <ele>368.3</ele>
        <time>2014-05-25T08:54:13Z</time>
      </trkpt>
      <trkpt lat="47.20234" lon="5.604">
        <ele>366.8</ele>
        <time>2014-05-25T08:54:15Z</time>
      </trkpt>
      <trkpt lat="47.20232" lon="5.60415">
        <ele>365.3</ele>
        <time>2014-05-25T08:54:17Z</time>
      </trkpt>
      <trkpt lat="47.20229" lon="5.60431">
        <ele>364</ele>
        <time>2014-05-25T08:54:19Z</time>
      </trkpt>
      <trkpt lat="47.20226" lon="5.6045">
        <ele>362.3</ele>
        <time>2014-05-25T08:54:21Z</time>
      </trkpt>
      <trkpt lat="47.20225" lon="5.60469">
        <ele>360.4</ele>
        <time>2014-05-25T08:54:23Z</time>
      </trkpt>
      <trkpt lat="47.20224" lon="5.60492">
        <ele>358.7</ele>
        <time>2014-05-25T08:54:25Z</time>
      </trkpt>
      <trkpt lat="47.20224" lon="5.60515">
        <ele>356.6</ele>
        <time>2014-05-25T08:54:27Z</time>
      </trkpt>
      <trkpt lat="47.20228" lon="5.60535">
        <ele>355.3</ele>
        <time>2014-05-25T08:54:29Z</time>
      </trkpt>
      <trkpt lat="47.20236" lon="5.60551">
        <ele>354.3</ele>
        <time>2014-05-25T08:54:31Z</time>
      </trkpt>
      <trkpt lat="47.20257" lon="5.60582">
        <ele>352.2</ele>
        <time>2014-05-25T08:54:35Z</time>
      </trkpt>
      <trkpt lat="47.20267" lon="5.60597">
        <ele>351</ele>
        <time>2014-05-25T08:54:37Z</time>
      </trkpt>
      <trkpt lat="47.20274" lon="5.60614">
        <ele>349.6</ele>
        <time>2014-05-25T08:54:39Z</time>
      </trkpt>
      <trkpt lat="47.20278" lon="5.60635">
        <ele>348.3</ele>
        <time>2014-05-25T08:54:41Z</time>
      </trkpt>
      <trkpt lat="47.2028" lon="5.60656">
        <ele>346.2</ele>
        <time>2014-05-25T08:54:43Z</time>
      </trkpt>
      <trkpt lat="47.20281" lon="5.60681">
        <ele>344</ele>
        <time>2014-05-25T08:54:45Z</time>
      </trkpt>
      <trkpt lat="47.20283" lon="5.60709">
        <ele>340.7</ele>
        <time>2014-05-25T08:54:47Z</time>
      </trkpt>
      <trkpt lat="47.20285" lon="5.60723">
        <ele>339.4</ele>
        <time>2014-05-25T08:54:48Z</time>
      </trkpt>
      <trkpt lat="47.20285" lon="5.60738">
        <ele>337.9</ele>
        <time>2014-05-25T08:54:49Z</time>
      </trkpt>
      <trkpt lat="47.20287" lon="5.60753">
        <ele>336.6</ele>
        <time>2014-05-25T08:54:50Z</time>
      </trkpt>
      <trkpt lat="47.20289" lon="5.60767">
        <ele>335.3</ele>
        <time>2014-05-25T08:54:51Z</time>
      </trkpt>
      <trkpt lat="47.2029" lon="5.60782">
        <ele>333.8</ele>
        <time>2014-05-25T08:54:52Z</time>
      </trkpt>
      <trkpt lat="47.2029" lon="5.60796">
        <ele>333.1</ele>
        <time>2014-05-25T08:54:53Z</time>
      </trkpt>
      <trkpt lat="47.20289" lon="5.60821">
        <ele>330.5</ele>
        <time>2014-05-25T08:54:55Z</time>
      </trkpt>
      <trkpt lat="47.20286" lon="5.60841">
        <ele>328.6</ele>
        <time>2014-05-25T08:54:57Z</time>
      </trkpt>
      <trkpt lat="47.20284" lon="5.6086">
        <ele>327</ele>
        <time>2014-05-25T08:54:59Z</time>
      </trkpt>
      <trkpt lat="47.20284" lon="5.60878">
        <ele>325.4</ele>
        <time>2014-05-25T08:55:01Z</time>
      </trkpt>
      <trkpt lat="47.20285" lon="5.60896">
        <ele>323.7</ele>
        <time>2014-05-25T08:55:03Z</time>
      </trkpt>
      <trkpt lat="47.20285" lon="5.60918">
        <ele>322.1</ele>
        <time>2014-05-25T08:55:05Z</time>
      </trkpt>
      <trkpt lat="47.20287" lon="5.60943">
        <ele>320.7</ele>
        <time>2014-05-25T08:55:07Z</time>
      </trkpt>
      <trkpt lat="47.20291" lon="5.60965">
        <ele>319.3</ele>
        <time>2014-05-25T08:55:09Z</time>
      </trkpt>
      <trkpt lat="47.20295" lon="5.60982">
        <ele>317.7</ele>
        <time>2014-05-25T08:55:11Z</time>
      </trkpt>
      <trkpt lat="47.20299" lon="5.61">
        <ele>315.8</ele>
        <time>2014-05-25T08:55:13Z</time>
      </trkpt>
      <trkpt lat="47.20303" lon="5.61017">
        <ele>313.8</ele>
        <time>2014-05-25T08:55:15Z</time>
      </trkpt>
      <trkpt lat="47.20309" lon="5.61037">
        <ele>311.3</ele>
        <time>2014-05-25T08:55:17Z</time>
      </trkpt>
      <trkpt lat="47.20316" lon="5.61057">
        <ele>309.3</ele>
        <time>2014-05-25T08:55:19Z</time>
      </trkpt>
      <trkpt lat="47.20324" lon="5.61079">
        <ele>306.9</ele>
        <time>2014-05-25T08:55:21Z</time>
      </trkpt>
      <trkpt lat="47.20332" lon="5.611">
        <ele>304.6</ele>
        <time>2014-05-25T08:55:23Z</time>
      </trkpt>
      <trkpt lat="47.2034" lon="5.61124">
        <ele>303.2</ele>
        <time>2014-05-25T08:55:25Z</time>
      </trkpt>
      <trkpt lat="47.20346" lon="5.61136">
        <ele>302.2</ele>
        <time>2014-05-25T08:55:26Z</time>
      </trkpt>
      <trkpt lat="47.20352" lon="5.61148">
        <ele>301.1</ele>
        <time>2014-05-25T08:55:27Z</time>
      </trkpt>
      <trkpt lat="47.20358" lon="5.6116">
        <ele>299.9</ele>
        <time>2014-05-25T08:55:28Z</time>
      </trkpt>
      <trkpt lat="47.20363" lon="5.61171">
        <ele>299</ele>
        <time>2014-05-25T08:55:29Z</time>
      </trkpt>
      <trkpt lat="47.20373" lon="5.61192">
        <ele>297.5</ele>
        <time>2014-05-25T08:55:31Z</time>
      </trkpt>
      <trkpt lat="47.20383" lon="5.61211">
        <ele>295.9</ele>
        <time>2014-05-25T08:55:33Z</time>
      </trkpt>
      <trkpt lat="47.20397" lon="5.61244">
        <ele>292.7</ele>
        <time>2014-05-25T08:55:36Z</time>
      </trkpt>
      <trkpt lat="47.20402" lon="5.61262">
        <ele>290.5</ele>
        <time>2014-05-25T08:55:38Z</time>
      </trkpt>
      <trkpt lat="47.20406" lon="5.61279">
        <ele>288.2</ele>
        <time>2014-05-25T08:55:40Z</time>
      </trkpt>
      <trkpt lat="47.20407" lon="5.61296">
        <ele>286</ele>
        <time>2014-05-25T08:55:42Z</time>
      </trkpt>
      <trkpt lat="47.20407" lon="5.61313">
        <ele>283.8</ele>
        <time>2014-05-25T08:55:44Z</time>
      </trkpt>
      <trkpt lat="47.20404" lon="5.61332">
        <ele>281.9</ele>
        <time>2014-05-25T08:55:46Z</time>
      </trkpt>
      <trkpt lat="47.20399" lon="5.61353">
        <ele>280</ele>
        <time>2014-05-25T08:55:48Z</time>
      </trkpt>
      <trkpt lat="47.20396" lon="5.61374">
        <ele>278.1</ele>
        <time>2014-05-25T08:55:50Z</time>
      </trkpt>
      <trkpt lat="47.20392" lon="5.61388">
        <ele>275.7</ele>
        <time>2014-05-25T08:55:52Z</time>
      </trkpt>
      <trkpt lat="47.20389" lon="5.61405">
        <ele>273.4</ele>
        <time>2014-05-25T08:55:54Z</time>
      </trkpt>
      <trkpt lat="47.2039" lon="5.61424">
        <ele>272.2</ele>
        <time>2014-05-25T08:55:56Z</time>
      </trkpt>
      <trkpt lat="47.20398" lon="5.61441">
        <ele>271.1</ele>
        <time>2014-05-25T08:55:58Z</time>
      </trkpt>
      <trkpt lat="47.20407" lon="5.61456">
        <ele>269.5</ele>
        <time>2014-05-25T08:56:00Z</time>
      </trkpt>
      <trkpt lat="47.20409" lon="5.61472">
        <ele>268</ele>
        <time>2014-05-25T08:56:02Z</time>
      </trkpt>
      <trkpt lat="47.20413" lon="5.61485">
        <ele>266.1</ele>
        <time>2014-05-25T08:56:04Z</time>
      </trkpt>
      <trkpt lat="47.20419" lon="5.61496">
        <ele>265.5</ele>
        <time>2014-05-25T08:56:06Z</time>
      </trkpt>
      <trkpt lat="47.20428" lon="5.615">
        <ele>265.2</ele>
        <time>2014-05-25T08:56:08Z</time>
      </trkpt>
      <trkpt lat="47.20438" lon="5.61502">
        <ele>264.7</ele>
        <time>2014-05-25T08:56:10Z</time>
      </trkpt>
      <trkpt lat="47.20447" lon="5.61504">
        <ele>264.2</ele>
        <time>2014-05-25T08:56:12Z</time>
      </trkpt>
      <trkpt lat="47.20456" lon="5.61504">
        <ele>264.4</ele>
        <time>2014-05-25T08:56:14Z</time>
      </trkpt>
      <trkpt lat="47.20466" lon="5.61507">
        <ele>264.5</ele>
        <time>2014-05-25T08:56:16Z</time>
      </trkpt>
      <trkpt lat="47.20476" lon="5.61509">
        <ele>264.4</ele>
        <time>2014-05-25T08:56:18Z</time>
      </trkpt>
      <trkpt lat="47.20487" lon="5.61512">
        <ele>264.1</ele>
        <time>2014-05-25T08:56:20Z</time>
      </trkpt>
      <trkpt lat="47.20498" lon="5.61513">
        <ele>264</ele>
        <time>2014-05-25T08:56:22Z</time>
      </trkpt>
      <trkpt lat="47.20508" lon="5.61512">
        <ele>264</ele>
        <time>2014-05-25T08:56:24Z</time>
      </trkpt>
      <trkpt lat="47.20518" lon="5.61513">
        <ele>264.5</ele>
        <time>2014-05-25T08:56:26Z</time>
      </trkpt>
      <trkpt lat="47.20528" lon="5.61515">
        <ele>264.5</ele>
        <time>2014-05-25T08:56:28Z</time>
      </trkpt>
      <trkpt lat="47.20538" lon="5.61519">
        <ele>264.3</ele>
        <time>2014-05-25T08:56:30Z</time>
      </trkpt>
      <trkpt lat="47.20548" lon="5.61522">
        <ele>263.6</ele>
        <time>2014-05-25T08:56:32Z</time>
      </trkpt>
      <trkpt lat="47.20559" lon="5.61526">
        <ele>264.1</ele>
        <time>2014-05-25T08:56:34Z</time>
      </trkpt>
      <trkpt lat="47.20566" lon="5.6155">
        <ele>263.2</ele>
        <time>2014-05-25T08:56:39Z</time>
      </trkpt>
      <trkpt lat="47.20566" lon="5.61567">
        <ele>261.7</ele>
        <time>2014-05-25T08:56:42Z</time>
      </trkpt>
      <trkpt lat="47.20566" lon="5.6158">
        <ele>259.9</ele>
        <time>2014-05-25T08:56:47Z</time>
      </trkpt>
      <trkpt lat="47.20557" lon="5.6158">
        <ele>256.8</ele>
        <time>2014-05-25T08:57:23Z</time>
      </trkpt>
      <trkpt lat="47.20567" lon="5.61585">
        <ele>257</ele>
        <time>2014-05-25T09:00:40Z</time>
      </trkpt>
      <trkpt lat="47.20547" lon="5.61589">
        <ele>256.2</ele>
        <time>2014-05-25T09:01:51Z</time>
      </trkpt>
      <trkpt lat="47.20529" lon="5.61607">
        <ele>255.7</ele>
        <time>2014-05-25T09:01:57Z</time>
      </trkpt>
      <trkpt lat="47.20522" lon="5.61616">
        <ele>255.5</ele>
        <time>2014-05-25T09:01:59Z</time>
      </trkpt>
      <trkpt lat="47.20515" lon="5.61632">
        <ele>255.2</ele>
        <time>2014-05-25T09:02:02Z</time>
      </trkpt>
      <trkpt lat="47.20515" lon="5.61646">
        <ele>254.9</ele>
        <time>2014-05-25T09:02:06Z</time>
      </trkpt>
      <trkpt lat="47.2052" lon="5.61661">
        <ele>255.3</ele>
        <time>2014-05-25T09:02:10Z</time>
      </trkpt>
      <trkpt lat="47.20526" lon="5.61676">
        <ele>255.8</ele>
        <time>2014-05-25T09:02:14Z</time>
      </trkpt>
      <trkpt lat="47.20532" lon="5.61686">
        <ele>255.9</ele>
        <time>2014-05-25T09:02:17Z</time>
      </trkpt>
      <trkpt lat="47.20539" lon="5.61699">
        <ele>256.4</ele>
        <time>2014-05-25T09:02:20Z</time>
      </trkpt>
      <trkpt lat="47.20546" lon="5.61711">
        <ele>257</ele>
        <time>2014-05-25T09:02:23Z</time>
      </trkpt>
      <trkpt lat="47.20553" lon="5.61723">
        <ele>257.3</ele>
        <time>2014-05-25T09:02:26Z</time>
      </trkpt>
      <trkpt lat="47.20562" lon="5.61733">
        <ele>257.8</ele>
        <time>2014-05-25T09:02:29Z</time>
      </trkpt>
      <trkpt lat="47.20572" lon="5.61742">
        <ele>258</ele>
        <time>2014-05-25T09:02:32Z</time>
      </trkpt>
      <trkpt lat="47.20581" lon="5.61752">
        <ele>258.1</ele>
        <time>2014-05-25T09:02:35Z</time>
      </trkpt>
      <trkpt lat="47.20588" lon="5.61764">
        <ele>258.3</ele>
        <time>2014-05-25T09:02:38Z</time>
      </trkpt>
      <trkpt lat="47.20584" lon="5.61783">
        <ele>257.8</ele>
        <time>2014-05-25T09:02:41Z</time>
      </trkpt>
      <trkpt lat="47.20577" lon="5.61793">
        <ele>257.9</ele>
        <time>2014-05-25T09:02:43Z</time>
      </trkpt>
      <trkpt lat="47.20569" lon="5.61804">
        <ele>257.7</ele>
        <time>2014-05-25T09:02:45Z</time>
      </trkpt>
      <trkpt lat="47.20562" lon="5.61815">
        <ele>257.5</ele>
        <time>2014-05-25T09:02:47Z</time>
      </trkpt>
      <trkpt lat="47.20554" lon="5.61827">
        <ele>257.1</ele>
        <time>2014-05-25T09:02:49Z</time>
      </trkpt>
      <trkpt lat="47.20547" lon="5.61838">
        <ele>257</ele>
        <time>2014-05-25T09:02:51Z</time>
      </trkpt>
      <trkpt lat="47.20539" lon="5.61849">
        <ele>257.2</ele>
        <time>2014-05-25T09:02:53Z</time>
      </trkpt>
      <trkpt lat="47.20525" lon="5.61868">
        <ele>257.3</ele>
        <time>2014-05-25T09:02:57Z</time>
      </trkpt>
      <trkpt lat="47.20515" lon="5.61882">
        <ele>258.2</ele>
        <time>2014-05-25T09:03:00Z</time>
      </trkpt>
      <trkpt lat="47.20506" lon="5.61895">
        <ele>258.2</ele>
        <time>2014-05-25T09:03:03Z</time>
      </trkpt>
      <trkpt lat="47.20496" lon="5.61907">
        <ele>258.2</ele>
        <time>2014-05-25T09:03:06Z</time>
      </trkpt>
      <trkpt lat="47.20491" lon="5.61919">
        <ele>258.4</ele>
        <time>2014-05-25T09:03:09Z</time>
      </trkpt>
      <trkpt lat="47.20491" lon="5.61939">
        <ele>258</ele>
        <time>2014-05-25T09:03:12Z</time>
      </trkpt>
      <trkpt lat="47.20492" lon="5.61954">
        <ele>257.9</ele>
        <time>2014-05-25T09:03:14Z</time>
      </trkpt>
      <trkpt lat="47.20498" lon="5.61966">
        <ele>257.8</ele>
        <time>2014-05-25T09:03:16Z</time>
      </trkpt>
      <trkpt lat="47.20504" lon="5.61977">
        <ele>257.8</ele>
        <time>2014-05-25T09:03:18Z</time>
      </trkpt>
      <trkpt lat="47.20511" lon="5.61987">
        <ele>258</ele>
        <time>2014-05-25T09:03:20Z</time>
      </trkpt>
      <trkpt lat="47.20518" lon="5.61998">
        <ele>258</ele>
        <time>2014-05-25T09:03:22Z</time>
      </trkpt>
      <trkpt lat="47.20526" lon="5.62009">
        <ele>257.7</ele>
        <time>2014-05-25T09:03:24Z</time>
      </trkpt>
      <trkpt lat="47.20534" lon="5.6202">
        <ele>257.5</ele>
        <time>2014-05-25T09:03:26Z</time>
      </trkpt>
      <trkpt lat="47.20542" lon="5.62031">
        <ele>257.6</ele>
        <time>2014-05-25T09:03:28Z</time>
      </trkpt>
      <trkpt lat="47.2055" lon="5.62042">
        <ele>257.4</ele>
        <time>2014-05-25T09:03:30Z</time>
      </trkpt>
      <trkpt lat="47.20558" lon="5.62052">
        <ele>257.4</ele>
        <time>2014-05-25T09:03:32Z</time>
      </trkpt>
      <trkpt lat="47.20565" lon="5.62063">
        <ele>257.6</ele>
        <time>2014-05-25T09:03:34Z</time>
      </trkpt>
      <trkpt lat="47.20573" lon="5.62074">
        <ele>257.3</ele>
        <time>2014-05-25T09:03:36Z</time>
      </trkpt>
      <trkpt lat="47.20581" lon="5.62085">
        <ele>257.1</ele>
        <time>2014-05-25T09:03:38Z</time>
      </trkpt>
      <trkpt lat="47.2059" lon="5.62096">
        <ele>256.9</ele>
        <time>2014-05-25T09:03:40Z</time>
      </trkpt>
      <trkpt lat="47.20597" lon="5.62108">
        <ele>256.8</ele>
        <time>2014-05-25T09:03:42Z</time>
      </trkpt>
      <trkpt lat="47.20605" lon="5.6212">
        <ele>256.8</ele>
        <time>2014-05-25T09:03:44Z</time>
      </trkpt>
      <trkpt lat="47.20612" lon="5.62131">
        <ele>256.8</ele>
        <time>2014-05-25T09:03:46Z</time>
      </trkpt>
      <trkpt lat="47.20619" lon="5.62143">
        <ele>256.9</ele>
        <time>2014-05-25T09:03:48Z</time>
      </trkpt>
      <trkpt lat="47.20626" lon="5.62154">
        <ele>257.1</ele>
        <time>2014-05-25T09:03:50Z</time>
      </trkpt>
      <trkpt lat="47.20633" lon="5.62165">
        <ele>257.7</ele>
        <time>2014-05-25T09:03:52Z</time>
      </trkpt>
      <trkpt lat="47.20639" lon="5.62177">
        <ele>257.2</ele>
        <time>2014-05-25T09:03:54Z</time>
      </trkpt>
      <trkpt lat="47.20652" lon="5.62202">
        <ele>257.1</ele>
        <time>2014-05-25T09:03:58Z</time>
      </trkpt>
      <trkpt lat="47.20658" lon="5.62214">
        <ele>257.2</ele>
        <time>2014-05-25T09:04:00Z</time>
      </trkpt>
      <trkpt lat="47.20664" lon="5.62227">
        <ele>256.9</ele>
        <time>2014-05-25T09:04:02Z</time>
      </trkpt>
      <trkpt lat="47.2067" lon="5.6224">
        <ele>257.5</ele>
        <time>2014-05-25T09:04:04Z</time>
      </trkpt>
      <trkpt lat="47.20676" lon="5.62252">
        <ele>257.5</ele>
        <time>2014-05-25T09:04:06Z</time>
      </trkpt>
      <trkpt lat="47.20682" lon="5.62265">
        <ele>257.8</ele>
        <time>2014-05-25T09:04:08Z</time>
      </trkpt>
      <trkpt lat="47.20688" lon="5.62276">
        <ele>257.7</ele>
        <time>2014-05-25T09:04:10Z</time>
      </trkpt>
      <trkpt lat="47.20694" lon="5.62286">
        <ele>257.8</ele>
        <time>2014-05-25T09:04:12Z</time>
      </trkpt>
      <trkpt lat="47.20702" lon="5.62298">
        <ele>258.2</ele>
        <time>2014-05-25T09:04:15Z</time>
      </trkpt>
      <trkpt lat="47.20709" lon="5.62311">
        <ele>259.1</ele>
        <time>2014-05-25T09:04:18Z</time>
      </trkpt>
      <trkpt lat="47.20713" lon="5.62322">
        <ele>259.4</ele>
        <time>2014-05-25T09:04:21Z</time>
      </trkpt>
      <trkpt lat="47.20719" lon="5.62335">
        <ele>260.3</ele>
        <time>2014-05-25T09:04:24Z</time>
      </trkpt>
      <trkpt lat="47.20725" lon="5.62348">
        <ele>260.7</ele>
        <time>2014-05-25T09:04:27Z</time>
      </trkpt>
      <trkpt lat="47.20734" lon="5.62361">
        <ele>261</ele>
        <time>2014-05-25T09:04:30Z</time>
      </trkpt>
      <trkpt lat="47.20743" lon="5.62373">
        <ele>261.2</ele>
        <time>2014-05-25T09:04:33Z</time>
      </trkpt>
      <trkpt lat="47.20753" lon="5.62381">
        <ele>261.2</ele>
        <time>2014-05-25T09:04:36Z</time>
      </trkpt>
      <trkpt lat="47.20763" lon="5.62388">
        <ele>261.9</ele>
        <time>2014-05-25T09:04:39Z</time>
      </trkpt>
      <trkpt lat="47.20772" lon="5.62395">
        <ele>262.5</ele>
        <time>2014-05-25T09:04:42Z</time>
      </trkpt>
      <trkpt lat="47.20781" lon="5.62401">
        <ele>263.6</ele>
        <time>2014-05-25T09:04:45Z</time>
      </trkpt>
      <trkpt lat="47.20791" lon="5.62406">
        <ele>264.7</ele>
        <time>2014-05-25T09:04:49Z</time>
      </trkpt>
      <trkpt lat="47.208" lon="5.62407">
        <ele>265.4</ele>
        <time>2014-05-25T09:04:53Z</time>
      </trkpt>
      <trkpt lat="47.20811" lon="5.62407">
        <ele>267.2</ele>
        <time>2014-05-25T09:04:58Z</time>
      </trkpt>
      <trkpt lat="47.20829" lon="5.62404">
        <ele>268.8</ele>
        <time>2014-05-25T09:05:07Z</time>
      </trkpt>
      <trkpt lat="47.20838" lon="5.62399">
        <ele>269.3</ele>
        <time>2014-05-25T09:05:11Z</time>
      </trkpt>
      <trkpt lat="47.2085" lon="5.62389">
        <ele>269.9</ele>
        <time>2014-05-25T09:05:14Z</time>
      </trkpt>
      <trkpt lat="47.20861" lon="5.62382">
        <ele>269.7</ele>
        <time>2014-05-25T09:05:17Z</time>
      </trkpt>
      <trkpt lat="47.20873" lon="5.62374">
        <ele>268.6</ele>
        <time>2014-05-25T09:05:21Z</time>
      </trkpt>
      <trkpt lat="47.20883" lon="5.62365">
        <ele>269.3</ele>
        <time>2014-05-25T09:05:24Z</time>
      </trkpt>
      <trkpt lat="47.20892" lon="5.62363">
        <ele>269.9</ele>
        <time>2014-05-25T09:05:27Z</time>
      </trkpt>
      <trkpt lat="47.20902" lon="5.62365">
        <ele>270.4</ele>
        <time>2014-05-25T09:05:30Z</time>
      </trkpt>
      <trkpt lat="47.20911" lon="5.62369">
        <ele>271.3</ele>
        <time>2014-05-25T09:05:33Z</time>
      </trkpt>
      <trkpt lat="47.20921" lon="5.62374">
        <ele>271.5</ele>
        <time>2014-05-25T09:05:36Z</time>
      </trkpt>
      <trkpt lat="47.20931" lon="5.62376">
        <ele>271.5</ele>
        <time>2014-05-25T09:05:39Z</time>
      </trkpt>
      <trkpt lat="47.20943" lon="5.62375">
        <ele>271.5</ele>
        <time>2014-05-25T09:05:42Z</time>
      </trkpt>
      <trkpt lat="47.20952" lon="5.62373">
        <ele>271</ele>
        <time>2014-05-25T09:05:44Z</time>
      </trkpt>
      <trkpt lat="47.20962" lon="5.6237">
        <ele>271.2</ele>
        <time>2014-05-25T09:05:46Z</time>
      </trkpt>
      <trkpt lat="47.20971" lon="5.62367">
        <ele>271</ele>
        <time>2014-05-25T09:05:48Z</time>
      </trkpt>
      <trkpt lat="47.20983" lon="5.6237">
        <ele>271.4</ele>
        <time>2014-05-25T09:05:51Z</time>
      </trkpt>
      <trkpt lat="47.20986" lon="5.62382">
        <ele>272.2</ele>
        <time>2014-05-25T09:05:54Z</time>
      </trkpt>
      <trkpt lat="47.2099" lon="5.62396">
        <ele>273</ele>
        <time>2014-05-25T09:05:58Z</time>
      </trkpt>
      <trkpt lat="47.20995" lon="5.62408">
        <ele>273</ele>
        <time>2014-05-25T09:06:02Z</time>
      </trkpt>
      <trkpt lat="47.21008" lon="5.62435">
        <ele>274.6</ele>
        <time>2014-05-25T09:06:12Z</time>
      </trkpt>
      <trkpt lat="47.21015" lon="5.62448">
        <ele>275</ele>
        <time>2014-05-25T09:06:15Z</time>
      </trkpt>
      <trkpt lat="47.21022" lon="5.62458">
        <ele>275.3</ele>
        <time>2014-05-25T09:06:17Z</time>
      </trkpt>
      <trkpt lat="47.21026" lon="5.62471">
        <ele>275.2</ele>
        <time>2014-05-25T09:06:19Z</time>
      </trkpt>
      <trkpt lat="47.21025" lon="5.62485">
        <ele>274.9</ele>
        <time>2014-05-25T09:06:23Z</time>
      </trkpt>
      <trkpt lat="47.21027" lon="5.625">
        <ele>276.2</ele>
        <time>2014-05-25T09:06:28Z</time>
      </trkpt>
      <trkpt lat="47.21032" lon="5.62512">
        <ele>276.3</ele>
        <time>2014-05-25T09:06:31Z</time>
      </trkpt>
      <trkpt lat="47.21038" lon="5.62526">
        <ele>276.3</ele>
        <time>2014-05-25T09:06:34Z</time>
      </trkpt>
      <trkpt lat="47.21044" lon="5.62539">
        <ele>275.9</ele>
        <time>2014-05-25T09:06:37Z</time>
      </trkpt>
      <trkpt lat="47.21054" lon="5.62552">
        <ele>276.3</ele>
        <time>2014-05-25T09:06:40Z</time>
      </trkpt>
      <trkpt lat="47.21063" lon="5.62564">
        <ele>276.6</ele>
        <time>2014-05-25T09:06:43Z</time>
      </trkpt>
      <trkpt lat="47.21069" lon="5.62573">
        <ele>277.1</ele>
        <time>2014-05-25T09:06:45Z</time>
      </trkpt>
      <trkpt lat="47.21077" lon="5.62589">
        <ele>276.7</ele>
        <time>2014-05-25T09:06:47Z</time>
      </trkpt>
      <trkpt lat="47.21083" lon="5.626">
        <ele>276.7</ele>
        <time>2014-05-25T09:06:49Z</time>
      </trkpt>
      <trkpt lat="47.21087" lon="5.62613">
        <ele>276.5</ele>
        <time>2014-05-25T09:06:51Z</time>
      </trkpt>
      <trkpt lat="47.21093" lon="5.62625">
        <ele>276.3</ele>
        <time>2014-05-25T09:06:53Z</time>
      </trkpt>
      <trkpt lat="47.21099" lon="5.62636">
        <ele>276.5</ele>
        <time>2014-05-25T09:06:55Z</time>
      </trkpt>
      <trkpt lat="47.21105" lon="5.62646">
        <ele>275.6</ele>
        <time>2014-05-25T09:06:57Z</time>
      </trkpt>
      <trkpt lat="47.21113" lon="5.62655">
        <ele>276</ele>
        <time>2014-05-25T09:06:59Z</time>
      </trkpt>
      <trkpt lat="47.21122" lon="5.62661">
        <ele>275.6</ele>
        <time>2014-05-25T09:07:01Z</time>
      </trkpt>
      <trkpt lat="47.21131" lon="5.62667">
        <ele>276.1</ele>
        <time>2014-05-25T09:07:03Z</time>
      </trkpt>
      <trkpt lat="47.21149" lon="5.6268">
        <ele>276</ele>
        <time>2014-05-25T09:07:09Z</time>
      </trkpt>
      <trkpt lat="47.21158" lon="5.62683">
        <ele>275.8</ele>
        <time>2014-05-25T09:07:11Z</time>
      </trkpt>
      <trkpt lat="47.2117" lon="5.62691">
        <ele>275.9</ele>
        <time>2014-05-25T09:07:14Z</time>
      </trkpt>
      <trkpt lat="47.21179" lon="5.62703">
        <ele>276.1</ele>
        <time>2014-05-25T09:07:17Z</time>
      </trkpt>
      <trkpt lat="47.21185" lon="5.62716">
        <ele>276.8</ele>
        <time>2014-05-25T09:07:19Z</time>
      </trkpt>
      <trkpt lat="47.21192" lon="5.62726">
        <ele>276.3</ele>
        <time>2014-05-25T09:07:21Z</time>
      </trkpt>
      <trkpt lat="47.21197" lon="5.62738">
        <ele>275.9</ele>
        <time>2014-05-25T09:07:23Z</time>
      </trkpt>
      <trkpt lat="47.212" lon="5.62753">
        <ele>275.9</ele>
        <time>2014-05-25T09:07:25Z</time>
      </trkpt>
      <trkpt lat="47.21203" lon="5.62768">
        <ele>275.5</ele>
        <time>2014-05-25T09:07:27Z</time>
      </trkpt>
      <trkpt lat="47.21211" lon="5.6278">
        <ele>275.3</ele>
        <time>2014-05-25T09:07:29Z</time>
      </trkpt>
      <trkpt lat="47.21222" lon="5.62791">
        <ele>274.5</ele>
        <time>2014-05-25T09:07:31Z</time>
      </trkpt>
      <trkpt lat="47.21232" lon="5.62801">
        <ele>273.9</ele>
        <time>2014-05-25T09:07:33Z</time>
      </trkpt>
      <trkpt lat="47.21242" lon="5.62812">
        <ele>273.5</ele>
        <time>2014-05-25T09:07:35Z</time>
      </trkpt>
      <trkpt lat="47.21253" lon="5.62824">
        <ele>273.1</ele>
        <time>2014-05-25T09:07:37Z</time>
      </trkpt>
      <trkpt lat="47.21262" lon="5.62834">
        <ele>272.7</ele>
        <time>2014-05-25T09:07:39Z</time>
      </trkpt>
      <trkpt lat="47.21271" lon="5.6284">
        <ele>272</ele>
        <time>2014-05-25T09:07:41Z</time>
      </trkpt>
      <trkpt lat="47.21279" lon="5.6285">
        <ele>271</ele>
        <time>2014-05-25T09:07:43Z</time>
      </trkpt>
      <trkpt lat="47.21281" lon="5.62864">
        <ele>270.8</ele>
        <time>2014-05-25T09:07:45Z</time>
      </trkpt>
      <trkpt lat="47.21276" lon="5.62883">
        <ele>269</ele>
        <time>2014-05-25T09:07:48Z</time>
      </trkpt>
      <trkpt lat="47.21273" lon="5.62896">
        <ele>267.4</ele>
        <time>2014-05-25T09:07:50Z</time>
      </trkpt>
      <trkpt lat="47.21273" lon="5.62909">
        <ele>265.7</ele>
        <time>2014-05-25T09:07:53Z</time>
      </trkpt>
      <trkpt lat="47.21277" lon="5.62925">
        <ele>264.4</ele>
        <time>2014-05-25T09:07:57Z</time>
      </trkpt>
      <trkpt lat="47.21287" lon="5.62935">
        <ele>263.5</ele>
        <time>2014-05-25T09:08:00Z</time>
      </trkpt>
      <trkpt lat="47.21298" lon="5.62944">
        <ele>262.9</ele>
        <time>2014-05-25T09:08:03Z</time>
      </trkpt>
      <trkpt lat="47.21307" lon="5.62955">
        <ele>261.1</ele>
        <time>2014-05-25T09:08:06Z</time>
      </trkpt>
      <trkpt lat="47.21314" lon="5.62987">
        <ele>258.5</ele>
        <time>2014-05-25T09:08:11Z</time>
      </trkpt>
      <trkpt lat="47.21317" lon="5.63">
        <ele>255.7</ele>
        <time>2014-05-25T09:08:15Z</time>
      </trkpt>
      <trkpt lat="47.21321" lon="5.63017">
        <ele>254</ele>
        <time>2014-05-25T09:08:51Z</time>
      </trkpt>
      <trkpt lat="47.2132" lon="5.63037">
        <ele>252.1</ele>
        <time>2014-05-25T09:08:54Z</time>
      </trkpt>
      <trkpt lat="47.21319" lon="5.63053">
        <ele>251.3</ele>
        <time>2014-05-25T09:08:56Z</time>
      </trkpt>
      <trkpt lat="47.21319" lon="5.63067">
        <ele>249.5</ele>
        <time>2014-05-25T09:08:58Z</time>
      </trkpt>
      <trkpt lat="47.21316" lon="5.63086">
        <ele>247.9</ele>
        <time>2014-05-25T09:09:01Z</time>
      </trkpt>
      <trkpt lat="47.21312" lon="5.63098">
        <ele>246.3</ele>
        <time>2014-05-25T09:09:03Z</time>
      </trkpt>
      <trkpt lat="47.21308" lon="5.63116">
        <ele>244.5</ele>
        <time>2014-05-25T09:09:06Z</time>
      </trkpt>
      <trkpt lat="47.21308" lon="5.63131">
        <ele>242.9</ele>
        <time>2014-05-25T09:09:09Z</time>
      </trkpt>
      <trkpt lat="47.21321" lon="5.63164">
        <ele>239.8</ele>
        <time>2014-05-25T09:09:15Z</time>
      </trkpt>
      <trkpt lat="47.21324" lon="5.6318">
        <ele>239.2</ele>
        <time>2014-05-25T09:09:17Z</time>
      </trkpt>
      <trkpt lat="47.21327" lon="5.63196">
        <ele>237.8</ele>
        <time>2014-05-25T09:09:19Z</time>
      </trkpt>
      <trkpt lat="47.21327" lon="5.6321">
        <ele>237.3</ele>
        <time>2014-05-25T09:09:21Z</time>
      </trkpt>
      <trkpt lat="47.21327" lon="5.63225">
        <ele>236.9</ele>
        <time>2014-05-25T09:09:23Z</time>
      </trkpt>
      <trkpt lat="47.21332" lon="5.63243">
        <ele>236</ele>
        <time>2014-05-25T09:09:26Z</time>
      </trkpt>
      <trkpt lat="47.2134" lon="5.63254">
        <ele>235.1</ele>
        <time>2014-05-25T09:09:29Z</time>
      </trkpt>
      <trkpt lat="47.21347" lon="5.63263">
        <ele>235.2</ele>
        <time>2014-05-25T09:09:31Z</time>
      </trkpt>
      <trkpt lat="47.21355" lon="5.63272">
        <ele>235</ele>
        <time>2014-05-25T09:09:33Z</time>
      </trkpt>
      <trkpt lat="47.21364" lon="5.63279">
        <ele>234.8</ele>
        <time>2014-05-25T09:09:35Z</time>
      </trkpt>
      <trkpt lat="47.21372" lon="5.63284">
        <ele>234</ele>
        <time>2014-05-25T09:09:37Z</time>
      </trkpt>
      <trkpt lat="47.21384" lon="5.63291">
        <ele>233</ele>
        <time>2014-05-25T09:09:40Z</time>
      </trkpt>
      <trkpt lat="47.21394" lon="5.63297">
        <ele>231.7</ele>
        <time>2014-05-25T09:09:43Z</time>
      </trkpt>
      <trkpt lat="47.21396" lon="5.63313">
        <ele>230.5</ele>
        <time>2014-05-25T09:09:47Z</time>
      </trkpt>
      <trkpt lat="47.21396" lon="5.63328">
        <ele>228.8</ele>
        <time>2014-05-25T09:09:50Z</time>
      </trkpt>
      <trkpt lat="47.21395" lon="5.63345">
        <ele>227.7</ele>
        <time>2014-05-25T09:09:53Z</time>
      </trkpt>
      <trkpt lat="47.21392" lon="5.6336">
        <ele>226.1</ele>
        <time>2014-05-25T09:09:57Z</time>
      </trkpt>
      <trkpt lat="47.21401" lon="5.63366">
        <ele>224.5</ele>
        <time>2014-05-25T09:10:00Z</time>
      </trkpt>
      <trkpt lat="47.21411" lon="5.63372">
        <ele>224</ele>
        <time>2014-05-25T09:10:02Z</time>
      </trkpt>
      <trkpt lat="47.2142" lon="5.63381">
        <ele>223.4</ele>
        <time>2014-05-25T09:10:04Z</time>
      </trkpt>
      <trkpt lat="47.21428" lon="5.63393">
        <ele>222.9</ele>
        <time>2014-05-25T09:10:06Z</time>
      </trkpt>
      <trkpt lat="47.21432" lon="5.63407">
        <ele>223</ele>
        <time>2014-05-25T09:10:08Z</time>
      </trkpt>
      <trkpt lat="47.21436" lon="5.63423">
        <ele>222.2</ele>
        <time>2014-05-25T09:10:10Z</time>
      </trkpt>
      <trkpt lat="47.21438" lon="5.63452">
        <ele>221.1</ele>
        <time>2014-05-25T09:10:14Z</time>
      </trkpt>
      <trkpt lat="47.21441" lon="5.63467">
        <ele>220.8</ele>
        <time>2014-05-25T09:10:16Z</time>
      </trkpt>
      <trkpt lat="47.21449" lon="5.63479">
        <ele>220.7</ele>
        <time>2014-05-25T09:10:18Z</time>
      </trkpt>
      <trkpt lat="47.21459" lon="5.63489">
        <ele>220.9</ele>
        <time>2014-05-25T09:10:20Z</time>
      </trkpt>
      <trkpt lat="47.21468" lon="5.63499">
        <ele>220.7</ele>
        <time>2014-05-25T09:10:22Z</time>
      </trkpt>
      <trkpt lat="47.21479" lon="5.63506">
        <ele>220.2</ele>
        <time>2014-05-25T09:10:24Z</time>
      </trkpt>
      <trkpt lat="47.21488" lon="5.63515">
        <ele>219.8</ele>
        <time>2014-05-25T09:10:26Z</time>
      </trkpt>
      <trkpt lat="47.21498" lon="5.63524">
        <ele>219.6</ele>
        <time>2014-05-25T09:10:28Z</time>
      </trkpt>
      <trkpt lat="47.21507" lon="5.63534">
        <ele>218.7</ele>
        <time>2014-05-25T09:10:30Z</time>
      </trkpt>
      <trkpt lat="47.21515" lon="5.63546">
        <ele>218.9</ele>
        <time>2014-05-25T09:10:32Z</time>
      </trkpt>
      <trkpt lat="47.2152" lon="5.63559">
        <ele>219.3</ele>
        <time>2014-05-25T09:10:34Z</time>
      </trkpt>
      <trkpt lat="47.21521" lon="5.63573">
        <ele>220.1</ele>
        <time>2014-05-25T09:10:37Z</time>
      </trkpt>
      <trkpt lat="47.2152" lon="5.63588">
        <ele>221.3</ele>
        <time>2014-05-25T09:10:41Z</time>
      </trkpt>
      <trkpt lat="47.21517" lon="5.63601">
        <ele>222.3</ele>
        <time>2014-05-25T09:10:45Z</time>
      </trkpt>
      <trkpt lat="47.21509" lon="5.63611">
        <ele>223</ele>
        <time>2014-05-25T09:10:49Z</time>
      </trkpt>
      <trkpt lat="47.21501" lon="5.6362">
        <ele>224.4</ele>
        <time>2014-05-25T09:10:53Z</time>
      </trkpt>
      <trkpt lat="47.21494" lon="5.63629">
        <ele>225.3</ele>
        <time>2014-05-25T09:10:57Z</time>
      </trkpt>
      <trkpt lat="47.21485" lon="5.63637">
        <ele>225.7</ele>
        <time>2014-05-25T09:11:00Z</time>
      </trkpt>
      <trkpt lat="47.21477" lon="5.63646">
        <ele>225.6</ele>
        <time>2014-05-25T09:11:03Z</time>
      </trkpt>
      <trkpt lat="47.21468" lon="5.63657">
        <ele>225.5</ele>
        <time>2014-05-25T09:11:06Z</time>
      </trkpt>
      <trkpt lat="47.21461" lon="5.63667">
        <ele>225.1</ele>
        <time>2014-05-25T09:11:08Z</time>
      </trkpt>
      <trkpt lat="47.21452" lon="5.63679">
        <ele>224.5</ele>
        <time>2014-05-25T09:11:10Z</time>
      </trkpt>
      <trkpt lat="47.21444" lon="5.63691">
        <ele>223</ele>
        <time>2014-05-25T09:11:12Z</time>
      </trkpt>
      <trkpt lat="47.21437" lon="5.63726">
        <ele>220.8</ele>
        <time>2014-05-25T09:11:16Z</time>
      </trkpt>
      <trkpt lat="47.21435" lon="5.6375">
        <ele>219.7</ele>
        <time>2014-05-25T09:11:18Z</time>
      </trkpt>
      <trkpt lat="47.21434" lon="5.63775">
        <ele>218.8</ele>
        <time>2014-05-25T09:11:20Z</time>
      </trkpt>
      <trkpt lat="47.21433" lon="5.63799">
        <ele>217.9</ele>
        <time>2014-05-25T09:11:22Z</time>
      </trkpt>
      <trkpt lat="47.21431" lon="5.63823">
        <ele>217.3</ele>
        <time>2014-05-25T09:11:24Z</time>
      </trkpt>
      <trkpt lat="47.21432" lon="5.63847">
        <ele>216.3</ele>
        <time>2014-05-25T09:11:26Z</time>
      </trkpt>
      <trkpt lat="47.2143" lon="5.63871">
        <ele>215.9</ele>
        <time>2014-05-25T09:11:28Z</time>
      </trkpt>
      <trkpt lat="47.2143" lon="5.63894">
        <ele>215.2</ele>
        <time>2014-05-25T09:11:30Z</time>
      </trkpt>
      <trkpt lat="47.21429" lon="5.63915">
        <ele>214.6</ele>
        <time>2014-05-25T09:11:32Z</time>
      </trkpt>
      <trkpt lat="47.21429" lon="5.63935">
        <ele>213.8</ele>
        <time>2014-05-25T09:11:34Z</time>
      </trkpt>
      <trkpt lat="47.21432" lon="5.63952">
        <ele>213.5</ele>
        <time>2014-05-25T09:11:36Z</time>
      </trkpt>
      <trkpt lat="47.21438" lon="5.63966">
        <ele>213.2</ele>
        <time>2014-05-25T09:11:38Z</time>
      </trkpt>
      <trkpt lat="47.21448" lon="5.63975">
        <ele>213.2</ele>
        <time>2014-05-25T09:11:40Z</time>
      </trkpt>
      <trkpt lat="47.2146" lon="5.63982">
        <ele>212.8</ele>
        <time>2014-05-25T09:11:42Z</time>
      </trkpt>
      <trkpt lat="47.2147" lon="5.63987">
        <ele>211.9</ele>
        <time>2014-05-25T09:11:44Z</time>
      </trkpt>
      <trkpt lat="47.21481" lon="5.63988">
        <ele>210.6</ele>
        <time>2014-05-25T09:11:48Z</time>
      </trkpt>
      <trkpt lat="47.21491" lon="5.63986">
        <ele>210.1</ele>
        <time>2014-05-25T09:11:57Z</time>
      </trkpt>
      <trkpt lat="47.21502" lon="5.63986">
        <ele>210.3</ele>
        <time>2014-05-25T09:12:00Z</time>
      </trkpt>
      <trkpt lat="47.21511" lon="5.6399">
        <ele>210.5</ele>
        <time>2014-05-25T09:12:02Z</time>
      </trkpt>
      <trkpt lat="47.21521" lon="5.63994">
        <ele>208.7</ele>
        <time>2014-05-25T09:12:04Z</time>
      </trkpt>
      <trkpt lat="47.21532" lon="5.63997">
        <ele>209.3</ele>
        <time>2014-05-25T09:12:06Z</time>
      </trkpt>
      <trkpt lat="47.21543" lon="5.63999">
        <ele>209.7</ele>
        <time>2014-05-25T09:12:08Z</time>
      </trkpt>
      <trkpt lat="47.21554" lon="5.64001">
        <ele>209.1</ele>
        <time>2014-05-25T09:12:10Z</time>
      </trkpt>
      <trkpt lat="47.21564" lon="5.64003">
        <ele>209.2</ele>
        <time>2014-05-25T09:12:12Z</time>
      </trkpt>
      <trkpt lat="47.21574" lon="5.64005">
        <ele>209.3</ele>
        <time>2014-05-25T09:12:14Z</time>
      </trkpt>
      <trkpt lat="47.21594" lon="5.64007">
        <ele>208.5</ele>
        <time>2014-05-25T09:12:18Z</time>
      </trkpt>
      <trkpt lat="47.21604" lon="5.64007">
        <ele>209.5</ele>
        <time>2014-05-25T09:12:20Z</time>
      </trkpt>
      <trkpt lat="47.21617" lon="5.64006">
        <ele>209.4</ele>
        <time>2014-05-25T09:12:23Z</time>
      </trkpt>
      <trkpt lat="47.21626" lon="5.64006">
        <ele>209</ele>
        <time>2014-05-25T09:12:25Z</time>
      </trkpt>
      <trkpt lat="47.21639" lon="5.64006">
        <ele>208.8</ele>
        <time>2014-05-25T09:12:28Z</time>
      </trkpt>
      <trkpt lat="47.21648" lon="5.64006">
        <ele>208.6</ele>
        <time>2014-05-25T09:12:30Z</time>
      </trkpt>
      <trkpt lat="47.21658" lon="5.64005">
        <ele>207.8</ele>
        <time>2014-05-25T09:12:32Z</time>
      </trkpt>
      <trkpt lat="47.21667" lon="5.64003">
        <ele>207.5</ele>
        <time>2014-05-25T09:12:34Z</time>
      </trkpt>
      <trkpt lat="47.21676" lon="5.64002">
        <ele>207.3</ele>
        <time>2014-05-25T09:12:36Z</time>
      </trkpt>
      <trkpt lat="47.21686" lon="5.64">
        <ele>207.4</ele>
        <time>2014-05-25T09:12:38Z</time>
      </trkpt>
      <trkpt lat="47.21699" lon="5.63999">
        <ele>207.4</ele>
        <time>2014-05-25T09:12:41Z</time>
      </trkpt>
      <trkpt lat="47.2171" lon="5.64001">
        <ele>207.5</ele>
        <time>2014-05-25T09:12:44Z</time>
      </trkpt>
      <trkpt lat="47.21724" lon="5.63998">
        <ele>207.5</ele>
        <time>2014-05-25T09:12:47Z</time>
      </trkpt>
      <trkpt lat="47.21735" lon="5.63994">
        <ele>206.5</ele>
        <time>2014-05-25T09:12:49Z</time>
      </trkpt>
      <trkpt lat="47.21746" lon="5.63988">
        <ele>206.2</ele>
        <time>2014-05-25T09:12:51Z</time>
      </trkpt>
      <trkpt lat="47.21757" lon="5.6398">
        <ele>205.8</ele>
        <time>2014-05-25T09:12:53Z</time>
      </trkpt>
      <trkpt lat="47.21766" lon="5.6397">
        <ele>205.3</ele>
        <time>2014-05-25T09:12:55Z</time>
      </trkpt>
      <trkpt lat="47.21775" lon="5.6396">
        <ele>205.1</ele>
        <time>2014-05-25T09:12:57Z</time>
      </trkpt>
      <trkpt lat="47.21782" lon="5.63945">
        <ele>204.2</ele>
        <time>2014-05-25T09:12:59Z</time>
      </trkpt>
      <trkpt lat="47.21788" lon="5.63928">
        <ele>205.2</ele>
        <time>2014-05-25T09:13:01Z</time>
      </trkpt>
      <trkpt lat="47.21794" lon="5.63914">
        <ele>204.6</ele>
        <time>2014-05-25T09:13:03Z</time>
      </trkpt>
      <trkpt lat="47.21801" lon="5.63899">
        <ele>204.4</ele>
        <time>2014-05-25T09:13:05Z</time>
      </trkpt>
      <trkpt lat="47.21806" lon="5.63886">
        <ele>204.4</ele>
        <time>2014-05-25T09:13:07Z</time>
      </trkpt>
      <trkpt lat="47.21806" lon="5.63868">
        <ele>203.4</ele>
        <time>2014-05-25T09:13:10Z</time>
      </trkpt>
      <trkpt lat="47.21809" lon="5.63852">
        <ele>202.2</ele>
        <time>2014-05-25T09:13:14Z</time>
      </trkpt>
      <trkpt lat="47.21817" lon="5.63839">
        <ele>202.5</ele>
        <time>2014-05-25T09:13:17Z</time>
      </trkpt>
      <trkpt lat="47.21837" lon="5.63816">
        <ele>202.5</ele>
        <time>2014-05-25T09:13:22Z</time>
      </trkpt>
      <trkpt lat="47.21845" lon="5.63805">
        <ele>202.4</ele>
        <time>2014-05-25T09:13:24Z</time>
      </trkpt>
      <trkpt lat="47.21852" lon="5.63793">
        <ele>201.4</ele>
        <time>2014-05-25T09:13:26Z</time>
      </trkpt>
      <trkpt lat="47.2186" lon="5.6378">
        <ele>200.7</ele>
        <time>2014-05-25T09:13:28Z</time>
      </trkpt>
      <trkpt lat="47.2187" lon="5.63767">
        <ele>201</ele>
        <time>2014-05-25T09:13:30Z</time>
      </trkpt>
      <trkpt lat="47.2188" lon="5.63753">
        <ele>201.1</ele>
        <time>2014-05-25T09:13:32Z</time>
      </trkpt>
      <trkpt lat="47.21889" lon="5.63739">
        <ele>201.7</ele>
        <time>2014-05-25T09:13:34Z</time>
      </trkpt>
      <trkpt lat="47.21896" lon="5.63726">
        <ele>201.6</ele>
        <time>2014-05-25T09:13:36Z</time>
      </trkpt>
      <trkpt lat="47.21902" lon="5.63712">
        <ele>201.2</ele>
        <time>2014-05-25T09:13:38Z</time>
      </trkpt>
      <trkpt lat="47.2191" lon="5.63699">
        <ele>201.5</ele>
        <time>2014-05-25T09:13:40Z</time>
      </trkpt>
      <trkpt lat="47.2192" lon="5.63687">
        <ele>201.5</ele>
        <time>2014-05-25T09:13:42Z</time>
      </trkpt>
      <trkpt lat="47.21929" lon="5.63676">
        <ele>201.6</ele>
        <time>2014-05-25T09:13:44Z</time>
      </trkpt>
      <trkpt lat="47.21939" lon="5.63665">
        <ele>202.2</ele>
        <time>2014-05-25T09:13:46Z</time>
      </trkpt>
      <trkpt lat="47.21948" lon="5.63656">
        <ele>202.1</ele>
        <time>2014-05-25T09:13:48Z</time>
      </trkpt>
      <trkpt lat="47.21958" lon="5.63647">
        <ele>202.8</ele>
        <time>2014-05-25T09:13:50Z</time>
      </trkpt>
      <trkpt lat="47.21968" lon="5.6364">
        <ele>202</ele>
        <time>2014-05-25T09:13:52Z</time>
      </trkpt>
      <trkpt lat="47.21978" lon="5.63635">
        <ele>202.5</ele>
        <time>2014-05-25T09:13:54Z</time>
      </trkpt>
      <trkpt lat="47.21989" lon="5.63631">
        <ele>202.3</ele>
        <time>2014-05-25T09:13:56Z</time>
      </trkpt>
      <trkpt lat="47.21999" lon="5.63628">
        <ele>201.8</ele>
        <time>2014-05-25T09:13:58Z</time>
      </trkpt>
      <trkpt lat="47.22009" lon="5.63624">
        <ele>201.9</ele>
        <time>2014-05-25T09:14:00Z</time>
      </trkpt>
      <trkpt lat="47.22019" lon="5.6362">
        <ele>201.8</ele>
        <time>2014-05-25T09:14:02Z</time>
      </trkpt>
      <trkpt lat="47.2203" lon="5.63615">
        <ele>201.9</ele>
        <time>2014-05-25T09:14:04Z</time>
      </trkpt>
      <trkpt lat="47.2204" lon="5.63611">
        <ele>202.4</ele>
        <time>2014-05-25T09:14:06Z</time>
      </trkpt>
      <trkpt lat="47.2205" lon="5.63606">
        <ele>202.3</ele>
        <time>2014-05-25T09:14:08Z</time>
      </trkpt>
      <trkpt lat="47.22061" lon="5.63602">
        <ele>201.7</ele>
        <time>2014-05-25T09:14:10Z</time>
      </trkpt>
      <trkpt lat="47.22071" lon="5.63597">
        <ele>200.9</ele>
        <time>2014-05-25T09:14:12Z</time>
      </trkpt>
      <trkpt lat="47.22082" lon="5.63593">
        <ele>200.9</ele>
        <time>2014-05-25T09:14:14Z</time>
      </trkpt>
      <trkpt lat="47.22093" lon="5.63589">
        <ele>201.2</ele>
        <time>2014-05-25T09:14:16Z</time>
      </trkpt>
      <trkpt lat="47.22104" lon="5.63585">
        <ele>200.9</ele>
        <time>2014-05-25T09:14:18Z</time>
      </trkpt>
      <trkpt lat="47.22125" lon="5.63577">
        <ele>201.3</ele>
        <time>2014-05-25T09:14:22Z</time>
      </trkpt>
      <trkpt lat="47.22135" lon="5.63573">
        <ele>201.7</ele>
        <time>2014-05-25T09:14:24Z</time>
      </trkpt>
      <trkpt lat="47.22145" lon="5.6357">
        <ele>201.1</ele>
        <time>2014-05-25T09:14:26Z</time>
      </trkpt>
      <trkpt lat="47.22155" lon="5.63566">
        <ele>201.1</ele>
        <time>2014-05-25T09:14:28Z</time>
      </trkpt>
      <trkpt lat="47.22165" lon="5.63563">
        <ele>200.5</ele>
        <time>2014-05-25T09:14:30Z</time>
      </trkpt>
      <trkpt lat="47.22175" lon="5.63559">
        <ele>200.6</ele>
        <time>2014-05-25T09:14:32Z</time>
      </trkpt>
      <trkpt lat="47.22185" lon="5.63554">
        <ele>201.5</ele>
        <time>2014-05-25T09:14:34Z</time>
      </trkpt>
      <trkpt lat="47.22195" lon="5.6355">
        <ele>201.4</ele>
        <time>2014-05-25T09:14:36Z</time>
      </trkpt>
      <trkpt lat="47.22205" lon="5.63546">
        <ele>201.4</ele>
        <time>2014-05-25T09:14:38Z</time>
      </trkpt>
      <trkpt lat="47.22215" lon="5.63542">
        <ele>200.1</ele>
        <time>2014-05-25T09:14:40Z</time>
      </trkpt>
      <trkpt lat="47.22224" lon="5.63538">
        <ele>201.1</ele>
        <time>2014-05-25T09:14:42Z</time>
      </trkpt>
      <trkpt lat="47.22236" lon="5.63533">
        <ele>201</ele>
        <time>2014-05-25T09:14:45Z</time>
      </trkpt>
      <trkpt lat="47.22242" lon="5.63521">
        <ele>201.3</ele>
        <time>2014-05-25T09:14:48Z</time>
      </trkpt>
      <trkpt lat="47.22241" lon="5.63505">
        <ele>201.3</ele>
        <time>2014-05-25T09:14:51Z</time>
      </trkpt>
      <trkpt lat="47.22243" lon="5.63488">
        <ele>201.6</ele>
        <time>2014-05-25T09:14:54Z</time>
      </trkpt>
      <trkpt lat="47.22247" lon="5.63471">
        <ele>201.8</ele>
        <time>2014-05-25T09:14:57Z</time>
      </trkpt>
      <trkpt lat="47.22254" lon="5.63455">
        <ele>201.9</ele>
        <time>2014-05-25T09:15:00Z</time>
      </trkpt>
      <trkpt lat="47.22262" lon="5.6344">
        <ele>201.9</ele>
        <time>2014-05-25T09:15:03Z</time>
      </trkpt>
      <trkpt lat="47.22268" lon="5.63429">
        <ele>201.5</ele>
        <time>2014-05-25T09:15:05Z</time>
      </trkpt>
      <trkpt lat="47.22275" lon="5.63418">
        <ele>202.2</ele>
        <time>2014-05-25T09:15:07Z</time>
      </trkpt>
      <trkpt lat="47.22283" lon="5.63407">
        <ele>202</ele>
        <time>2014-05-25T09:15:09Z</time>
      </trkpt>
      <trkpt lat="47.2229" lon="5.63398">
        <ele>201.8</ele>
        <time>2014-05-25T09:15:11Z</time>
      </trkpt>
      <trkpt lat="47.22298" lon="5.63389">
        <ele>202.3</ele>
        <time>2014-05-25T09:15:13Z</time>
      </trkpt>
      <trkpt lat="47.22307" lon="5.63381">
        <ele>202</ele>
        <time>2014-05-25T09:15:15Z</time>
      </trkpt>
      <trkpt lat="47.22316" lon="5.63373">
        <ele>202.5</ele>
        <time>2014-05-25T09:15:17Z</time>
      </trkpt>
      <trkpt lat="47.22326" lon="5.63365">
        <ele>202.1</ele>
        <time>2014-05-25T09:15:19Z</time>
      </trkpt>
      <trkpt lat="47.22335" lon="5.63357">
        <ele>202.4</ele>
        <time>2014-05-25T09:15:21Z</time>
      </trkpt>
      <trkpt lat="47.22355" lon="5.63342">
        <ele>202.4</ele>
        <time>2014-05-25T09:15:25Z</time>
      </trkpt>
      <trkpt lat="47.22364" lon="5.63335">
        <ele>202.4</ele>
        <time>2014-05-25T09:15:27Z</time>
      </trkpt>
      <trkpt lat="47.22374" lon="5.63327">
        <ele>202.8</ele>
        <time>2014-05-25T09:15:29Z</time>
      </trkpt>
      <trkpt lat="47.22384" lon="5.6332">
        <ele>203.1</ele>
        <time>2014-05-25T09:15:31Z</time>
      </trkpt>
      <trkpt lat="47.22393" lon="5.63312">
        <ele>203.5</ele>
        <time>2014-05-25T09:15:33Z</time>
      </trkpt>
      <trkpt lat="47.22402" lon="5.63305">
        <ele>203.9</ele>
        <time>2014-05-25T09:15:35Z</time>
      </trkpt>
      <trkpt lat="47.22411" lon="5.63297">
        <ele>204</ele>
        <time>2014-05-25T09:15:37Z</time>
      </trkpt>
      <trkpt lat="47.22419" lon="5.6329">
        <ele>204.3</ele>
        <time>2014-05-25T09:15:39Z</time>
      </trkpt>
      <trkpt lat="47.22426" lon="5.63282">
        <ele>205.1</ele>
        <time>2014-05-25T09:15:41Z</time>
      </trkpt>
      <trkpt lat="47.22433" lon="5.63274">
        <ele>205.4</ele>
        <time>2014-05-25T09:15:43Z</time>
      </trkpt>
      <trkpt lat="47.22444" lon="5.63262">
        <ele>206.3</ele>
        <time>2014-05-25T09:15:46Z</time>
      </trkpt>
      <trkpt lat="47.22454" lon="5.63251">
        <ele>207.1</ele>
        <time>2014-05-25T09:15:49Z</time>
      </trkpt>
      <trkpt lat="47.22463" lon="5.63241">
        <ele>208</ele>
        <time>2014-05-25T09:15:52Z</time>
      </trkpt>
      <trkpt lat="47.22471" lon="5.63231">
        <ele>208.9</ele>
        <time>2014-05-25T09:15:55Z</time>
      </trkpt>
      <trkpt lat="47.22479" lon="5.63221">
        <ele>210.1</ele>
        <time>2014-05-25T09:15:59Z</time>
      </trkpt>
      <trkpt lat="47.22488" lon="5.6321">
        <ele>211.5</ele>
        <time>2014-05-25T09:16:03Z</time>
      </trkpt>
      <trkpt lat="47.22497" lon="5.632">
        <ele>212.4</ele>
        <time>2014-05-25T09:16:07Z</time>
      </trkpt>
      <trkpt lat="47.22505" lon="5.63189">
        <ele>213</ele>
        <time>2014-05-25T09:16:11Z</time>
      </trkpt>
      <trkpt lat="47.22513" lon="5.63177">
        <ele>213.7</ele>
        <time>2014-05-25T09:16:15Z</time>
      </trkpt>
      <trkpt lat="47.22521" lon="5.63164">
        <ele>214.4</ele>
        <time>2014-05-25T09:16:19Z</time>
      </trkpt>
      <trkpt lat="47.22528" lon="5.63155">
        <ele>215.5</ele>
        <time>2014-05-25T09:16:22Z</time>
      </trkpt>
      <trkpt lat="47.22534" lon="5.63144">
        <ele>216</ele>
        <time>2014-05-25T09:16:25Z</time>
      </trkpt>
      <trkpt lat="47.22547" lon="5.63125">
        <ele>216.6</ele>
        <time>2014-05-25T09:16:31Z</time>
      </trkpt>
      <trkpt lat="47.22554" lon="5.63113">
        <ele>217.5</ele>
        <time>2014-05-25T09:16:35Z</time>
      </trkpt>
      <trkpt lat="47.22561" lon="5.63104">
        <ele>218.6</ele>
        <time>2014-05-25T09:16:39Z</time>
      </trkpt>
      <trkpt lat="47.22567" lon="5.63094">
        <ele>219.3</ele>
        <time>2014-05-25T09:16:42Z</time>
      </trkpt>
      <trkpt lat="47.22572" lon="5.63083">
        <ele>219.6</ele>
        <time>2014-05-25T09:16:45Z</time>
      </trkpt>
      <trkpt lat="47.2258" lon="5.63071">
        <ele>220.3</ele>
        <time>2014-05-25T09:16:49Z</time>
      </trkpt>
      <trkpt lat="47.22588" lon="5.63059">
        <ele>221</ele>
        <time>2014-05-25T09:16:53Z</time>
      </trkpt>
      <trkpt lat="47.22595" lon="5.63047">
        <ele>221.2</ele>
        <time>2014-05-25T09:16:57Z</time>
      </trkpt>
      <trkpt lat="47.22602" lon="5.63036">
        <ele>221.6</ele>
        <time>2014-05-25T09:17:01Z</time>
      </trkpt>
      <trkpt lat="47.22609" lon="5.63025">
        <ele>222.4</ele>
        <time>2014-05-25T09:17:05Z</time>
      </trkpt>
      <trkpt lat="47.22616" lon="5.63015">
        <ele>223.2</ele>
        <time>2014-05-25T09:17:08Z</time>
      </trkpt>
      <trkpt lat="47.22624" lon="5.63003">
        <ele>223.4</ele>
        <time>2014-05-25T09:17:11Z</time>
      </trkpt>
      <trkpt lat="47.22633" lon="5.6299">
        <ele>223.7</ele>
        <time>2014-05-25T09:17:14Z</time>
      </trkpt>
      <trkpt lat="47.22641" lon="5.62976">
        <ele>223.8</ele>
        <time>2014-05-25T09:17:17Z</time>
      </trkpt>
      <trkpt lat="47.22651" lon="5.62961">
        <ele>223.5</ele>
        <time>2014-05-25T09:17:20Z</time>
      </trkpt>
      <trkpt lat="47.22656" lon="5.6295">
        <ele>223.2</ele>
        <time>2014-05-25T09:17:22Z</time>
      </trkpt>
      <trkpt lat="47.2266" lon="5.62938">
        <ele>222.9</ele>
        <time>2014-05-25T09:17:24Z</time>
      </trkpt>
      <trkpt lat="47.22664" lon="5.62925">
        <ele>222.6</ele>
        <time>2014-05-25T09:17:26Z</time>
      </trkpt>
      <trkpt lat="47.22661" lon="5.62892">
        <ele>222.6</ele>
        <time>2014-05-25T09:17:30Z</time>
      </trkpt>
      <trkpt lat="47.22657" lon="5.62875">
        <ele>222.4</ele>
        <time>2014-05-25T09:17:32Z</time>
      </trkpt>
      <trkpt lat="47.22652" lon="5.62859">
        <ele>222.1</ele>
        <time>2014-05-25T09:17:34Z</time>
      </trkpt>
      <trkpt lat="47.22646" lon="5.62843">
        <ele>221.8</ele>
        <time>2014-05-25T09:17:36Z</time>
      </trkpt>
      <trkpt lat="47.22642" lon="5.62828">
        <ele>221.9</ele>
        <time>2014-05-25T09:17:38Z</time>
      </trkpt>
      <trkpt lat="47.22637" lon="5.62811">
        <ele>222.6</ele>
        <time>2014-05-25T09:17:40Z</time>
      </trkpt>
      <trkpt lat="47.22635" lon="5.62794">
        <ele>222.7</ele>
        <time>2014-05-25T09:17:42Z</time>
      </trkpt>
      <trkpt lat="47.22633" lon="5.62778">
        <ele>222.5</ele>
        <time>2014-05-25T09:17:44Z</time>
      </trkpt>
      <trkpt lat="47.22629" lon="5.62761">
        <ele>222.4</ele>
        <time>2014-05-25T09:17:46Z</time>
      </trkpt>
      <trkpt lat="47.22626" lon="5.62745">
        <ele>222.9</ele>
        <time>2014-05-25T09:17:48Z</time>
      </trkpt>
      <trkpt lat="47.22623" lon="5.62727">
        <ele>223.1</ele>
        <time>2014-05-25T09:17:50Z</time>
      </trkpt>
      <trkpt lat="47.22618" lon="5.62709">
        <ele>222.8</ele>
        <time>2014-05-25T09:17:52Z</time>
      </trkpt>
      <trkpt lat="47.22614" lon="5.62692">
        <ele>222.7</ele>
        <time>2014-05-25T09:17:54Z</time>
      </trkpt>
      <trkpt lat="47.22609" lon="5.62676">
        <ele>222</ele>
        <time>2014-05-25T09:17:56Z</time>
      </trkpt>
      <trkpt lat="47.22604" lon="5.6266">
        <ele>222.3</ele>
        <time>2014-05-25T09:17:58Z</time>
      </trkpt>
      <trkpt lat="47.226" lon="5.62643">
        <ele>222.5</ele>
        <time>2014-05-25T09:18:00Z</time>
      </trkpt>
      <trkpt lat="47.22595" lon="5.62625">
        <ele>222.3</ele>
        <time>2014-05-25T09:18:02Z</time>
      </trkpt>
      <trkpt lat="47.2259" lon="5.62608">
        <ele>222.7</ele>
        <time>2014-05-25T09:18:04Z</time>
      </trkpt>
      <trkpt lat="47.22585" lon="5.62592">
        <ele>222.2</ele>
        <time>2014-05-25T09:18:06Z</time>
      </trkpt>
      <trkpt lat="47.22578" lon="5.62575">
        <ele>221.7</ele>
        <time>2014-05-25T09:18:08Z</time>
      </trkpt>
      <trkpt lat="47.2257" lon="5.62559">
        <ele>221.8</ele>
        <time>2014-05-25T09:18:10Z</time>
      </trkpt>
      <trkpt lat="47.22566" lon="5.62543">
        <ele>222.2</ele>
        <time>2014-05-25T09:18:12Z</time>
      </trkpt>
      <trkpt lat="47.22562" lon="5.62528">
        <ele>222.5</ele>
        <time>2014-05-25T09:18:14Z</time>
      </trkpt>
      <trkpt lat="47.22559" lon="5.62515">
        <ele>222.5</ele>
        <time>2014-05-25T09:18:16Z</time>
      </trkpt>
      <trkpt lat="47.22556" lon="5.62502">
        <ele>222.2</ele>
        <time>2014-05-25T09:18:18Z</time>
      </trkpt>
      <trkpt lat="47.2255" lon="5.62484">
        <ele>222.5</ele>
        <time>2014-05-25T09:18:21Z</time>
      </trkpt>
      <trkpt lat="47.22547" lon="5.62472">
        <ele>222.9</ele>
        <time>2014-05-25T09:18:23Z</time>
      </trkpt>
      <trkpt lat="47.22542" lon="5.6246">
        <ele>223.2</ele>
        <time>2014-05-25T09:18:25Z</time>
      </trkpt>
      <trkpt lat="47.22539" lon="5.62447">
        <ele>223.1</ele>
        <time>2014-05-25T09:18:27Z</time>
      </trkpt>
      <trkpt lat="47.22552" lon="5.6243">
        <ele>224.1</ele>
        <time>2014-05-25T09:18:34Z</time>
      </trkpt>
      <trkpt lat="47.22562" lon="5.62427">
        <ele>224.4</ele>
        <time>2014-05-25T09:18:37Z</time>
      </trkpt>
      <trkpt lat="47.22572" lon="5.62418">
        <ele>225.1</ele>
        <time>2014-05-25T09:18:40Z</time>
      </trkpt>
      <trkpt lat="47.22581" lon="5.62411">
        <ele>226.1</ele>
        <time>2014-05-25T09:18:43Z</time>
      </trkpt>
      <trkpt lat="47.22592" lon="5.62401">
        <ele>226.6</ele>
        <time>2014-05-25T09:18:46Z</time>
      </trkpt>
      <trkpt lat="47.22601" lon="5.62395">
        <ele>226.9</ele>
        <time>2014-05-25T09:18:49Z</time>
      </trkpt>
      <trkpt lat="47.22612" lon="5.62391">
        <ele>227.9</ele>
        <time>2014-05-25T09:18:53Z</time>
      </trkpt>
      <trkpt lat="47.22621" lon="5.62388">
        <ele>228.2</ele>
        <time>2014-05-25T09:18:56Z</time>
      </trkpt>
      <trkpt lat="47.22632" lon="5.62385">
        <ele>229.3</ele>
        <time>2014-05-25T09:19:00Z</time>
      </trkpt>
      <trkpt lat="47.22643" lon="5.6238">
        <ele>228.5</ele>
        <time>2014-05-25T09:19:03Z</time>
      </trkpt>
      <trkpt lat="47.22652" lon="5.62372">
        <ele>228.4</ele>
        <time>2014-05-25T09:19:06Z</time>
      </trkpt>
      <trkpt lat="47.22661" lon="5.62368">
        <ele>228.7</ele>
        <time>2014-05-25T09:19:09Z</time>
      </trkpt>
      <trkpt lat="47.22671" lon="5.62364">
        <ele>228.6</ele>
        <time>2014-05-25T09:19:12Z</time>
      </trkpt>
      <trkpt lat="47.2268" lon="5.62357">
        <ele>227.8</ele>
        <time>2014-05-25T09:19:15Z</time>
      </trkpt>
      <trkpt lat="47.22691" lon="5.62348">
        <ele>227.6</ele>
        <time>2014-05-25T09:19:18Z</time>
      </trkpt>
      <trkpt lat="47.22703" lon="5.62341">
        <ele>227.2</ele>
        <time>2014-05-25T09:19:21Z</time>
      </trkpt>
      <trkpt lat="47.22715" lon="5.62334">
        <ele>226.3</ele>
        <time>2014-05-25T09:19:23Z</time>
      </trkpt>
      <trkpt lat="47.22728" lon="5.6233">
        <ele>225.2</ele>
        <time>2014-05-25T09:19:25Z</time>
      </trkpt>
      <trkpt lat="47.22739" lon="5.62326">
        <ele>225</ele>
        <time>2014-05-25T09:19:27Z</time>
      </trkpt>
      <trkpt lat="47.22748" lon="5.62322">
        <ele>225</ele>
        <time>2014-05-25T09:19:29Z</time>
      </trkpt>
      <trkpt lat="47.22767" lon="5.6231">
        <ele>226.1</ele>
        <time>2014-05-25T09:19:34Z</time>
      </trkpt>
      <trkpt lat="47.22777" lon="5.62306">
        <ele>226.7</ele>
        <time>2014-05-25T09:19:37Z</time>
      </trkpt>
      <trkpt lat="47.22786" lon="5.62302">
        <ele>226.6</ele>
        <time>2014-05-25T09:19:40Z</time>
      </trkpt>
      <trkpt lat="47.22795" lon="5.62295">
        <ele>227.6</ele>
        <time>2014-05-25T09:19:43Z</time>
      </trkpt>
      <trkpt lat="47.22808" lon="5.62286">
        <ele>228.1</ele>
        <time>2014-05-25T09:19:46Z</time>
      </trkpt>
      <trkpt lat="47.22816" lon="5.62279">
        <ele>228</ele>
        <time>2014-05-25T09:19:48Z</time>
      </trkpt>
      <trkpt lat="47.22825" lon="5.62275">
        <ele>228.3</ele>
        <time>2014-05-25T09:19:51Z</time>
      </trkpt>
      <trkpt lat="47.22836" lon="5.62274">
        <ele>228.7</ele>
        <time>2014-05-25T09:19:54Z</time>
      </trkpt>
      <trkpt lat="47.22848" lon="5.62269">
        <ele>228.6</ele>
        <time>2014-05-25T09:19:57Z</time>
      </trkpt>
      <trkpt lat="47.22858" lon="5.62262">
        <ele>227.8</ele>
        <time>2014-05-25T09:20:00Z</time>
      </trkpt>
      <trkpt lat="47.22867" lon="5.62253">
        <ele>226.9</ele>
        <time>2014-05-25T09:20:03Z</time>
      </trkpt>
      <trkpt lat="47.22867" lon="5.62239">
        <ele>226.5</ele>
        <time>2014-05-25T09:20:09Z</time>
      </trkpt>
      <trkpt lat="47.22863" lon="5.62225">
        <ele>227.9</ele>
        <time>2014-05-25T09:20:14Z</time>
      </trkpt>
      <trkpt lat="47.22858" lon="5.62212">
        <ele>229.1</ele>
        <time>2014-05-25T09:20:19Z</time>
      </trkpt>
      <trkpt lat="47.22853" lon="5.622">
        <ele>230.3</ele>
        <time>2014-05-25T09:20:24Z</time>
      </trkpt>
      <trkpt lat="47.22844" lon="5.62189">
        <ele>231</ele>
        <time>2014-05-25T09:20:29Z</time>
      </trkpt>
      <trkpt lat="47.22837" lon="5.62178">
        <ele>232.1</ele>
        <time>2014-05-25T09:20:34Z</time>
      </trkpt>
      <trkpt lat="47.22821" lon="5.62159">
        <ele>234.6</ele>
        <time>2014-05-25T09:20:45Z</time>
      </trkpt>
      <trkpt lat="47.22815" lon="5.62149">
        <ele>236.1</ele>
        <time>2014-05-25T09:20:50Z</time>
      </trkpt>
      <trkpt lat="47.22808" lon="5.62138">
        <ele>236.7</ele>
        <time>2014-05-25T09:20:55Z</time>
      </trkpt>
      <trkpt lat="47.22801" lon="5.62128">
        <ele>237.1</ele>
        <time>2014-05-25T09:20:59Z</time>
      </trkpt>
      <trkpt lat="47.22793" lon="5.62119">
        <ele>236.9</ele>
        <time>2014-05-25T09:21:02Z</time>
      </trkpt>
      <trkpt lat="47.22787" lon="5.6211">
        <ele>236.6</ele>
        <time>2014-05-25T09:21:05Z</time>
      </trkpt>
      <trkpt lat="47.22777" lon="5.62097">
        <ele>235.7</ele>
        <time>2014-05-25T09:21:08Z</time>
      </trkpt>
      <trkpt lat="47.22769" lon="5.62085">
        <ele>235</ele>
        <time>2014-05-25T09:21:10Z</time>
      </trkpt>
      <trkpt lat="47.22759" lon="5.62074">
        <ele>234.6</ele>
        <time>2014-05-25T09:21:12Z</time>
      </trkpt>
      <trkpt lat="47.22747" lon="5.62059">
        <ele>233.4</ele>
        <time>2014-05-25T09:21:14Z</time>
      </trkpt>
      <trkpt lat="47.22736" lon="5.62041">
        <ele>232.6</ele>
        <time>2014-05-25T09:21:16Z</time>
      </trkpt>
      <trkpt lat="47.22727" lon="5.62028">
        <ele>232.2</ele>
        <time>2014-05-25T09:21:18Z</time>
      </trkpt>
      <trkpt lat="47.2272" lon="5.62015">
        <ele>232.4</ele>
        <time>2014-05-25T09:21:20Z</time>
      </trkpt>
      <trkpt lat="47.22713" lon="5.62004">
        <ele>232.2</ele>
        <time>2014-05-25T09:21:23Z</time>
      </trkpt>
      <trkpt lat="47.22706" lon="5.61995">
        <ele>233.4</ele>
        <time>2014-05-25T09:21:28Z</time>
      </trkpt>
      <trkpt lat="47.22698" lon="5.61986">
        <ele>234.7</ele>
        <time>2014-05-25T09:21:34Z</time>
      </trkpt>
      <trkpt lat="47.22692" lon="5.61976">
        <ele>237</ele>
        <time>2014-05-25T09:21:41Z</time>
      </trkpt>
      <trkpt lat="47.22685" lon="5.61949">
        <ele>241.8</ele>
        <time>2014-05-25T09:22:00Z</time>
      </trkpt>
      <trkpt lat="47.22679" lon="5.61939">
        <ele>243</ele>
        <time>2014-05-25T09:22:06Z</time>
      </trkpt>
      <trkpt lat="47.22674" lon="5.61927">
        <ele>244.7</ele>
        <time>2014-05-25T09:22:14Z</time>
      </trkpt>
      <trkpt lat="47.22671" lon="5.61914">
        <ele>246.4</ele>
        <time>2014-05-25T09:22:23Z</time>
      </trkpt>
      <trkpt lat="47.22663" lon="5.61905">
        <ele>248.3</ele>
        <time>2014-05-25T09:22:30Z</time>
      </trkpt>
      <trkpt lat="47.22657" lon="5.61892">
        <ele>249.4</ele>
        <time>2014-05-25T09:22:37Z</time>
      </trkpt>
      <trkpt lat="47.22652" lon="5.61878">
        <ele>251.2</ele>
        <time>2014-05-25T09:22:44Z</time>
      </trkpt>
      <trkpt lat="47.2264" lon="5.61854">
        <ele>251.1</ele>
        <time>2014-05-25T09:22:52Z</time>
      </trkpt>
      <trkpt lat="47.22633" lon="5.61841">
        <ele>250.7</ele>
        <time>2014-05-25T09:22:57Z</time>
      </trkpt>
      <trkpt lat="47.2263" lon="5.61827">
        <ele>249.8</ele>
        <time>2014-05-25T09:23:00Z</time>
      </trkpt>
      <trkpt lat="47.22625" lon="5.6181">
        <ele>249.7</ele>
        <time>2014-05-25T09:23:03Z</time>
      </trkpt>
      <trkpt lat="47.22621" lon="5.61798">
        <ele>250.1</ele>
        <time>2014-05-25T09:23:06Z</time>
      </trkpt>
      <trkpt lat="47.22619" lon="5.61783">
        <ele>251.7</ele>
        <time>2014-05-25T09:23:13Z</time>
      </trkpt>
      <trkpt lat="47.2262" lon="5.61768">
        <ele>253.8</ele>
        <time>2014-05-25T09:23:18Z</time>
      </trkpt>
      <trkpt lat="47.22619" lon="5.61755">
        <ele>255.4</ele>
        <time>2014-05-25T09:23:24Z</time>
      </trkpt>
      <trkpt lat="47.22615" lon="5.61743">
        <ele>256</ele>
        <time>2014-05-25T09:23:28Z</time>
      </trkpt>
      <trkpt lat="47.22611" lon="5.61731">
        <ele>256.1</ele>
        <time>2014-05-25T09:23:32Z</time>
      </trkpt>
      <trkpt lat="47.22608" lon="5.61714">
        <ele>256.5</ele>
        <time>2014-05-25T09:23:36Z</time>
      </trkpt>
      <trkpt lat="47.22605" lon="5.61701">
        <ele>256.4</ele>
        <time>2014-05-25T09:23:39Z</time>
      </trkpt>
      <trkpt lat="47.22602" lon="5.61687">
        <ele>256.4</ele>
        <time>2014-05-25T09:23:42Z</time>
      </trkpt>
      <trkpt lat="47.22598" lon="5.61671">
        <ele>256.9</ele>
        <time>2014-05-25T09:23:46Z</time>
      </trkpt>
      <trkpt lat="47.22598" lon="5.6164">
        <ele>258.6</ele>
        <time>2014-05-25T09:23:54Z</time>
      </trkpt>
      <trkpt lat="47.22596" lon="5.61626">
        <ele>259</ele>
        <time>2014-05-25T09:23:58Z</time>
      </trkpt>
      <trkpt lat="47.22592" lon="5.61611">
        <ele>259.3</ele>
        <time>2014-05-25T09:24:02Z</time>
      </trkpt>
      <trkpt lat="47.22588" lon="5.61599">
        <ele>260.2</ele>
        <time>2014-05-25T09:24:05Z</time>
      </trkpt>
      <trkpt lat="47.22583" lon="5.61586">
        <ele>259.8</ele>
        <time>2014-05-25T09:24:08Z</time>
      </trkpt>
      <trkpt lat="47.22579" lon="5.61569">
        <ele>259.3</ele>
        <time>2014-05-25T09:24:11Z</time>
      </trkpt>
      <trkpt lat="47.22575" lon="5.61555">
        <ele>259.9</ele>
        <time>2014-05-25T09:24:14Z</time>
      </trkpt>
      <trkpt lat="47.22574" lon="5.61541">
        <ele>260.2</ele>
        <time>2014-05-25T09:24:17Z</time>
      </trkpt>
      <trkpt lat="47.22576" lon="5.6152">
        <ele>259.8</ele>
        <time>2014-05-25T09:24:20Z</time>
      </trkpt>
      <trkpt lat="47.22574" lon="5.61502">
        <ele>259.7</ele>
        <time>2014-05-25T09:24:22Z</time>
      </trkpt>
      <trkpt lat="47.22572" lon="5.61486">
        <ele>259</ele>
        <time>2014-05-25T09:24:24Z</time>
      </trkpt>
      <trkpt lat="47.22572" lon="5.61468">
        <ele>259.2</ele>
        <time>2014-05-25T09:24:27Z</time>
      </trkpt>
      <trkpt lat="47.22569" lon="5.61455">
        <ele>259.4</ele>
        <time>2014-05-25T09:24:31Z</time>
      </trkpt>
      <trkpt lat="47.22562" lon="5.61445">
        <ele>260.2</ele>
        <time>2014-05-25T09:24:35Z</time>
      </trkpt>
      <trkpt lat="47.22555" lon="5.61434">
        <ele>262.5</ele>
        <time>2014-05-25T09:24:41Z</time>
      </trkpt>
      <trkpt lat="47.22551" lon="5.61422">
        <ele>263.5</ele>
        <time>2014-05-25T09:24:47Z</time>
      </trkpt>
      <trkpt lat="47.22539" lon="5.61399">
        <ele>267.2</ele>
        <time>2014-05-25T09:25:00Z</time>
      </trkpt>
      <trkpt lat="47.22535" lon="5.61386">
        <ele>268.8</ele>
        <time>2014-05-25T09:25:08Z</time>
      </trkpt>
      <trkpt lat="47.22534" lon="5.61373">
        <ele>271.3</ele>
        <time>2014-05-25T09:25:20Z</time>
      </trkpt>
      <trkpt lat="47.22528" lon="5.61358">
        <ele>276.4</ele>
        <time>2014-05-25T09:25:42Z</time>
      </trkpt>
      <trkpt lat="47.22521" lon="5.61341">
        <ele>276.9</ele>
        <time>2014-05-25T09:25:45Z</time>
      </trkpt>
      <trkpt lat="47.22515" lon="5.61325">
        <ele>277.1</ele>
        <time>2014-05-25T09:25:48Z</time>
      </trkpt>
      <trkpt lat="47.22508" lon="5.61299">
        <ele>276.6</ele>
        <time>2014-05-25T09:25:54Z</time>
      </trkpt>
      <trkpt lat="47.22501" lon="5.61283">
        <ele>276.9</ele>
        <time>2014-05-25T09:25:57Z</time>
      </trkpt>
      <trkpt lat="47.22493" lon="5.61269">
        <ele>276.6</ele>
        <time>2014-05-25T09:26:00Z</time>
      </trkpt>
      <trkpt lat="47.22485" lon="5.61256">
        <ele>276.9</ele>
        <time>2014-05-25T09:26:03Z</time>
      </trkpt>
      <trkpt lat="47.22478" lon="5.61242">
        <ele>277</ele>
        <time>2014-05-25T09:26:07Z</time>
      </trkpt>
      <trkpt lat="47.22472" lon="5.61229">
        <ele>277.5</ele>
        <time>2014-05-25T09:26:10Z</time>
      </trkpt>
      <trkpt lat="47.22466" lon="5.61217">
        <ele>278.2</ele>
        <time>2014-05-25T09:26:13Z</time>
      </trkpt>
      <trkpt lat="47.22455" lon="5.61202">
        <ele>278.6</ele>
        <time>2014-05-25T09:26:16Z</time>
      </trkpt>
      <trkpt lat="47.22448" lon="5.61193">
        <ele>278.5</ele>
        <time>2014-05-25T09:26:18Z</time>
      </trkpt>
      <trkpt lat="47.2244" lon="5.61181">
        <ele>278.9</ele>
        <time>2014-05-25T09:26:21Z</time>
      </trkpt>
      <trkpt lat="47.22434" lon="5.61169">
        <ele>278.7</ele>
        <time>2014-05-25T09:26:24Z</time>
      </trkpt>
      <trkpt lat="47.22429" lon="5.61151">
        <ele>278.4</ele>
        <time>2014-05-25T09:26:27Z</time>
      </trkpt>
      <trkpt lat="47.22424" lon="5.61137">
        <ele>278.1</ele>
        <time>2014-05-25T09:26:30Z</time>
      </trkpt>
      <trkpt lat="47.22421" lon="5.61124">
        <ele>277.8</ele>
        <time>2014-05-25T09:26:32Z</time>
      </trkpt>
      <trkpt lat="47.22417" lon="5.61109">
        <ele>277.1</ele>
        <time>2014-05-25T09:26:34Z</time>
      </trkpt>
      <trkpt lat="47.22412" lon="5.61095">
        <ele>276.9</ele>
        <time>2014-05-25T09:26:36Z</time>
      </trkpt>
      <trkpt lat="47.22407" lon="5.61083">
        <ele>276.6</ele>
        <time>2014-05-25T09:26:38Z</time>
      </trkpt>
      <trkpt lat="47.22403" lon="5.61071">
        <ele>276.8</ele>
        <time>2014-05-25T09:26:40Z</time>
      </trkpt>
      <trkpt lat="47.22398" lon="5.61058">
        <ele>277.2</ele>
        <time>2014-05-25T09:26:43Z</time>
      </trkpt>
      <trkpt lat="47.22394" lon="5.61045">
        <ele>279.1</ele>
        <time>2014-05-25T09:26:46Z</time>
      </trkpt>
      <trkpt lat="47.2239" lon="5.61033">
        <ele>279.4</ele>
        <time>2014-05-25T09:26:49Z</time>
      </trkpt>
      <trkpt lat="47.22378" lon="5.61009">
        <ele>281.2</ele>
        <time>2014-05-25T09:26:58Z</time>
      </trkpt>
      <trkpt lat="47.22371" lon="5.60999">
        <ele>282.2</ele>
        <time>2014-05-25T09:27:01Z</time>
      </trkpt>
      <trkpt lat="47.22367" lon="5.60987">
        <ele>283.2</ele>
        <time>2014-05-25T09:27:06Z</time>
      </trkpt>
      <trkpt lat="47.22361" lon="5.60975">
        <ele>284.2</ele>
        <time>2014-05-25T09:27:10Z</time>
      </trkpt>
      <trkpt lat="47.22356" lon="5.60962">
        <ele>284.6</ele>
        <time>2014-05-25T09:27:14Z</time>
      </trkpt>
      <trkpt lat="47.2235" lon="5.60946">
        <ele>285</ele>
        <time>2014-05-25T09:27:18Z</time>
      </trkpt>
      <trkpt lat="47.22347" lon="5.60933">
        <ele>285.8</ele>
        <time>2014-05-25T09:27:21Z</time>
      </trkpt>
      <trkpt lat="47.22341" lon="5.60921">
        <ele>285.9</ele>
        <time>2014-05-25T09:27:24Z</time>
      </trkpt>
      <trkpt lat="47.22334" lon="5.6091">
        <ele>287.1</ele>
        <time>2014-05-25T09:27:28Z</time>
      </trkpt>
      <trkpt lat="47.22328" lon="5.60898">
        <ele>287.9</ele>
        <time>2014-05-25T09:27:33Z</time>
      </trkpt>
      <trkpt lat="47.22321" lon="5.60885">
        <ele>289.2</ele>
        <time>2014-05-25T09:27:39Z</time>
      </trkpt>
      <trkpt lat="47.22314" lon="5.60875">
        <ele>290</ele>
        <time>2014-05-25T09:27:43Z</time>
      </trkpt>
      <trkpt lat="47.22312" lon="5.60861">
        <ele>290.3</ele>
        <time>2014-05-25T09:27:48Z</time>
      </trkpt>
      <trkpt lat="47.2231" lon="5.60848">
        <ele>291.6</ele>
        <time>2014-05-25T09:27:53Z</time>
      </trkpt>
      <trkpt lat="47.22311" lon="5.60819">
        <ele>294</ele>
        <time>2014-05-25T09:28:04Z</time>
      </trkpt>
      <trkpt lat="47.22313" lon="5.60805">
        <ele>294.5</ele>
        <time>2014-05-25T09:28:09Z</time>
      </trkpt>
      <trkpt lat="47.22307" lon="5.60793">
        <ele>295.1</ele>
        <time>2014-05-25T09:28:14Z</time>
      </trkpt>
      <trkpt lat="47.22302" lon="5.6078">
        <ele>296.1</ele>
        <time>2014-05-25T09:28:18Z</time>
      </trkpt>
      <trkpt lat="47.22302" lon="5.60764">
        <ele>296.5</ele>
        <time>2014-05-25T09:28:23Z</time>
      </trkpt>
      <trkpt lat="47.22303" lon="5.6075">
        <ele>297.3</ele>
        <time>2014-05-25T09:28:28Z</time>
      </trkpt>
      <trkpt lat="47.22303" lon="5.60736">
        <ele>297.9</ele>
        <time>2014-05-25T09:28:32Z</time>
      </trkpt>
      <trkpt lat="47.22302" lon="5.60721">
        <ele>299.1</ele>
        <time>2014-05-25T09:28:36Z</time>
      </trkpt>
      <trkpt lat="47.22302" lon="5.60707">
        <ele>299.7</ele>
        <time>2014-05-25T09:28:42Z</time>
      </trkpt>
      <trkpt lat="47.22298" lon="5.60692">
        <ele>300.1</ele>
        <time>2014-05-25T09:28:47Z</time>
      </trkpt>
      <trkpt lat="47.22297" lon="5.60676">
        <ele>301.2</ele>
        <time>2014-05-25T09:28:52Z</time>
      </trkpt>
      <trkpt lat="47.22297" lon="5.60661">
        <ele>301.6</ele>
        <time>2014-05-25T09:28:55Z</time>
      </trkpt>
      <trkpt lat="47.22298" lon="5.60627">
        <ele>302.1</ele>
        <time>2014-05-25T09:29:04Z</time>
      </trkpt>
      <trkpt lat="47.22297" lon="5.60613">
        <ele>302.8</ele>
        <time>2014-05-25T09:29:07Z</time>
      </trkpt>
      <trkpt lat="47.22294" lon="5.606">
        <ele>303.2</ele>
        <time>2014-05-25T09:29:10Z</time>
      </trkpt>
      <trkpt lat="47.22292" lon="5.60587">
        <ele>303.3</ele>
        <time>2014-05-25T09:29:13Z</time>
      </trkpt>
      <trkpt lat="47.22289" lon="5.60574">
        <ele>303.5</ele>
        <time>2014-05-25T09:29:16Z</time>
      </trkpt>
      <trkpt lat="47.22287" lon="5.6056">
        <ele>303.6</ele>
        <time>2014-05-25T09:29:19Z</time>
      </trkpt>
      <trkpt lat="47.22288" lon="5.60546">
        <ele>303.3</ele>
        <time>2014-05-25T09:29:22Z</time>
      </trkpt>
      <trkpt lat="47.22287" lon="5.6053">
        <ele>302.8</ele>
        <time>2014-05-25T09:29:25Z</time>
      </trkpt>
      <trkpt lat="47.22281" lon="5.60517">
        <ele>303.6</ele>
        <time>2014-05-25T09:29:28Z</time>
      </trkpt>
      <trkpt lat="47.22274" lon="5.60504">
        <ele>303.9</ele>
        <time>2014-05-25T09:29:31Z</time>
      </trkpt>
      <trkpt lat="47.2227" lon="5.60492">
        <ele>303.8</ele>
        <time>2014-05-25T09:29:34Z</time>
      </trkpt>
      <trkpt lat="47.22275" lon="5.60481">
        <ele>302.4</ele>
        <time>2014-05-25T09:29:39Z</time>
      </trkpt>
      <trkpt lat="47.22284" lon="5.60475">
        <ele>301.6</ele>
        <time>2014-05-25T09:29:43Z</time>
      </trkpt>
      <trkpt lat="47.22297" lon="5.60469">
        <ele>301.2</ele>
        <time>2014-05-25T09:29:46Z</time>
      </trkpt>
      <trkpt lat="47.22307" lon="5.60477">
        <ele>300.4</ele>
        <time>2014-05-25T09:29:48Z</time>
      </trkpt>
      <trkpt lat="47.22318" lon="5.60485">
        <ele>299.1</ele>
        <time>2014-05-25T09:29:50Z</time>
      </trkpt>
      <trkpt lat="47.2233" lon="5.60488">
        <ele>298.6</ele>
        <time>2014-05-25T09:29:52Z</time>
      </trkpt>
      <trkpt lat="47.22345" lon="5.60489">
        <ele>298.3</ele>
        <time>2014-05-25T09:29:54Z</time>
      </trkpt>
      <trkpt lat="47.22359" lon="5.60491">
        <ele>297.8</ele>
        <time>2014-05-25T09:29:56Z</time>
      </trkpt>
      <trkpt lat="47.22385" lon="5.6049">
        <ele>296.3</ele>
        <time>2014-05-25T09:30:00Z</time>
      </trkpt>
      <trkpt lat="47.22396" lon="5.60496">
        <ele>295.7</ele>
        <time>2014-05-25T09:30:02Z</time>
      </trkpt>
      <trkpt lat="47.22405" lon="5.60508">
        <ele>294.9</ele>
        <time>2014-05-25T09:30:04Z</time>
      </trkpt>
      <trkpt lat="47.22409" lon="5.60527">
        <ele>294.6</ele>
        <time>2014-05-25T09:30:06Z</time>
      </trkpt>
      <trkpt lat="47.22415" lon="5.60545">
        <ele>293.7</ele>
        <time>2014-05-25T09:30:08Z</time>
      </trkpt>
      <trkpt lat="47.22422" lon="5.60565">
        <ele>292.1</ele>
        <time>2014-05-25T09:30:10Z</time>
      </trkpt>
      <trkpt lat="47.2243" lon="5.60587">
        <ele>291.5</ele>
        <time>2014-05-25T09:30:12Z</time>
      </trkpt>
      <trkpt lat="47.2244" lon="5.60605">
        <ele>289.7</ele>
        <time>2014-05-25T09:30:14Z</time>
      </trkpt>
      <trkpt lat="47.22451" lon="5.60622">
        <ele>287.6</ele>
        <time>2014-05-25T09:30:16Z</time>
      </trkpt>
      <trkpt lat="47.22463" lon="5.60642">
        <ele>285.3</ele>
        <time>2014-05-25T09:30:18Z</time>
      </trkpt>
      <trkpt lat="47.22469" lon="5.60652">
        <ele>283.8</ele>
        <time>2014-05-25T09:30:19Z</time>
      </trkpt>
      <trkpt lat="47.22476" lon="5.60663">
        <ele>281.9</ele>
        <time>2014-05-25T09:30:20Z</time>
      </trkpt>
      <trkpt lat="47.22483" lon="5.60675">
        <ele>280.5</ele>
        <time>2014-05-25T09:30:21Z</time>
      </trkpt>
      <trkpt lat="47.2249" lon="5.60686">
        <ele>278.7</ele>
        <time>2014-05-25T09:30:22Z</time>
      </trkpt>
      <trkpt lat="47.22497" lon="5.60697">
        <ele>277.3</ele>
        <time>2014-05-25T09:30:23Z</time>
      </trkpt>
      <trkpt lat="47.22504" lon="5.60708">
        <ele>275.8</ele>
        <time>2014-05-25T09:30:24Z</time>
      </trkpt>
      <trkpt lat="47.22512" lon="5.60719">
        <ele>274.5</ele>
        <time>2014-05-25T09:30:25Z</time>
      </trkpt>
      <trkpt lat="47.2252" lon="5.60729">
        <ele>273.4</ele>
        <time>2014-05-25T09:30:26Z</time>
      </trkpt>
      <trkpt lat="47.22528" lon="5.6074">
        <ele>272.6</ele>
        <time>2014-05-25T09:30:27Z</time>
      </trkpt>
      <trkpt lat="47.22537" lon="5.6075">
        <ele>271.8</ele>
        <time>2014-05-25T09:30:28Z</time>
      </trkpt>
      <trkpt lat="47.22545" lon="5.60761">
        <ele>270.9</ele>
        <time>2014-05-25T09:30:29Z</time>
      </trkpt>
      <trkpt lat="47.22553" lon="5.60771">
        <ele>270.2</ele>
        <time>2014-05-25T09:30:30Z</time>
      </trkpt>
      <trkpt lat="47.22561" lon="5.6078">
        <ele>269</ele>
        <time>2014-05-25T09:30:31Z</time>
      </trkpt>
      <trkpt lat="47.22568" lon="5.60788">
        <ele>268.5</ele>
        <time>2014-05-25T09:30:32Z</time>
      </trkpt>
      <trkpt lat="47.22575" lon="5.60797">
        <ele>267.8</ele>
        <time>2014-05-25T09:30:33Z</time>
      </trkpt>
      <trkpt lat="47.22582" lon="5.60805">
        <ele>267.3</ele>
        <time>2014-05-25T09:30:34Z</time>
      </trkpt>
      <trkpt lat="47.22589" lon="5.60814">
        <ele>266.5</ele>
        <time>2014-05-25T09:30:35Z</time>
      </trkpt>
      <trkpt lat="47.22597" lon="5.60823">
        <ele>265.9</ele>
        <time>2014-05-25T09:30:36Z</time>
      </trkpt>
      <trkpt lat="47.22603" lon="5.60832">
        <ele>265.2</ele>
        <time>2014-05-25T09:30:37Z</time>
      </trkpt>
      <trkpt lat="47.2261" lon="5.60843">
        <ele>264.5</ele>
        <time>2014-05-25T09:30:38Z</time>
      </trkpt>
      <trkpt lat="47.22616" lon="5.60853">
        <ele>263.9</ele>
        <time>2014-05-25T09:30:39Z</time>
      </trkpt>
      <trkpt lat="47.22622" lon="5.60863">
        <ele>263.6</ele>
        <time>2014-05-25T09:30:40Z</time>
      </trkpt>
      <trkpt lat="47.22628" lon="5.60874">
        <ele>262.5</ele>
        <time>2014-05-25T09:30:41Z</time>
      </trkpt>
      <trkpt lat="47.22634" lon="5.60885">
        <ele>262.1</ele>
        <time>2014-05-25T09:30:42Z</time>
      </trkpt>
      <trkpt lat="47.22641" lon="5.60895">
        <ele>261.7</ele>
        <time>2014-05-25T09:30:43Z</time>
      </trkpt>
      <trkpt lat="47.22648" lon="5.60906">
        <ele>261.1</ele>
        <time>2014-05-25T09:30:44Z</time>
      </trkpt>
      <trkpt lat="47.22654" lon="5.60917">
        <ele>260.6</ele>
        <time>2014-05-25T09:30:45Z</time>
      </trkpt>
      <trkpt lat="47.22661" lon="5.60928">
        <ele>260.3</ele>
        <time>2014-05-25T09:30:46Z</time>
      </trkpt>
      <trkpt lat="47.22668" lon="5.60939">
        <ele>259.4</ele>
        <time>2014-05-25T09:30:47Z</time>
      </trkpt>
      <trkpt lat="47.22675" lon="5.6095">
        <ele>259.3</ele>
        <time>2014-05-25T09:30:48Z</time>
      </trkpt>
      <trkpt lat="47.22682" lon="5.60961">
        <ele>258.7</ele>
        <time>2014-05-25T09:30:49Z</time>
      </trkpt>
      <trkpt lat="47.22688" lon="5.60971">
        <ele>259.1</ele>
        <time>2014-05-25T09:30:50Z</time>
      </trkpt>
      <trkpt lat="47.22694" lon="5.60981">
        <ele>258.5</ele>
        <time>2014-05-25T09:30:51Z</time>
      </trkpt>
      <trkpt lat="47.22701" lon="5.60992">
        <ele>258.6</ele>
        <time>2014-05-25T09:30:52Z</time>
      </trkpt>
      <trkpt lat="47.22713" lon="5.6101">
        <ele>258</ele>
        <time>2014-05-25T09:30:54Z</time>
      </trkpt>
      <trkpt lat="47.22725" lon="5.6103">
        <ele>256.9</ele>
        <time>2014-05-25T09:30:56Z</time>
      </trkpt>
      <trkpt lat="47.22732" lon="5.61039">
        <ele>256.7</ele>
        <time>2014-05-25T09:30:57Z</time>
      </trkpt>
      <trkpt lat="47.22755" lon="5.61079">
        <ele>254.5</ele>
        <time>2014-05-25T09:31:01Z</time>
      </trkpt>
      <trkpt lat="47.22762" lon="5.61089">
        <ele>254.3</ele>
        <time>2014-05-25T09:31:02Z</time>
      </trkpt>
      <trkpt lat="47.22774" lon="5.61105">
        <ele>253.8</ele>
        <time>2014-05-25T09:31:04Z</time>
      </trkpt>
      <trkpt lat="47.22788" lon="5.61118">
        <ele>252.9</ele>
        <time>2014-05-25T09:31:06Z</time>
      </trkpt>
      <trkpt lat="47.22803" lon="5.61124">
        <ele>252.4</ele>
        <time>2014-05-25T09:31:08Z</time>
      </trkpt>
      <trkpt lat="47.22816" lon="5.61129">
        <ele>252.5</ele>
        <time>2014-05-25T09:31:10Z</time>
      </trkpt>
      <trkpt lat="47.22828" lon="5.61136">
        <ele>253.3</ele>
        <time>2014-05-25T09:31:12Z</time>
      </trkpt>
      <trkpt lat="47.22839" lon="5.61143">
        <ele>253.5</ele>
        <time>2014-05-25T09:31:14Z</time>
      </trkpt>
      <trkpt lat="47.22849" lon="5.61151">
        <ele>253.4</ele>
        <time>2014-05-25T09:31:16Z</time>
      </trkpt>
      <trkpt lat="47.22858" lon="5.61159">
        <ele>253.5</ele>
        <time>2014-05-25T09:31:18Z</time>
      </trkpt>
      <trkpt lat="47.22867" lon="5.61168">
        <ele>254</ele>
        <time>2014-05-25T09:31:20Z</time>
      </trkpt>
      <trkpt lat="47.22876" lon="5.61179">
        <ele>254.6</ele>
        <time>2014-05-25T09:31:22Z</time>
      </trkpt>
      <trkpt lat="47.22883" lon="5.61192">
        <ele>254.3</ele>
        <time>2014-05-25T09:31:24Z</time>
      </trkpt>
      <trkpt lat="47.2289" lon="5.61205">
        <ele>254.2</ele>
        <time>2014-05-25T09:31:26Z</time>
      </trkpt>
      <trkpt lat="47.22898" lon="5.61219">
        <ele>254.3</ele>
        <time>2014-05-25T09:31:28Z</time>
      </trkpt>
      <trkpt lat="47.22905" lon="5.61232">
        <ele>254.4</ele>
        <time>2014-05-25T09:31:30Z</time>
      </trkpt>
      <trkpt lat="47.22912" lon="5.61246">
        <ele>254.3</ele>
        <time>2014-05-25T09:31:32Z</time>
      </trkpt>
      <trkpt lat="47.2292" lon="5.61259">
        <ele>254.2</ele>
        <time>2014-05-25T09:31:34Z</time>
      </trkpt>
      <trkpt lat="47.22927" lon="5.61273">
        <ele>253.9</ele>
        <time>2014-05-25T09:31:36Z</time>
      </trkpt>
      <trkpt lat="47.22934" lon="5.61285">
        <ele>254.4</ele>
        <time>2014-05-25T09:31:38Z</time>
      </trkpt>
      <trkpt lat="47.22942" lon="5.61297">
        <ele>254.1</ele>
        <time>2014-05-25T09:31:40Z</time>
      </trkpt>
      <trkpt lat="47.22949" lon="5.61307">
        <ele>254.3</ele>
        <time>2014-05-25T09:31:42Z</time>
      </trkpt>
      <trkpt lat="47.22955" lon="5.61316">
        <ele>254.3</ele>
        <time>2014-05-25T09:31:44Z</time>
      </trkpt>
      <trkpt lat="47.22963" lon="5.61327">
        <ele>254.7</ele>
        <time>2014-05-25T09:31:47Z</time>
      </trkpt>
      <trkpt lat="47.2297" lon="5.61336">
        <ele>256.6</ele>
        <time>2014-05-25T09:31:51Z</time>
      </trkpt>
      <trkpt lat="47.22977" lon="5.61345">
        <ele>258.2</ele>
        <time>2014-05-25T09:31:56Z</time>
      </trkpt>
      <trkpt lat="47.22984" lon="5.61357">
        <ele>259.3</ele>
        <time>2014-05-25T09:32:01Z</time>
      </trkpt>
      <trkpt lat="47.22997" lon="5.61379">
        <ele>262</ele>
        <time>2014-05-25T09:32:11Z</time>
      </trkpt>
      <trkpt lat="47.23004" lon="5.61387">
        <ele>262</ele>
        <time>2014-05-25T09:32:15Z</time>
      </trkpt>
      <trkpt lat="47.23013" lon="5.61396">
        <ele>263.5</ele>
        <time>2014-05-25T09:32:20Z</time>
      </trkpt>
      <trkpt lat="47.23022" lon="5.61405">
        <ele>264.8</ele>
        <time>2014-05-25T09:32:25Z</time>
      </trkpt>
      <trkpt lat="47.2303" lon="5.6141">
        <ele>266</ele>
        <time>2014-05-25T09:32:30Z</time>
      </trkpt>
      <trkpt lat="47.2304" lon="5.61412">
        <ele>266.5</ele>
        <time>2014-05-25T09:32:34Z</time>
      </trkpt>
      <trkpt lat="47.2305" lon="5.61414">
        <ele>266.8</ele>
        <time>2014-05-25T09:32:38Z</time>
      </trkpt>
      <trkpt lat="47.23061" lon="5.61412">
        <ele>267.1</ele>
        <time>2014-05-25T09:32:41Z</time>
      </trkpt>
      <trkpt lat="47.23071" lon="5.61406">
        <ele>266.7</ele>
        <time>2014-05-25T09:32:44Z</time>
      </trkpt>
      <trkpt lat="47.2308" lon="5.61406">
        <ele>267.1</ele>
        <time>2014-05-25T09:32:47Z</time>
      </trkpt>
      <trkpt lat="47.23085" lon="5.61421">
        <ele>267.2</ele>
        <time>2014-05-25T09:32:50Z</time>
      </trkpt>
      <trkpt lat="47.23089" lon="5.61439">
        <ele>266.9</ele>
        <time>2014-05-25T09:32:53Z</time>
      </trkpt>
      <trkpt lat="47.23091" lon="5.61452">
        <ele>266.8</ele>
        <time>2014-05-25T09:32:55Z</time>
      </trkpt>
      <trkpt lat="47.23094" lon="5.61466">
        <ele>266.6</ele>
        <time>2014-05-25T09:32:57Z</time>
      </trkpt>
      <trkpt lat="47.23097" lon="5.6148">
        <ele>266</ele>
        <time>2014-05-25T09:32:59Z</time>
      </trkpt>
      <trkpt lat="47.231" lon="5.61494">
        <ele>265.7</ele>
        <time>2014-05-25T09:33:01Z</time>
      </trkpt>
      <trkpt lat="47.23103" lon="5.61509">
        <ele>265.3</ele>
        <time>2014-05-25T09:33:03Z</time>
      </trkpt>
      <trkpt lat="47.23111" lon="5.61543">
        <ele>264.4</ele>
        <time>2014-05-25T09:33:07Z</time>
      </trkpt>
      <trkpt lat="47.23115" lon="5.61563">
        <ele>263.7</ele>
        <time>2014-05-25T09:33:09Z</time>
      </trkpt>
      <trkpt lat="47.2312" lon="5.61585">
        <ele>262.5</ele>
        <time>2014-05-25T09:33:11Z</time>
      </trkpt>
      <trkpt lat="47.23124" lon="5.61609">
        <ele>261.7</ele>
        <time>2014-05-25T09:33:13Z</time>
      </trkpt>
      <trkpt lat="47.23127" lon="5.61636">
        <ele>260.3</ele>
        <time>2014-05-25T09:33:15Z</time>
      </trkpt>
      <trkpt lat="47.23128" lon="5.6165">
        <ele>259.7</ele>
        <time>2014-05-25T09:33:16Z</time>
      </trkpt>
      <trkpt lat="47.23129" lon="5.61665">
        <ele>259</ele>
        <time>2014-05-25T09:33:17Z</time>
      </trkpt>
      <trkpt lat="47.2313" lon="5.6168">
        <ele>257.6</ele>
        <time>2014-05-25T09:33:18Z</time>
      </trkpt>
      <trkpt lat="47.23131" lon="5.61695">
        <ele>256.6</ele>
        <time>2014-05-25T09:33:19Z</time>
      </trkpt>
      <trkpt lat="47.23132" lon="5.6171">
        <ele>256</ele>
        <time>2014-05-25T09:33:20Z</time>
      </trkpt>
      <trkpt lat="47.23134" lon="5.61726">
        <ele>254.9</ele>
        <time>2014-05-25T09:33:21Z</time>
      </trkpt>
      <trkpt lat="47.23135" lon="5.61741">
        <ele>254</ele>
        <time>2014-05-25T09:33:22Z</time>
      </trkpt>
      <trkpt lat="47.23136" lon="5.61757">
        <ele>253.1</ele>
        <time>2014-05-25T09:33:23Z</time>
      </trkpt>
      <trkpt lat="47.23138" lon="5.61772">
        <ele>252.4</ele>
        <time>2014-05-25T09:33:24Z</time>
      </trkpt>
      <trkpt lat="47.23139" lon="5.61787">
        <ele>251.3</ele>
        <time>2014-05-25T09:33:25Z</time>
      </trkpt>
      <trkpt lat="47.23141" lon="5.61802">
        <ele>250.5</ele>
        <time>2014-05-25T09:33:26Z</time>
      </trkpt>
      <trkpt lat="47.23142" lon="5.61817">
        <ele>249.8</ele>
        <time>2014-05-25T09:33:27Z</time>
      </trkpt>
      <trkpt lat="47.23144" lon="5.61831">
        <ele>248.8</ele>
        <time>2014-05-25T09:33:28Z</time>
      </trkpt>
      <trkpt lat="47.23145" lon="5.61846">
        <ele>248</ele>
        <time>2014-05-25T09:33:29Z</time>
      </trkpt>
      <trkpt lat="47.23147" lon="5.6186">
        <ele>247.2</ele>
        <time>2014-05-25T09:33:30Z</time>
      </trkpt>
      <trkpt lat="47.23148" lon="5.61875">
        <ele>245.7</ele>
        <time>2014-05-25T09:33:31Z</time>
      </trkpt>
      <trkpt lat="47.23149" lon="5.61889">
        <ele>244.7</ele>
        <time>2014-05-25T09:33:32Z</time>
      </trkpt>
      <trkpt lat="47.2315" lon="5.61904">
        <ele>243</ele>
        <time>2014-05-25T09:33:33Z</time>
      </trkpt>
      <trkpt lat="47.23151" lon="5.61918">
        <ele>241.7</ele>
        <time>2014-05-25T09:33:34Z</time>
      </trkpt>
      <trkpt lat="47.23153" lon="5.61932">
        <ele>240</ele>
        <time>2014-05-25T09:33:35Z</time>
      </trkpt>
      <trkpt lat="47.23155" lon="5.61946">
        <ele>238.8</ele>
        <time>2014-05-25T09:33:36Z</time>
      </trkpt>
      <trkpt lat="47.23156" lon="5.61961">
        <ele>237.4</ele>
        <time>2014-05-25T09:33:37Z</time>
      </trkpt>
      <trkpt lat="47.23157" lon="5.61974">
        <ele>236.2</ele>
        <time>2014-05-25T09:33:38Z</time>
      </trkpt>
      <trkpt lat="47.23159" lon="5.61988">
        <ele>234.6</ele>
        <time>2014-05-25T09:33:39Z</time>
      </trkpt>
      <trkpt lat="47.2316" lon="5.62002">
        <ele>232.8</ele>
        <time>2014-05-25T09:33:40Z</time>
      </trkpt>
      <trkpt lat="47.23162" lon="5.62016">
        <ele>231.3</ele>
        <time>2014-05-25T09:33:41Z</time>
      </trkpt>
      <trkpt lat="47.23166" lon="5.6204">
        <ele>228.6</ele>
        <time>2014-05-25T09:33:43Z</time>
      </trkpt>
      <trkpt lat="47.23174" lon="5.62055">
        <ele>226.3</ele>
        <time>2014-05-25T09:33:45Z</time>
      </trkpt>
      <trkpt lat="47.23188" lon="5.62063">
        <ele>224.8</ele>
        <time>2014-05-25T09:33:47Z</time>
      </trkpt>
      <trkpt lat="47.232" lon="5.6207">
        <ele>224.4</ele>
        <time>2014-05-25T09:33:49Z</time>
      </trkpt>
      <trkpt lat="47.23213" lon="5.62076">
        <ele>224</ele>
        <time>2014-05-25T09:33:51Z</time>
      </trkpt>
      <trkpt lat="47.23226" lon="5.62082">
        <ele>223.9</ele>
        <time>2014-05-25T09:33:53Z</time>
      </trkpt>
      <trkpt lat="47.23238" lon="5.62085">
        <ele>223.5</ele>
        <time>2014-05-25T09:33:55Z</time>
      </trkpt>
      <trkpt lat="47.23249" lon="5.62083">
        <ele>223</ele>
        <time>2014-05-25T09:33:57Z</time>
      </trkpt>
      <trkpt lat="47.2326" lon="5.62073">
        <ele>222.7</ele>
        <time>2014-05-25T09:33:59Z</time>
      </trkpt>
      <trkpt lat="47.2327" lon="5.62061">
        <ele>222.9</ele>
        <time>2014-05-25T09:34:01Z</time>
      </trkpt>
      <trkpt lat="47.2328" lon="5.6205">
        <ele>222.6</ele>
        <time>2014-05-25T09:34:03Z</time>
      </trkpt>
      <trkpt lat="47.23289" lon="5.62039">
        <ele>222.7</ele>
        <time>2014-05-25T09:34:05Z</time>
      </trkpt>
      <trkpt lat="47.23308" lon="5.62016">
        <ele>223.5</ele>
        <time>2014-05-25T09:34:09Z</time>
      </trkpt>
      <trkpt lat="47.23316" lon="5.62006">
        <ele>223.5</ele>
        <time>2014-05-25T09:34:11Z</time>
      </trkpt>
      <trkpt lat="47.23324" lon="5.61997">
        <ele>223.5</ele>
        <time>2014-05-25T09:34:13Z</time>
      </trkpt>
      <trkpt lat="47.23332" lon="5.61987">
        <ele>223.8</ele>
        <time>2014-05-25T09:34:15Z</time>
      </trkpt>
      <trkpt lat="47.2334" lon="5.61977">
        <ele>224.2</ele>
        <time>2014-05-25T09:34:17Z</time>
      </trkpt>
      <trkpt lat="47.23348" lon="5.61967">
        <ele>224.4</ele>
        <time>2014-05-25T09:34:19Z</time>
      </trkpt>
      <trkpt lat="47.23356" lon="5.61956">
        <ele>224.5</ele>
        <time>2014-05-25T09:34:21Z</time>
      </trkpt>
      <trkpt lat="47.23364" lon="5.61945">
        <ele>224.4</ele>
        <time>2014-05-25T09:34:23Z</time>
      </trkpt>
      <trkpt lat="47.23373" lon="5.61934">
        <ele>224.6</ele>
        <time>2014-05-25T09:34:25Z</time>
      </trkpt>
      <trkpt lat="47.23382" lon="5.61922">
        <ele>224.7</ele>
        <time>2014-05-25T09:34:27Z</time>
      </trkpt>
      <trkpt lat="47.2339" lon="5.61911">
        <ele>224.7</ele>
        <time>2014-05-25T09:34:29Z</time>
      </trkpt>
      <trkpt lat="47.23398" lon="5.61899">
        <ele>225.1</ele>
        <time>2014-05-25T09:34:31Z</time>
      </trkpt>
      <trkpt lat="47.23406" lon="5.61887">
        <ele>225.3</ele>
        <time>2014-05-25T09:34:33Z</time>
      </trkpt>
      <trkpt lat="47.23414" lon="5.61875">
        <ele>224.9</ele>
        <time>2014-05-25T09:34:35Z</time>
      </trkpt>
      <trkpt lat="47.23422" lon="5.61862">
        <ele>224.9</ele>
        <time>2014-05-25T09:34:37Z</time>
      </trkpt>
      <trkpt lat="47.2343" lon="5.6185">
        <ele>224.3</ele>
        <time>2014-05-25T09:34:39Z</time>
      </trkpt>
      <trkpt lat="47.23439" lon="5.61837">
        <ele>224.5</ele>
        <time>2014-05-25T09:34:41Z</time>
      </trkpt>
      <trkpt lat="47.23447" lon="5.61824">
        <ele>224.6</ele>
        <time>2014-05-25T09:34:43Z</time>
      </trkpt>
      <trkpt lat="47.23456" lon="5.61811">
        <ele>224.7</ele>
        <time>2014-05-25T09:34:45Z</time>
      </trkpt>
      <trkpt lat="47.23465" lon="5.61797">
        <ele>224.9</ele>
        <time>2014-05-25T09:34:47Z</time>
      </trkpt>
      <trkpt lat="47.23474" lon="5.6178">
        <ele>224.5</ele>
        <time>2014-05-25T09:34:49Z</time>
      </trkpt>
      <trkpt lat="47.23482" lon="5.61764">
        <ele>223.9</ele>
        <time>2014-05-25T09:34:51Z</time>
      </trkpt>
      <trkpt lat="47.2349" lon="5.61746">
        <ele>223.6</ele>
        <time>2014-05-25T09:34:53Z</time>
      </trkpt>
      <trkpt lat="47.23498" lon="5.61727">
        <ele>222.7</ele>
        <time>2014-05-25T09:34:55Z</time>
      </trkpt>
      <trkpt lat="47.23506" lon="5.61709">
        <ele>223.4</ele>
        <time>2014-05-25T09:34:57Z</time>
      </trkpt>
      <trkpt lat="47.23515" lon="5.61693">
        <ele>222.8</ele>
        <time>2014-05-25T09:34:59Z</time>
      </trkpt>
      <trkpt lat="47.23523" lon="5.61677">
        <ele>222.3</ele>
        <time>2014-05-25T09:35:01Z</time>
      </trkpt>
      <trkpt lat="47.23531" lon="5.61662">
        <ele>223.1</ele>
        <time>2014-05-25T09:35:03Z</time>
      </trkpt>
      <trkpt lat="47.23538" lon="5.61648">
        <ele>223.6</ele>
        <time>2014-05-25T09:35:05Z</time>
      </trkpt>
      <trkpt lat="47.23544" lon="5.61635">
        <ele>223.8</ele>
        <time>2014-05-25T09:35:07Z</time>
      </trkpt>
      <trkpt lat="47.23557" lon="5.61608">
        <ele>224.8</ele>
        <time>2014-05-25T09:35:11Z</time>
      </trkpt>
      <trkpt lat="47.23563" lon="5.61595">
        <ele>224.8</ele>
        <time>2014-05-25T09:35:13Z</time>
      </trkpt>
      <trkpt lat="47.2357" lon="5.61582">
        <ele>225.7</ele>
        <time>2014-05-25T09:35:15Z</time>
      </trkpt>
      <trkpt lat="47.23576" lon="5.6157">
        <ele>225.7</ele>
        <time>2014-05-25T09:35:17Z</time>
      </trkpt>
      <trkpt lat="47.23582" lon="5.61557">
        <ele>226.3</ele>
        <time>2014-05-25T09:35:19Z</time>
      </trkpt>
      <trkpt lat="47.23589" lon="5.61546">
        <ele>226.4</ele>
        <time>2014-05-25T09:35:21Z</time>
      </trkpt>
      <trkpt lat="47.23596" lon="5.61538">
        <ele>226.8</ele>
        <time>2014-05-25T09:35:23Z</time>
      </trkpt>
      <trkpt lat="47.23603" lon="5.61529">
        <ele>226.6</ele>
        <time>2014-05-25T09:35:25Z</time>
      </trkpt>
      <trkpt lat="47.23612" lon="5.61516">
        <ele>227.6</ele>
        <time>2014-05-25T09:35:28Z</time>
      </trkpt>
      <trkpt lat="47.2362" lon="5.61501">
        <ele>228</ele>
        <time>2014-05-25T09:35:31Z</time>
      </trkpt>
      <trkpt lat="47.23625" lon="5.61485">
        <ele>228.3</ele>
        <time>2014-05-25T09:35:34Z</time>
      </trkpt>
      <trkpt lat="47.23626" lon="5.61469">
        <ele>228.4</ele>
        <time>2014-05-25T09:35:37Z</time>
      </trkpt>
      <trkpt lat="47.23626" lon="5.61454">
        <ele>229.3</ele>
        <time>2014-05-25T09:35:40Z</time>
      </trkpt>
      <trkpt lat="47.23629" lon="5.61437">
        <ele>230</ele>
        <time>2014-05-25T09:35:43Z</time>
      </trkpt>
      <trkpt lat="47.23631" lon="5.61421">
        <ele>230.8</ele>
        <time>2014-05-25T09:35:46Z</time>
      </trkpt>
      <trkpt lat="47.23635" lon="5.61406">
        <ele>231</ele>
        <time>2014-05-25T09:35:49Z</time>
      </trkpt>
      <trkpt lat="47.23642" lon="5.61391">
        <ele>231.7</ele>
        <time>2014-05-25T09:35:52Z</time>
      </trkpt>
      <trkpt lat="47.23649" lon="5.61381">
        <ele>232.2</ele>
        <time>2014-05-25T09:35:55Z</time>
      </trkpt>
      <trkpt lat="47.23658" lon="5.61373">
        <ele>231.9</ele>
        <time>2014-05-25T09:35:58Z</time>
      </trkpt>
      <trkpt lat="47.23668" lon="5.61369">
        <ele>233.1</ele>
        <time>2014-05-25T09:36:01Z</time>
      </trkpt>
      <trkpt lat="47.23678" lon="5.61365">
        <ele>233.1</ele>
        <time>2014-05-25T09:36:04Z</time>
      </trkpt>
      <trkpt lat="47.23688" lon="5.61362">
        <ele>233</ele>
        <time>2014-05-25T09:36:07Z</time>
      </trkpt>
      <trkpt lat="47.237" lon="5.61361">
        <ele>233</ele>
        <time>2014-05-25T09:36:10Z</time>
      </trkpt>
      <trkpt lat="47.23724" lon="5.61356">
        <ele>234.1</ele>
        <time>2014-05-25T09:36:16Z</time>
      </trkpt>
      <trkpt lat="47.23738" lon="5.61352">
        <ele>233.2</ele>
        <time>2014-05-25T09:36:19Z</time>
      </trkpt>
      <trkpt lat="47.23748" lon="5.61349">
        <ele>232.8</ele>
        <time>2014-05-25T09:36:21Z</time>
      </trkpt>
      <trkpt lat="47.2376" lon="5.61347">
        <ele>232.5</ele>
        <time>2014-05-25T09:36:23Z</time>
      </trkpt>
      <trkpt lat="47.23772" lon="5.61344">
        <ele>231.5</ele>
        <time>2014-05-25T09:36:25Z</time>
      </trkpt>
      <trkpt lat="47.23786" lon="5.61342">
        <ele>230.7</ele>
        <time>2014-05-25T09:36:27Z</time>
      </trkpt>
      <trkpt lat="47.23802" lon="5.61339">
        <ele>229.7</ele>
        <time>2014-05-25T09:36:29Z</time>
      </trkpt>
      <trkpt lat="47.23818" lon="5.61336">
        <ele>228.8</ele>
        <time>2014-05-25T09:36:31Z</time>
      </trkpt>
      <trkpt lat="47.23835" lon="5.6133">
        <ele>227.9</ele>
        <time>2014-05-25T09:36:33Z</time>
      </trkpt>
      <trkpt lat="47.23852" lon="5.6132">
        <ele>226.8</ele>
        <time>2014-05-25T09:36:35Z</time>
      </trkpt>
      <trkpt lat="47.2386" lon="5.61314">
        <ele>226.4</ele>
        <time>2014-05-25T09:36:36Z</time>
      </trkpt>
      <trkpt lat="47.23868" lon="5.61307">
        <ele>225.8</ele>
        <time>2014-05-25T09:36:37Z</time>
      </trkpt>
      <trkpt lat="47.23876" lon="5.61299">
        <ele>225.2</ele>
        <time>2014-05-25T09:36:38Z</time>
      </trkpt>
      <trkpt lat="47.23883" lon="5.61291">
        <ele>224.9</ele>
        <time>2014-05-25T09:36:39Z</time>
      </trkpt>
      <trkpt lat="47.23891" lon="5.61283">
        <ele>224.3</ele>
        <time>2014-05-25T09:36:40Z</time>
      </trkpt>
      <trkpt lat="47.23904" lon="5.61267">
        <ele>223.9</ele>
        <time>2014-05-25T09:36:42Z</time>
      </trkpt>
      <trkpt lat="47.23917" lon="5.61252">
        <ele>223.1</ele>
        <time>2014-05-25T09:36:44Z</time>
      </trkpt>
      <trkpt lat="47.2393" lon="5.61239">
        <ele>223.1</ele>
        <time>2014-05-25T09:36:46Z</time>
      </trkpt>
      <trkpt lat="47.23943" lon="5.61227">
        <ele>222.8</ele>
        <time>2014-05-25T09:36:48Z</time>
      </trkpt>
      <trkpt lat="47.23956" lon="5.61216">
        <ele>222.6</ele>
        <time>2014-05-25T09:36:50Z</time>
      </trkpt>
      <trkpt lat="47.23968" lon="5.61206">
        <ele>222.2</ele>
        <time>2014-05-25T09:36:52Z</time>
      </trkpt>
      <trkpt lat="47.2398" lon="5.61196">
        <ele>222</ele>
        <time>2014-05-25T09:36:54Z</time>
      </trkpt>
      <trkpt lat="47.23992" lon="5.61186">
        <ele>222.3</ele>
        <time>2014-05-25T09:36:56Z</time>
      </trkpt>
      <trkpt lat="47.24005" lon="5.61176">
        <ele>221.8</ele>
        <time>2014-05-25T09:36:58Z</time>
      </trkpt>
      <trkpt lat="47.24018" lon="5.61166">
        <ele>222</ele>
        <time>2014-05-25T09:37:00Z</time>
      </trkpt>
      <trkpt lat="47.24031" lon="5.61157">
        <ele>221.4</ele>
        <time>2014-05-25T09:37:02Z</time>
      </trkpt>
      <trkpt lat="47.24044" lon="5.61148">
        <ele>221.6</ele>
        <time>2014-05-25T09:37:04Z</time>
      </trkpt>
      <trkpt lat="47.24058" lon="5.61141">
        <ele>221.8</ele>
        <time>2014-05-25T09:37:06Z</time>
      </trkpt>
      <trkpt lat="47.24071" lon="5.61133">
        <ele>221.8</ele>
        <time>2014-05-25T09:37:08Z</time>
      </trkpt>
      <trkpt lat="47.24084" lon="5.61125">
        <ele>221.4</ele>
        <time>2014-05-25T09:37:10Z</time>
      </trkpt>
      <trkpt lat="47.24096" lon="5.61116">
        <ele>221</ele>
        <time>2014-05-25T09:37:12Z</time>
      </trkpt>
      <trkpt lat="47.2412" lon="5.61092">
        <ele>220.3</ele>
        <time>2014-05-25T09:37:16Z</time>
      </trkpt>
      <trkpt lat="47.2413" lon="5.6108">
        <ele>219.9</ele>
        <time>2014-05-25T09:37:18Z</time>
      </trkpt>
      <trkpt lat="47.24141" lon="5.61068">
        <ele>220.7</ele>
        <time>2014-05-25T09:37:20Z</time>
      </trkpt>
      <trkpt lat="47.24151" lon="5.61057">
        <ele>220.5</ele>
        <time>2014-05-25T09:37:22Z</time>
      </trkpt>
      <trkpt lat="47.24162" lon="5.61045">
        <ele>220.4</ele>
        <time>2014-05-25T09:37:24Z</time>
      </trkpt>
      <trkpt lat="47.24173" lon="5.61033">
        <ele>220.5</ele>
        <time>2014-05-25T09:37:26Z</time>
      </trkpt>
      <trkpt lat="47.24184" lon="5.6102">
        <ele>220.3</ele>
        <time>2014-05-25T09:37:28Z</time>
      </trkpt>
      <trkpt lat="47.24194" lon="5.61008">
        <ele>220.1</ele>
        <time>2014-05-25T09:37:30Z</time>
      </trkpt>
      <trkpt lat="47.24205" lon="5.60996">
        <ele>220.1</ele>
        <time>2014-05-25T09:37:32Z</time>
      </trkpt>
      <trkpt lat="47.24216" lon="5.60985">
        <ele>220.3</ele>
        <time>2014-05-25T09:37:34Z</time>
      </trkpt>
      <trkpt lat="47.24226" lon="5.60973">
        <ele>219.9</ele>
        <time>2014-05-25T09:37:36Z</time>
      </trkpt>
      <trkpt lat="47.24237" lon="5.60962">
        <ele>219.8</ele>
        <time>2014-05-25T09:37:38Z</time>
      </trkpt>
      <trkpt lat="47.24248" lon="5.60953">
        <ele>219.9</ele>
        <time>2014-05-25T09:37:40Z</time>
      </trkpt>
      <trkpt lat="47.2426" lon="5.60944">
        <ele>219.5</ele>
        <time>2014-05-25T09:37:42Z</time>
      </trkpt>
      <trkpt lat="47.24268" lon="5.60931">
        <ele>219.7</ele>
        <time>2014-05-25T09:37:44Z</time>
      </trkpt>
      <trkpt lat="47.24273" lon="5.60919">
        <ele>219.5</ele>
        <time>2014-05-25T09:37:46Z</time>
      </trkpt>
      <trkpt lat="47.24269" lon="5.609">
        <ele>219.2</ele>
        <time>2014-05-25T09:37:49Z</time>
      </trkpt>
      <trkpt lat="47.24262" lon="5.60888">
        <ele>219.4</ele>
        <time>2014-05-25T09:37:51Z</time>
      </trkpt>
      <trkpt lat="47.24253" lon="5.60874">
        <ele>220.1</ele>
        <time>2014-05-25T09:37:53Z</time>
      </trkpt>
      <trkpt lat="47.24244" lon="5.60859">
        <ele>220</ele>
        <time>2014-05-25T09:37:55Z</time>
      </trkpt>
      <trkpt lat="47.24236" lon="5.60844">
        <ele>220</ele>
        <time>2014-05-25T09:37:57Z</time>
      </trkpt>
      <trkpt lat="47.24228" lon="5.60829">
        <ele>220</ele>
        <time>2014-05-25T09:37:59Z</time>
      </trkpt>
      <trkpt lat="47.2422" lon="5.60814">
        <ele>220</ele>
        <time>2014-05-25T09:38:01Z</time>
      </trkpt>
      <trkpt lat="47.24212" lon="5.60798">
        <ele>220.3</ele>
        <time>2014-05-25T09:38:03Z</time>
      </trkpt>
      <trkpt lat="47.24204" lon="5.60783">
        <ele>220</ele>
        <time>2014-05-25T09:38:05Z</time>
      </trkpt>
      <trkpt lat="47.24196" lon="5.60767">
        <ele>219.7</ele>
        <time>2014-05-25T09:38:07Z</time>
      </trkpt>
      <trkpt lat="47.24188" lon="5.60752">
        <ele>219.9</ele>
        <time>2014-05-25T09:38:09Z</time>
      </trkpt>
      <trkpt lat="47.2418" lon="5.60736">
        <ele>220</ele>
        <time>2014-05-25T09:38:11Z</time>
      </trkpt>
      <trkpt lat="47.24173" lon="5.6072">
        <ele>220.1</ele>
        <time>2014-05-25T09:38:13Z</time>
      </trkpt>
      <trkpt lat="47.24157" lon="5.6069">
        <ele>220.5</ele>
        <time>2014-05-25T09:38:17Z</time>
      </trkpt>
      <trkpt lat="47.2415" lon="5.60675">
        <ele>220.8</ele>
        <time>2014-05-25T09:38:19Z</time>
      </trkpt>
      <trkpt lat="47.24143" lon="5.60659">
        <ele>221.1</ele>
        <time>2014-05-25T09:38:21Z</time>
      </trkpt>
      <trkpt lat="47.24135" lon="5.60644">
        <ele>221</ele>
        <time>2014-05-25T09:38:23Z</time>
      </trkpt>
      <trkpt lat="47.24128" lon="5.6063">
        <ele>221.4</ele>
        <time>2014-05-25T09:38:25Z</time>
      </trkpt>
      <trkpt lat="47.24121" lon="5.60616">
        <ele>221.1</ele>
        <time>2014-05-25T09:38:27Z</time>
      </trkpt>
      <trkpt lat="47.24115" lon="5.60602">
        <ele>221.4</ele>
        <time>2014-05-25T09:38:29Z</time>
      </trkpt>
      <trkpt lat="47.24108" lon="5.60588">
        <ele>221.7</ele>
        <time>2014-05-25T09:38:31Z</time>
      </trkpt>
      <trkpt lat="47.24102" lon="5.60574">
        <ele>221.9</ele>
        <time>2014-05-25T09:38:33Z</time>
      </trkpt>
      <trkpt lat="47.24095" lon="5.60559">
        <ele>222</ele>
        <time>2014-05-25T09:38:35Z</time>
      </trkpt>
      <trkpt lat="47.24088" lon="5.60545">
        <ele>222.1</ele>
        <time>2014-05-25T09:38:37Z</time>
      </trkpt>
      <trkpt lat="47.24082" lon="5.60532">
        <ele>222.2</ele>
        <time>2014-05-25T09:38:39Z</time>
      </trkpt>
      <trkpt lat="47.24075" lon="5.60518">
        <ele>222.3</ele>
        <time>2014-05-25T09:38:41Z</time>
      </trkpt>
      <trkpt lat="47.24068" lon="5.60503">
        <ele>222.3</ele>
        <time>2014-05-25T09:38:43Z</time>
      </trkpt>
      <trkpt lat="47.24061" lon="5.60489">
        <ele>222.6</ele>
        <time>2014-05-25T09:38:45Z</time>
      </trkpt>
      <trkpt lat="47.24054" lon="5.60475">
        <ele>222.9</ele>
        <time>2014-05-25T09:38:47Z</time>
      </trkpt>
      <trkpt lat="47.24047" lon="5.6046">
        <ele>222.9</ele>
        <time>2014-05-25T09:38:49Z</time>
      </trkpt>
      <trkpt lat="47.2404" lon="5.60446">
        <ele>223.1</ele>
        <time>2014-05-25T09:38:51Z</time>
      </trkpt>
      <trkpt lat="47.24033" lon="5.60432">
        <ele>223.3</ele>
        <time>2014-05-25T09:38:53Z</time>
      </trkpt>
      <trkpt lat="47.24025" lon="5.60417">
        <ele>223</ele>
        <time>2014-05-25T09:38:55Z</time>
      </trkpt>
      <trkpt lat="47.24018" lon="5.60403">
        <ele>223.2</ele>
        <time>2014-05-25T09:38:57Z</time>
      </trkpt>
      <trkpt lat="47.24011" lon="5.60388">
        <ele>223.2</ele>
        <time>2014-05-25T09:38:59Z</time>
      </trkpt>
      <trkpt lat="47.24004" lon="5.60374">
        <ele>223.8</ele>
        <time>2014-05-25T09:39:01Z</time>
      </trkpt>
      <trkpt lat="47.23997" lon="5.60361">
        <ele>223.9</ele>
        <time>2014-05-25T09:39:03Z</time>
      </trkpt>
      <trkpt lat="47.23989" lon="5.60349">
        <ele>223.9</ele>
        <time>2014-05-25T09:39:05Z</time>
      </trkpt>
      <trkpt lat="47.23981" lon="5.60338">
        <ele>224.2</ele>
        <time>2014-05-25T09:39:07Z</time>
      </trkpt>
      <trkpt lat="47.23971" lon="5.60329">
        <ele>224.3</ele>
        <time>2014-05-25T09:39:09Z</time>
      </trkpt>
      <trkpt lat="47.23961" lon="5.60321">
        <ele>224.3</ele>
        <time>2014-05-25T09:39:11Z</time>
      </trkpt>
      <trkpt lat="47.23951" lon="5.60313">
        <ele>224.7</ele>
        <time>2014-05-25T09:39:13Z</time>
      </trkpt>
      <trkpt lat="47.23941" lon="5.60306">
        <ele>225</ele>
        <time>2014-05-25T09:39:15Z</time>
      </trkpt>
      <trkpt lat="47.23921" lon="5.60292">
        <ele>225</ele>
        <time>2014-05-25T09:39:19Z</time>
      </trkpt>
      <trkpt lat="47.23911" lon="5.60284">
        <ele>225.5</ele>
        <time>2014-05-25T09:39:21Z</time>
      </trkpt>
      <trkpt lat="47.23902" lon="5.60278">
        <ele>225.4</ele>
        <time>2014-05-25T09:39:23Z</time>
      </trkpt>
      <trkpt lat="47.23892" lon="5.60271">
        <ele>225.2</ele>
        <time>2014-05-25T09:39:25Z</time>
      </trkpt>
      <trkpt lat="47.23883" lon="5.60264">
        <ele>225.1</ele>
        <time>2014-05-25T09:39:27Z</time>
      </trkpt>
      <trkpt lat="47.23874" lon="5.60257">
        <ele>225.4</ele>
        <time>2014-05-25T09:39:29Z</time>
      </trkpt>
      <trkpt lat="47.23864" lon="5.60249">
        <ele>225.6</ele>
        <time>2014-05-25T09:39:31Z</time>
      </trkpt>
      <trkpt lat="47.23855" lon="5.60242">
        <ele>225.9</ele>
        <time>2014-05-25T09:39:33Z</time>
      </trkpt>
      <trkpt lat="47.23846" lon="5.60235">
        <ele>226</ele>
        <time>2014-05-25T09:39:35Z</time>
      </trkpt>
      <trkpt lat="47.23838" lon="5.60227">
        <ele>226.1</ele>
        <time>2014-05-25T09:39:37Z</time>
      </trkpt>
      <trkpt lat="47.23829" lon="5.60219">
        <ele>226.6</ele>
        <time>2014-05-25T09:39:39Z</time>
      </trkpt>
      <trkpt lat="47.23821" lon="5.60212">
        <ele>226.9</ele>
        <time>2014-05-25T09:39:41Z</time>
      </trkpt>
      <trkpt lat="47.23813" lon="5.60203">
        <ele>227.5</ele>
        <time>2014-05-25T09:39:43Z</time>
      </trkpt>
      <trkpt lat="47.23803" lon="5.60195">
        <ele>228.3</ele>
        <time>2014-05-25T09:39:46Z</time>
      </trkpt>
      <trkpt lat="47.23794" lon="5.60188">
        <ele>228.9</ele>
        <time>2014-05-25T09:39:49Z</time>
      </trkpt>
      <trkpt lat="47.23784" lon="5.6018">
        <ele>230.4</ele>
        <time>2014-05-25T09:39:53Z</time>
      </trkpt>
      <trkpt lat="47.23775" lon="5.60171">
        <ele>231.5</ele>
        <time>2014-05-25T09:39:58Z</time>
      </trkpt>
      <trkpt lat="47.23766" lon="5.60165">
        <ele>232.7</ele>
        <time>2014-05-25T09:40:02Z</time>
      </trkpt>
      <trkpt lat="47.23758" lon="5.60159">
        <ele>233.6</ele>
        <time>2014-05-25T09:40:06Z</time>
      </trkpt>
      <trkpt lat="47.23748" lon="5.60153">
        <ele>234.9</ele>
        <time>2014-05-25T09:40:11Z</time>
      </trkpt>
      <trkpt lat="47.23738" lon="5.60147">
        <ele>235.9</ele>
        <time>2014-05-25T09:40:16Z</time>
      </trkpt>
      <trkpt lat="47.23717" lon="5.60138">
        <ele>238.5</ele>
        <time>2014-05-25T09:40:26Z</time>
      </trkpt>
      <trkpt lat="47.23707" lon="5.60135">
        <ele>239.7</ele>
        <time>2014-05-25T09:40:30Z</time>
      </trkpt>
      <trkpt lat="47.23698" lon="5.60133">
        <ele>240.4</ele>
        <time>2014-05-25T09:40:34Z</time>
      </trkpt>
      <trkpt lat="47.23687" lon="5.60131">
        <ele>241.5</ele>
        <time>2014-05-25T09:40:38Z</time>
      </trkpt>
      <trkpt lat="47.23676" lon="5.60129">
        <ele>242.5</ele>
        <time>2014-05-25T09:40:42Z</time>
      </trkpt>
      <trkpt lat="47.23664" lon="5.60129">
        <ele>243.1</ele>
        <time>2014-05-25T09:40:46Z</time>
      </trkpt>
      <trkpt lat="47.23654" lon="5.60128">
        <ele>242.8</ele>
        <time>2014-05-25T09:40:49Z</time>
      </trkpt>
      <trkpt lat="47.23644" lon="5.60128">
        <ele>243.2</ele>
        <time>2014-05-25T09:40:52Z</time>
      </trkpt>
      <trkpt lat="47.23633" lon="5.60128">
        <ele>242.9</ele>
        <time>2014-05-25T09:40:55Z</time>
      </trkpt>
      <trkpt lat="47.23621" lon="5.60127">
        <ele>242.9</ele>
        <time>2014-05-25T09:40:58Z</time>
      </trkpt>
      <trkpt lat="47.23611" lon="5.60125">
        <ele>242.9</ele>
        <time>2014-05-25T09:41:00Z</time>
      </trkpt>
      <trkpt lat="47.23602" lon="5.60119">
        <ele>242.6</ele>
        <time>2014-05-25T09:41:02Z</time>
      </trkpt>
      <trkpt lat="47.23593" lon="5.60109">
        <ele>241.8</ele>
        <time>2014-05-25T09:41:04Z</time>
      </trkpt>
      <trkpt lat="47.23583" lon="5.60094">
        <ele>241.4</ele>
        <time>2014-05-25T09:41:06Z</time>
      </trkpt>
      <trkpt lat="47.23574" lon="5.60078">
        <ele>240.7</ele>
        <time>2014-05-25T09:41:08Z</time>
      </trkpt>
      <trkpt lat="47.23563" lon="5.60061">
        <ele>240.1</ele>
        <time>2014-05-25T09:41:10Z</time>
      </trkpt>
      <trkpt lat="47.23549" lon="5.60047">
        <ele>239.6</ele>
        <time>2014-05-25T09:41:12Z</time>
      </trkpt>
      <trkpt lat="47.23534" lon="5.60038">
        <ele>238.7</ele>
        <time>2014-05-25T09:41:14Z</time>
      </trkpt>
      <trkpt lat="47.23519" lon="5.60031">
        <ele>238.1</ele>
        <time>2014-05-25T09:41:16Z</time>
      </trkpt>
      <trkpt lat="47.23504" lon="5.60025">
        <ele>237.8</ele>
        <time>2014-05-25T09:41:18Z</time>
      </trkpt>
      <trkpt lat="47.23475" lon="5.60011">
        <ele>237.6</ele>
        <time>2014-05-25T09:41:22Z</time>
      </trkpt>
      <trkpt lat="47.23462" lon="5.60002">
        <ele>237.5</ele>
        <time>2014-05-25T09:41:24Z</time>
      </trkpt>
      <trkpt lat="47.2345" lon="5.59992">
        <ele>237.7</ele>
        <time>2014-05-25T09:41:26Z</time>
      </trkpt>
      <trkpt lat="47.23439" lon="5.5998">
        <ele>237.8</ele>
        <time>2014-05-25T09:41:28Z</time>
      </trkpt>
      <trkpt lat="47.23428" lon="5.59969">
        <ele>237.5</ele>
        <time>2014-05-25T09:41:30Z</time>
      </trkpt>
      <trkpt lat="47.23417" lon="5.59957">
        <ele>237.9</ele>
        <time>2014-05-25T09:41:32Z</time>
      </trkpt>
      <trkpt lat="47.23406" lon="5.59945">
        <ele>237.5</ele>
        <time>2014-05-25T09:41:34Z</time>
      </trkpt>
      <trkpt lat="47.23396" lon="5.59932">
        <ele>237.7</ele>
        <time>2014-05-25T09:41:36Z</time>
      </trkpt>
      <trkpt lat="47.23387" lon="5.5992">
        <ele>237.7</ele>
        <time>2014-05-25T09:41:38Z</time>
      </trkpt>
      <trkpt lat="47.23377" lon="5.5991">
        <ele>237.9</ele>
        <time>2014-05-25T09:41:40Z</time>
      </trkpt>
      <trkpt lat="47.23367" lon="5.599">
        <ele>237.8</ele>
        <time>2014-05-25T09:41:42Z</time>
      </trkpt>
      <trkpt lat="47.23356" lon="5.59891">
        <ele>238</ele>
        <time>2014-05-25T09:41:44Z</time>
      </trkpt>
      <trkpt lat="47.23346" lon="5.59882">
        <ele>238.2</ele>
        <time>2014-05-25T09:41:46Z</time>
      </trkpt>
      <trkpt lat="47.23336" lon="5.59874">
        <ele>238.4</ele>
        <time>2014-05-25T09:41:48Z</time>
      </trkpt>
      <trkpt lat="47.23325" lon="5.59865">
        <ele>239</ele>
        <time>2014-05-25T09:41:50Z</time>
      </trkpt>
      <trkpt lat="47.23316" lon="5.59858">
        <ele>239.4</ele>
        <time>2014-05-25T09:41:52Z</time>
      </trkpt>
      <trkpt lat="47.23306" lon="5.5985">
        <ele>239.6</ele>
        <time>2014-05-25T09:41:54Z</time>
      </trkpt>
      <trkpt lat="47.23296" lon="5.59842">
        <ele>239.9</ele>
        <time>2014-05-25T09:41:56Z</time>
      </trkpt>
      <trkpt lat="47.23287" lon="5.59834">
        <ele>239.9</ele>
        <time>2014-05-25T09:41:58Z</time>
      </trkpt>
      <trkpt lat="47.23278" lon="5.59827">
        <ele>240.2</ele>
        <time>2014-05-25T09:42:00Z</time>
      </trkpt>
      <trkpt lat="47.23269" lon="5.59819">
        <ele>240.4</ele>
        <time>2014-05-25T09:42:02Z</time>
      </trkpt>
      <trkpt lat="47.2326" lon="5.59811">
        <ele>240.8</ele>
        <time>2014-05-25T09:42:04Z</time>
      </trkpt>
      <trkpt lat="47.23251" lon="5.59804">
        <ele>240.5</ele>
        <time>2014-05-25T09:42:06Z</time>
      </trkpt>
      <trkpt lat="47.23241" lon="5.59797">
        <ele>240.4</ele>
        <time>2014-05-25T09:42:08Z</time>
      </trkpt>
      <trkpt lat="47.23232" lon="5.59791">
        <ele>240.6</ele>
        <time>2014-05-25T09:42:10Z</time>
      </trkpt>
      <trkpt lat="47.23222" lon="5.59785">
        <ele>240.5</ele>
        <time>2014-05-25T09:42:12Z</time>
      </trkpt>
      <trkpt lat="47.23213" lon="5.59779">
        <ele>240.7</ele>
        <time>2014-05-25T09:42:14Z</time>
      </trkpt>
      <trkpt lat="47.23203" lon="5.59773">
        <ele>240.9</ele>
        <time>2014-05-25T09:42:16Z</time>
      </trkpt>
      <trkpt lat="47.23193" lon="5.59768">
        <ele>240.9</ele>
        <time>2014-05-25T09:42:18Z</time>
      </trkpt>
      <trkpt lat="47.23184" lon="5.59762">
        <ele>241.3</ele>
        <time>2014-05-25T09:42:20Z</time>
      </trkpt>
      <trkpt lat="47.23165" lon="5.59753">
        <ele>241.8</ele>
        <time>2014-05-25T09:42:24Z</time>
      </trkpt>
      <trkpt lat="47.23154" lon="5.59748">
        <ele>241.8</ele>
        <time>2014-05-25T09:42:26Z</time>
      </trkpt>
      <trkpt lat="47.23145" lon="5.59743">
        <ele>241.9</ele>
        <time>2014-05-25T09:42:28Z</time>
      </trkpt>
      <trkpt lat="47.23137" lon="5.59738">
        <ele>241.5</ele>
        <time>2014-05-25T09:42:30Z</time>
      </trkpt>
      <trkpt lat="47.23127" lon="5.59733">
        <ele>241.6</ele>
        <time>2014-05-25T09:42:32Z</time>
      </trkpt>
      <trkpt lat="47.23115" lon="5.59728">
        <ele>241.1</ele>
        <time>2014-05-25T09:42:34Z</time>
      </trkpt>
      <trkpt lat="47.23103" lon="5.59723">
        <ele>240.9</ele>
        <time>2014-05-25T09:42:36Z</time>
      </trkpt>
      <trkpt lat="47.23089" lon="5.59717">
        <ele>241.3</ele>
        <time>2014-05-25T09:42:38Z</time>
      </trkpt>
      <trkpt lat="47.23076" lon="5.59712">
        <ele>240.3</ele>
        <time>2014-05-25T09:42:40Z</time>
      </trkpt>
      <trkpt lat="47.23062" lon="5.59708">
        <ele>240.5</ele>
        <time>2014-05-25T09:42:42Z</time>
      </trkpt>
      <trkpt lat="47.23049" lon="5.59704">
        <ele>240.2</ele>
        <time>2014-05-25T09:42:44Z</time>
      </trkpt>
      <trkpt lat="47.23037" lon="5.59701">
        <ele>240.2</ele>
        <time>2014-05-25T09:42:46Z</time>
      </trkpt>
      <trkpt lat="47.23023" lon="5.59696">
        <ele>239.8</ele>
        <time>2014-05-25T09:42:48Z</time>
      </trkpt>
      <trkpt lat="47.23009" lon="5.5969">
        <ele>239.3</ele>
        <time>2014-05-25T09:42:50Z</time>
      </trkpt>
      <trkpt lat="47.22996" lon="5.59685">
        <ele>239.4</ele>
        <time>2014-05-25T09:42:52Z</time>
      </trkpt>
      <trkpt lat="47.22983" lon="5.5968">
        <ele>239.7</ele>
        <time>2014-05-25T09:42:54Z</time>
      </trkpt>
      <trkpt lat="47.2297" lon="5.59674">
        <ele>240.1</ele>
        <time>2014-05-25T09:42:56Z</time>
      </trkpt>
      <trkpt lat="47.2296" lon="5.59669">
        <ele>239.9</ele>
        <time>2014-05-25T09:42:58Z</time>
      </trkpt>
      <trkpt lat="47.2295" lon="5.59665">
        <ele>240.4</ele>
        <time>2014-05-25T09:43:00Z</time>
      </trkpt>
      <trkpt lat="47.22941" lon="5.59661">
        <ele>240.5</ele>
        <time>2014-05-25T09:43:02Z</time>
      </trkpt>
      <trkpt lat="47.22931" lon="5.59656">
        <ele>240.8</ele>
        <time>2014-05-25T09:43:04Z</time>
      </trkpt>
      <trkpt lat="47.22922" lon="5.59653">
        <ele>241.1</ele>
        <time>2014-05-25T09:43:06Z</time>
      </trkpt>
      <trkpt lat="47.22912" lon="5.5965">
        <ele>241</ele>
        <time>2014-05-25T09:43:08Z</time>
      </trkpt>
      <trkpt lat="47.229" lon="5.59648">
        <ele>240.8</ele>
        <time>2014-05-25T09:43:11Z</time>
      </trkpt>
      <trkpt lat="47.2289" lon="5.59648">
        <ele>241.3</ele>
        <time>2014-05-25T09:43:14Z</time>
      </trkpt>
      <trkpt lat="47.22879" lon="5.59647">
        <ele>241.3</ele>
        <time>2014-05-25T09:43:17Z</time>
      </trkpt>
      <trkpt lat="47.22868" lon="5.59647">
        <ele>241.8</ele>
        <time>2014-05-25T09:43:20Z</time>
      </trkpt>
      <trkpt lat="47.22857" lon="5.59648">
        <ele>241.5</ele>
        <time>2014-05-25T09:43:23Z</time>
      </trkpt>
      <trkpt lat="47.22837" lon="5.59651">
        <ele>241.6</ele>
        <time>2014-05-25T09:43:27Z</time>
      </trkpt>
      <trkpt lat="47.22824" lon="5.59649">
        <ele>241.2</ele>
        <time>2014-05-25T09:43:30Z</time>
      </trkpt>
      <trkpt lat="47.2281" lon="5.59652">
        <ele>240.7</ele>
        <time>2014-05-25T09:43:33Z</time>
      </trkpt>
      <trkpt lat="47.22797" lon="5.59652">
        <ele>241</ele>
        <time>2014-05-25T09:43:35Z</time>
      </trkpt>
      <trkpt lat="47.22787" lon="5.59653">
        <ele>240.9</ele>
        <time>2014-05-25T09:43:36Z</time>
      </trkpt>
      <trkpt lat="47.22772" lon="5.59655">
        <ele>241.4</ele>
        <time>2014-05-25T09:43:38Z</time>
      </trkpt>
      <trkpt lat="47.2276" lon="5.59657">
        <ele>243</ele>
        <time>2014-05-25T09:43:41Z</time>
      </trkpt>
      <trkpt lat="47.22745" lon="5.59655">
        <ele>243.9</ele>
        <time>2014-05-25T09:43:44Z</time>
      </trkpt>
      <trkpt lat="47.22732" lon="5.59652">
        <ele>244.4</ele>
        <time>2014-05-25T09:43:46Z</time>
      </trkpt>
      <trkpt lat="47.22719" lon="5.59648">
        <ele>244.1</ele>
        <time>2014-05-25T09:43:48Z</time>
      </trkpt>
      <trkpt lat="47.22707" lon="5.59644">
        <ele>244.2</ele>
        <time>2014-05-25T09:43:50Z</time>
      </trkpt>
      <trkpt lat="47.22695" lon="5.59639">
        <ele>244.4</ele>
        <time>2014-05-25T09:43:52Z</time>
      </trkpt>
      <trkpt lat="47.22684" lon="5.59634">
        <ele>244.8</ele>
        <time>2014-05-25T09:43:54Z</time>
      </trkpt>
      <trkpt lat="47.22674" lon="5.5963">
        <ele>245.5</ele>
        <time>2014-05-25T09:43:56Z</time>
      </trkpt>
      <trkpt lat="47.22664" lon="5.59625">
        <ele>245.6</ele>
        <time>2014-05-25T09:43:58Z</time>
      </trkpt>
      <trkpt lat="47.22652" lon="5.5962">
        <ele>246.4</ele>
        <time>2014-05-25T09:44:01Z</time>
      </trkpt>
      <trkpt lat="47.22639" lon="5.59615">
        <ele>246.7</ele>
        <time>2014-05-25T09:44:04Z</time>
      </trkpt>
      <trkpt lat="47.22626" lon="5.59611">
        <ele>247.1</ele>
        <time>2014-05-25T09:44:06Z</time>
      </trkpt>
      <trkpt lat="47.22616" lon="5.59606">
        <ele>247</ele>
        <time>2014-05-25T09:44:08Z</time>
      </trkpt>
      <trkpt lat="47.22607" lon="5.59602">
        <ele>246.9</ele>
        <time>2014-05-25T09:44:10Z</time>
      </trkpt>
      <trkpt lat="47.22599" lon="5.59597">
        <ele>247.1</ele>
        <time>2014-05-25T09:44:12Z</time>
      </trkpt>
      <trkpt lat="47.22589" lon="5.59592">
        <ele>247.2</ele>
        <time>2014-05-25T09:44:14Z</time>
      </trkpt>
      <trkpt lat="47.22579" lon="5.59587">
        <ele>246.8</ele>
        <time>2014-05-25T09:44:16Z</time>
      </trkpt>
      <trkpt lat="47.22567" lon="5.59585">
        <ele>246.8</ele>
        <time>2014-05-25T09:44:19Z</time>
      </trkpt>
      <trkpt lat="47.22557" lon="5.59586">
        <ele>247.1</ele>
        <time>2014-05-25T09:44:22Z</time>
      </trkpt>
      <trkpt lat="47.22547" lon="5.59588">
        <ele>247.6</ele>
        <time>2014-05-25T09:44:25Z</time>
      </trkpt>
      <trkpt lat="47.22526" lon="5.59595">
        <ele>248</ele>
        <time>2014-05-25T09:44:31Z</time>
      </trkpt>
      <trkpt lat="47.22515" lon="5.59596">
        <ele>248</ele>
        <time>2014-05-25T09:44:34Z</time>
      </trkpt>
      <trkpt lat="47.22505" lon="5.59596">
        <ele>248.4</ele>
        <time>2014-05-25T09:44:36Z</time>
      </trkpt>
      <trkpt lat="47.22493" lon="5.59593">
        <ele>248.2</ele>
        <time>2014-05-25T09:44:38Z</time>
      </trkpt>
      <trkpt lat="47.22482" lon="5.59588">
        <ele>248.6</ele>
        <time>2014-05-25T09:44:40Z</time>
      </trkpt>
      <trkpt lat="47.2247" lon="5.59584">
        <ele>248.8</ele>
        <time>2014-05-25T09:44:42Z</time>
      </trkpt>
      <trkpt lat="47.22457" lon="5.59581">
        <ele>248.6</ele>
        <time>2014-05-25T09:44:44Z</time>
      </trkpt>
      <trkpt lat="47.22448" lon="5.59579">
        <ele>248.9</ele>
        <time>2014-05-25T09:44:46Z</time>
      </trkpt>
      <trkpt lat="47.22438" lon="5.59581">
        <ele>249.3</ele>
        <time>2014-05-25T09:44:49Z</time>
      </trkpt>
      <trkpt lat="47.22429" lon="5.59588">
        <ele>250.3</ele>
        <time>2014-05-25T09:44:53Z</time>
      </trkpt>
      <trkpt lat="47.2242" lon="5.59595">
        <ele>250.7</ele>
        <time>2014-05-25T09:44:56Z</time>
      </trkpt>
      <trkpt lat="47.2241" lon="5.59603">
        <ele>251.3</ele>
        <time>2014-05-25T09:45:00Z</time>
      </trkpt>
      <trkpt lat="47.22402" lon="5.59609">
        <ele>251.7</ele>
        <time>2014-05-25T09:45:03Z</time>
      </trkpt>
      <trkpt lat="47.22393" lon="5.59612">
        <ele>251.8</ele>
        <time>2014-05-25T09:45:06Z</time>
      </trkpt>
      <trkpt lat="47.22383" lon="5.59618">
        <ele>252.5</ele>
        <time>2014-05-25T09:45:09Z</time>
      </trkpt>
      <trkpt lat="47.22374" lon="5.59623">
        <ele>252.5</ele>
        <time>2014-05-25T09:45:12Z</time>
      </trkpt>
      <trkpt lat="47.22362" lon="5.59634">
        <ele>252.9</ele>
        <time>2014-05-25T09:45:14Z</time>
      </trkpt>
      <trkpt lat="47.22352" lon="5.59644">
        <ele>253.2</ele>
        <time>2014-05-25T09:45:17Z</time>
      </trkpt>
      <trkpt lat="47.22342" lon="5.59654">
        <ele>253.3</ele>
        <time>2014-05-25T09:45:20Z</time>
      </trkpt>
      <trkpt lat="47.22332" lon="5.59663">
        <ele>253.2</ele>
        <time>2014-05-25T09:45:23Z</time>
      </trkpt>
      <trkpt lat="47.22322" lon="5.59669">
        <ele>253.6</ele>
        <time>2014-05-25T09:45:25Z</time>
      </trkpt>
      <trkpt lat="47.22313" lon="5.59675">
        <ele>253.7</ele>
        <time>2014-05-25T09:45:28Z</time>
      </trkpt>
      <trkpt lat="47.22294" lon="5.59679">
        <ele>255.7</ele>
        <time>2014-05-25T09:45:37Z</time>
      </trkpt>
      <trkpt lat="47.22284" lon="5.59677">
        <ele>256.5</ele>
        <time>2014-05-25T09:45:43Z</time>
      </trkpt>
      <trkpt lat="47.22271" lon="5.5968">
        <ele>257.5</ele>
        <time>2014-05-25T09:45:46Z</time>
      </trkpt>
      <trkpt lat="47.22261" lon="5.5968">
        <ele>257.9</ele>
        <time>2014-05-25T09:45:49Z</time>
      </trkpt>
      <trkpt lat="47.22252" lon="5.59675">
        <ele>259.7</ele>
        <time>2014-05-25T09:45:55Z</time>
      </trkpt>
      <trkpt lat="47.22242" lon="5.59668">
        <ele>260.2</ele>
        <time>2014-05-25T09:46:01Z</time>
      </trkpt>
      <trkpt lat="47.22233" lon="5.59661">
        <ele>261.1</ele>
        <time>2014-05-25T09:46:06Z</time>
      </trkpt>
      <trkpt lat="47.22224" lon="5.59652">
        <ele>261.3</ele>
        <time>2014-05-25T09:46:11Z</time>
      </trkpt>
      <trkpt lat="47.22214" lon="5.59647">
        <ele>262.1</ele>
        <time>2014-05-25T09:46:14Z</time>
      </trkpt>
      <trkpt lat="47.22205" lon="5.59643">
        <ele>262.6</ele>
        <time>2014-05-25T09:46:17Z</time>
      </trkpt>
      <trkpt lat="47.22193" lon="5.59637">
        <ele>262.9</ele>
        <time>2014-05-25T09:46:21Z</time>
      </trkpt>
      <trkpt lat="47.22185" lon="5.5963">
        <ele>263.1</ele>
        <time>2014-05-25T09:46:25Z</time>
      </trkpt>
      <trkpt lat="47.22176" lon="5.59621">
        <ele>263.4</ele>
        <time>2014-05-25T09:46:29Z</time>
      </trkpt>
      <trkpt lat="47.22157" lon="5.59609">
        <ele>264.6</ele>
        <time>2014-05-25T09:46:36Z</time>
      </trkpt>
      <trkpt lat="47.22146" lon="5.59602">
        <ele>265.2</ele>
        <time>2014-05-25T09:46:40Z</time>
      </trkpt>
      <trkpt lat="47.22135" lon="5.59596">
        <ele>265.4</ele>
        <time>2014-05-25T09:46:43Z</time>
      </trkpt>
      <trkpt lat="47.22127" lon="5.59585">
        <ele>266.1</ele>
        <time>2014-05-25T09:46:46Z</time>
      </trkpt>
      <trkpt lat="47.22117" lon="5.59576">
        <ele>265.4</ele>
        <time>2014-05-25T09:46:49Z</time>
      </trkpt>
      <trkpt lat="47.2211" lon="5.59561">
        <ele>265.9</ele>
        <time>2014-05-25T09:46:52Z</time>
      </trkpt>
      <trkpt lat="47.22103" lon="5.59548">
        <ele>266</ele>
        <time>2014-05-25T09:46:55Z</time>
      </trkpt>
      <trkpt lat="47.22096" lon="5.59536">
        <ele>266.3</ele>
        <time>2014-05-25T09:46:58Z</time>
      </trkpt>
      <trkpt lat="47.22088" lon="5.59525">
        <ele>267.3</ele>
        <time>2014-05-25T09:47:02Z</time>
      </trkpt>
      <trkpt lat="47.22079" lon="5.59516">
        <ele>267.6</ele>
        <time>2014-05-25T09:47:06Z</time>
      </trkpt>
      <trkpt lat="47.22072" lon="5.59504">
        <ele>268</ele>
        <time>2014-05-25T09:47:10Z</time>
      </trkpt>
      <trkpt lat="47.22062" lon="5.59492">
        <ele>268.5</ele>
        <time>2014-05-25T09:47:14Z</time>
      </trkpt>
      <trkpt lat="47.22056" lon="5.59481">
        <ele>269.2</ele>
        <time>2014-05-25T09:47:17Z</time>
      </trkpt>
      <trkpt lat="47.22046" lon="5.59472">
        <ele>269.6</ele>
        <time>2014-05-25T09:47:20Z</time>
      </trkpt>
      <trkpt lat="47.22038" lon="5.59463">
        <ele>270</ele>
        <time>2014-05-25T09:47:24Z</time>
      </trkpt>
      <trkpt lat="47.22028" lon="5.59458">
        <ele>270.7</ele>
        <time>2014-05-25T09:47:27Z</time>
      </trkpt>
      <trkpt lat="47.2202" lon="5.59449">
        <ele>271.7</ele>
        <time>2014-05-25T09:47:31Z</time>
      </trkpt>
      <trkpt lat="47.22" lon="5.59434">
        <ele>273</ele>
        <time>2014-05-25T09:47:39Z</time>
      </trkpt>
      <trkpt lat="47.21989" lon="5.59427">
        <ele>273</ele>
        <time>2014-05-25T09:47:42Z</time>
      </trkpt>
      <trkpt lat="47.21981" lon="5.59422">
        <ele>272.5</ele>
        <time>2014-05-25T09:47:44Z</time>
      </trkpt>
      <trkpt lat="47.21972" lon="5.59416">
        <ele>272.2</ele>
        <time>2014-05-25T09:47:46Z</time>
      </trkpt>
      <trkpt lat="47.21962" lon="5.59409">
        <ele>271.5</ele>
        <time>2014-05-25T09:47:48Z</time>
      </trkpt>
      <trkpt lat="47.21953" lon="5.59402">
        <ele>271</ele>
        <time>2014-05-25T09:47:50Z</time>
      </trkpt>
      <trkpt lat="47.21945" lon="5.59394">
        <ele>271.2</ele>
        <time>2014-05-25T09:47:52Z</time>
      </trkpt>
      <trkpt lat="47.21937" lon="5.59383">
        <ele>270.4</ele>
        <time>2014-05-25T09:47:55Z</time>
      </trkpt>
      <trkpt lat="47.21928" lon="5.59378">
        <ele>271.4</ele>
        <time>2014-05-25T09:47:58Z</time>
      </trkpt>
      <trkpt lat="47.21917" lon="5.59377">
        <ele>272</ele>
        <time>2014-05-25T09:48:01Z</time>
      </trkpt>
      <trkpt lat="47.21906" lon="5.59375">
        <ele>272.8</ele>
        <time>2014-05-25T09:48:04Z</time>
      </trkpt>
      <trkpt lat="47.21894" lon="5.59373">
        <ele>273.1</ele>
        <time>2014-05-25T09:48:07Z</time>
      </trkpt>
      <trkpt lat="47.21885" lon="5.59368">
        <ele>272.8</ele>
        <time>2014-05-25T09:48:10Z</time>
      </trkpt>
      <trkpt lat="47.21873" lon="5.59365">
        <ele>275.3</ele>
        <time>2014-05-25T09:48:13Z</time>
      </trkpt>
      <trkpt lat="47.2186" lon="5.59362">
        <ele>275.5</ele>
        <time>2014-05-25T09:48:16Z</time>
      </trkpt>
      <trkpt lat="47.21851" lon="5.59361">
        <ele>276.1</ele>
        <time>2014-05-25T09:48:18Z</time>
      </trkpt>
      <trkpt lat="47.21841" lon="5.59359">
        <ele>276.7</ele>
        <time>2014-05-25T09:48:20Z</time>
      </trkpt>
      <trkpt lat="47.21829" lon="5.59359">
        <ele>276.4</ele>
        <time>2014-05-25T09:48:22Z</time>
      </trkpt>
      <trkpt lat="47.21817" lon="5.59355">
        <ele>276.8</ele>
        <time>2014-05-25T09:48:25Z</time>
      </trkpt>
      <trkpt lat="47.21806" lon="5.59353">
        <ele>276.5</ele>
        <time>2014-05-25T09:48:28Z</time>
      </trkpt>
      <trkpt lat="47.21793" lon="5.5935">
        <ele>275.9</ele>
        <time>2014-05-25T09:48:31Z</time>
      </trkpt>
      <trkpt lat="47.21782" lon="5.5935">
        <ele>276.1</ele>
        <time>2014-05-25T09:48:33Z</time>
      </trkpt>
      <trkpt lat="47.21762" lon="5.5935">
        <ele>276.5</ele>
        <time>2014-05-25T09:48:37Z</time>
      </trkpt>
      <trkpt lat="47.21749" lon="5.5935">
        <ele>276.4</ele>
        <time>2014-05-25T09:48:40Z</time>
      </trkpt>
      <trkpt lat="47.21737" lon="5.5935">
        <ele>276.3</ele>
        <time>2014-05-25T09:48:43Z</time>
      </trkpt>
      <trkpt lat="47.21724" lon="5.59349">
        <ele>276.3</ele>
        <time>2014-05-25T09:48:46Z</time>
      </trkpt>
      <trkpt lat="47.21711" lon="5.5935">
        <ele>275.5</ele>
        <time>2014-05-25T09:48:49Z</time>
      </trkpt>
      <trkpt lat="47.21699" lon="5.59351">
        <ele>276</ele>
        <time>2014-05-25T09:48:51Z</time>
      </trkpt>
      <trkpt lat="47.21688" lon="5.5935">
        <ele>275.4</ele>
        <time>2014-05-25T09:48:54Z</time>
      </trkpt>
      <trkpt lat="47.21678" lon="5.5935">
        <ele>276.4</ele>
        <time>2014-05-25T09:48:58Z</time>
      </trkpt>
      <trkpt lat="47.21667" lon="5.59346">
        <ele>277.3</ele>
        <time>2014-05-25T09:49:02Z</time>
      </trkpt>
      <trkpt lat="47.21657" lon="5.59342">
        <ele>278.3</ele>
        <time>2014-05-25T09:49:07Z</time>
      </trkpt>
      <trkpt lat="47.21648" lon="5.59338">
        <ele>279.4</ele>
        <time>2014-05-25T09:49:14Z</time>
      </trkpt>
      <trkpt lat="47.21639" lon="5.59334">
        <ele>281.1</ele>
        <time>2014-05-25T09:49:20Z</time>
      </trkpt>
      <trkpt lat="47.21629" lon="5.59328">
        <ele>282.1</ele>
        <time>2014-05-25T09:49:25Z</time>
      </trkpt>
      <trkpt lat="47.21621" lon="5.59311">
        <ele>296.3</ele>
        <time>2014-05-25T09:50:48Z</time>
      </trkpt>
      <trkpt lat="47.21628" lon="5.59284">
        <ele>293.6</ele>
        <time>2014-05-25T09:51:02Z</time>
      </trkpt>
      <trkpt lat="47.21621" lon="5.59274">
        <ele>293</ele>
        <time>2014-05-25T09:51:04Z</time>
      </trkpt>
      <trkpt lat="47.2162" lon="5.59258">
        <ele>291.9</ele>
        <time>2014-05-25T09:51:09Z</time>
      </trkpt>
      <trkpt lat="47.21616" lon="5.59244">
        <ele>291.7</ele>
        <time>2014-05-25T09:51:14Z</time>
      </trkpt>
      <trkpt lat="47.21607" lon="5.59226">
        <ele>291.8</ele>
        <time>2014-05-25T09:51:17Z</time>
      </trkpt>
      <trkpt lat="47.21608" lon="5.59213">
        <ele>290.9</ele>
        <time>2014-05-25T09:51:21Z</time>
      </trkpt>
      <trkpt lat="47.21615" lon="5.59204">
        <ele>292.3</ele>
        <time>2014-05-25T09:51:26Z</time>
      </trkpt>
      <trkpt lat="47.21623" lon="5.59196">
        <ele>293.2</ele>
        <time>2014-05-25T09:51:32Z</time>
      </trkpt>
      <trkpt lat="47.21632" lon="5.59191">
        <ele>294.1</ele>
        <time>2014-05-25T09:51:37Z</time>
      </trkpt>
      <trkpt lat="47.2164" lon="5.59183">
        <ele>295.2</ele>
        <time>2014-05-25T09:51:43Z</time>
      </trkpt>
      <trkpt lat="47.21651" lon="5.59176">
        <ele>296</ele>
        <time>2014-05-25T09:51:48Z</time>
      </trkpt>
      <trkpt lat="47.21661" lon="5.59174">
        <ele>295.2</ele>
        <time>2014-05-25T09:51:52Z</time>
      </trkpt>
      <trkpt lat="47.2168" lon="5.59167">
        <ele>297.3</ele>
        <time>2014-05-25T09:52:00Z</time>
      </trkpt>
      <trkpt lat="47.21691" lon="5.59165">
        <ele>297.5</ele>
        <time>2014-05-25T09:52:04Z</time>
      </trkpt>
      <trkpt lat="47.21702" lon="5.59164">
        <ele>297.7</ele>
        <time>2014-05-25T09:52:08Z</time>
      </trkpt>
      <trkpt lat="47.21713" lon="5.59161">
        <ele>298.4</ele>
        <time>2014-05-25T09:52:12Z</time>
      </trkpt>
      <trkpt lat="47.21725" lon="5.59159">
        <ele>299.3</ele>
        <time>2014-05-25T09:52:16Z</time>
      </trkpt>
      <trkpt lat="47.21734" lon="5.59154">
        <ele>299.4</ele>
        <time>2014-05-25T09:52:19Z</time>
      </trkpt>
      <trkpt lat="47.21746" lon="5.5915">
        <ele>299.9</ele>
        <time>2014-05-25T09:52:22Z</time>
      </trkpt>
      <trkpt lat="47.21758" lon="5.59145">
        <ele>300.4</ele>
        <time>2014-05-25T09:52:26Z</time>
      </trkpt>
      <trkpt lat="47.21768" lon="5.59142">
        <ele>300.8</ele>
        <time>2014-05-25T09:52:30Z</time>
      </trkpt>
      <trkpt lat="47.2178" lon="5.5914">
        <ele>301.7</ele>
        <time>2014-05-25T09:52:34Z</time>
      </trkpt>
      <trkpt lat="47.21789" lon="5.59138">
        <ele>301.3</ele>
        <time>2014-05-25T09:52:38Z</time>
      </trkpt>
      <trkpt lat="47.218" lon="5.59136">
        <ele>302.5</ele>
        <time>2014-05-25T09:52:42Z</time>
      </trkpt>
      <trkpt lat="47.21809" lon="5.59135">
        <ele>302.7</ele>
        <time>2014-05-25T09:52:46Z</time>
      </trkpt>
      <trkpt lat="47.21818" lon="5.5913">
        <ele>303.8</ele>
        <time>2014-05-25T09:52:51Z</time>
      </trkpt>
      <trkpt lat="47.21827" lon="5.59126">
        <ele>303.1</ele>
        <time>2014-05-25T09:52:54Z</time>
      </trkpt>
      <trkpt lat="47.2185" lon="5.5912">
        <ele>303.8</ele>
        <time>2014-05-25T09:53:02Z</time>
      </trkpt>
      <trkpt lat="47.21861" lon="5.59116">
        <ele>304.2</ele>
        <time>2014-05-25T09:53:06Z</time>
      </trkpt>
      <trkpt lat="47.21871" lon="5.59113">
        <ele>305.1</ele>
        <time>2014-05-25T09:53:10Z</time>
      </trkpt>
      <trkpt lat="47.21882" lon="5.59109">
        <ele>305.6</ele>
        <time>2014-05-25T09:53:14Z</time>
      </trkpt>
      <trkpt lat="47.21893" lon="5.59106">
        <ele>306.1</ele>
        <time>2014-05-25T09:53:18Z</time>
      </trkpt>
      <trkpt lat="47.21903" lon="5.59105">
        <ele>306.6</ele>
        <time>2014-05-25T09:53:21Z</time>
      </trkpt>
      <trkpt lat="47.21913" lon="5.59102">
        <ele>306.5</ele>
        <time>2014-05-25T09:53:24Z</time>
      </trkpt>
      <trkpt lat="47.21923" lon="5.59095">
        <ele>306.4</ele>
        <time>2014-05-25T09:53:28Z</time>
      </trkpt>
      <trkpt lat="47.21933" lon="5.59089">
        <ele>307.7</ele>
        <time>2014-05-25T09:53:32Z</time>
      </trkpt>
      <trkpt lat="47.21942" lon="5.59085">
        <ele>308.4</ele>
        <time>2014-05-25T09:53:35Z</time>
      </trkpt>
      <trkpt lat="47.21952" lon="5.59083">
        <ele>308.6</ele>
        <time>2014-05-25T09:53:38Z</time>
      </trkpt>
      <trkpt lat="47.21963" lon="5.5908">
        <ele>308.4</ele>
        <time>2014-05-25T09:53:42Z</time>
      </trkpt>
      <trkpt lat="47.21973" lon="5.59077">
        <ele>309.6</ele>
        <time>2014-05-25T09:53:45Z</time>
      </trkpt>
      <trkpt lat="47.21984" lon="5.59073">
        <ele>309.3</ele>
        <time>2014-05-25T09:53:48Z</time>
      </trkpt>
      <trkpt lat="47.21996" lon="5.59067">
        <ele>309.5</ele>
        <time>2014-05-25T09:53:51Z</time>
      </trkpt>
      <trkpt lat="47.22007" lon="5.59061">
        <ele>309.5</ele>
        <time>2014-05-25T09:53:53Z</time>
      </trkpt>
      <trkpt lat="47.22018" lon="5.59059">
        <ele>309.5</ele>
        <time>2014-05-25T09:53:56Z</time>
      </trkpt>
      <trkpt lat="47.22039" lon="5.5905">
        <ele>308.5</ele>
        <time>2014-05-25T09:54:02Z</time>
      </trkpt>
      <trkpt lat="47.2205" lon="5.59045">
        <ele>308.4</ele>
        <time>2014-05-25T09:54:04Z</time>
      </trkpt>
      <trkpt lat="47.22061" lon="5.5904">
        <ele>307.6</ele>
        <time>2014-05-25T09:54:06Z</time>
      </trkpt>
      <trkpt lat="47.22072" lon="5.59033">
        <ele>306.8</ele>
        <time>2014-05-25T09:54:08Z</time>
      </trkpt>
      <trkpt lat="47.2208" lon="5.59026">
        <ele>305.4</ele>
        <time>2014-05-25T09:54:10Z</time>
      </trkpt>
      <trkpt lat="47.22088" lon="5.59018">
        <ele>303.3</ele>
        <time>2014-05-25T09:54:12Z</time>
      </trkpt>
      <trkpt lat="47.22098" lon="5.59012">
        <ele>301.5</ele>
        <time>2014-05-25T09:54:14Z</time>
      </trkpt>
      <trkpt lat="47.22111" lon="5.59005">
        <ele>299.9</ele>
        <time>2014-05-25T09:54:16Z</time>
      </trkpt>
      <trkpt lat="47.22125" lon="5.58998">
        <ele>297.8</ele>
        <time>2014-05-25T09:54:18Z</time>
      </trkpt>
      <trkpt lat="47.22136" lon="5.58987">
        <ele>296.7</ele>
        <time>2014-05-25T09:54:20Z</time>
      </trkpt>
      <trkpt lat="47.22146" lon="5.58975">
        <ele>295.2</ele>
        <time>2014-05-25T09:54:23Z</time>
      </trkpt>
      <trkpt lat="47.22153" lon="5.58965">
        <ele>294.7</ele>
        <time>2014-05-25T09:54:28Z</time>
      </trkpt>
      <trkpt lat="47.22159" lon="5.58952">
        <ele>293.9</ele>
        <time>2014-05-25T09:54:32Z</time>
      </trkpt>
      <trkpt lat="47.22166" lon="5.58944">
        <ele>293.9</ele>
        <time>2014-05-25T09:54:36Z</time>
      </trkpt>
      <trkpt lat="47.22174" lon="5.58934">
        <ele>293.4</ele>
        <time>2014-05-25T09:54:40Z</time>
      </trkpt>
      <trkpt lat="47.22183" lon="5.58923">
        <ele>292.2</ele>
        <time>2014-05-25T09:54:43Z</time>
      </trkpt>
      <trkpt lat="47.22191" lon="5.58914">
        <ele>292.2</ele>
        <time>2014-05-25T09:54:45Z</time>
      </trkpt>
      <trkpt lat="47.22201" lon="5.58903">
        <ele>291.8</ele>
        <time>2014-05-25T09:54:47Z</time>
      </trkpt>
      <trkpt lat="47.22213" lon="5.5889">
        <ele>291.3</ele>
        <time>2014-05-25T09:54:49Z</time>
      </trkpt>
      <trkpt lat="47.22225" lon="5.58875">
        <ele>290.3</ele>
        <time>2014-05-25T09:54:51Z</time>
      </trkpt>
      <trkpt lat="47.22236" lon="5.58859">
        <ele>289.4</ele>
        <time>2014-05-25T09:54:53Z</time>
      </trkpt>
      <trkpt lat="47.22244" lon="5.58849">
        <ele>289.2</ele>
        <time>2014-05-25T09:54:54Z</time>
      </trkpt>
      <trkpt lat="47.22254" lon="5.58827">
        <ele>288.7</ele>
        <time>2014-05-25T09:54:56Z</time>
      </trkpt>
      <trkpt lat="47.22261" lon="5.58807">
        <ele>288.1</ele>
        <time>2014-05-25T09:54:58Z</time>
      </trkpt>
      <trkpt lat="47.22277" lon="5.58767">
        <ele>287.2</ele>
        <time>2014-05-25T09:55:02Z</time>
      </trkpt>
      <trkpt lat="47.22277" lon="5.58746">
        <ele>286.5</ele>
        <time>2014-05-25T09:55:04Z</time>
      </trkpt>
      <trkpt lat="47.22274" lon="5.58724">
        <ele>285.7</ele>
        <time>2014-05-25T09:55:06Z</time>
      </trkpt>
      <trkpt lat="47.22269" lon="5.58702">
        <ele>285.4</ele>
        <time>2014-05-25T09:55:08Z</time>
      </trkpt>
      <trkpt lat="47.22265" lon="5.58677">
        <ele>285</ele>
        <time>2014-05-25T09:55:10Z</time>
      </trkpt>
      <trkpt lat="47.22263" lon="5.58664">
        <ele>284.4</ele>
        <time>2014-05-25T09:55:11Z</time>
      </trkpt>
      <trkpt lat="47.22261" lon="5.58651">
        <ele>283.5</ele>
        <time>2014-05-25T09:55:12Z</time>
      </trkpt>
      <trkpt lat="47.2226" lon="5.58636">
        <ele>282.4</ele>
        <time>2014-05-25T09:55:13Z</time>
      </trkpt>
      <trkpt lat="47.22259" lon="5.58622">
        <ele>281.8</ele>
        <time>2014-05-25T09:55:14Z</time>
      </trkpt>
      <trkpt lat="47.22258" lon="5.58607">
        <ele>280.8</ele>
        <time>2014-05-25T09:55:15Z</time>
      </trkpt>
      <trkpt lat="47.22258" lon="5.58591">
        <ele>279.7</ele>
        <time>2014-05-25T09:55:16Z</time>
      </trkpt>
      <trkpt lat="47.22257" lon="5.58575">
        <ele>278.7</ele>
        <time>2014-05-25T09:55:17Z</time>
      </trkpt>
      <trkpt lat="47.22258" lon="5.58559">
        <ele>277.8</ele>
        <time>2014-05-25T09:55:18Z</time>
      </trkpt>
      <trkpt lat="47.22259" lon="5.58543">
        <ele>276.9</ele>
        <time>2014-05-25T09:55:19Z</time>
      </trkpt>
      <trkpt lat="47.22261" lon="5.58528">
        <ele>276.4</ele>
        <time>2014-05-25T09:55:20Z</time>
      </trkpt>
      <trkpt lat="47.22263" lon="5.58514">
        <ele>275.8</ele>
        <time>2014-05-25T09:55:21Z</time>
      </trkpt>
      <trkpt lat="47.22266" lon="5.585">
        <ele>275.4</ele>
        <time>2014-05-25T09:55:22Z</time>
      </trkpt>
      <trkpt lat="47.22269" lon="5.58487">
        <ele>274.7</ele>
        <time>2014-05-25T09:55:23Z</time>
      </trkpt>
      <trkpt lat="47.22274" lon="5.58474">
        <ele>274.1</ele>
        <time>2014-05-25T09:55:24Z</time>
      </trkpt>
      <trkpt lat="47.22279" lon="5.58461">
        <ele>273.6</ele>
        <time>2014-05-25T09:55:25Z</time>
      </trkpt>
      <trkpt lat="47.22283" lon="5.58449">
        <ele>272.5</ele>
        <time>2014-05-25T09:55:26Z</time>
      </trkpt>
      <trkpt lat="47.22292" lon="5.58425">
        <ele>272</ele>
        <time>2014-05-25T09:55:28Z</time>
      </trkpt>
      <trkpt lat="47.22301" lon="5.58405">
        <ele>271.2</ele>
        <time>2014-05-25T09:55:30Z</time>
      </trkpt>
      <trkpt lat="47.22311" lon="5.58385">
        <ele>269.7</ele>
        <time>2014-05-25T09:55:32Z</time>
      </trkpt>
      <trkpt lat="47.22317" lon="5.58374">
        <ele>269.2</ele>
        <time>2014-05-25T09:55:33Z</time>
      </trkpt>
      <trkpt lat="47.22323" lon="5.58364">
        <ele>269</ele>
        <time>2014-05-25T09:55:34Z</time>
      </trkpt>
      <trkpt lat="47.2233" lon="5.58354">
        <ele>268.3</ele>
        <time>2014-05-25T09:55:35Z</time>
      </trkpt>
      <trkpt lat="47.22336" lon="5.58344">
        <ele>267.9</ele>
        <time>2014-05-25T09:55:36Z</time>
      </trkpt>
      <trkpt lat="47.22342" lon="5.58333">
        <ele>267.8</ele>
        <time>2014-05-25T09:55:37Z</time>
      </trkpt>
      <trkpt lat="47.22349" lon="5.58323">
        <ele>267.3</ele>
        <time>2014-05-25T09:55:38Z</time>
      </trkpt>
      <trkpt lat="47.22356" lon="5.58312">
        <ele>266.8</ele>
        <time>2014-05-25T09:55:39Z</time>
      </trkpt>
      <trkpt lat="47.22364" lon="5.58302">
        <ele>266.5</ele>
        <time>2014-05-25T09:55:40Z</time>
      </trkpt>
      <trkpt lat="47.22371" lon="5.58292">
        <ele>265.9</ele>
        <time>2014-05-25T09:55:41Z</time>
      </trkpt>
      <trkpt lat="47.22378" lon="5.58282">
        <ele>265.6</ele>
        <time>2014-05-25T09:55:42Z</time>
      </trkpt>
      <trkpt lat="47.22385" lon="5.58272">
        <ele>264.9</ele>
        <time>2014-05-25T09:55:43Z</time>
      </trkpt>
      <trkpt lat="47.22393" lon="5.58261">
        <ele>264.4</ele>
        <time>2014-05-25T09:55:44Z</time>
      </trkpt>
      <trkpt lat="47.224" lon="5.5825">
        <ele>263.7</ele>
        <time>2014-05-25T09:55:45Z</time>
      </trkpt>
      <trkpt lat="47.22408" lon="5.58238">
        <ele>263</ele>
        <time>2014-05-25T09:55:46Z</time>
      </trkpt>
      <trkpt lat="47.22415" lon="5.58227">
        <ele>262.4</ele>
        <time>2014-05-25T09:55:47Z</time>
      </trkpt>
      <trkpt lat="47.22422" lon="5.58214">
        <ele>261.8</ele>
        <time>2014-05-25T09:55:48Z</time>
      </trkpt>
      <trkpt lat="47.22428" lon="5.58201">
        <ele>260.9</ele>
        <time>2014-05-25T09:55:49Z</time>
      </trkpt>
      <trkpt lat="47.22434" lon="5.58187">
        <ele>260</ele>
        <time>2014-05-25T09:55:50Z</time>
      </trkpt>
      <trkpt lat="47.2244" lon="5.58174">
        <ele>259.5</ele>
        <time>2014-05-25T09:55:51Z</time>
      </trkpt>
      <trkpt lat="47.22446" lon="5.58161">
        <ele>259.4</ele>
        <time>2014-05-25T09:55:52Z</time>
      </trkpt>
      <trkpt lat="47.22452" lon="5.58149">
        <ele>258.9</ele>
        <time>2014-05-25T09:55:53Z</time>
      </trkpt>
      <trkpt lat="47.22458" lon="5.58137">
        <ele>258.3</ele>
        <time>2014-05-25T09:55:54Z</time>
      </trkpt>
      <trkpt lat="47.22463" lon="5.58125">
        <ele>257.9</ele>
        <time>2014-05-25T09:55:55Z</time>
      </trkpt>
      <trkpt lat="47.22469" lon="5.58113">
        <ele>257.4</ele>
        <time>2014-05-25T09:55:56Z</time>
      </trkpt>
      <trkpt lat="47.22474" lon="5.58101">
        <ele>256.8</ele>
        <time>2014-05-25T09:55:57Z</time>
      </trkpt>
      <trkpt lat="47.22478" lon="5.58089">
        <ele>256.3</ele>
        <time>2014-05-25T09:55:58Z</time>
      </trkpt>
      <trkpt lat="47.22482" lon="5.58076">
        <ele>255.7</ele>
        <time>2014-05-25T09:55:59Z</time>
      </trkpt>
      <trkpt lat="47.2249" lon="5.58052">
        <ele>254.8</ele>
        <time>2014-05-25T09:56:01Z</time>
      </trkpt>
      <trkpt lat="47.22494" lon="5.58039">
        <ele>254.5</ele>
        <time>2014-05-25T09:56:02Z</time>
      </trkpt>
      <trkpt lat="47.22497" lon="5.58027">
        <ele>254.3</ele>
        <time>2014-05-25T09:56:03Z</time>
      </trkpt>
      <trkpt lat="47.22501" lon="5.58014">
        <ele>253.9</ele>
        <time>2014-05-25T09:56:04Z</time>
      </trkpt>
      <trkpt lat="47.22504" lon="5.58">
        <ele>253.4</ele>
        <time>2014-05-25T09:56:05Z</time>
      </trkpt>
      <trkpt lat="47.22508" lon="5.57986">
        <ele>252.6</ele>
        <time>2014-05-25T09:56:06Z</time>
      </trkpt>
      <trkpt lat="47.22512" lon="5.57972">
        <ele>251.9</ele>
        <time>2014-05-25T09:56:07Z</time>
      </trkpt>
      <trkpt lat="47.22516" lon="5.57958">
        <ele>251.4</ele>
        <time>2014-05-25T09:56:08Z</time>
      </trkpt>
      <trkpt lat="47.22519" lon="5.57944">
        <ele>250.8</ele>
        <time>2014-05-25T09:56:09Z</time>
      </trkpt>
      <trkpt lat="47.22522" lon="5.57929">
        <ele>250.9</ele>
        <time>2014-05-25T09:56:10Z</time>
      </trkpt>
      <trkpt lat="47.22525" lon="5.57914">
        <ele>250.1</ele>
        <time>2014-05-25T09:56:11Z</time>
      </trkpt>
      <trkpt lat="47.22527" lon="5.57898">
        <ele>249.6</ele>
        <time>2014-05-25T09:56:12Z</time>
      </trkpt>
      <trkpt lat="47.22529" lon="5.57883">
        <ele>249.1</ele>
        <time>2014-05-25T09:56:13Z</time>
      </trkpt>
      <trkpt lat="47.22532" lon="5.57867">
        <ele>248.5</ele>
        <time>2014-05-25T09:56:14Z</time>
      </trkpt>
      <trkpt lat="47.22534" lon="5.57851">
        <ele>247.6</ele>
        <time>2014-05-25T09:56:15Z</time>
      </trkpt>
      <trkpt lat="47.22538" lon="5.57836">
        <ele>246.8</ele>
        <time>2014-05-25T09:56:16Z</time>
      </trkpt>
      <trkpt lat="47.22543" lon="5.57821">
        <ele>246.1</ele>
        <time>2014-05-25T09:56:17Z</time>
      </trkpt>
      <trkpt lat="47.22548" lon="5.57808">
        <ele>245.2</ele>
        <time>2014-05-25T09:56:18Z</time>
      </trkpt>
      <trkpt lat="47.22554" lon="5.57795">
        <ele>244.7</ele>
        <time>2014-05-25T09:56:19Z</time>
      </trkpt>
      <trkpt lat="47.22561" lon="5.57782">
        <ele>243.7</ele>
        <time>2014-05-25T09:56:20Z</time>
      </trkpt>
      <trkpt lat="47.22568" lon="5.57771">
        <ele>242.8</ele>
        <time>2014-05-25T09:56:21Z</time>
      </trkpt>
      <trkpt lat="47.22574" lon="5.57759">
        <ele>241.8</ele>
        <time>2014-05-25T09:56:22Z</time>
      </trkpt>
      <trkpt lat="47.22579" lon="5.57748">
        <ele>241.3</ele>
        <time>2014-05-25T09:56:23Z</time>
      </trkpt>
      <trkpt lat="47.22582" lon="5.57736">
        <ele>240.7</ele>
        <time>2014-05-25T09:56:24Z</time>
      </trkpt>
      <trkpt lat="47.22585" lon="5.57723">
        <ele>240</ele>
        <time>2014-05-25T09:56:25Z</time>
      </trkpt>
      <trkpt lat="47.22587" lon="5.5771">
        <ele>239.3</ele>
        <time>2014-05-25T09:56:26Z</time>
      </trkpt>
      <trkpt lat="47.22589" lon="5.57685">
        <ele>237.5</ele>
        <time>2014-05-25T09:56:28Z</time>
      </trkpt>
      <trkpt lat="47.22591" lon="5.57665">
        <ele>235.1</ele>
        <time>2014-05-25T09:56:30Z</time>
      </trkpt>
      <trkpt lat="47.22589" lon="5.57647">
        <ele>233.7</ele>
        <time>2014-05-25T09:56:33Z</time>
      </trkpt>
      <trkpt lat="47.2258" lon="5.57644">
        <ele>232.6</ele>
        <time>2014-05-25T09:56:37Z</time>
      </trkpt>
      <trkpt lat="47.2257" lon="5.5765">
        <ele>232</ele>
        <time>2014-05-25T09:56:42Z</time>
      </trkpt>
      <trkpt lat="47.22559" lon="5.57653">
        <ele>232.5</ele>
        <time>2014-05-25T09:56:46Z</time>
      </trkpt>
      <trkpt lat="47.2255" lon="5.57659">
        <ele>233.1</ele>
        <time>2014-05-25T09:56:49Z</time>
      </trkpt>
      <trkpt lat="47.2254" lon="5.57664">
        <ele>233.3</ele>
        <time>2014-05-25T09:56:52Z</time>
      </trkpt>
      <trkpt lat="47.22528" lon="5.57669">
        <ele>233.5</ele>
        <time>2014-05-25T09:56:55Z</time>
      </trkpt>
      <trkpt lat="47.22517" lon="5.57675">
        <ele>233.7</ele>
        <time>2014-05-25T09:56:58Z</time>
      </trkpt>
      <trkpt lat="47.22506" lon="5.57681">
        <ele>234.3</ele>
        <time>2014-05-25T09:57:01Z</time>
      </trkpt>
      <trkpt lat="47.22487" lon="5.57695">
        <ele>235.4</ele>
        <time>2014-05-25T09:57:07Z</time>
      </trkpt>
      <trkpt lat="47.22477" lon="5.57702">
        <ele>235.9</ele>
        <time>2014-05-25T09:57:10Z</time>
      </trkpt>
      <trkpt lat="47.22467" lon="5.57707">
        <ele>236</ele>
        <time>2014-05-25T09:57:13Z</time>
      </trkpt>
      <trkpt lat="47.22456" lon="5.57713">
        <ele>236.5</ele>
        <time>2014-05-25T09:57:16Z</time>
      </trkpt>
      <trkpt lat="47.22445" lon="5.57719">
        <ele>236.5</ele>
        <time>2014-05-25T09:57:19Z</time>
      </trkpt>
      <trkpt lat="47.22434" lon="5.57725">
        <ele>236.7</ele>
        <time>2014-05-25T09:57:22Z</time>
      </trkpt>
      <trkpt lat="47.22423" lon="5.5773">
        <ele>236.9</ele>
        <time>2014-05-25T09:57:25Z</time>
      </trkpt>
      <trkpt lat="47.22411" lon="5.57734">
        <ele>237</ele>
        <time>2014-05-25T09:57:28Z</time>
      </trkpt>
      <trkpt lat="47.22399" lon="5.57736">
        <ele>237</ele>
        <time>2014-05-25T09:57:31Z</time>
      </trkpt>
      <trkpt lat="47.2239" lon="5.57732">
        <ele>236.8</ele>
        <time>2014-05-25T09:57:33Z</time>
      </trkpt>
      <trkpt lat="47.22381" lon="5.57722">
        <ele>236.4</ele>
        <time>2014-05-25T09:57:35Z</time>
      </trkpt>
      <trkpt lat="47.22371" lon="5.57711">
        <ele>235.5</ele>
        <time>2014-05-25T09:57:37Z</time>
      </trkpt>
      <trkpt lat="47.22361" lon="5.577">
        <ele>235.1</ele>
        <time>2014-05-25T09:57:39Z</time>
      </trkpt>
      <trkpt lat="47.22351" lon="5.57687">
        <ele>234.7</ele>
        <time>2014-05-25T09:57:41Z</time>
      </trkpt>
      <trkpt lat="47.22339" lon="5.57673">
        <ele>233.7</ele>
        <time>2014-05-25T09:57:43Z</time>
      </trkpt>
      <trkpt lat="47.22327" lon="5.57655">
        <ele>232.5</ele>
        <time>2014-05-25T09:57:45Z</time>
      </trkpt>
      <trkpt lat="47.22321" lon="5.57643">
        <ele>232.2</ele>
        <time>2014-05-25T09:57:46Z</time>
      </trkpt>
      <trkpt lat="47.22315" lon="5.57631">
        <ele>231.3</ele>
        <time>2014-05-25T09:57:47Z</time>
      </trkpt>
      <trkpt lat="47.22309" lon="5.57619">
        <ele>230.9</ele>
        <time>2014-05-25T09:57:48Z</time>
      </trkpt>
      <trkpt lat="47.22304" lon="5.57607">
        <ele>230.6</ele>
        <time>2014-05-25T09:57:49Z</time>
      </trkpt>
      <trkpt lat="47.22298" lon="5.57596">
        <ele>230.4</ele>
        <time>2014-05-25T09:57:50Z</time>
      </trkpt>
      <trkpt lat="47.22292" lon="5.57585">
        <ele>229.9</ele>
        <time>2014-05-25T09:57:51Z</time>
      </trkpt>
      <trkpt lat="47.2228" lon="5.57567">
        <ele>228.9</ele>
        <time>2014-05-25T09:57:53Z</time>
      </trkpt>
      <trkpt lat="47.22267" lon="5.5755">
        <ele>229.3</ele>
        <time>2014-05-25T09:57:55Z</time>
      </trkpt>
      <trkpt lat="47.22256" lon="5.57536">
        <ele>229.2</ele>
        <time>2014-05-25T09:57:57Z</time>
      </trkpt>
      <trkpt lat="47.22247" lon="5.57523">
        <ele>229.2</ele>
        <time>2014-05-25T09:57:59Z</time>
      </trkpt>
      <trkpt lat="47.22238" lon="5.57509">
        <ele>228.2</ele>
        <time>2014-05-25T09:58:01Z</time>
      </trkpt>
      <trkpt lat="47.22231" lon="5.57496">
        <ele>228.9</ele>
        <time>2014-05-25T09:58:03Z</time>
      </trkpt>
      <trkpt lat="47.2221" lon="5.57478">
        <ele>229.1</ele>
        <time>2014-05-25T09:58:07Z</time>
      </trkpt>
      <trkpt lat="47.22202" lon="5.57471">
        <ele>230</ele>
        <time>2014-05-25T09:58:09Z</time>
      </trkpt>
      <trkpt lat="47.22193" lon="5.57465">
        <ele>229.6</ele>
        <time>2014-05-25T09:58:11Z</time>
      </trkpt>
      <trkpt lat="47.22183" lon="5.57455">
        <ele>229.7</ele>
        <time>2014-05-25T09:58:14Z</time>
      </trkpt>
      <trkpt lat="47.22176" lon="5.57445">
        <ele>230</ele>
        <time>2014-05-25T09:58:16Z</time>
      </trkpt>
      <trkpt lat="47.22167" lon="5.57438">
        <ele>229.6</ele>
        <time>2014-05-25T09:58:18Z</time>
      </trkpt>
      <trkpt lat="47.22159" lon="5.5743">
        <ele>229.9</ele>
        <time>2014-05-25T09:58:20Z</time>
      </trkpt>
      <trkpt lat="47.22151" lon="5.57421">
        <ele>229.9</ele>
        <time>2014-05-25T09:58:22Z</time>
      </trkpt>
      <trkpt lat="47.22143" lon="5.57413">
        <ele>230.2</ele>
        <time>2014-05-25T09:58:24Z</time>
      </trkpt>
      <trkpt lat="47.22135" lon="5.57406">
        <ele>230.4</ele>
        <time>2014-05-25T09:58:26Z</time>
      </trkpt>
      <trkpt lat="47.22124" lon="5.57394">
        <ele>230.8</ele>
        <time>2014-05-25T09:58:29Z</time>
      </trkpt>
      <trkpt lat="47.22115" lon="5.57382">
        <ele>231</ele>
        <time>2014-05-25T09:58:32Z</time>
      </trkpt>
      <trkpt lat="47.22104" lon="5.57371">
        <ele>231.3</ele>
        <time>2014-05-25T09:58:35Z</time>
      </trkpt>
      <trkpt lat="47.22094" lon="5.57364">
        <ele>231.2</ele>
        <time>2014-05-25T09:58:37Z</time>
      </trkpt>
      <trkpt lat="47.22084" lon="5.57355">
        <ele>230.9</ele>
        <time>2014-05-25T09:58:39Z</time>
      </trkpt>
      <trkpt lat="47.22075" lon="5.57347">
        <ele>231</ele>
        <time>2014-05-25T09:58:41Z</time>
      </trkpt>
      <trkpt lat="47.22067" lon="5.57337">
        <ele>231.2</ele>
        <time>2014-05-25T09:58:43Z</time>
      </trkpt>
      <trkpt lat="47.22059" lon="5.57327">
        <ele>231.1</ele>
        <time>2014-05-25T09:58:45Z</time>
      </trkpt>
      <trkpt lat="47.22049" lon="5.57319">
        <ele>231</ele>
        <time>2014-05-25T09:58:47Z</time>
      </trkpt>
      <trkpt lat="47.22039" lon="5.57313">
        <ele>231</ele>
        <time>2014-05-25T09:58:49Z</time>
      </trkpt>
      <trkpt lat="47.22028" lon="5.57309">
        <ele>230.5</ele>
        <time>2014-05-25T09:58:51Z</time>
      </trkpt>
      <trkpt lat="47.22019" lon="5.57305">
        <ele>231.1</ele>
        <time>2014-05-25T09:58:53Z</time>
      </trkpt>
      <trkpt lat="47.22008" lon="5.57302">
        <ele>231.1</ele>
        <time>2014-05-25T09:58:56Z</time>
      </trkpt>
      <trkpt lat="47.21997" lon="5.573">
        <ele>231.6</ele>
        <time>2014-05-25T09:58:59Z</time>
      </trkpt>
      <trkpt lat="47.21986" lon="5.57298">
        <ele>232.3</ele>
        <time>2014-05-25T09:59:02Z</time>
      </trkpt>
      <trkpt lat="47.21976" lon="5.57294">
        <ele>232.3</ele>
        <time>2014-05-25T09:59:05Z</time>
      </trkpt>
      <trkpt lat="47.21955" lon="5.57278">
        <ele>231.5</ele>
        <time>2014-05-25T09:59:10Z</time>
      </trkpt>
      <trkpt lat="47.21943" lon="5.57269">
        <ele>231.5</ele>
        <time>2014-05-25T09:59:12Z</time>
      </trkpt>
      <trkpt lat="47.21931" lon="5.57262">
        <ele>231.1</ele>
        <time>2014-05-25T09:59:14Z</time>
      </trkpt>
      <trkpt lat="47.21918" lon="5.57256">
        <ele>230.5</ele>
        <time>2014-05-25T09:59:16Z</time>
      </trkpt>
      <trkpt lat="47.21904" lon="5.5725">
        <ele>230</ele>
        <time>2014-05-25T09:59:18Z</time>
      </trkpt>
      <trkpt lat="47.2189" lon="5.57244">
        <ele>229.6</ele>
        <time>2014-05-25T09:59:20Z</time>
      </trkpt>
      <trkpt lat="47.21877" lon="5.57239">
        <ele>229.4</ele>
        <time>2014-05-25T09:59:22Z</time>
      </trkpt>
      <trkpt lat="47.21864" lon="5.57233">
        <ele>229.2</ele>
        <time>2014-05-25T09:59:24Z</time>
      </trkpt>
      <trkpt lat="47.21852" lon="5.57231">
        <ele>228.8</ele>
        <time>2014-05-25T09:59:26Z</time>
      </trkpt>
      <trkpt lat="47.21842" lon="5.57231">
        <ele>229.1</ele>
        <time>2014-05-25T09:59:28Z</time>
      </trkpt>
      <trkpt lat="47.21831" lon="5.57235">
        <ele>229.1</ele>
        <time>2014-05-25T09:59:30Z</time>
      </trkpt>
      <trkpt lat="47.21821" lon="5.57241">
        <ele>228.6</ele>
        <time>2014-05-25T09:59:32Z</time>
      </trkpt>
      <trkpt lat="47.21812" lon="5.57243">
        <ele>228.8</ele>
        <time>2014-05-25T09:59:34Z</time>
      </trkpt>
      <trkpt lat="47.21803" lon="5.57246">
        <ele>228.8</ele>
        <time>2014-05-25T09:59:36Z</time>
      </trkpt>
      <trkpt lat="47.21793" lon="5.5725">
        <ele>229.3</ele>
        <time>2014-05-25T09:59:38Z</time>
      </trkpt>
      <trkpt lat="47.21783" lon="5.57253">
        <ele>229.8</ele>
        <time>2014-05-25T09:59:40Z</time>
      </trkpt>
      <trkpt lat="47.21774" lon="5.57258">
        <ele>229.3</ele>
        <time>2014-05-25T09:59:42Z</time>
      </trkpt>
      <trkpt lat="47.21765" lon="5.57261">
        <ele>229.6</ele>
        <time>2014-05-25T09:59:44Z</time>
      </trkpt>
      <trkpt lat="47.21755" lon="5.57264">
        <ele>229.6</ele>
        <time>2014-05-25T09:59:46Z</time>
      </trkpt>
      <trkpt lat="47.21746" lon="5.57267">
        <ele>229.6</ele>
        <time>2014-05-25T09:59:48Z</time>
      </trkpt>
      <trkpt lat="47.21733" lon="5.57268">
        <ele>230</ele>
        <time>2014-05-25T09:59:51Z</time>
      </trkpt>
      <trkpt lat="47.21724" lon="5.57271">
        <ele>229.4</ele>
        <time>2014-05-25T09:59:53Z</time>
      </trkpt>
      <trkpt lat="47.21713" lon="5.57276">
        <ele>229.8</ele>
        <time>2014-05-25T09:59:56Z</time>
      </trkpt>
      <trkpt lat="47.21701" lon="5.57281">
        <ele>230.5</ele>
        <time>2014-05-25T10:00:00Z</time>
      </trkpt>
      <trkpt lat="47.21692" lon="5.57287">
        <ele>230.9</ele>
        <time>2014-05-25T10:00:03Z</time>
      </trkpt>
      <trkpt lat="47.21682" lon="5.57295">
        <ele>231.5</ele>
        <time>2014-05-25T10:00:07Z</time>
      </trkpt>
      <trkpt lat="47.21662" lon="5.57308">
        <ele>232.8</ele>
        <time>2014-05-25T10:00:12Z</time>
      </trkpt>
      <trkpt lat="47.21653" lon="5.5731">
        <ele>233.3</ele>
        <time>2014-05-25T10:00:15Z</time>
      </trkpt>
      <trkpt lat="47.21642" lon="5.57305">
        <ele>232.6</ele>
        <time>2014-05-25T10:00:18Z</time>
      </trkpt>
      <trkpt lat="47.21631" lon="5.57301">
        <ele>232.7</ele>
        <time>2014-05-25T10:00:20Z</time>
      </trkpt>
      <trkpt lat="47.21621" lon="5.57299">
        <ele>232.1</ele>
        <time>2014-05-25T10:00:22Z</time>
      </trkpt>
      <trkpt lat="47.21612" lon="5.57296">
        <ele>231.5</ele>
        <time>2014-05-25T10:00:24Z</time>
      </trkpt>
      <trkpt lat="47.21603" lon="5.57293">
        <ele>231.9</ele>
        <time>2014-05-25T10:00:26Z</time>
      </trkpt>
      <trkpt lat="47.21591" lon="5.57288">
        <ele>232.2</ele>
        <time>2014-05-25T10:00:29Z</time>
      </trkpt>
      <trkpt lat="47.21581" lon="5.57283">
        <ele>232.4</ele>
        <time>2014-05-25T10:00:31Z</time>
      </trkpt>
      <trkpt lat="47.21569" lon="5.57279">
        <ele>232.1</ele>
        <time>2014-05-25T10:00:34Z</time>
      </trkpt>
      <trkpt lat="47.21557" lon="5.57274">
        <ele>232.9</ele>
        <time>2014-05-25T10:00:37Z</time>
      </trkpt>
      <trkpt lat="47.21546" lon="5.57271">
        <ele>233.2</ele>
        <time>2014-05-25T10:00:40Z</time>
      </trkpt>
      <trkpt lat="47.21536" lon="5.57265">
        <ele>234.3</ele>
        <time>2014-05-25T10:00:44Z</time>
      </trkpt>
      <trkpt lat="47.21523" lon="5.57258">
        <ele>234.6</ele>
        <time>2014-05-25T10:00:48Z</time>
      </trkpt>
      <trkpt lat="47.21513" lon="5.57254">
        <ele>234.5</ele>
        <time>2014-05-25T10:00:50Z</time>
      </trkpt>
      <trkpt lat="47.21503" lon="5.57249">
        <ele>234.6</ele>
        <time>2014-05-25T10:00:52Z</time>
      </trkpt>
      <trkpt lat="47.21493" lon="5.57243">
        <ele>235</ele>
        <time>2014-05-25T10:00:54Z</time>
      </trkpt>
      <trkpt lat="47.2148" lon="5.57237">
        <ele>235.2</ele>
        <time>2014-05-25T10:00:57Z</time>
      </trkpt>
      <trkpt lat="47.21469" lon="5.57238">
        <ele>235.3</ele>
        <time>2014-05-25T10:01:00Z</time>
      </trkpt>
      <trkpt lat="47.2146" lon="5.57244">
        <ele>235.6</ele>
        <time>2014-05-25T10:01:04Z</time>
      </trkpt>
      <trkpt lat="47.21449" lon="5.57249">
        <ele>236</ele>
        <time>2014-05-25T10:01:09Z</time>
      </trkpt>
      <trkpt lat="47.2143" lon="5.57244">
        <ele>236</ele>
        <time>2014-05-25T10:01:13Z</time>
      </trkpt>
      <trkpt lat="47.2142" lon="5.57238">
        <ele>235.5</ele>
        <time>2014-05-25T10:01:15Z</time>
      </trkpt>
      <trkpt lat="47.21407" lon="5.57231">
        <ele>235.3</ele>
        <time>2014-05-25T10:01:18Z</time>
      </trkpt>
      <trkpt lat="47.21397" lon="5.57225">
        <ele>235.8</ele>
        <time>2014-05-25T10:01:21Z</time>
      </trkpt>
      <trkpt lat="47.21387" lon="5.57223">
        <ele>236.9</ele>
        <time>2014-05-25T10:01:25Z</time>
      </trkpt>
      <trkpt lat="47.21377" lon="5.57223">
        <ele>238</ele>
        <time>2014-05-25T10:01:30Z</time>
      </trkpt>
      <trkpt lat="47.21367" lon="5.57228">
        <ele>238.9</ele>
        <time>2014-05-25T10:01:34Z</time>
      </trkpt>
      <trkpt lat="47.21357" lon="5.57232">
        <ele>239.6</ele>
        <time>2014-05-25T10:01:39Z</time>
      </trkpt>
      <trkpt lat="47.21348" lon="5.57234">
        <ele>240.4</ele>
        <time>2014-05-25T10:01:43Z</time>
      </trkpt>
      <trkpt lat="47.21337" lon="5.57234">
        <ele>240.5</ele>
        <time>2014-05-25T10:01:47Z</time>
      </trkpt>
      <trkpt lat="47.21327" lon="5.57236">
        <ele>240.5</ele>
        <time>2014-05-25T10:01:51Z</time>
      </trkpt>
      <trkpt lat="47.21315" lon="5.57238">
        <ele>241.3</ele>
        <time>2014-05-25T10:01:56Z</time>
      </trkpt>
      <trkpt lat="47.21304" lon="5.57239">
        <ele>241.3</ele>
        <time>2014-05-25T10:02:00Z</time>
      </trkpt>
      <trkpt lat="47.21293" lon="5.57239">
        <ele>241.5</ele>
        <time>2014-05-25T10:02:04Z</time>
      </trkpt>
      <trkpt lat="47.21282" lon="5.5724">
        <ele>242.3</ele>
        <time>2014-05-25T10:02:09Z</time>
      </trkpt>
      <trkpt lat="47.21273" lon="5.57241">
        <ele>243.1</ele>
        <time>2014-05-25T10:02:12Z</time>
      </trkpt>
      <trkpt lat="47.21253" lon="5.57242">
        <ele>244.8</ele>
        <time>2014-05-25T10:02:19Z</time>
      </trkpt>
      <trkpt lat="47.21242" lon="5.57242">
        <ele>245.4</ele>
        <time>2014-05-25T10:02:24Z</time>
      </trkpt>
      <trkpt lat="47.21231" lon="5.57236">
        <ele>246.1</ele>
        <time>2014-05-25T10:02:29Z</time>
      </trkpt>
      <trkpt lat="47.21221" lon="5.57232">
        <ele>246</ele>
        <time>2014-05-25T10:02:33Z</time>
      </trkpt>
      <trkpt lat="47.21207" lon="5.57225">
        <ele>246.7</ele>
        <time>2014-05-25T10:02:36Z</time>
      </trkpt>
      <trkpt lat="47.21199" lon="5.5722">
        <ele>246.3</ele>
        <time>2014-05-25T10:02:38Z</time>
      </trkpt>
      <trkpt lat="47.2119" lon="5.57213">
        <ele>246.3</ele>
        <time>2014-05-25T10:02:40Z</time>
      </trkpt>
      <trkpt lat="47.21173" lon="5.57202">
        <ele>246.5</ele>
        <time>2014-05-25T10:02:43Z</time>
      </trkpt>
      <trkpt lat="47.21158" lon="5.57193">
        <ele>246.6</ele>
        <time>2014-05-25T10:02:45Z</time>
      </trkpt>
      <trkpt lat="47.21148" lon="5.57181">
        <ele>246.1</ele>
        <time>2014-05-25T10:02:47Z</time>
      </trkpt>
      <trkpt lat="47.21137" lon="5.57168">
        <ele>245.7</ele>
        <time>2014-05-25T10:02:49Z</time>
      </trkpt>
      <trkpt lat="47.21128" lon="5.57151">
        <ele>244.7</ele>
        <time>2014-05-25T10:02:51Z</time>
      </trkpt>
      <trkpt lat="47.21118" lon="5.57131">
        <ele>243.6</ele>
        <time>2014-05-25T10:02:53Z</time>
      </trkpt>
      <trkpt lat="47.21109" lon="5.57108">
        <ele>242.1</ele>
        <time>2014-05-25T10:02:55Z</time>
      </trkpt>
      <trkpt lat="47.21104" lon="5.57096">
        <ele>241.4</ele>
        <time>2014-05-25T10:02:56Z</time>
      </trkpt>
      <trkpt lat="47.21099" lon="5.57086">
        <ele>240.8</ele>
        <time>2014-05-25T10:02:57Z</time>
      </trkpt>
      <trkpt lat="47.21089" lon="5.57069">
        <ele>239.7</ele>
        <time>2014-05-25T10:02:59Z</time>
      </trkpt>
      <trkpt lat="47.21078" lon="5.57054">
        <ele>238.4</ele>
        <time>2014-05-25T10:03:01Z</time>
      </trkpt>
      <trkpt lat="47.21067" lon="5.57039">
        <ele>237.3</ele>
        <time>2014-05-25T10:03:03Z</time>
      </trkpt>
      <trkpt lat="47.21057" lon="5.57025">
        <ele>236.6</ele>
        <time>2014-05-25T10:03:05Z</time>
      </trkpt>
      <trkpt lat="47.21047" lon="5.57013">
        <ele>237.4</ele>
        <time>2014-05-25T10:03:07Z</time>
      </trkpt>
      <trkpt lat="47.21037" lon="5.57002">
        <ele>236.5</ele>
        <time>2014-05-25T10:03:09Z</time>
      </trkpt>
      <trkpt lat="47.21029" lon="5.56995">
        <ele>237.1</ele>
        <time>2014-05-25T10:03:11Z</time>
      </trkpt>
      <trkpt lat="47.21019" lon="5.56982">
        <ele>236.8</ele>
        <time>2014-05-25T10:03:14Z</time>
      </trkpt>
      <trkpt lat="47.21003" lon="5.56961">
        <ele>235.9</ele>
        <time>2014-05-25T10:03:18Z</time>
      </trkpt>
      <trkpt lat="47.20996" lon="5.56951">
        <ele>235.6</ele>
        <time>2014-05-25T10:03:20Z</time>
      </trkpt>
      <trkpt lat="47.20988" lon="5.5694">
        <ele>236.2</ele>
        <time>2014-05-25T10:03:22Z</time>
      </trkpt>
      <trkpt lat="47.2098" lon="5.5693">
        <ele>235.8</ele>
        <time>2014-05-25T10:03:24Z</time>
      </trkpt>
      <trkpt lat="47.20971" lon="5.5692">
        <ele>236.2</ele>
        <time>2014-05-25T10:03:26Z</time>
      </trkpt>
      <trkpt lat="47.20963" lon="5.56913">
        <ele>236.6</ele>
        <time>2014-05-25T10:03:28Z</time>
      </trkpt>
      <trkpt lat="47.20953" lon="5.56904">
        <ele>236.6</ele>
        <time>2014-05-25T10:03:30Z</time>
      </trkpt>
      <trkpt lat="47.20944" lon="5.56895">
        <ele>236.8</ele>
        <time>2014-05-25T10:03:32Z</time>
      </trkpt>
      <trkpt lat="47.20935" lon="5.56889">
        <ele>237.9</ele>
        <time>2014-05-25T10:03:34Z</time>
      </trkpt>
      <trkpt lat="47.20926" lon="5.56881">
        <ele>238.8</ele>
        <time>2014-05-25T10:03:37Z</time>
      </trkpt>
      <trkpt lat="47.20915" lon="5.56874">
        <ele>238.7</ele>
        <time>2014-05-25T10:03:39Z</time>
      </trkpt>
      <trkpt lat="47.20904" lon="5.56865">
        <ele>238.5</ele>
        <time>2014-05-25T10:03:42Z</time>
      </trkpt>
      <trkpt lat="47.20892" lon="5.56856">
        <ele>239.4</ele>
        <time>2014-05-25T10:03:45Z</time>
      </trkpt>
      <trkpt lat="47.20883" lon="5.56852">
        <ele>239.2</ele>
        <time>2014-05-25T10:03:46Z</time>
      </trkpt>
      <trkpt lat="47.20875" lon="5.56845">
        <ele>239.7</ele>
        <time>2014-05-25T10:03:48Z</time>
      </trkpt>
      <trkpt lat="47.20866" lon="5.56838">
        <ele>239.3</ele>
        <time>2014-05-25T10:03:51Z</time>
      </trkpt>
      <trkpt lat="47.20855" lon="5.56833">
        <ele>239.8</ele>
        <time>2014-05-25T10:03:54Z</time>
      </trkpt>
      <trkpt lat="47.20844" lon="5.56833">
        <ele>238.9</ele>
        <time>2014-05-25T10:03:57Z</time>
      </trkpt>
      <trkpt lat="47.20835" lon="5.56827">
        <ele>238.6</ele>
        <time>2014-05-25T10:03:59Z</time>
      </trkpt>
      <trkpt lat="47.20829" lon="5.56815">
        <ele>238.2</ele>
        <time>2014-05-25T10:04:01Z</time>
      </trkpt>
      <trkpt lat="47.20824" lon="5.56799">
        <ele>238.3</ele>
        <time>2014-05-25T10:04:04Z</time>
      </trkpt>
      <trkpt lat="47.20818" lon="5.56784">
        <ele>238</ele>
        <time>2014-05-25T10:04:07Z</time>
      </trkpt>
      <trkpt lat="47.20811" lon="5.56774">
        <ele>238.3</ele>
        <time>2014-05-25T10:04:10Z</time>
      </trkpt>
      <trkpt lat="47.20803" lon="5.56764">
        <ele>238.4</ele>
        <time>2014-05-25T10:04:14Z</time>
      </trkpt>
      <trkpt lat="47.20793" lon="5.56751">
        <ele>239.1</ele>
        <time>2014-05-25T10:04:17Z</time>
      </trkpt>
      <trkpt lat="47.20776" lon="5.56736">
        <ele>240.3</ele>
        <time>2014-05-25T10:04:23Z</time>
      </trkpt>
      <trkpt lat="47.20768" lon="5.56725">
        <ele>240.1</ele>
        <time>2014-05-25T10:04:26Z</time>
      </trkpt>
      <trkpt lat="47.20761" lon="5.56715">
        <ele>239.6</ele>
        <time>2014-05-25T10:04:29Z</time>
      </trkpt>
      <trkpt lat="47.20754" lon="5.56703">
        <ele>239.5</ele>
        <time>2014-05-25T10:04:32Z</time>
      </trkpt>
      <trkpt lat="47.20742" lon="5.56692">
        <ele>239.3</ele>
        <time>2014-05-25T10:04:35Z</time>
      </trkpt>
      <trkpt lat="47.20733" lon="5.56683">
        <ele>240</ele>
        <time>2014-05-25T10:04:38Z</time>
      </trkpt>
      <trkpt lat="47.20724" lon="5.56674">
        <ele>239.8</ele>
        <time>2014-05-25T10:04:41Z</time>
      </trkpt>
      <trkpt lat="47.20719" lon="5.56659">
        <ele>239</ele>
        <time>2014-05-25T10:04:45Z</time>
      </trkpt>
      <trkpt lat="47.20697" lon="5.56638">
        <ele>238</ele>
        <time>2014-05-25T10:04:51Z</time>
      </trkpt>
      <trkpt lat="47.20694" lon="5.56621">
        <ele>238.9</ele>
        <time>2014-05-25T10:04:56Z</time>
      </trkpt>
      <trkpt lat="47.20698" lon="5.56605">
        <ele>239.3</ele>
        <time>2014-05-25T10:05:00Z</time>
      </trkpt>
      <trkpt lat="47.20698" lon="5.56587">
        <ele>239.1</ele>
        <time>2014-05-25T10:05:03Z</time>
      </trkpt>
      <trkpt lat="47.20699" lon="5.56572">
        <ele>239.3</ele>
        <time>2014-05-25T10:05:05Z</time>
      </trkpt>
      <trkpt lat="47.20697" lon="5.56554">
        <ele>240</ele>
        <time>2014-05-25T10:05:08Z</time>
      </trkpt>
      <trkpt lat="47.20695" lon="5.56541">
        <ele>240.1</ele>
        <time>2014-05-25T10:05:10Z</time>
      </trkpt>
      <trkpt lat="47.2069" lon="5.56526">
        <ele>240.5</ele>
        <time>2014-05-25T10:05:13Z</time>
      </trkpt>
      <trkpt lat="47.20683" lon="5.56513">
        <ele>240.6</ele>
        <time>2014-05-25T10:05:16Z</time>
      </trkpt>
      <trkpt lat="47.20677" lon="5.56499">
        <ele>241</ele>
        <time>2014-05-25T10:05:19Z</time>
      </trkpt>
      <trkpt lat="47.20663" lon="5.56478">
        <ele>242.6</ele>
        <time>2014-05-25T10:05:26Z</time>
      </trkpt>
      <trkpt lat="47.20655" lon="5.56468">
        <ele>243.6</ele>
        <time>2014-05-25T10:05:31Z</time>
      </trkpt>
      <trkpt lat="47.20648" lon="5.56457">
        <ele>244.6</ele>
        <time>2014-05-25T10:05:35Z</time>
      </trkpt>
      <trkpt lat="47.20642" lon="5.56446">
        <ele>245.6</ele>
        <time>2014-05-25T10:05:39Z</time>
      </trkpt>
      <trkpt lat="47.20634" lon="5.56435">
        <ele>247</ele>
        <time>2014-05-25T10:05:44Z</time>
      </trkpt>
      <trkpt lat="47.20627" lon="5.56422">
        <ele>247.7</ele>
        <time>2014-05-25T10:05:49Z</time>
      </trkpt>
      <trkpt lat="47.20622" lon="5.56408">
        <ele>247.5</ele>
        <time>2014-05-25T10:05:54Z</time>
      </trkpt>
      <trkpt lat="47.2062" lon="5.56391">
        <ele>248</ele>
        <time>2014-05-25T10:05:58Z</time>
      </trkpt>
      <trkpt lat="47.20619" lon="5.56375">
        <ele>249.2</ele>
        <time>2014-05-25T10:06:02Z</time>
      </trkpt>
      <trkpt lat="47.20618" lon="5.56358">
        <ele>249.9</ele>
        <time>2014-05-25T10:06:06Z</time>
      </trkpt>
      <trkpt lat="47.20618" lon="5.56341">
        <ele>249.7</ele>
        <time>2014-05-25T10:06:10Z</time>
      </trkpt>
      <trkpt lat="47.20618" lon="5.56324">
        <ele>250.1</ele>
        <time>2014-05-25T10:06:14Z</time>
      </trkpt>
      <trkpt lat="47.20617" lon="5.56309">
        <ele>250.3</ele>
        <time>2014-05-25T10:06:17Z</time>
      </trkpt>
      <trkpt lat="47.20617" lon="5.56296">
        <ele>250.5</ele>
        <time>2014-05-25T10:06:20Z</time>
      </trkpt>
      <trkpt lat="47.20615" lon="5.56264">
        <ele>251</ele>
        <time>2014-05-25T10:06:28Z</time>
      </trkpt>
      <trkpt lat="47.20614" lon="5.56249">
        <ele>251.4</ele>
        <time>2014-05-25T10:06:32Z</time>
      </trkpt>
      <trkpt lat="47.20614" lon="5.56233">
        <ele>252.5</ele>
        <time>2014-05-25T10:06:37Z</time>
      </trkpt>
      <trkpt lat="47.20619" lon="5.5622">
        <ele>253.8</ele>
        <time>2014-05-25T10:06:43Z</time>
      </trkpt>
      <trkpt lat="47.20625" lon="5.5621">
        <ele>255.1</ele>
        <time>2014-05-25T10:06:49Z</time>
      </trkpt>
      <trkpt lat="47.20633" lon="5.562">
        <ele>256</ele>
        <time>2014-05-25T10:06:53Z</time>
      </trkpt>
      <trkpt lat="47.20641" lon="5.5619">
        <ele>257.2</ele>
        <time>2014-05-25T10:06:58Z</time>
      </trkpt>
      <trkpt lat="47.20647" lon="5.5618">
        <ele>258</ele>
        <time>2014-05-25T10:07:02Z</time>
      </trkpt>
      <trkpt lat="47.20653" lon="5.56168">
        <ele>258.4</ele>
        <time>2014-05-25T10:07:06Z</time>
      </trkpt>
      <trkpt lat="47.20657" lon="5.56156">
        <ele>259.1</ele>
        <time>2014-05-25T10:07:10Z</time>
      </trkpt>
      <trkpt lat="47.20662" lon="5.56144">
        <ele>259.9</ele>
        <time>2014-05-25T10:07:14Z</time>
      </trkpt>
      <trkpt lat="47.20664" lon="5.56129">
        <ele>260.5</ele>
        <time>2014-05-25T10:07:19Z</time>
      </trkpt>
      <trkpt lat="47.20663" lon="5.56112">
        <ele>261.5</ele>
        <time>2014-05-25T10:07:24Z</time>
      </trkpt>
      <trkpt lat="47.20663" lon="5.56083">
        <ele>263.6</ele>
        <time>2014-05-25T10:07:33Z</time>
      </trkpt>
      <trkpt lat="47.20662" lon="5.56069">
        <ele>265.5</ele>
        <time>2014-05-25T10:07:39Z</time>
      </trkpt>
      <trkpt lat="47.20664" lon="5.56055">
        <ele>265.3</ele>
        <time>2014-05-25T10:07:44Z</time>
      </trkpt>
      <trkpt lat="47.20668" lon="5.56043">
        <ele>266.7</ele>
        <time>2014-05-25T10:07:49Z</time>
      </trkpt>
      <trkpt lat="47.20676" lon="5.56032">
        <ele>267.3</ele>
        <time>2014-05-25T10:07:54Z</time>
      </trkpt>
      <trkpt lat="47.20682" lon="5.56021">
        <ele>267.8</ele>
        <time>2014-05-25T10:07:59Z</time>
      </trkpt>
      <trkpt lat="47.20689" lon="5.5601">
        <ele>269.1</ele>
        <time>2014-05-25T10:08:04Z</time>
      </trkpt>
      <trkpt lat="47.20696" lon="5.56">
        <ele>270</ele>
        <time>2014-05-25T10:08:09Z</time>
      </trkpt>
      <trkpt lat="47.20703" lon="5.5599">
        <ele>271.6</ele>
        <time>2014-05-25T10:08:15Z</time>
      </trkpt>
      <trkpt lat="47.20711" lon="5.5598">
        <ele>272.3</ele>
        <time>2014-05-25T10:08:21Z</time>
      </trkpt>
      <trkpt lat="47.20719" lon="5.55972">
        <ele>273.8</ele>
        <time>2014-05-25T10:08:26Z</time>
      </trkpt>
      <trkpt lat="47.20738" lon="5.55958">
        <ele>275.4</ele>
        <time>2014-05-25T10:08:38Z</time>
      </trkpt>
      <trkpt lat="47.20748" lon="5.55955">
        <ele>276.7</ele>
        <time>2014-05-25T10:08:44Z</time>
      </trkpt>
      <trkpt lat="47.20757" lon="5.55958">
        <ele>277.9</ele>
        <time>2014-05-25T10:08:50Z</time>
      </trkpt>
      <trkpt lat="47.20766" lon="5.55961">
        <ele>279.3</ele>
        <time>2014-05-25T10:08:56Z</time>
      </trkpt>
      <trkpt lat="47.20775" lon="5.55955">
        <ele>280.2</ele>
        <time>2014-05-25T10:09:03Z</time>
      </trkpt>
      <trkpt lat="47.20778" lon="5.55942">
        <ele>281.4</ele>
        <time>2014-05-25T10:09:09Z</time>
      </trkpt>
      <trkpt lat="47.20774" lon="5.55927">
        <ele>282.8</ele>
        <time>2014-05-25T10:09:16Z</time>
      </trkpt>
      <trkpt lat="47.20771" lon="5.55914">
        <ele>283.9</ele>
        <time>2014-05-25T10:09:21Z</time>
      </trkpt>
      <trkpt lat="47.20768" lon="5.55901">
        <ele>285</ele>
        <time>2014-05-25T10:09:27Z</time>
      </trkpt>
      <trkpt lat="47.20757" lon="5.55874">
        <ele>286.4</ele>
        <time>2014-05-25T10:09:38Z</time>
      </trkpt>
      <trkpt lat="47.20758" lon="5.55859">
        <ele>287.7</ele>
        <time>2014-05-25T10:09:45Z</time>
      </trkpt>
      <trkpt lat="47.20764" lon="5.55849">
        <ele>288.6</ele>
        <time>2014-05-25T10:09:51Z</time>
      </trkpt>
      <trkpt lat="47.20774" lon="5.55845">
        <ele>290</ele>
        <time>2014-05-25T10:09:58Z</time>
      </trkpt>
      <trkpt lat="47.20784" lon="5.55845">
        <ele>290.8</ele>
        <time>2014-05-25T10:10:04Z</time>
      </trkpt>
      <trkpt lat="47.20793" lon="5.55842">
        <ele>291.7</ele>
        <time>2014-05-25T10:10:10Z</time>
      </trkpt>
      <trkpt lat="47.20803" lon="5.55837">
        <ele>293.4</ele>
        <time>2014-05-25T10:10:16Z</time>
      </trkpt>
      <trkpt lat="47.20811" lon="5.55829">
        <ele>292.9</ele>
        <time>2014-05-25T10:10:21Z</time>
      </trkpt>
      <trkpt lat="47.20818" lon="5.55817">
        <ele>293.2</ele>
        <time>2014-05-25T10:10:26Z</time>
      </trkpt>
      <trkpt lat="47.20826" lon="5.55804">
        <ele>293.5</ele>
        <time>2014-05-25T10:10:30Z</time>
      </trkpt>
      <trkpt lat="47.20836" lon="5.55781">
        <ele>294.9</ele>
        <time>2014-05-25T10:10:38Z</time>
      </trkpt>
      <trkpt lat="47.2084" lon="5.55767">
        <ele>295.7</ele>
        <time>2014-05-25T10:10:43Z</time>
      </trkpt>
      <trkpt lat="47.20843" lon="5.55753">
        <ele>295.8</ele>
        <time>2014-05-25T10:10:48Z</time>
      </trkpt>
      <trkpt lat="47.20844" lon="5.55737">
        <ele>295.8</ele>
        <time>2014-05-25T10:10:53Z</time>
      </trkpt>
      <trkpt lat="47.20842" lon="5.55721">
        <ele>297.4</ele>
        <time>2014-05-25T10:10:59Z</time>
      </trkpt>
      <trkpt lat="47.20844" lon="5.55706">
        <ele>298.6</ele>
        <time>2014-05-25T10:11:04Z</time>
      </trkpt>
      <trkpt lat="47.20846" lon="5.55691">
        <ele>299.3</ele>
        <time>2014-05-25T10:11:08Z</time>
      </trkpt>
      <trkpt lat="47.20847" lon="5.55672">
        <ele>299.8</ele>
        <time>2014-05-25T10:11:12Z</time>
      </trkpt>
      <trkpt lat="47.2085" lon="5.55657">
        <ele>299.9</ele>
        <time>2014-05-25T10:11:15Z</time>
      </trkpt>
      <trkpt lat="47.20854" lon="5.55641">
        <ele>299.2</ele>
        <time>2014-05-25T10:11:18Z</time>
      </trkpt>
      <trkpt lat="47.20857" lon="5.55626">
        <ele>299.5</ele>
        <time>2014-05-25T10:11:21Z</time>
      </trkpt>
      <trkpt lat="47.2086" lon="5.55611">
        <ele>299.9</ele>
        <time>2014-05-25T10:11:24Z</time>
      </trkpt>
      <trkpt lat="47.20862" lon="5.55595">
        <ele>300.8</ele>
        <time>2014-05-25T10:11:27Z</time>
      </trkpt>
      <trkpt lat="47.2086" lon="5.55576">
        <ele>299.9</ele>
        <time>2014-05-25T10:11:30Z</time>
      </trkpt>
      <trkpt lat="47.20858" lon="5.55563">
        <ele>300</ele>
        <time>2014-05-25T10:11:32Z</time>
      </trkpt>
      <trkpt lat="47.2085" lon="5.55532">
        <ele>299.3</ele>
        <time>2014-05-25T10:11:37Z</time>
      </trkpt>
      <trkpt lat="47.20847" lon="5.55516">
        <ele>300.2</ele>
        <time>2014-05-25T10:11:40Z</time>
      </trkpt>
      <trkpt lat="47.20843" lon="5.55502">
        <ele>300.6</ele>
        <time>2014-05-25T10:11:43Z</time>
      </trkpt>
      <trkpt lat="47.20839" lon="5.55488">
        <ele>300.7</ele>
        <time>2014-05-25T10:11:46Z</time>
      </trkpt>
      <trkpt lat="47.20835" lon="5.55475">
        <ele>300.9</ele>
        <time>2014-05-25T10:11:49Z</time>
      </trkpt>
      <trkpt lat="47.20832" lon="5.55461">
        <ele>301.4</ele>
        <time>2014-05-25T10:11:52Z</time>
      </trkpt>
      <trkpt lat="47.2083" lon="5.55448">
        <ele>302</ele>
        <time>2014-05-25T10:11:55Z</time>
      </trkpt>
      <trkpt lat="47.20828" lon="5.55433">
        <ele>303.5</ele>
        <time>2014-05-25T10:11:59Z</time>
      </trkpt>
      <trkpt lat="47.20827" lon="5.55419">
        <ele>304.2</ele>
        <time>2014-05-25T10:12:03Z</time>
      </trkpt>
      <trkpt lat="47.20828" lon="5.55404">
        <ele>305.2</ele>
        <time>2014-05-25T10:12:08Z</time>
      </trkpt>
      <trkpt lat="47.20832" lon="5.55391">
        <ele>305.7</ele>
        <time>2014-05-25T10:12:13Z</time>
      </trkpt>
      <trkpt lat="47.20834" lon="5.55378">
        <ele>306.8</ele>
        <time>2014-05-25T10:12:18Z</time>
      </trkpt>
      <trkpt lat="47.20838" lon="5.55365">
        <ele>307.6</ele>
        <time>2014-05-25T10:12:23Z</time>
      </trkpt>
      <trkpt lat="47.20833" lon="5.55354">
        <ele>309.9</ele>
        <time>2014-05-25T10:12:32Z</time>
      </trkpt>
      <trkpt lat="47.20828" lon="5.55342">
        <ele>311.2</ele>
        <time>2014-05-25T10:12:41Z</time>
      </trkpt>
      <trkpt lat="47.20817" lon="5.5532">
        <ele>313.1</ele>
        <time>2014-05-25T10:12:55Z</time>
      </trkpt>
      <trkpt lat="47.20815" lon="5.55306">
        <ele>314.6</ele>
        <time>2014-05-25T10:13:04Z</time>
      </trkpt>
      <trkpt lat="47.20814" lon="5.55292">
        <ele>316.5</ele>
        <time>2014-05-25T10:13:13Z</time>
      </trkpt>
      <trkpt lat="47.20816" lon="5.55279">
        <ele>316.9</ele>
        <time>2014-05-25T10:13:21Z</time>
      </trkpt>
      <trkpt lat="47.20818" lon="5.55265">
        <ele>318.7</ele>
        <time>2014-05-25T10:13:28Z</time>
      </trkpt>
      <trkpt lat="47.20818" lon="5.55251">
        <ele>320.3</ele>
        <time>2014-05-25T10:13:35Z</time>
      </trkpt>
      <trkpt lat="47.20823" lon="5.55239">
        <ele>321.9</ele>
        <time>2014-05-25T10:13:42Z</time>
      </trkpt>
      <trkpt lat="47.20838" lon="5.55218">
        <ele>325.5</ele>
        <time>2014-05-25T10:14:00Z</time>
      </trkpt>
      <trkpt lat="47.20845" lon="5.55208">
        <ele>328.3</ele>
        <time>2014-05-25T10:14:14Z</time>
      </trkpt>
      <trkpt lat="47.20849" lon="5.55196">
        <ele>330.8</ele>
        <time>2014-05-25T10:14:24Z</time>
      </trkpt>
      <trkpt lat="47.20846" lon="5.55184">
        <ele>333.2</ele>
        <time>2014-05-25T10:14:32Z</time>
      </trkpt>
      <trkpt lat="47.20839" lon="5.55174">
        <ele>335.6</ele>
        <time>2014-05-25T10:14:41Z</time>
      </trkpt>
      <trkpt lat="47.20831" lon="5.55166">
        <ele>336.7</ele>
        <time>2014-05-25T10:14:51Z</time>
      </trkpt>
      <trkpt lat="47.20817" lon="5.55147">
        <ele>340.5</ele>
        <time>2014-05-25T10:15:12Z</time>
      </trkpt>
      <trkpt lat="47.20809" lon="5.55139">
        <ele>341.9</ele>
        <time>2014-05-25T10:15:20Z</time>
      </trkpt>
      <trkpt lat="47.20802" lon="5.55128">
        <ele>343.1</ele>
        <time>2014-05-25T10:15:29Z</time>
      </trkpt>
      <trkpt lat="47.20797" lon="5.55116">
        <ele>344.8</ele>
        <time>2014-05-25T10:15:37Z</time>
      </trkpt>
      <trkpt lat="47.20794" lon="5.55103">
        <ele>345.9</ele>
        <time>2014-05-25T10:15:44Z</time>
      </trkpt>
      <trkpt lat="47.20789" lon="5.55091">
        <ele>346.3</ele>
        <time>2014-05-25T10:15:49Z</time>
      </trkpt>
      <trkpt lat="47.20781" lon="5.55082">
        <ele>346.1</ele>
        <time>2014-05-25T10:15:53Z</time>
      </trkpt>
      <trkpt lat="47.20764" lon="5.55063">
        <ele>347.7</ele>
        <time>2014-05-25T10:16:01Z</time>
      </trkpt>
      <trkpt lat="47.20757" lon="5.55054">
        <ele>347.8</ele>
        <time>2014-05-25T10:16:04Z</time>
      </trkpt>
      <trkpt lat="47.20749" lon="5.55042">
        <ele>347.7</ele>
        <time>2014-05-25T10:16:08Z</time>
      </trkpt>
      <trkpt lat="47.20742" lon="5.55031">
        <ele>348</ele>
        <time>2014-05-25T10:16:12Z</time>
      </trkpt>
      <trkpt lat="47.20741" lon="5.55018">
        <ele>348.1</ele>
        <time>2014-05-25T10:16:17Z</time>
      </trkpt>
      <trkpt lat="47.20743" lon="5.55003">
        <ele>349.1</ele>
        <time>2014-05-25T10:17:38Z</time>
      </trkpt>
      <trkpt lat="47.2075" lon="5.54986">
        <ele>348.5</ele>
        <time>2014-05-25T10:20:56Z</time>
      </trkpt>
      <trkpt lat="47.2073" lon="5.54999">
        <ele>349</ele>
        <time>2014-05-25T10:27:00Z</time>
      </trkpt>
      <trkpt lat="47.20717" lon="5.54978">
        <ele>348.7</ele>
        <time>2014-05-25T10:27:15Z</time>
      </trkpt>
      <trkpt lat="47.20721" lon="5.54992">
        <ele>349.2</ele>
        <time>2014-05-25T10:27:22Z</time>
      </trkpt>
      <trkpt lat="47.2072" lon="5.54978">
        <ele>348.5</ele>
        <time>2014-05-25T10:27:30Z</time>
      </trkpt>
      <trkpt lat="47.20715" lon="5.54962">
        <ele>349</ele>
        <time>2014-05-25T10:27:34Z</time>
      </trkpt>
      <trkpt lat="47.20708" lon="5.5495">
        <ele>348.7</ele>
        <time>2014-05-25T10:27:37Z</time>
      </trkpt>
      <trkpt lat="47.20701" lon="5.54936">
        <ele>348.5</ele>
        <time>2014-05-25T10:27:40Z</time>
      </trkpt>
      <trkpt lat="47.20694" lon="5.54923">
        <ele>348.4</ele>
        <time>2014-05-25T10:27:43Z</time>
      </trkpt>
      <trkpt lat="47.20686" lon="5.54907">
        <ele>348.5</ele>
        <time>2014-05-25T10:27:46Z</time>
      </trkpt>
      <trkpt lat="47.2068" lon="5.54897">
        <ele>347.4</ele>
        <time>2014-05-25T10:27:48Z</time>
      </trkpt>
      <trkpt lat="47.20674" lon="5.54886">
        <ele>347.7</ele>
        <time>2014-05-25T10:27:50Z</time>
      </trkpt>
      <trkpt lat="47.20668" lon="5.54875">
        <ele>348</ele>
        <time>2014-05-25T10:27:52Z</time>
      </trkpt>
      <trkpt lat="47.20664" lon="5.54863">
        <ele>347.6</ele>
        <time>2014-05-25T10:27:54Z</time>
      </trkpt>
      <trkpt lat="47.20659" lon="5.54851">
        <ele>347.9</ele>
        <time>2014-05-25T10:27:56Z</time>
      </trkpt>
      <trkpt lat="47.20654" lon="5.54834">
        <ele>347.4</ele>
        <time>2014-05-25T10:27:59Z</time>
      </trkpt>
      <trkpt lat="47.20651" lon="5.54819">
        <ele>347.7</ele>
        <time>2014-05-25T10:28:02Z</time>
      </trkpt>
      <trkpt lat="47.20639" lon="5.54787">
        <ele>348.2</ele>
        <time>2014-05-25T10:28:08Z</time>
      </trkpt>
      <trkpt lat="47.20634" lon="5.54772">
        <ele>348.2</ele>
        <time>2014-05-25T10:28:11Z</time>
      </trkpt>
      <trkpt lat="47.20627" lon="5.54758">
        <ele>348.7</ele>
        <time>2014-05-25T10:28:14Z</time>
      </trkpt>
      <trkpt lat="47.20619" lon="5.54742">
        <ele>348.6</ele>
        <time>2014-05-25T10:28:17Z</time>
      </trkpt>
      <trkpt lat="47.2061" lon="5.54727">
        <ele>349.1</ele>
        <time>2014-05-25T10:28:20Z</time>
      </trkpt>
      <trkpt lat="47.20601" lon="5.54714">
        <ele>349.4</ele>
        <time>2014-05-25T10:28:23Z</time>
      </trkpt>
      <trkpt lat="47.20592" lon="5.54703">
        <ele>349.5</ele>
        <time>2014-05-25T10:28:26Z</time>
      </trkpt>
      <trkpt lat="47.20582" lon="5.54698">
        <ele>349.9</ele>
        <time>2014-05-25T10:28:29Z</time>
      </trkpt>
      <trkpt lat="47.2057" lon="5.547">
        <ele>350.6</ele>
        <time>2014-05-25T10:28:32Z</time>
      </trkpt>
      <trkpt lat="47.20558" lon="5.54702">
        <ele>350.3</ele>
        <time>2014-05-25T10:28:35Z</time>
      </trkpt>
      <trkpt lat="47.20546" lon="5.54706">
        <ele>350.2</ele>
        <time>2014-05-25T10:28:38Z</time>
      </trkpt>
      <trkpt lat="47.20535" lon="5.54711">
        <ele>350.1</ele>
        <time>2014-05-25T10:28:41Z</time>
      </trkpt>
      <trkpt lat="47.20526" lon="5.5472">
        <ele>350.4</ele>
        <time>2014-05-25T10:28:44Z</time>
      </trkpt>
      <trkpt lat="47.20515" lon="5.54728">
        <ele>350.1</ele>
        <time>2014-05-25T10:28:47Z</time>
      </trkpt>
      <trkpt lat="47.20504" lon="5.54733">
        <ele>349.6</ele>
        <time>2014-05-25T10:28:50Z</time>
      </trkpt>
      <trkpt lat="47.20493" lon="5.54737">
        <ele>348.7</ele>
        <time>2014-05-25T10:28:53Z</time>
      </trkpt>
      <trkpt lat="47.20484" lon="5.54739">
        <ele>347.8</ele>
        <time>2014-05-25T10:28:55Z</time>
      </trkpt>
      <trkpt lat="47.20472" lon="5.54742">
        <ele>346.8</ele>
        <time>2014-05-25T10:28:57Z</time>
      </trkpt>
      <trkpt lat="47.20457" lon="5.54748">
        <ele>346.1</ele>
        <time>2014-05-25T10:28:59Z</time>
      </trkpt>
      <trkpt lat="47.2044" lon="5.54756">
        <ele>344</ele>
        <time>2014-05-25T10:29:01Z</time>
      </trkpt>
      <trkpt lat="47.20431" lon="5.54761">
        <ele>343.3</ele>
        <time>2014-05-25T10:29:02Z</time>
      </trkpt>
      <trkpt lat="47.20421" lon="5.54766">
        <ele>341.8</ele>
        <time>2014-05-25T10:29:03Z</time>
      </trkpt>
      <trkpt lat="47.20404" lon="5.5478">
        <ele>339.3</ele>
        <time>2014-05-25T10:29:05Z</time>
      </trkpt>
      <trkpt lat="47.20396" lon="5.5479">
        <ele>338.2</ele>
        <time>2014-05-25T10:29:06Z</time>
      </trkpt>
      <trkpt lat="47.20388" lon="5.54802">
        <ele>337.3</ele>
        <time>2014-05-25T10:29:07Z</time>
      </trkpt>
      <trkpt lat="47.20381" lon="5.54817">
        <ele>336.4</ele>
        <time>2014-05-25T10:29:08Z</time>
      </trkpt>
      <trkpt lat="47.20372" lon="5.54831">
        <ele>335.1</ele>
        <time>2014-05-25T10:29:09Z</time>
      </trkpt>
      <trkpt lat="47.20363" lon="5.54846">
        <ele>334.1</ele>
        <time>2014-05-25T10:29:10Z</time>
      </trkpt>
      <trkpt lat="47.20353" lon="5.54861">
        <ele>332.6</ele>
        <time>2014-05-25T10:29:11Z</time>
      </trkpt>
      <trkpt lat="47.20344" lon="5.54876">
        <ele>331.4</ele>
        <time>2014-05-25T10:29:12Z</time>
      </trkpt>
      <trkpt lat="47.20335" lon="5.54891">
        <ele>330.1</ele>
        <time>2014-05-25T10:29:13Z</time>
      </trkpt>
      <trkpt lat="47.20326" lon="5.54906">
        <ele>328.8</ele>
        <time>2014-05-25T10:29:14Z</time>
      </trkpt>
      <trkpt lat="47.20318" lon="5.54921">
        <ele>327.6</ele>
        <time>2014-05-25T10:29:15Z</time>
      </trkpt>
      <trkpt lat="47.20311" lon="5.54937">
        <ele>327</ele>
        <time>2014-05-25T10:29:16Z</time>
      </trkpt>
      <trkpt lat="47.20303" lon="5.54952">
        <ele>326.1</ele>
        <time>2014-05-25T10:29:17Z</time>
      </trkpt>
      <trkpt lat="47.20296" lon="5.54968">
        <ele>325.3</ele>
        <time>2014-05-25T10:29:18Z</time>
      </trkpt>
      <trkpt lat="47.2029" lon="5.54983">
        <ele>324.7</ele>
        <time>2014-05-25T10:29:19Z</time>
      </trkpt>
      <trkpt lat="47.20283" lon="5.54997">
        <ele>324.1</ele>
        <time>2014-05-25T10:29:20Z</time>
      </trkpt>
      <trkpt lat="47.20277" lon="5.5501">
        <ele>323.4</ele>
        <time>2014-05-25T10:29:21Z</time>
      </trkpt>
      <trkpt lat="47.20272" lon="5.55023">
        <ele>322.6</ele>
        <time>2014-05-25T10:29:22Z</time>
      </trkpt>
      <trkpt lat="47.20267" lon="5.55035">
        <ele>322</ele>
        <time>2014-05-25T10:29:23Z</time>
      </trkpt>
      <trkpt lat="47.20262" lon="5.55057">
        <ele>320.2</ele>
        <time>2014-05-25T10:29:25Z</time>
      </trkpt>
      <trkpt lat="47.20262" lon="5.55077">
        <ele>318.9</ele>
        <time>2014-05-25T10:29:27Z</time>
      </trkpt>
      <trkpt lat="47.20266" lon="5.55097">
        <ele>317.9</ele>
        <time>2014-05-25T10:29:29Z</time>
      </trkpt>
      <trkpt lat="47.20275" lon="5.55118">
        <ele>316.7</ele>
        <time>2014-05-25T10:29:31Z</time>
      </trkpt>
      <trkpt lat="47.20285" lon="5.55139">
        <ele>315.8</ele>
        <time>2014-05-25T10:29:33Z</time>
      </trkpt>
      <trkpt lat="47.20291" lon="5.5515">
        <ele>314.1</ele>
        <time>2014-05-25T10:29:34Z</time>
      </trkpt>
      <trkpt lat="47.20298" lon="5.5516">
        <ele>314.2</ele>
        <time>2014-05-25T10:29:35Z</time>
      </trkpt>
      <trkpt lat="47.20304" lon="5.5517">
        <ele>313.7</ele>
        <time>2014-05-25T10:29:36Z</time>
      </trkpt>
      <trkpt lat="47.20311" lon="5.5518">
        <ele>312.8</ele>
        <time>2014-05-25T10:29:37Z</time>
      </trkpt>
      <trkpt lat="47.20317" lon="5.5519">
        <ele>311.9</ele>
        <time>2014-05-25T10:29:38Z</time>
      </trkpt>
      <trkpt lat="47.20323" lon="5.552">
        <ele>311.3</ele>
        <time>2014-05-25T10:29:39Z</time>
      </trkpt>
      <trkpt lat="47.20329" lon="5.55211">
        <ele>310.4</ele>
        <time>2014-05-25T10:29:40Z</time>
      </trkpt>
      <trkpt lat="47.20335" lon="5.55231">
        <ele>307.8</ele>
        <time>2014-05-25T10:29:42Z</time>
      </trkpt>
      <trkpt lat="47.20335" lon="5.55248">
        <ele>305.6</ele>
        <time>2014-05-25T10:29:44Z</time>
      </trkpt>
      <trkpt lat="47.20329" lon="5.55266">
        <ele>304.1</ele>
        <time>2014-05-25T10:29:46Z</time>
      </trkpt>
      <trkpt lat="47.20321" lon="5.55286">
        <ele>302.4</ele>
        <time>2014-05-25T10:29:48Z</time>
      </trkpt>
      <trkpt lat="47.20312" lon="5.55308">
        <ele>301</ele>
        <time>2014-05-25T10:29:50Z</time>
      </trkpt>
      <trkpt lat="47.20303" lon="5.55331">
        <ele>300</ele>
        <time>2014-05-25T10:29:52Z</time>
      </trkpt>
      <trkpt lat="47.20294" lon="5.55352">
        <ele>298.4</ele>
        <time>2014-05-25T10:29:54Z</time>
      </trkpt>
      <trkpt lat="47.20285" lon="5.55372">
        <ele>298</ele>
        <time>2014-05-25T10:29:56Z</time>
      </trkpt>
      <trkpt lat="47.20277" lon="5.55392">
        <ele>297.7</ele>
        <time>2014-05-25T10:29:58Z</time>
      </trkpt>
      <trkpt lat="47.20268" lon="5.55411">
        <ele>297.7</ele>
        <time>2014-05-25T10:30:00Z</time>
      </trkpt>
      <trkpt lat="47.2026" lon="5.55431">
        <ele>297.6</ele>
        <time>2014-05-25T10:30:02Z</time>
      </trkpt>
      <trkpt lat="47.20259" lon="5.55452">
        <ele>297</ele>
        <time>2014-05-25T10:30:04Z</time>
      </trkpt>
      <trkpt lat="47.20274" lon="5.55473">
        <ele>296.2</ele>
        <time>2014-05-25T10:30:08Z</time>
      </trkpt>
      <trkpt lat="47.20284" lon="5.55479">
        <ele>295.8</ele>
        <time>2014-05-25T10:30:10Z</time>
      </trkpt>
      <trkpt lat="47.20294" lon="5.55488">
        <ele>295.4</ele>
        <time>2014-05-25T10:30:12Z</time>
      </trkpt>
      <trkpt lat="47.20303" lon="5.55501">
        <ele>295.6</ele>
        <time>2014-05-25T10:30:14Z</time>
      </trkpt>
      <trkpt lat="47.20305" lon="5.55519">
        <ele>294.8</ele>
        <time>2014-05-25T10:30:16Z</time>
      </trkpt>
      <trkpt lat="47.20305" lon="5.55538">
        <ele>294.5</ele>
        <time>2014-05-25T10:30:18Z</time>
      </trkpt>
      <trkpt lat="47.20306" lon="5.5556">
        <ele>294.4</ele>
        <time>2014-05-25T10:30:20Z</time>
      </trkpt>
      <trkpt lat="47.20308" lon="5.55583">
        <ele>294</ele>
        <time>2014-05-25T10:30:22Z</time>
      </trkpt>
      <trkpt lat="47.20312" lon="5.55607">
        <ele>293.4</ele>
        <time>2014-05-25T10:30:24Z</time>
      </trkpt>
      <trkpt lat="47.20319" lon="5.55631">
        <ele>292.8</ele>
        <time>2014-05-25T10:30:26Z</time>
      </trkpt>
      <trkpt lat="47.20326" lon="5.55653">
        <ele>291.6</ele>
        <time>2014-05-25T10:30:28Z</time>
      </trkpt>
      <trkpt lat="47.20332" lon="5.55676">
        <ele>290.5</ele>
        <time>2014-05-25T10:30:30Z</time>
      </trkpt>
      <trkpt lat="47.20337" lon="5.55696">
        <ele>289.9</ele>
        <time>2014-05-25T10:30:32Z</time>
      </trkpt>
      <trkpt lat="47.20341" lon="5.55713">
        <ele>288.9</ele>
        <time>2014-05-25T10:30:34Z</time>
      </trkpt>
      <trkpt lat="47.20343" lon="5.55731">
        <ele>287.8</ele>
        <time>2014-05-25T10:30:36Z</time>
      </trkpt>
      <trkpt lat="47.20347" lon="5.55748">
        <ele>287.6</ele>
        <time>2014-05-25T10:30:38Z</time>
      </trkpt>
      <trkpt lat="47.20353" lon="5.55763">
        <ele>286.2</ele>
        <time>2014-05-25T10:30:40Z</time>
      </trkpt>
      <trkpt lat="47.2036" lon="5.5578">
        <ele>285.9</ele>
        <time>2014-05-25T10:30:42Z</time>
      </trkpt>
      <trkpt lat="47.20369" lon="5.55797">
        <ele>285.4</ele>
        <time>2014-05-25T10:30:44Z</time>
      </trkpt>
      <trkpt lat="47.20379" lon="5.55819">
        <ele>284.5</ele>
        <time>2014-05-25T10:30:46Z</time>
      </trkpt>
      <trkpt lat="47.20383" lon="5.55831">
        <ele>283.6</ele>
        <time>2014-05-25T10:30:47Z</time>
      </trkpt>
      <trkpt lat="47.20391" lon="5.55855">
        <ele>281.8</ele>
        <time>2014-05-25T10:30:49Z</time>
      </trkpt>
      <trkpt lat="47.20396" lon="5.55879">
        <ele>280.2</ele>
        <time>2014-05-25T10:30:51Z</time>
      </trkpt>
      <trkpt lat="47.20401" lon="5.559">
        <ele>279.1</ele>
        <time>2014-05-25T10:30:53Z</time>
      </trkpt>
      <trkpt lat="47.20408" lon="5.55918">
        <ele>277.6</ele>
        <time>2014-05-25T10:30:55Z</time>
      </trkpt>
      <trkpt lat="47.20413" lon="5.55932">
        <ele>276.1</ele>
        <time>2014-05-25T10:30:57Z</time>
      </trkpt>
      <trkpt lat="47.20413" lon="5.5595">
        <ele>274</ele>
        <time>2014-05-25T10:31:00Z</time>
      </trkpt>
      <trkpt lat="47.20401" lon="5.55954">
        <ele>272</ele>
        <time>2014-05-25T10:31:03Z</time>
      </trkpt>
      <trkpt lat="47.2039" lon="5.55947">
        <ele>270.3</ele>
        <time>2014-05-25T10:31:06Z</time>
      </trkpt>
      <trkpt lat="47.20368" lon="5.55934">
        <ele>268.9</ele>
        <time>2014-05-25T10:31:10Z</time>
      </trkpt>
      <trkpt lat="47.20353" lon="5.55925">
        <ele>268</ele>
        <time>2014-05-25T10:31:12Z</time>
      </trkpt>
      <trkpt lat="47.20337" lon="5.55918">
        <ele>266.5</ele>
        <time>2014-05-25T10:31:14Z</time>
      </trkpt>
      <trkpt lat="47.20322" lon="5.55913">
        <ele>265</ele>
        <time>2014-05-25T10:31:16Z</time>
      </trkpt>
      <trkpt lat="47.20307" lon="5.55909">
        <ele>263.6</ele>
        <time>2014-05-25T10:31:18Z</time>
      </trkpt>
      <trkpt lat="47.20292" lon="5.55902">
        <ele>261.3</ele>
        <time>2014-05-25T10:31:20Z</time>
      </trkpt>
      <trkpt lat="47.20277" lon="5.55898">
        <ele>259.4</ele>
        <time>2014-05-25T10:31:22Z</time>
      </trkpt>
      <trkpt lat="47.2026" lon="5.55892">
        <ele>257.9</ele>
        <time>2014-05-25T10:31:24Z</time>
      </trkpt>
      <trkpt lat="47.20251" lon="5.55887">
        <ele>257.1</ele>
        <time>2014-05-25T10:31:25Z</time>
      </trkpt>
      <trkpt lat="47.20235" lon="5.55876">
        <ele>255.3</ele>
        <time>2014-05-25T10:31:27Z</time>
      </trkpt>
      <trkpt lat="47.2022" lon="5.55866">
        <ele>252.6</ele>
        <time>2014-05-25T10:31:29Z</time>
      </trkpt>
      <trkpt lat="47.20209" lon="5.55864">
        <ele>251.8</ele>
        <time>2014-05-25T10:31:31Z</time>
      </trkpt>
      <trkpt lat="47.20198" lon="5.55874">
        <ele>251.2</ele>
        <time>2014-05-25T10:31:33Z</time>
      </trkpt>
      <trkpt lat="47.20187" lon="5.55888">
        <ele>250.7</ele>
        <time>2014-05-25T10:31:35Z</time>
      </trkpt>
      <trkpt lat="47.20179" lon="5.55905">
        <ele>250.5</ele>
        <time>2014-05-25T10:31:37Z</time>
      </trkpt>
      <trkpt lat="47.20169" lon="5.5592">
        <ele>249.5</ele>
        <time>2014-05-25T10:31:39Z</time>
      </trkpt>
      <trkpt lat="47.20159" lon="5.55931">
        <ele>249.5</ele>
        <time>2014-05-25T10:31:41Z</time>
      </trkpt>
      <trkpt lat="47.20151" lon="5.55938">
        <ele>248.9</ele>
        <time>2014-05-25T10:31:43Z</time>
      </trkpt>
      <trkpt lat="47.20147" lon="5.55953">
        <ele>249.1</ele>
        <time>2014-05-25T10:31:47Z</time>
      </trkpt>
      <trkpt lat="47.20148" lon="5.55969">
        <ele>249.8</ele>
        <time>2014-05-25T10:31:54Z</time>
      </trkpt>
      <trkpt lat="47.2015" lon="5.55982">
        <ele>250.4</ele>
        <time>2014-05-25T10:31:59Z</time>
      </trkpt>
      <trkpt lat="47.20152" lon="5.55996">
        <ele>251.3</ele>
        <time>2014-05-25T10:32:04Z</time>
      </trkpt>
      <trkpt lat="47.20151" lon="5.5601">
        <ele>252.2</ele>
        <time>2014-05-25T10:32:10Z</time>
      </trkpt>
      <trkpt lat="47.20153" lon="5.56039">
        <ele>256.1</ele>
        <time>2014-05-25T10:32:26Z</time>
      </trkpt>
      <trkpt lat="47.20153" lon="5.56052">
        <ele>256.8</ele>
        <time>2014-05-25T10:32:34Z</time>
      </trkpt>
      <trkpt lat="47.20154" lon="5.56066">
        <ele>258</ele>
        <time>2014-05-25T10:32:41Z</time>
      </trkpt>
      <trkpt lat="47.20152" lon="5.56079">
        <ele>260.2</ele>
        <time>2014-05-25T10:32:49Z</time>
      </trkpt>
      <trkpt lat="47.20154" lon="5.56093">
        <ele>261.4</ele>
        <time>2014-05-25T10:32:58Z</time>
      </trkpt>
      <trkpt lat="47.20154" lon="5.56108">
        <ele>263.8</ele>
        <time>2014-05-25T10:33:08Z</time>
      </trkpt>
      <trkpt lat="47.20154" lon="5.56123">
        <ele>265.5</ele>
        <time>2014-05-25T10:33:17Z</time>
      </trkpt>
      <trkpt lat="47.20153" lon="5.56151">
        <ele>269.2</ele>
        <time>2014-05-25T10:33:37Z</time>
      </trkpt>
      <trkpt lat="47.20153" lon="5.56165">
        <ele>269.4</ele>
        <time>2014-05-25T10:33:44Z</time>
      </trkpt>
      <trkpt lat="47.20155" lon="5.56178">
        <ele>270.3</ele>
        <time>2014-05-25T10:33:51Z</time>
      </trkpt>
      <trkpt lat="47.20158" lon="5.56191">
        <ele>271.4</ele>
        <time>2014-05-25T10:33:58Z</time>
      </trkpt>
      <trkpt lat="47.2016" lon="5.56206">
        <ele>272.3</ele>
        <time>2014-05-25T10:34:06Z</time>
      </trkpt>
      <trkpt lat="47.20156" lon="5.56221">
        <ele>273.2</ele>
        <time>2014-05-25T10:34:15Z</time>
      </trkpt>
      <trkpt lat="47.20149" lon="5.5623">
        <ele>275.1</ele>
        <time>2014-05-25T10:34:21Z</time>
      </trkpt>
      <trkpt lat="47.20136" lon="5.5625">
        <ele>276.9</ele>
        <time>2014-05-25T10:34:37Z</time>
      </trkpt>
      <trkpt lat="47.20134" lon="5.56263">
        <ele>279.1</ele>
        <time>2014-05-25T10:34:47Z</time>
      </trkpt>
      <trkpt lat="47.20131" lon="5.56276">
        <ele>279.8</ele>
        <time>2014-05-25T10:34:56Z</time>
      </trkpt>
      <trkpt lat="47.20125" lon="5.56287">
        <ele>281.3</ele>
        <time>2014-05-25T10:35:06Z</time>
      </trkpt>
      <trkpt lat="47.20117" lon="5.56293">
        <ele>282.5</ele>
        <time>2014-05-25T10:35:15Z</time>
      </trkpt>
      <trkpt lat="47.20109" lon="5.56303">
        <ele>283.9</ele>
        <time>2014-05-25T10:35:21Z</time>
      </trkpt>
      <trkpt lat="47.20101" lon="5.56309">
        <ele>285.7</ele>
        <time>2014-05-25T10:35:28Z</time>
      </trkpt>
      <trkpt lat="47.20084" lon="5.56321">
        <ele>288</ele>
        <time>2014-05-25T10:35:42Z</time>
      </trkpt>
      <trkpt lat="47.20075" lon="5.56328">
        <ele>289.1</ele>
        <time>2014-05-25T10:35:49Z</time>
      </trkpt>
      <trkpt lat="47.20066" lon="5.56333">
        <ele>290</ele>
        <time>2014-05-25T10:35:55Z</time>
      </trkpt>
      <trkpt lat="47.20058" lon="5.56339">
        <ele>290.4</ele>
        <time>2014-05-25T10:36:01Z</time>
      </trkpt>
      <trkpt lat="47.20049" lon="5.56345">
        <ele>290.9</ele>
        <time>2014-05-25T10:36:08Z</time>
      </trkpt>
      <trkpt lat="47.20039" lon="5.5635">
        <ele>291.9</ele>
        <time>2014-05-25T10:36:15Z</time>
      </trkpt>
      <trkpt lat="47.2003" lon="5.56352">
        <ele>293</ele>
        <time>2014-05-25T10:36:21Z</time>
      </trkpt>
      <trkpt lat="47.20022" lon="5.56355">
        <ele>294</ele>
        <time>2014-05-25T10:36:25Z</time>
      </trkpt>
      <trkpt lat="47.20013" lon="5.56359">
        <ele>295</ele>
        <time>2014-05-25T10:36:31Z</time>
      </trkpt>
      <trkpt lat="47.19996" lon="5.56372">
        <ele>297.9</ele>
        <time>2014-05-25T10:36:47Z</time>
      </trkpt>
      <trkpt lat="47.19987" lon="5.56377">
        <ele>298.6</ele>
        <time>2014-05-25T10:36:54Z</time>
      </trkpt>
      <trkpt lat="47.19978" lon="5.56382">
        <ele>299.6</ele>
        <time>2014-05-25T10:37:00Z</time>
      </trkpt>
      <trkpt lat="47.19969" lon="5.56386">
        <ele>300.2</ele>
        <time>2014-05-25T10:37:05Z</time>
      </trkpt>
      <trkpt lat="47.19961" lon="5.56393">
        <ele>301.7</ele>
        <time>2014-05-25T10:37:10Z</time>
      </trkpt>
      <trkpt lat="47.19953" lon="5.56399">
        <ele>302.3</ele>
        <time>2014-05-25T10:37:16Z</time>
      </trkpt>
      <trkpt lat="47.19944" lon="5.56405">
        <ele>303.3</ele>
        <time>2014-05-25T10:37:24Z</time>
      </trkpt>
      <trkpt lat="47.19934" lon="5.56411">
        <ele>304.1</ele>
        <time>2014-05-25T10:37:30Z</time>
      </trkpt>
      <trkpt lat="47.19927" lon="5.56421">
        <ele>306.4</ele>
        <time>2014-05-25T10:37:39Z</time>
      </trkpt>
      <trkpt lat="47.19911" lon="5.56433">
        <ele>307.7</ele>
        <time>2014-05-25T10:37:53Z</time>
      </trkpt>
      <trkpt lat="47.19901" lon="5.5644">
        <ele>308.5</ele>
        <time>2014-05-25T10:38:01Z</time>
      </trkpt>
      <trkpt lat="47.19893" lon="5.56435">
        <ele>309</ele>
        <time>2014-05-25T10:38:11Z</time>
      </trkpt>
      <trkpt lat="47.19883" lon="5.56436">
        <ele>309.7</ele>
        <time>2014-05-25T10:38:18Z</time>
      </trkpt>
      <trkpt lat="47.19877" lon="5.56425">
        <ele>310.3</ele>
        <time>2014-05-25T10:38:25Z</time>
      </trkpt>
      <trkpt lat="47.1987" lon="5.56415">
        <ele>310.7</ele>
        <time>2014-05-25T10:38:29Z</time>
      </trkpt>
      <trkpt lat="47.19866" lon="5.56402">
        <ele>309.9</ele>
        <time>2014-05-25T10:38:33Z</time>
      </trkpt>
      <trkpt lat="47.19859" lon="5.56391">
        <ele>310</ele>
        <time>2014-05-25T10:38:39Z</time>
      </trkpt>
      <trkpt lat="47.19851" lon="5.56383">
        <ele>309.7</ele>
        <time>2014-05-25T10:38:45Z</time>
      </trkpt>
      <trkpt lat="47.19836" lon="5.56363">
        <ele>311.3</ele>
        <time>2014-05-25T10:39:01Z</time>
      </trkpt>
      <trkpt lat="47.19829" lon="5.56354">
        <ele>312.4</ele>
        <time>2014-05-25T10:39:09Z</time>
      </trkpt>
      <trkpt lat="47.19823" lon="5.56341">
        <ele>313.6</ele>
        <time>2014-05-25T10:39:18Z</time>
      </trkpt>
      <trkpt lat="47.19813" lon="5.56334">
        <ele>315.5</ele>
        <time>2014-05-25T10:39:27Z</time>
      </trkpt>
      <trkpt lat="47.19805" lon="5.56326">
        <ele>316.4</ele>
        <time>2014-05-25T10:39:33Z</time>
      </trkpt>
      <trkpt lat="47.19798" lon="5.56317">
        <ele>318</ele>
        <time>2014-05-25T10:39:41Z</time>
      </trkpt>
      <trkpt lat="47.1979" lon="5.56308">
        <ele>319.2</ele>
        <time>2014-05-25T10:39:49Z</time>
      </trkpt>
      <trkpt lat="47.19775" lon="5.56291">
        <ele>320.9</ele>
        <time>2014-05-25T10:40:03Z</time>
      </trkpt>
      <trkpt lat="47.19768" lon="5.56282">
        <ele>321.5</ele>
        <time>2014-05-25T10:40:10Z</time>
      </trkpt>
      <trkpt lat="47.1976" lon="5.56274">
        <ele>322.5</ele>
        <time>2014-05-25T10:40:17Z</time>
      </trkpt>
      <trkpt lat="47.19751" lon="5.5627">
        <ele>323.4</ele>
        <time>2014-05-25T10:40:25Z</time>
      </trkpt>
      <trkpt lat="47.1974" lon="5.5627">
        <ele>325.1</ele>
        <time>2014-05-25T10:40:34Z</time>
      </trkpt>
      <trkpt lat="47.19731" lon="5.56269">
        <ele>326.2</ele>
        <time>2014-05-25T10:40:42Z</time>
      </trkpt>
      <trkpt lat="47.19721" lon="5.56271">
        <ele>328.8</ele>
        <time>2014-05-25T10:40:51Z</time>
      </trkpt>
      <trkpt lat="47.19702" lon="5.56266">
        <ele>330.9</ele>
        <time>2014-05-25T10:41:08Z</time>
      </trkpt>
      <trkpt lat="47.19694" lon="5.56253">
        <ele>330.7</ele>
        <time>2014-05-25T10:41:12Z</time>
      </trkpt>
      <trkpt lat="47.19687" lon="5.56238">
        <ele>330.3</ele>
        <time>2014-05-25T10:41:15Z</time>
      </trkpt>
      <trkpt lat="47.19684" lon="5.56226">
        <ele>330.1</ele>
        <time>2014-05-25T10:41:20Z</time>
      </trkpt>
      <trkpt lat="47.19679" lon="5.56215">
        <ele>331</ele>
        <time>2014-05-25T10:41:25Z</time>
      </trkpt>
      <trkpt lat="47.19675" lon="5.56202">
        <ele>330.2</ele>
        <time>2014-05-25T10:41:28Z</time>
      </trkpt>
      <trkpt lat="47.19668" lon="5.56184">
        <ele>329.2</ele>
        <time>2014-05-25T10:41:31Z</time>
      </trkpt>
      <trkpt lat="47.19664" lon="5.56164">
        <ele>328.4</ele>
        <time>2014-05-25T10:41:33Z</time>
      </trkpt>
      <trkpt lat="47.19659" lon="5.56146">
        <ele>328</ele>
        <time>2014-05-25T10:41:35Z</time>
      </trkpt>
      <trkpt lat="47.19653" lon="5.56126">
        <ele>326.8</ele>
        <time>2014-05-25T10:41:37Z</time>
      </trkpt>
      <trkpt lat="47.19647" lon="5.56107">
        <ele>326.4</ele>
        <time>2014-05-25T10:41:39Z</time>
      </trkpt>
      <trkpt lat="47.19644" lon="5.5609">
        <ele>326.3</ele>
        <time>2014-05-25T10:41:41Z</time>
      </trkpt>
      <trkpt lat="47.19639" lon="5.56074">
        <ele>325.2</ele>
        <time>2014-05-25T10:41:43Z</time>
      </trkpt>
      <trkpt lat="47.19633" lon="5.56059">
        <ele>324.4</ele>
        <time>2014-05-25T10:41:45Z</time>
      </trkpt>
      <trkpt lat="47.19628" lon="5.56044">
        <ele>323.5</ele>
        <time>2014-05-25T10:41:48Z</time>
      </trkpt>
      <trkpt lat="47.19626" lon="5.5603">
        <ele>320.8</ele>
        <time>2014-05-25T10:41:52Z</time>
      </trkpt>
      <trkpt lat="47.19624" lon="5.56001">
        <ele>318.4</ele>
        <time>2014-05-25T10:41:59Z</time>
      </trkpt>
      <trkpt lat="47.19619" lon="5.55989">
        <ele>317.7</ele>
        <time>2014-05-25T10:42:03Z</time>
      </trkpt>
      <trkpt lat="47.19613" lon="5.55977">
        <ele>317.6</ele>
        <time>2014-05-25T10:42:07Z</time>
      </trkpt>
      <trkpt lat="47.19608" lon="5.55965">
        <ele>318.6</ele>
        <time>2014-05-25T10:42:13Z</time>
      </trkpt>
      <trkpt lat="47.19601" lon="5.55952">
        <ele>319.2</ele>
        <time>2014-05-25T10:42:19Z</time>
      </trkpt>
      <trkpt lat="47.19594" lon="5.55941">
        <ele>319.9</ele>
        <time>2014-05-25T10:42:24Z</time>
      </trkpt>
      <trkpt lat="47.1959" lon="5.55929">
        <ele>322.8</ele>
        <time>2014-05-25T10:42:33Z</time>
      </trkpt>
      <trkpt lat="47.19585" lon="5.55918">
        <ele>324.9</ele>
        <time>2014-05-25T10:42:50Z</time>
      </trkpt>
      <trkpt lat="47.1958" lon="5.55906">
        <ele>327.9</ele>
        <time>2014-05-25T10:43:03Z</time>
      </trkpt>
      <trkpt lat="47.19571" lon="5.55882">
        <ele>330.2</ele>
        <time>2014-05-25T10:43:24Z</time>
      </trkpt>
      <trkpt lat="47.19567" lon="5.55869">
        <ele>330.3</ele>
        <time>2014-05-25T10:43:30Z</time>
      </trkpt>
      <trkpt lat="47.19565" lon="5.55854">
        <ele>332</ele>
        <time>2014-05-25T10:43:38Z</time>
      </trkpt>
      <trkpt lat="47.1956" lon="5.55842">
        <ele>333.2</ele>
        <time>2014-05-25T10:43:47Z</time>
      </trkpt>
      <trkpt lat="47.19555" lon="5.55827">
        <ele>333.9</ele>
        <time>2014-05-25T10:43:55Z</time>
      </trkpt>
      <trkpt lat="47.19551" lon="5.55816">
        <ele>335.2</ele>
        <time>2014-05-25T10:44:02Z</time>
      </trkpt>
      <trkpt lat="47.19548" lon="5.55802">
        <ele>336.2</ele>
        <time>2014-05-25T10:44:10Z</time>
      </trkpt>
      <trkpt lat="47.19542" lon="5.55776">
        <ele>337.9</ele>
        <time>2014-05-25T10:44:24Z</time>
      </trkpt>
      <trkpt lat="47.19539" lon="5.55764">
        <ele>338</ele>
        <time>2014-05-25T10:44:32Z</time>
      </trkpt>
      <trkpt lat="47.19535" lon="5.5575">
        <ele>340.2</ele>
        <time>2014-05-25T10:44:39Z</time>
      </trkpt>
      <trkpt lat="47.19531" lon="5.55737">
        <ele>340.4</ele>
        <time>2014-05-25T10:44:45Z</time>
      </trkpt>
      <trkpt lat="47.19527" lon="5.55724">
        <ele>339.9</ele>
        <time>2014-05-25T10:44:50Z</time>
      </trkpt>
      <trkpt lat="47.19523" lon="5.55711">
        <ele>340.1</ele>
        <time>2014-05-25T10:44:54Z</time>
      </trkpt>
      <trkpt lat="47.19519" lon="5.55697">
        <ele>339.4</ele>
        <time>2014-05-25T10:44:58Z</time>
      </trkpt>
      <trkpt lat="47.19516" lon="5.55682">
        <ele>338.3</ele>
        <time>2014-05-25T10:45:01Z</time>
      </trkpt>
      <trkpt lat="47.19513" lon="5.55668">
        <ele>336.9</ele>
        <time>2014-05-25T10:45:04Z</time>
      </trkpt>
      <trkpt lat="47.1951" lon="5.55652">
        <ele>334.5</ele>
        <time>2014-05-25T10:45:08Z</time>
      </trkpt>
      <trkpt lat="47.195" lon="5.55634">
        <ele>332.7</ele>
        <time>2014-05-25T10:45:11Z</time>
      </trkpt>
      <trkpt lat="47.19489" lon="5.55596">
        <ele>330</ele>
        <time>2014-05-25T10:45:15Z</time>
      </trkpt>
      <trkpt lat="47.19484" lon="5.55584">
        <ele>330.3</ele>
        <time>2014-05-25T10:45:19Z</time>
      </trkpt>
      <trkpt lat="47.19467" lon="5.55555">
        <ele>349</ele>
        <time>2014-05-25T10:47:28Z</time>
      </trkpt>
      <trkpt lat="47.19449" lon="5.55541">
        <ele>352.6</ele>
        <time>2014-05-25T10:47:40Z</time>
      </trkpt>
      <trkpt lat="47.19443" lon="5.55528">
        <ele>353.1</ele>
        <time>2014-05-25T10:47:43Z</time>
      </trkpt>
      <trkpt lat="47.19434" lon="5.55516">
        <ele>353.3</ele>
        <time>2014-05-25T10:47:46Z</time>
      </trkpt>
      <trkpt lat="47.19427" lon="5.55508">
        <ele>354</ele>
        <time>2014-05-25T10:47:50Z</time>
      </trkpt>
      <trkpt lat="47.19419" lon="5.55498">
        <ele>354.4</ele>
        <time>2014-05-25T10:47:56Z</time>
      </trkpt>
      <trkpt lat="47.19412" lon="5.55488">
        <ele>355.3</ele>
        <time>2014-05-25T10:48:02Z</time>
      </trkpt>
      <trkpt lat="47.19405" lon="5.55476">
        <ele>356.1</ele>
        <time>2014-05-25T10:48:08Z</time>
      </trkpt>
      <trkpt lat="47.19398" lon="5.55465">
        <ele>356.7</ele>
        <time>2014-05-25T10:48:14Z</time>
      </trkpt>
      <trkpt lat="47.19391" lon="5.55455">
        <ele>357.1</ele>
        <time>2014-05-25T10:48:19Z</time>
      </trkpt>
      <trkpt lat="47.19385" lon="5.55446">
        <ele>357.8</ele>
        <time>2014-05-25T10:48:24Z</time>
      </trkpt>
      <trkpt lat="47.19379" lon="5.55433">
        <ele>358.5</ele>
        <time>2014-05-25T10:48:29Z</time>
      </trkpt>
      <trkpt lat="47.19373" lon="5.55423">
        <ele>359</ele>
        <time>2014-05-25T10:48:33Z</time>
      </trkpt>
      <trkpt lat="47.1936" lon="5.55403">
        <ele>359.5</ele>
        <time>2014-05-25T10:48:41Z</time>
      </trkpt>
      <trkpt lat="47.19354" lon="5.55392">
        <ele>359.9</ele>
        <time>2014-05-25T10:48:45Z</time>
      </trkpt>
      <trkpt lat="47.19349" lon="5.55381">
        <ele>360.7</ele>
        <time>2014-05-25T10:48:49Z</time>
      </trkpt>
      <trkpt lat="47.19342" lon="5.55371">
        <ele>361</ele>
        <time>2014-05-25T10:48:53Z</time>
      </trkpt>
      <trkpt lat="47.19335" lon="5.55359">
        <ele>361.3</ele>
        <time>2014-05-25T10:48:57Z</time>
      </trkpt>
      <trkpt lat="47.19328" lon="5.55348">
        <ele>361.2</ele>
        <time>2014-05-25T10:49:01Z</time>
      </trkpt>
      <trkpt lat="47.19321" lon="5.55336">
        <ele>361.5</ele>
        <time>2014-05-25T10:49:05Z</time>
      </trkpt>
      <trkpt lat="47.19315" lon="5.55326">
        <ele>361.4</ele>
        <time>2014-05-25T10:49:08Z</time>
      </trkpt>
      <trkpt lat="47.19309" lon="5.55316">
        <ele>361.6</ele>
        <time>2014-05-25T10:49:11Z</time>
      </trkpt>
      <trkpt lat="47.19302" lon="5.55303">
        <ele>361.5</ele>
        <time>2014-05-25T10:49:15Z</time>
      </trkpt>
      <trkpt lat="47.19296" lon="5.55291">
        <ele>361.4</ele>
        <time>2014-05-25T10:49:18Z</time>
      </trkpt>
      <trkpt lat="47.19293" lon="5.55278">
        <ele>360.3</ele>
        <time>2014-05-25T10:49:22Z</time>
      </trkpt>
      <trkpt lat="47.19291" lon="5.55265">
        <ele>360.1</ele>
        <time>2014-05-25T10:49:25Z</time>
      </trkpt>
      <trkpt lat="47.19284" lon="5.55255">
        <ele>360</ele>
        <time>2014-05-25T10:49:28Z</time>
      </trkpt>
      <trkpt lat="47.19278" lon="5.55244">
        <ele>360.6</ele>
        <time>2014-05-25T10:49:32Z</time>
      </trkpt>
      <trkpt lat="47.19271" lon="5.55231">
        <ele>360.2</ele>
        <time>2014-05-25T10:49:36Z</time>
      </trkpt>
      <trkpt lat="47.19257" lon="5.55209">
        <ele>360.8</ele>
        <time>2014-05-25T10:49:45Z</time>
      </trkpt>
      <trkpt lat="47.1925" lon="5.55199">
        <ele>361.6</ele>
        <time>2014-05-25T10:49:48Z</time>
      </trkpt>
      <trkpt lat="47.19242" lon="5.55188">
        <ele>360.5</ele>
        <time>2014-05-25T10:49:52Z</time>
      </trkpt>
      <trkpt lat="47.19237" lon="5.55176">
        <ele>361</ele>
        <time>2014-05-25T10:49:56Z</time>
      </trkpt>
      <trkpt lat="47.19232" lon="5.55164">
        <ele>360.6</ele>
        <time>2014-05-25T10:50:00Z</time>
      </trkpt>
      <trkpt lat="47.19225" lon="5.55151">
        <ele>360.2</ele>
        <time>2014-05-25T10:50:04Z</time>
      </trkpt>
      <trkpt lat="47.19217" lon="5.5514">
        <ele>360.1</ele>
        <time>2014-05-25T10:50:08Z</time>
      </trkpt>
      <trkpt lat="47.1921" lon="5.55129">
        <ele>360</ele>
        <time>2014-05-25T10:50:11Z</time>
      </trkpt>
      <trkpt lat="47.19206" lon="5.55115">
        <ele>359.9</ele>
        <time>2014-05-25T10:50:14Z</time>
      </trkpt>
      <trkpt lat="47.19199" lon="5.55101">
        <ele>359</ele>
        <time>2014-05-25T10:50:17Z</time>
      </trkpt>
      <trkpt lat="47.19194" lon="5.55088">
        <ele>358.8</ele>
        <time>2014-05-25T10:50:19Z</time>
      </trkpt>
      <trkpt lat="47.19189" lon="5.55076">
        <ele>358.6</ele>
        <time>2014-05-25T10:50:21Z</time>
      </trkpt>
      <trkpt lat="47.19185" lon="5.55064">
        <ele>357</ele>
        <time>2014-05-25T10:50:23Z</time>
      </trkpt>
      <trkpt lat="47.19179" lon="5.55051">
        <ele>356.6</ele>
        <time>2014-05-25T10:50:25Z</time>
      </trkpt>
      <trkpt lat="47.19171" lon="5.55036">
        <ele>356.4</ele>
        <time>2014-05-25T10:50:27Z</time>
      </trkpt>
      <trkpt lat="47.19165" lon="5.55021">
        <ele>355.4</ele>
        <time>2014-05-25T10:50:29Z</time>
      </trkpt>
      <trkpt lat="47.19161" lon="5.55006">
        <ele>354</ele>
        <time>2014-05-25T10:50:31Z</time>
      </trkpt>
      <trkpt lat="47.19154" lon="5.5499">
        <ele>352.3</ele>
        <time>2014-05-25T10:50:33Z</time>
      </trkpt>
      <trkpt lat="47.19147" lon="5.54972">
        <ele>350.5</ele>
        <time>2014-05-25T10:50:35Z</time>
      </trkpt>
      <trkpt lat="47.19138" lon="5.54951">
        <ele>349.5</ele>
        <time>2014-05-25T10:50:37Z</time>
      </trkpt>
      <trkpt lat="47.1912" lon="5.54912">
        <ele>347.4</ele>
        <time>2014-05-25T10:50:41Z</time>
      </trkpt>
      <trkpt lat="47.19114" lon="5.54895">
        <ele>346.3</ele>
        <time>2014-05-25T10:50:43Z</time>
      </trkpt>
      <trkpt lat="47.19108" lon="5.54879">
        <ele>344.5</ele>
        <time>2014-05-25T10:50:45Z</time>
      </trkpt>
      <trkpt lat="47.19101" lon="5.54861">
        <ele>343.4</ele>
        <time>2014-05-25T10:50:47Z</time>
      </trkpt>
      <trkpt lat="47.19093" lon="5.54844">
        <ele>342.1</ele>
        <time>2014-05-25T10:50:49Z</time>
      </trkpt>
      <trkpt lat="47.19089" lon="5.5483">
        <ele>340.8</ele>
        <time>2014-05-25T10:50:51Z</time>
      </trkpt>
      <trkpt lat="47.1908" lon="5.54817">
        <ele>339.1</ele>
        <time>2014-05-25T10:50:54Z</time>
      </trkpt>
      <trkpt lat="47.19072" lon="5.5481">
        <ele>338.7</ele>
        <time>2014-05-25T10:50:57Z</time>
      </trkpt>
      <trkpt lat="47.19063" lon="5.54814">
        <ele>338.6</ele>
        <time>2014-05-25T10:51:01Z</time>
      </trkpt>
      <trkpt lat="47.19054" lon="5.54819">
        <ele>339.8</ele>
        <time>2014-05-25T10:51:07Z</time>
      </trkpt>
      <trkpt lat="47.19045" lon="5.54826">
        <ele>340.6</ele>
        <time>2014-05-25T10:51:14Z</time>
      </trkpt>
      <trkpt lat="47.19037" lon="5.54835">
        <ele>341</ele>
        <time>2014-05-25T10:51:20Z</time>
      </trkpt>
      <trkpt lat="47.19028" lon="5.54843">
        <ele>342.3</ele>
        <time>2014-05-25T10:51:25Z</time>
      </trkpt>
      <trkpt lat="47.19019" lon="5.5485">
        <ele>342.9</ele>
        <time>2014-05-25T10:51:30Z</time>
      </trkpt>
      <trkpt lat="47.1901" lon="5.54856">
        <ele>343.8</ele>
        <time>2014-05-25T10:51:35Z</time>
      </trkpt>
      <trkpt lat="47.19" lon="5.54863">
        <ele>344.7</ele>
        <time>2014-05-25T10:51:41Z</time>
      </trkpt>
      <trkpt lat="47.18982" lon="5.54878">
        <ele>346.5</ele>
        <time>2014-05-25T10:51:52Z</time>
      </trkpt>
      <trkpt lat="47.18972" lon="5.54885">
        <ele>346.7</ele>
        <time>2014-05-25T10:51:57Z</time>
      </trkpt>
      <trkpt lat="47.18965" lon="5.54895">
        <ele>347.1</ele>
        <time>2014-05-25T10:52:03Z</time>
      </trkpt>
      <trkpt lat="47.18958" lon="5.54903">
        <ele>347.7</ele>
        <time>2014-05-25T10:52:08Z</time>
      </trkpt>
      <trkpt lat="47.1895" lon="5.54912">
        <ele>347</ele>
        <time>2014-05-25T10:52:14Z</time>
      </trkpt>
      <trkpt lat="47.18944" lon="5.54923">
        <ele>344.2</ele>
        <time>2014-05-25T10:52:25Z</time>
      </trkpt>
      <trkpt lat="47.18936" lon="5.54929">
        <ele>338.2</ele>
        <time>2014-05-25T10:52:42Z</time>
      </trkpt>
      <trkpt lat="47.18919" lon="5.54942">
        <ele>344.8</ele>
        <time>2014-05-25T10:53:29Z</time>
      </trkpt>
      <trkpt lat="47.18911" lon="5.5495">
        <ele>344.9</ele>
        <time>2014-05-25T10:53:36Z</time>
      </trkpt>
      <trkpt lat="47.18901" lon="5.54956">
        <ele>345.3</ele>
        <time>2014-05-25T10:53:42Z</time>
      </trkpt>
      <trkpt lat="47.18892" lon="5.54968">
        <ele>346</ele>
        <time>2014-05-25T10:53:47Z</time>
      </trkpt>
      <trkpt lat="47.18878" lon="5.54986">
        <ele>347</ele>
        <time>2014-05-25T10:53:59Z</time>
      </trkpt>
      <trkpt lat="47.1887" lon="5.54992">
        <ele>347.8</ele>
        <time>2014-05-25T10:54:05Z</time>
      </trkpt>
      <trkpt lat="47.18861" lon="5.54999">
        <ele>349</ele>
        <time>2014-05-25T10:54:12Z</time>
      </trkpt>
      <trkpt lat="47.18851" lon="5.55004">
        <ele>350.3</ele>
        <time>2014-05-25T10:54:18Z</time>
      </trkpt>
      <trkpt lat="47.18841" lon="5.55008">
        <ele>351</ele>
        <time>2014-05-25T10:54:23Z</time>
      </trkpt>
      <trkpt lat="47.18833" lon="5.55015">
        <ele>352.1</ele>
        <time>2014-05-25T10:54:29Z</time>
      </trkpt>
      <trkpt lat="47.18825" lon="5.55024">
        <ele>353.3</ele>
        <time>2014-05-25T10:54:39Z</time>
      </trkpt>
      <trkpt lat="47.18818" lon="5.55035">
        <ele>354.4</ele>
        <time>2014-05-25T10:54:47Z</time>
      </trkpt>
      <trkpt lat="47.18812" lon="5.55046">
        <ele>355.3</ele>
        <time>2014-05-25T10:54:54Z</time>
      </trkpt>
      <trkpt lat="47.18795" lon="5.55058">
        <ele>354.6</ele>
        <time>2014-05-25T10:55:07Z</time>
      </trkpt>
      <trkpt lat="47.18787" lon="5.55051">
        <ele>355.1</ele>
        <time>2014-05-25T10:55:16Z</time>
      </trkpt>
      <trkpt lat="47.18778" lon="5.55046">
        <ele>355.9</ele>
        <time>2014-05-25T10:55:21Z</time>
      </trkpt>
      <trkpt lat="47.18774" lon="5.55033">
        <ele>357.4</ele>
        <time>2014-05-25T10:55:30Z</time>
      </trkpt>
      <trkpt lat="47.18771" lon="5.5502">
        <ele>358.1</ele>
        <time>2014-05-25T10:55:39Z</time>
      </trkpt>
      <trkpt lat="47.18769" lon="5.55005">
        <ele>358</ele>
        <time>2014-05-25T10:55:44Z</time>
      </trkpt>
      <trkpt lat="47.18772" lon="5.54988">
        <ele>357.4</ele>
        <time>2014-05-25T10:55:48Z</time>
      </trkpt>
      <trkpt lat="47.18775" lon="5.54972">
        <ele>357.4</ele>
        <time>2014-05-25T10:55:52Z</time>
      </trkpt>
      <trkpt lat="47.18775" lon="5.54958">
        <ele>357.7</ele>
        <time>2014-05-25T10:55:56Z</time>
      </trkpt>
      <trkpt lat="47.18766" lon="5.54931">
        <ele>358.4</ele>
        <time>2014-05-25T10:56:04Z</time>
      </trkpt>
      <trkpt lat="47.1876" lon="5.54918">
        <ele>358.9</ele>
        <time>2014-05-25T10:56:09Z</time>
      </trkpt>
      <trkpt lat="47.18755" lon="5.54907">
        <ele>360.2</ele>
        <time>2014-05-25T10:56:14Z</time>
      </trkpt>
      <trkpt lat="47.18749" lon="5.54895">
        <ele>360.8</ele>
        <time>2014-05-25T10:56:19Z</time>
      </trkpt>
      <trkpt lat="47.18742" lon="5.54886">
        <ele>361.5</ele>
        <time>2014-05-25T10:56:24Z</time>
      </trkpt>
      <trkpt lat="47.18738" lon="5.54871">
        <ele>362.1</ele>
        <time>2014-05-25T10:56:30Z</time>
      </trkpt>
      <trkpt lat="47.1873" lon="5.54862">
        <ele>362.2</ele>
        <time>2014-05-25T10:56:33Z</time>
      </trkpt>
      <trkpt lat="47.18721" lon="5.54854">
        <ele>362.3</ele>
        <time>2014-05-25T10:56:37Z</time>
      </trkpt>
      <trkpt lat="47.18712" lon="5.54849">
        <ele>363</ele>
        <time>2014-05-25T10:56:44Z</time>
      </trkpt>
      <trkpt lat="47.18703" lon="5.54841">
        <ele>363.9</ele>
        <time>2014-05-25T10:56:50Z</time>
      </trkpt>
      <trkpt lat="47.18696" lon="5.54829">
        <ele>364.5</ele>
        <time>2014-05-25T10:56:55Z</time>
      </trkpt>
      <trkpt lat="47.1869" lon="5.54817">
        <ele>364.1</ele>
        <time>2014-05-25T10:56:59Z</time>
      </trkpt>
      <trkpt lat="47.18685" lon="5.54788">
        <ele>363.4</ele>
        <time>2014-05-25T10:57:08Z</time>
      </trkpt>
      <trkpt lat="47.18684" lon="5.54771">
        <ele>363.6</ele>
        <time>2014-05-25T10:57:11Z</time>
      </trkpt>
      <trkpt lat="47.18684" lon="5.54754">
        <ele>362.9</ele>
        <time>2014-05-25T10:57:14Z</time>
      </trkpt>
      <trkpt lat="47.18686" lon="5.5474">
        <ele>362</ele>
        <time>2014-05-25T10:57:17Z</time>
      </trkpt>
      <trkpt lat="47.18692" lon="5.5473">
        <ele>360.9</ele>
        <time>2014-05-25T10:57:19Z</time>
      </trkpt>
      <trkpt lat="47.18698" lon="5.54718">
        <ele>360.2</ele>
        <time>2014-05-25T10:57:21Z</time>
      </trkpt>
      <trkpt lat="47.18705" lon="5.54706">
        <ele>359.7</ele>
        <time>2014-05-25T10:57:23Z</time>
      </trkpt>
      <trkpt lat="47.18717" lon="5.54694">
        <ele>359.2</ele>
        <time>2014-05-25T10:57:25Z</time>
      </trkpt>
      <trkpt lat="47.18725" lon="5.54685">
        <ele>358.3</ele>
        <time>2014-05-25T10:57:27Z</time>
      </trkpt>
      <trkpt lat="47.18731" lon="5.54673">
        <ele>357.7</ele>
        <time>2014-05-25T10:57:29Z</time>
      </trkpt>
      <trkpt lat="47.18729" lon="5.54659">
        <ele>357.6</ele>
        <time>2014-05-25T10:57:32Z</time>
      </trkpt>
      <trkpt lat="47.18725" lon="5.54644">
        <ele>357.2</ele>
        <time>2014-05-25T10:57:37Z</time>
      </trkpt>
      <trkpt lat="47.18716" lon="5.54632">
        <ele>357.7</ele>
        <time>2014-05-25T10:57:41Z</time>
      </trkpt>
      <trkpt lat="47.1871" lon="5.54621">
        <ele>357.4</ele>
        <time>2014-05-25T10:57:44Z</time>
      </trkpt>
      <trkpt lat="47.18706" lon="5.54608">
        <ele>356.4</ele>
        <time>2014-05-25T10:57:47Z</time>
      </trkpt>
      <trkpt lat="47.18696" lon="5.54598">
        <ele>355.7</ele>
        <time>2014-05-25T10:57:50Z</time>
      </trkpt>
      <trkpt lat="47.18689" lon="5.54587">
        <ele>355.2</ele>
        <time>2014-05-25T10:57:54Z</time>
      </trkpt>
      <trkpt lat="47.1869" lon="5.5457">
        <ele>355</ele>
        <time>2014-05-25T10:57:57Z</time>
      </trkpt>
      <trkpt lat="47.18688" lon="5.54554">
        <ele>355</ele>
        <time>2014-05-25T10:58:00Z</time>
      </trkpt>
      <trkpt lat="47.1867" lon="5.54536">
        <ele>355</ele>
        <time>2014-05-25T10:58:06Z</time>
      </trkpt>
      <trkpt lat="47.18663" lon="5.54528">
        <ele>354.2</ele>
        <time>2014-05-25T10:58:09Z</time>
      </trkpt>
      <trkpt lat="47.18668" lon="5.54512">
        <ele>353.6</ele>
        <time>2014-05-25T10:58:13Z</time>
      </trkpt>
      <trkpt lat="47.18669" lon="5.54493">
        <ele>352.9</ele>
        <time>2014-05-25T10:58:16Z</time>
      </trkpt>
      <trkpt lat="47.18667" lon="5.54479">
        <ele>352</ele>
        <time>2014-05-25T10:58:18Z</time>
      </trkpt>
      <trkpt lat="47.18664" lon="5.54462">
        <ele>351.9</ele>
        <time>2014-05-25T10:58:20Z</time>
      </trkpt>
      <trkpt lat="47.18664" lon="5.54447">
        <ele>351.3</ele>
        <time>2014-05-25T10:58:22Z</time>
      </trkpt>
      <trkpt lat="47.18669" lon="5.54433">
        <ele>350.2</ele>
        <time>2014-05-25T10:58:24Z</time>
      </trkpt>
      <trkpt lat="47.18673" lon="5.54415">
        <ele>348.8</ele>
        <time>2014-05-25T10:58:26Z</time>
      </trkpt>
      <trkpt lat="47.18672" lon="5.54398">
        <ele>347.8</ele>
        <time>2014-05-25T10:58:28Z</time>
      </trkpt>
      <trkpt lat="47.18669" lon="5.5438">
        <ele>346.4</ele>
        <time>2014-05-25T10:58:30Z</time>
      </trkpt>
      <trkpt lat="47.18667" lon="5.54363">
        <ele>344.9</ele>
        <time>2014-05-25T10:58:32Z</time>
      </trkpt>
      <trkpt lat="47.18665" lon="5.54345">
        <ele>343.4</ele>
        <time>2014-05-25T10:58:34Z</time>
      </trkpt>
      <trkpt lat="47.18664" lon="5.54329">
        <ele>341.8</ele>
        <time>2014-05-25T10:58:36Z</time>
      </trkpt>
      <trkpt lat="47.18665" lon="5.54314">
        <ele>340.1</ele>
        <time>2014-05-25T10:58:38Z</time>
      </trkpt>
      <trkpt lat="47.18669" lon="5.543">
        <ele>337.7</ele>
        <time>2014-05-25T10:58:40Z</time>
      </trkpt>
      <trkpt lat="47.18673" lon="5.54284">
        <ele>333.7</ele>
        <time>2014-05-25T10:58:43Z</time>
      </trkpt>
      <trkpt lat="47.18677" lon="5.54271">
        <ele>331.6</ele>
        <time>2014-05-25T10:58:46Z</time>
      </trkpt>
      <trkpt lat="47.18674" lon="5.54255">
        <ele>329</ele>
        <time>2014-05-25T10:58:50Z</time>
      </trkpt>
      <trkpt lat="47.18671" lon="5.54239">
        <ele>328</ele>
        <time>2014-05-25T10:58:53Z</time>
      </trkpt>
      <trkpt lat="47.18666" lon="5.54223">
        <ele>326.7</ele>
        <time>2014-05-25T10:58:56Z</time>
      </trkpt>
      <trkpt lat="47.18665" lon="5.54206">
        <ele>325.7</ele>
        <time>2014-05-25T10:58:58Z</time>
      </trkpt>
      <trkpt lat="47.18663" lon="5.5419">
        <ele>324.8</ele>
        <time>2014-05-25T10:59:00Z</time>
      </trkpt>
      <trkpt lat="47.18663" lon="5.54175">
        <ele>322.9</ele>
        <time>2014-05-25T10:59:03Z</time>
      </trkpt>
      <trkpt lat="47.18669" lon="5.54149">
        <ele>325.2</ele>
        <time>2014-05-25T10:59:17Z</time>
      </trkpt>
      <trkpt lat="47.18676" lon="5.54138">
        <ele>327.1</ele>
        <time>2014-05-25T10:59:28Z</time>
      </trkpt>
      <trkpt lat="47.18684" lon="5.5413">
        <ele>328.1</ele>
        <time>2014-05-25T10:59:33Z</time>
      </trkpt>
      <trkpt lat="47.18692" lon="5.54121">
        <ele>329.3</ele>
        <time>2014-05-25T10:59:41Z</time>
      </trkpt>
      <trkpt lat="47.18701" lon="5.54113">
        <ele>330.7</ele>
        <time>2014-05-25T10:59:49Z</time>
      </trkpt>
      <trkpt lat="47.18709" lon="5.54107">
        <ele>331.7</ele>
        <time>2014-05-25T10:59:56Z</time>
      </trkpt>
      <trkpt lat="47.18717" lon="5.54099">
        <ele>332.8</ele>
        <time>2014-05-25T11:00:02Z</time>
      </trkpt>
      <trkpt lat="47.18721" lon="5.54087">
        <ele>334.3</ele>
        <time>2014-05-25T11:00:12Z</time>
      </trkpt>
      <trkpt lat="47.18737" lon="5.54068">
        <ele>336.6</ele>
        <time>2014-05-25T11:00:25Z</time>
      </trkpt>
      <trkpt lat="47.18744" lon="5.5406">
        <ele>337.6</ele>
        <time>2014-05-25T11:00:31Z</time>
      </trkpt>
      <trkpt lat="47.1874" lon="5.54048">
        <ele>338.6</ele>
        <time>2014-05-25T11:00:42Z</time>
      </trkpt>
      <trkpt lat="47.18735" lon="5.54036">
        <ele>341</ele>
        <time>2014-05-25T11:00:51Z</time>
      </trkpt>
      <trkpt lat="47.18731" lon="5.54024">
        <ele>342</ele>
        <time>2014-05-25T11:00:59Z</time>
      </trkpt>
      <trkpt lat="47.18729" lon="5.5401">
        <ele>343</ele>
        <time>2014-05-25T11:01:06Z</time>
      </trkpt>
      <trkpt lat="47.18724" lon="5.53999">
        <ele>344</ele>
        <time>2014-05-25T11:01:13Z</time>
      </trkpt>
      <trkpt lat="47.18713" lon="5.53977">
        <ele>345.4</ele>
        <time>2014-05-25T11:01:25Z</time>
      </trkpt>
      <trkpt lat="47.18707" lon="5.53965">
        <ele>346.4</ele>
        <time>2014-05-25T11:01:31Z</time>
      </trkpt>
      <trkpt lat="47.18704" lon="5.5395">
        <ele>346.4</ele>
        <time>2014-05-25T11:01:35Z</time>
      </trkpt>
      <trkpt lat="47.18699" lon="5.53938">
        <ele>346.8</ele>
        <time>2014-05-25T11:01:40Z</time>
      </trkpt>
      <trkpt lat="47.18692" lon="5.53929">
        <ele>347.3</ele>
        <time>2014-05-25T11:01:44Z</time>
      </trkpt>
      <trkpt lat="47.18687" lon="5.53918">
        <ele>347.4</ele>
        <time>2014-05-25T11:01:48Z</time>
      </trkpt>
      <trkpt lat="47.18683" lon="5.53903">
        <ele>348.2</ele>
        <time>2014-05-25T11:01:53Z</time>
      </trkpt>
      <trkpt lat="47.18678" lon="5.5389">
        <ele>348.9</ele>
        <time>2014-05-25T11:01:58Z</time>
      </trkpt>
      <trkpt lat="47.18674" lon="5.53878">
        <ele>348.8</ele>
        <time>2014-05-25T11:02:02Z</time>
      </trkpt>
      <trkpt lat="47.18668" lon="5.53863">
        <ele>349</ele>
        <time>2014-05-25T11:02:06Z</time>
      </trkpt>
      <trkpt lat="47.18664" lon="5.5385">
        <ele>349.1</ele>
        <time>2014-05-25T11:02:10Z</time>
      </trkpt>
      <trkpt lat="47.18656" lon="5.53838">
        <ele>349.5</ele>
        <time>2014-05-25T11:02:15Z</time>
      </trkpt>
      <trkpt lat="47.18651" lon="5.5381">
        <ele>349.7</ele>
        <time>2014-05-25T11:02:22Z</time>
      </trkpt>
      <trkpt lat="47.18658" lon="5.53799">
        <ele>349.8</ele>
        <time>2014-05-25T11:02:25Z</time>
      </trkpt>
      <trkpt lat="47.18665" lon="5.53787">
        <ele>350</ele>
        <time>2014-05-25T11:02:29Z</time>
      </trkpt>
      <trkpt lat="47.18674" lon="5.53774">
        <ele>349.7</ele>
        <time>2014-05-25T11:02:33Z</time>
      </trkpt>
      <trkpt lat="47.18681" lon="5.53762">
        <ele>350.1</ele>
        <time>2014-05-25T11:02:36Z</time>
      </trkpt>
      <trkpt lat="47.18688" lon="5.5375">
        <ele>350.1</ele>
        <time>2014-05-25T11:02:40Z</time>
      </trkpt>
      <trkpt lat="47.18695" lon="5.5374">
        <ele>350.6</ele>
        <time>2014-05-25T11:02:43Z</time>
      </trkpt>
      <trkpt lat="47.18703" lon="5.53732">
        <ele>350.7</ele>
        <time>2014-05-25T11:02:46Z</time>
      </trkpt>
      <trkpt lat="47.18712" lon="5.5372">
        <ele>351.5</ele>
        <time>2014-05-25T11:02:50Z</time>
      </trkpt>
      <trkpt lat="47.18719" lon="5.53708">
        <ele>352</ele>
        <time>2014-05-25T11:02:54Z</time>
      </trkpt>
      <trkpt lat="47.18728" lon="5.537">
        <ele>352.6</ele>
        <time>2014-05-25T11:02:58Z</time>
      </trkpt>
      <trkpt lat="47.18736" lon="5.53692">
        <ele>352.8</ele>
        <time>2014-05-25T11:03:02Z</time>
      </trkpt>
      <trkpt lat="47.18746" lon="5.53682">
        <ele>353.2</ele>
        <time>2014-05-25T11:03:05Z</time>
      </trkpt>
      <trkpt lat="47.18754" lon="5.53672">
        <ele>353.7</ele>
        <time>2014-05-25T11:03:08Z</time>
      </trkpt>
      <trkpt lat="47.18762" lon="5.5366">
        <ele>353.9</ele>
        <time>2014-05-25T11:03:12Z</time>
      </trkpt>
      <trkpt lat="47.18769" lon="5.53648">
        <ele>354.5</ele>
        <time>2014-05-25T11:03:16Z</time>
      </trkpt>
      <trkpt lat="47.18777" lon="5.5364">
        <ele>354.8</ele>
        <time>2014-05-25T11:03:19Z</time>
      </trkpt>
      <trkpt lat="47.18791" lon="5.53622">
        <ele>355.1</ele>
        <time>2014-05-25T11:03:25Z</time>
      </trkpt>
      <trkpt lat="47.188" lon="5.5361">
        <ele>355</ele>
        <time>2014-05-25T11:03:29Z</time>
      </trkpt>
      <trkpt lat="47.18807" lon="5.53603">
        <ele>355</ele>
        <time>2014-05-25T11:03:32Z</time>
      </trkpt>
      <trkpt lat="47.18802" lon="5.53589">
        <ele>355.1</ele>
        <time>2014-05-25T11:03:35Z</time>
      </trkpt>
      <trkpt lat="47.18795" lon="5.53576">
        <ele>354.4</ele>
        <time>2014-05-25T11:03:39Z</time>
      </trkpt>
      <trkpt lat="47.1879" lon="5.53562">
        <ele>354.9</ele>
        <time>2014-05-25T11:03:42Z</time>
      </trkpt>
      <trkpt lat="47.18782" lon="5.53546">
        <ele>354.2</ele>
        <time>2014-05-25T11:03:45Z</time>
      </trkpt>
      <trkpt lat="47.18777" lon="5.53535">
        <ele>353.7</ele>
        <time>2014-05-25T11:03:47Z</time>
      </trkpt>
      <trkpt lat="47.18771" lon="5.53524">
        <ele>352.7</ele>
        <time>2014-05-25T11:03:49Z</time>
      </trkpt>
      <trkpt lat="47.18764" lon="5.53512">
        <ele>352</ele>
        <time>2014-05-25T11:03:51Z</time>
      </trkpt>
      <trkpt lat="47.18758" lon="5.535">
        <ele>352.1</ele>
        <time>2014-05-25T11:03:53Z</time>
      </trkpt>
      <trkpt lat="47.18752" lon="5.53487">
        <ele>351.9</ele>
        <time>2014-05-25T11:03:55Z</time>
      </trkpt>
      <trkpt lat="47.18745" lon="5.53475">
        <ele>351.5</ele>
        <time>2014-05-25T11:03:57Z</time>
      </trkpt>
      <trkpt lat="47.18739" lon="5.53462">
        <ele>351</ele>
        <time>2014-05-25T11:03:59Z</time>
      </trkpt>
      <trkpt lat="47.18733" lon="5.53451">
        <ele>350.5</ele>
        <time>2014-05-25T11:04:01Z</time>
      </trkpt>
      <trkpt lat="47.18727" lon="5.53438">
        <ele>350.4</ele>
        <time>2014-05-25T11:04:03Z</time>
      </trkpt>
      <trkpt lat="47.1872" lon="5.53425">
        <ele>349.7</ele>
        <time>2014-05-25T11:04:05Z</time>
      </trkpt>
      <trkpt lat="47.18711" lon="5.5341">
        <ele>349.2</ele>
        <time>2014-05-25T11:04:07Z</time>
      </trkpt>
      <trkpt lat="47.18703" lon="5.53395">
        <ele>348.6</ele>
        <time>2014-05-25T11:04:09Z</time>
      </trkpt>
      <trkpt lat="47.18696" lon="5.53382">
        <ele>347.7</ele>
        <time>2014-05-25T11:04:11Z</time>
      </trkpt>
      <trkpt lat="47.1869" lon="5.53369">
        <ele>346.9</ele>
        <time>2014-05-25T11:04:13Z</time>
      </trkpt>
      <trkpt lat="47.18684" lon="5.53355">
        <ele>345.3</ele>
        <time>2014-05-25T11:04:15Z</time>
      </trkpt>
      <trkpt lat="47.18677" lon="5.5334">
        <ele>344.1</ele>
        <time>2014-05-25T11:04:17Z</time>
      </trkpt>
      <trkpt lat="47.1867" lon="5.53327">
        <ele>343.2</ele>
        <time>2014-05-25T11:04:19Z</time>
      </trkpt>
      <trkpt lat="47.18663" lon="5.53316">
        <ele>342.3</ele>
        <time>2014-05-25T11:04:21Z</time>
      </trkpt>
      <trkpt lat="47.18647" lon="5.53289">
        <ele>338.2</ele>
        <time>2014-05-25T11:04:27Z</time>
      </trkpt>
      <trkpt lat="47.18639" lon="5.53276">
        <ele>335.8</ele>
        <time>2014-05-25T11:04:30Z</time>
      </trkpt>
      <trkpt lat="47.18633" lon="5.53263">
        <ele>333</ele>
        <time>2014-05-25T11:04:33Z</time>
      </trkpt>
      <trkpt lat="47.18627" lon="5.53253">
        <ele>330.6</ele>
        <time>2014-05-25T11:04:36Z</time>
      </trkpt>
      <trkpt lat="47.18618" lon="5.53239">
        <ele>328.3</ele>
        <time>2014-05-25T11:04:39Z</time>
      </trkpt>
      <trkpt lat="47.18613" lon="5.53226">
        <ele>325.6</ele>
        <time>2014-05-25T11:04:42Z</time>
      </trkpt>
      <trkpt lat="47.18608" lon="5.53212">
        <ele>322.8</ele>
        <time>2014-05-25T11:04:46Z</time>
      </trkpt>
      <trkpt lat="47.18603" lon="5.53199">
        <ele>321.8</ele>
        <time>2014-05-25T11:04:50Z</time>
      </trkpt>
      <trkpt lat="47.18596" lon="5.53188">
        <ele>331.4</ele>
        <time>2014-05-25T11:06:28Z</time>
      </trkpt>
      <trkpt lat="47.18584" lon="5.5316">
        <ele>331.8</ele>
        <time>2014-05-25T11:06:37Z</time>
      </trkpt>
      <trkpt lat="47.18577" lon="5.53148">
        <ele>332</ele>
        <time>2014-05-25T11:06:41Z</time>
      </trkpt>
      <trkpt lat="47.18572" lon="5.53136">
        <ele>332.4</ele>
        <time>2014-05-25T11:06:45Z</time>
      </trkpt>
      <trkpt lat="47.18567" lon="5.53124">
        <ele>332.6</ele>
        <time>2014-05-25T11:06:49Z</time>
      </trkpt>
      <trkpt lat="47.18562" lon="5.53112">
        <ele>332.6</ele>
        <time>2014-05-25T11:06:53Z</time>
      </trkpt>
      <trkpt lat="47.18557" lon="5.531">
        <ele>331.7</ele>
        <time>2014-05-25T11:06:56Z</time>
      </trkpt>
      <trkpt lat="47.18551" lon="5.53086">
        <ele>330.1</ele>
        <time>2014-05-25T11:07:00Z</time>
      </trkpt>
      <trkpt lat="47.18546" lon="5.53072">
        <ele>330.8</ele>
        <time>2014-05-25T11:07:03Z</time>
      </trkpt>
      <trkpt lat="47.18542" lon="5.53059">
        <ele>330.8</ele>
        <time>2014-05-25T11:07:06Z</time>
      </trkpt>
      <trkpt lat="47.18535" lon="5.53045">
        <ele>329.5</ele>
        <time>2014-05-25T11:07:09Z</time>
      </trkpt>
      <trkpt lat="47.18529" lon="5.53035">
        <ele>329.3</ele>
        <time>2014-05-25T11:07:11Z</time>
      </trkpt>
      <trkpt lat="47.18524" lon="5.53019">
        <ele>329.1</ele>
        <time>2014-05-25T11:07:14Z</time>
      </trkpt>
      <trkpt lat="47.18519" lon="5.53007">
        <ele>328.2</ele>
        <time>2014-05-25T11:07:16Z</time>
      </trkpt>
      <trkpt lat="47.18512" lon="5.52997">
        <ele>327.3</ele>
        <time>2014-05-25T11:07:18Z</time>
      </trkpt>
      <trkpt lat="47.18506" lon="5.52986">
        <ele>326.6</ele>
        <time>2014-05-25T11:07:20Z</time>
      </trkpt>
      <trkpt lat="47.18498" lon="5.5297">
        <ele>325.3</ele>
        <time>2014-05-25T11:07:23Z</time>
      </trkpt>
      <trkpt lat="47.18491" lon="5.52955">
        <ele>324.2</ele>
        <time>2014-05-25T11:07:26Z</time>
      </trkpt>
      <trkpt lat="47.18484" lon="5.52941">
        <ele>322.2</ele>
        <time>2014-05-25T11:07:30Z</time>
      </trkpt>
      <trkpt lat="47.18475" lon="5.52917">
        <ele>304.4</ele>
        <time>2014-05-25T11:09:39Z</time>
      </trkpt>
      <trkpt lat="47.18477" lon="5.52887">
        <ele>302.2</ele>
        <time>2014-05-25T11:09:51Z</time>
      </trkpt>
      <trkpt lat="47.18474" lon="5.52872">
        <ele>300.1</ele>
        <time>2014-05-25T11:09:57Z</time>
      </trkpt>
      <trkpt lat="47.18467" lon="5.52853">
        <ele>296.7</ele>
        <time>2014-05-25T11:10:09Z</time>
      </trkpt>
      <trkpt lat="47.1846" lon="5.52846">
        <ele>295.9</ele>
        <time>2014-05-25T11:10:16Z</time>
      </trkpt>
      <trkpt lat="47.18457" lon="5.52832">
        <ele>291.7</ele>
        <time>2014-05-25T11:10:37Z</time>
      </trkpt>
      <trkpt lat="47.1845" lon="5.52816">
        <ele>288</ele>
        <time>2014-05-25T11:10:49Z</time>
      </trkpt>
      <trkpt lat="47.1842" lon="5.52784">
        <ele>289</ele>
        <time>2014-05-25T11:11:19Z</time>
      </trkpt>
      <trkpt lat="47.18412" lon="5.52776">
        <ele>289</ele>
        <time>2014-05-25T11:11:22Z</time>
      </trkpt>
      <trkpt lat="47.18404" lon="5.52767">
        <ele>289.9</ele>
        <time>2014-05-25T11:11:29Z</time>
      </trkpt>
      <trkpt lat="47.18397" lon="5.52757">
        <ele>290.4</ele>
        <time>2014-05-25T11:11:38Z</time>
      </trkpt>
      <trkpt lat="47.18389" lon="5.52749">
        <ele>291.5</ele>
        <time>2014-05-25T11:11:42Z</time>
      </trkpt>
      <trkpt lat="47.18382" lon="5.5274">
        <ele>292.4</ele>
        <time>2014-05-25T11:11:47Z</time>
      </trkpt>
      <trkpt lat="47.18372" lon="5.52731">
        <ele>293.4</ele>
        <time>2014-05-25T11:11:52Z</time>
      </trkpt>
      <trkpt lat="47.18357" lon="5.52711">
        <ele>295.6</ele>
        <time>2014-05-25T11:12:08Z</time>
      </trkpt>
      <trkpt lat="47.18349" lon="5.52702">
        <ele>297</ele>
        <time>2014-05-25T11:12:14Z</time>
      </trkpt>
      <trkpt lat="47.18342" lon="5.52691">
        <ele>298.2</ele>
        <time>2014-05-25T11:12:24Z</time>
      </trkpt>
      <trkpt lat="47.18338" lon="5.52679">
        <ele>299.8</ele>
        <time>2014-05-25T11:12:38Z</time>
      </trkpt>
      <trkpt lat="47.1833" lon="5.52671">
        <ele>300.9</ele>
        <time>2014-05-25T11:12:44Z</time>
      </trkpt>
      <trkpt lat="47.18323" lon="5.52662">
        <ele>302.2</ele>
        <time>2014-05-25T11:12:54Z</time>
      </trkpt>
      <trkpt lat="47.18277" lon="5.52606">
        <ele>304</ele>
        <time>2014-05-25T11:13:07Z</time>
      </trkpt>
      <trkpt lat="47.18265" lon="5.52591">
        <ele>305</ele>
        <time>2014-05-25T11:13:12Z</time>
      </trkpt>
      <trkpt lat="47.18256" lon="5.52583">
        <ele>305</ele>
        <time>2014-05-25T11:13:14Z</time>
      </trkpt>
      <trkpt lat="47.18248" lon="5.52575">
        <ele>306.4</ele>
        <time>2014-05-25T11:13:23Z</time>
      </trkpt>
      <trkpt lat="47.18241" lon="5.52565">
        <ele>307.8</ele>
        <time>2014-05-25T11:13:33Z</time>
      </trkpt>
      <trkpt lat="47.18236" lon="5.52553">
        <ele>309.9</ele>
        <time>2014-05-25T11:13:45Z</time>
      </trkpt>
      <trkpt lat="47.18229" lon="5.52544">
        <ele>310.6</ele>
        <time>2014-05-25T11:13:56Z</time>
      </trkpt>
      <trkpt lat="47.18216" lon="5.52523">
        <ele>312.7</ele>
        <time>2014-05-25T11:14:26Z</time>
      </trkpt>
      <trkpt lat="47.1821" lon="5.52509">
        <ele>311.1</ele>
        <time>2014-05-25T11:14:30Z</time>
      </trkpt>
      <trkpt lat="47.18203" lon="5.52493">
        <ele>309.5</ele>
        <time>2014-05-25T11:14:33Z</time>
      </trkpt>
      <trkpt lat="47.18198" lon="5.52481">
        <ele>308.7</ele>
        <time>2014-05-25T11:14:38Z</time>
      </trkpt>
      <trkpt lat="47.18194" lon="5.52469">
        <ele>311.9</ele>
        <time>2014-05-25T11:15:00Z</time>
      </trkpt>
      <trkpt lat="47.18177" lon="5.52428">
        <ele>324.1</ele>
        <time>2014-05-25T11:16:53Z</time>
      </trkpt>
      <trkpt lat="47.1817" lon="5.52417">
        <ele>324.8</ele>
        <time>2014-05-25T11:16:56Z</time>
      </trkpt>
      <trkpt lat="47.18164" lon="5.52407">
        <ele>324.9</ele>
        <time>2014-05-25T11:16:58Z</time>
      </trkpt>
      <trkpt lat="47.18158" lon="5.52396">
        <ele>324.8</ele>
        <time>2014-05-25T11:17:01Z</time>
      </trkpt>
      <trkpt lat="47.18152" lon="5.52383">
        <ele>325.7</ele>
        <time>2014-05-25T11:17:05Z</time>
      </trkpt>
      <trkpt lat="47.18145" lon="5.52373">
        <ele>326.5</ele>
        <time>2014-05-25T11:17:08Z</time>
      </trkpt>
      <trkpt lat="47.18137" lon="5.52362">
        <ele>326.6</ele>
        <time>2014-05-25T11:17:12Z</time>
      </trkpt>
      <trkpt lat="47.18128" lon="5.52347">
        <ele>327.6</ele>
        <time>2014-05-25T11:17:16Z</time>
      </trkpt>
      <trkpt lat="47.18118" lon="5.52338">
        <ele>327.8</ele>
        <time>2014-05-25T11:17:19Z</time>
      </trkpt>
      <trkpt lat="47.1811" lon="5.52329">
        <ele>328.4</ele>
        <time>2014-05-25T11:17:23Z</time>
      </trkpt>
      <trkpt lat="47.18104" lon="5.52316">
        <ele>328.9</ele>
        <time>2014-05-25T11:17:29Z</time>
      </trkpt>
      <trkpt lat="47.18097" lon="5.52306">
        <ele>329.6</ele>
        <time>2014-05-25T11:17:34Z</time>
      </trkpt>
      <trkpt lat="47.18092" lon="5.52295">
        <ele>330.1</ele>
        <time>2014-05-25T11:17:39Z</time>
      </trkpt>
      <trkpt lat="47.18085" lon="5.52286">
        <ele>330.8</ele>
        <time>2014-05-25T11:17:44Z</time>
      </trkpt>
      <trkpt lat="47.1808" lon="5.52273">
        <ele>330.9</ele>
        <time>2014-05-25T11:17:48Z</time>
      </trkpt>
      <trkpt lat="47.18069" lon="5.52249">
        <ele>331.7</ele>
        <time>2014-05-25T11:17:57Z</time>
      </trkpt>
      <trkpt lat="47.18064" lon="5.52236">
        <ele>332.2</ele>
        <time>2014-05-25T11:18:01Z</time>
      </trkpt>
      <trkpt lat="47.18059" lon="5.52222">
        <ele>332.4</ele>
        <time>2014-05-25T11:18:05Z</time>
      </trkpt>
      <trkpt lat="47.18051" lon="5.52212">
        <ele>332.3</ele>
        <time>2014-05-25T11:18:08Z</time>
      </trkpt>
      <trkpt lat="47.18045" lon="5.52202">
        <ele>332</ele>
        <time>2014-05-25T11:18:11Z</time>
      </trkpt>
      <trkpt lat="47.18039" lon="5.52191">
        <ele>332.7</ele>
        <time>2014-05-25T11:18:14Z</time>
      </trkpt>
      <trkpt lat="47.18028" lon="5.52176">
        <ele>332.2</ele>
        <time>2014-05-25T11:18:18Z</time>
      </trkpt>
      <trkpt lat="47.18021" lon="5.52165">
        <ele>332.3</ele>
        <time>2014-05-25T11:18:21Z</time>
      </trkpt>
      <trkpt lat="47.18013" lon="5.52155">
        <ele>332.7</ele>
        <time>2014-05-25T11:18:25Z</time>
      </trkpt>
      <trkpt lat="47.18005" lon="5.52145">
        <ele>333.1</ele>
        <time>2014-05-25T11:18:29Z</time>
      </trkpt>
      <trkpt lat="47.17995" lon="5.52155">
        <ele>333.2</ele>
        <time>2014-05-25T11:18:37Z</time>
      </trkpt>
      <trkpt lat="47.17986" lon="5.52167">
        <ele>332.4</ele>
        <time>2014-05-25T11:18:40Z</time>
      </trkpt>
      <trkpt lat="47.17979" lon="5.52181">
        <ele>330.8</ele>
        <time>2014-05-25T11:18:43Z</time>
      </trkpt>
      <trkpt lat="47.17973" lon="5.52196">
        <ele>329.2</ele>
        <time>2014-05-25T11:18:46Z</time>
      </trkpt>
      <trkpt lat="47.17966" lon="5.52215">
        <ele>326.6</ele>
        <time>2014-05-25T11:18:49Z</time>
      </trkpt>
      <trkpt lat="47.17964" lon="5.52244">
        <ele>326.2</ele>
        <time>2014-05-25T11:18:57Z</time>
      </trkpt>
      <trkpt lat="47.17964" lon="5.52258">
        <ele>328.3</ele>
        <time>2014-05-25T11:19:05Z</time>
      </trkpt>
      <trkpt lat="47.1796" lon="5.52271">
        <ele>328.7</ele>
        <time>2014-05-25T11:19:10Z</time>
      </trkpt>
      <trkpt lat="47.17955" lon="5.52287">
        <ele>327.7</ele>
        <time>2014-05-25T11:19:15Z</time>
      </trkpt>
      <trkpt lat="47.17949" lon="5.52301">
        <ele>327</ele>
        <time>2014-05-25T11:19:19Z</time>
      </trkpt>
      <trkpt lat="47.1794" lon="5.52309">
        <ele>326</ele>
        <time>2014-05-25T11:19:21Z</time>
      </trkpt>
      <trkpt lat="47.17932" lon="5.52318">
        <ele>325.4</ele>
        <time>2014-05-25T11:19:24Z</time>
      </trkpt>
      <trkpt lat="47.17926" lon="5.52331">
        <ele>325.7</ele>
        <time>2014-05-25T11:19:29Z</time>
      </trkpt>
      <trkpt lat="47.1792" lon="5.52342">
        <ele>327</ele>
        <time>2014-05-25T11:19:34Z</time>
      </trkpt>
      <trkpt lat="47.17915" lon="5.52355">
        <ele>327.5</ele>
        <time>2014-05-25T11:19:40Z</time>
      </trkpt>
      <trkpt lat="47.17909" lon="5.52366">
        <ele>328.3</ele>
        <time>2014-05-25T11:19:46Z</time>
      </trkpt>
      <trkpt lat="47.17906" lon="5.52378">
        <ele>329.2</ele>
        <time>2014-05-25T11:19:52Z</time>
      </trkpt>
      <trkpt lat="47.17895" lon="5.52404">
        <ele>329.7</ele>
        <time>2014-05-25T11:20:04Z</time>
      </trkpt>
      <trkpt lat="47.17889" lon="5.52415">
        <ele>328.2</ele>
        <time>2014-05-25T11:20:07Z</time>
      </trkpt>
      <trkpt lat="47.17883" lon="5.52426">
        <ele>327.2</ele>
        <time>2014-05-25T11:20:09Z</time>
      </trkpt>
      <trkpt lat="47.17878" lon="5.52437">
        <ele>325.6</ele>
        <time>2014-05-25T11:20:12Z</time>
      </trkpt>
      <trkpt lat="47.17876" lon="5.5245">
        <ele>325.9</ele>
        <time>2014-05-25T11:20:18Z</time>
      </trkpt>
      <trkpt lat="47.17874" lon="5.52465">
        <ele>326</ele>
        <time>2014-05-25T11:20:24Z</time>
      </trkpt>
      <trkpt lat="47.17871" lon="5.52478">
        <ele>327.6</ele>
        <time>2014-05-25T11:20:32Z</time>
      </trkpt>
      <trkpt lat="47.17867" lon="5.52491">
        <ele>330.4</ele>
        <time>2014-05-25T11:20:45Z</time>
      </trkpt>
      <trkpt lat="47.17862" lon="5.52503">
        <ele>332.4</ele>
        <time>2014-05-25T11:20:52Z</time>
      </trkpt>
      <trkpt lat="47.17856" lon="5.52514">
        <ele>332.9</ele>
        <time>2014-05-25T11:20:58Z</time>
      </trkpt>
      <trkpt lat="47.17848" lon="5.52539">
        <ele>334.6</ele>
        <time>2014-05-25T11:21:14Z</time>
      </trkpt>
      <trkpt lat="47.17847" lon="5.52553">
        <ele>336.8</ele>
        <time>2014-05-25T11:21:24Z</time>
      </trkpt>
      <trkpt lat="47.17844" lon="5.52566">
        <ele>338.2</ele>
        <time>2014-05-25T11:21:35Z</time>
      </trkpt>
      <trkpt lat="47.17844" lon="5.52581">
        <ele>340.2</ele>
        <time>2014-05-25T11:21:45Z</time>
      </trkpt>
      <trkpt lat="47.17837" lon="5.52592">
        <ele>341.4</ele>
        <time>2014-05-25T11:21:57Z</time>
      </trkpt>
      <trkpt lat="47.17833" lon="5.52604">
        <ele>341.7</ele>
        <time>2014-05-25T11:22:02Z</time>
      </trkpt>
      <trkpt lat="47.17824" lon="5.52629">
        <ele>341.3</ele>
        <time>2014-05-25T11:22:17Z</time>
      </trkpt>
      <trkpt lat="47.17821" lon="5.52641">
        <ele>342.9</ele>
        <time>2014-05-25T11:22:31Z</time>
      </trkpt>
      <trkpt lat="47.17818" lon="5.52655">
        <ele>345.8</ele>
        <time>2014-05-25T11:22:45Z</time>
      </trkpt>
      <trkpt lat="47.17815" lon="5.52668">
        <ele>347.4</ele>
        <time>2014-05-25T11:22:57Z</time>
      </trkpt>
      <trkpt lat="47.1781" lon="5.5268">
        <ele>349.7</ele>
        <time>2014-05-25T11:24:29Z</time>
      </trkpt>
      <trkpt lat="47.178" lon="5.52708">
        <ele>352</ele>
        <time>2014-05-25T11:24:47Z</time>
      </trkpt>
      <trkpt lat="47.17797" lon="5.5272">
        <ele>352.7</ele>
        <time>2014-05-25T11:24:54Z</time>
      </trkpt>
      <trkpt lat="47.17795" lon="5.52734">
        <ele>353.4</ele>
        <time>2014-05-25T11:25:01Z</time>
      </trkpt>
      <trkpt lat="47.17791" lon="5.52749">
        <ele>354.5</ele>
        <time>2014-05-25T11:25:07Z</time>
      </trkpt>
      <trkpt lat="47.17787" lon="5.52761">
        <ele>354</ele>
        <time>2014-05-25T11:25:11Z</time>
      </trkpt>
      <trkpt lat="47.17781" lon="5.52772">
        <ele>353.8</ele>
        <time>2014-05-25T11:25:14Z</time>
      </trkpt>
      <trkpt lat="47.17775" lon="5.52783">
        <ele>353.1</ele>
        <time>2014-05-25T11:25:17Z</time>
      </trkpt>
      <trkpt lat="47.17766" lon="5.52792">
        <ele>352.6</ele>
        <time>2014-05-25T11:25:20Z</time>
      </trkpt>
      <trkpt lat="47.17759" lon="5.52805">
        <ele>351.6</ele>
        <time>2014-05-25T11:25:23Z</time>
      </trkpt>
      <trkpt lat="47.17753" lon="5.52815">
        <ele>350.3</ele>
        <time>2014-05-25T11:25:25Z</time>
      </trkpt>
      <trkpt lat="47.17746" lon="5.52829">
        <ele>348.7</ele>
        <time>2014-05-25T11:25:27Z</time>
      </trkpt>
      <trkpt lat="47.1774" lon="5.52844">
        <ele>346.9</ele>
        <time>2014-05-25T11:25:29Z</time>
      </trkpt>
      <trkpt lat="47.17734" lon="5.52857">
        <ele>345.3</ele>
        <time>2014-05-25T11:25:31Z</time>
      </trkpt>
      <trkpt lat="47.1773" lon="5.52888">
        <ele>342.5</ele>
        <time>2014-05-25T11:25:35Z</time>
      </trkpt>
      <trkpt lat="47.17726" lon="5.52906">
        <ele>340</ele>
        <time>2014-05-25T11:25:38Z</time>
      </trkpt>
      <trkpt lat="47.17721" lon="5.52919">
        <ele>337.4</ele>
        <time>2014-05-25T11:25:42Z</time>
      </trkpt>
      <trkpt lat="47.17721" lon="5.52934">
        <ele>336.5</ele>
        <time>2014-05-25T11:25:46Z</time>
      </trkpt>
      <trkpt lat="47.17717" lon="5.52952">
        <ele>346.7</ele>
        <time>2014-05-25T11:27:07Z</time>
      </trkpt>
      <trkpt lat="47.17701" lon="5.52972">
        <ele>347.2</ele>
        <time>2014-05-25T11:27:12Z</time>
      </trkpt>
      <trkpt lat="47.17694" lon="5.52983">
        <ele>347.8</ele>
        <time>2014-05-25T11:27:15Z</time>
      </trkpt>
      <trkpt lat="47.17685" lon="5.52988">
        <ele>348.5</ele>
        <time>2014-05-25T11:27:19Z</time>
      </trkpt>
      <trkpt lat="47.17676" lon="5.52991">
        <ele>349.1</ele>
        <time>2014-05-25T11:27:23Z</time>
      </trkpt>
      <trkpt lat="47.17667" lon="5.52995">
        <ele>349.2</ele>
        <time>2014-05-25T11:27:28Z</time>
      </trkpt>
      <trkpt lat="47.17659" lon="5.53005">
        <ele>349.4</ele>
        <time>2014-05-25T11:27:32Z</time>
      </trkpt>
      <trkpt lat="47.1765" lon="5.53008">
        <ele>350.6</ele>
        <time>2014-05-25T11:27:38Z</time>
      </trkpt>
      <trkpt lat="47.1764" lon="5.53006">
        <ele>351.1</ele>
        <time>2014-05-25T11:27:44Z</time>
      </trkpt>
      <trkpt lat="47.17631" lon="5.53002">
        <ele>352.7</ele>
        <time>2014-05-25T11:27:54Z</time>
      </trkpt>
      <trkpt lat="47.17624" lon="5.52993">
        <ele>354.4</ele>
        <time>2014-05-25T11:28:01Z</time>
      </trkpt>
      <trkpt lat="47.17616" lon="5.52988">
        <ele>354</ele>
        <time>2014-05-25T11:28:07Z</time>
      </trkpt>
      <trkpt lat="47.17607" lon="5.52984">
        <ele>355.4</ele>
        <time>2014-05-25T11:28:15Z</time>
      </trkpt>
      <trkpt lat="47.17588" lon="5.52981">
        <ele>356.5</ele>
        <time>2014-05-25T11:28:30Z</time>
      </trkpt>
      <trkpt lat="47.17579" lon="5.52983">
        <ele>357.8</ele>
        <time>2014-05-25T11:28:37Z</time>
      </trkpt>
      <trkpt lat="47.1757" lon="5.52987">
        <ele>358.8</ele>
        <time>2014-05-25T11:28:47Z</time>
      </trkpt>
      <trkpt lat="47.1756" lon="5.5299">
        <ele>359.7</ele>
        <time>2014-05-25T11:28:55Z</time>
      </trkpt>
      <trkpt lat="47.17552" lon="5.52996">
        <ele>361</ele>
        <time>2014-05-25T11:29:02Z</time>
      </trkpt>
      <trkpt lat="47.17543" lon="5.53004">
        <ele>361.7</ele>
        <time>2014-05-25T11:29:08Z</time>
      </trkpt>
      <trkpt lat="47.17535" lon="5.5301">
        <ele>361.9</ele>
        <time>2014-05-25T11:29:12Z</time>
      </trkpt>
      <trkpt lat="47.1753" lon="5.53021">
        <ele>361.8</ele>
        <time>2014-05-25T11:29:16Z</time>
      </trkpt>
      <trkpt lat="47.17526" lon="5.53037">
        <ele>362</ele>
        <time>2014-05-25T11:29:21Z</time>
      </trkpt>
      <trkpt lat="47.17518" lon="5.53062">
        <ele>361.4</ele>
        <time>2014-05-25T11:29:29Z</time>
      </trkpt>
      <trkpt lat="47.17513" lon="5.53077">
        <ele>361.6</ele>
        <time>2014-05-25T11:29:33Z</time>
      </trkpt>
      <trkpt lat="47.17505" lon="5.5309">
        <ele>361.7</ele>
        <time>2014-05-25T11:29:37Z</time>
      </trkpt>
      <trkpt lat="47.17496" lon="5.53097">
        <ele>361.6</ele>
        <time>2014-05-25T11:29:40Z</time>
      </trkpt>
      <trkpt lat="47.17486" lon="5.53103">
        <ele>360.8</ele>
        <time>2014-05-25T11:29:43Z</time>
      </trkpt>
      <trkpt lat="47.17479" lon="5.53114">
        <ele>360.4</ele>
        <time>2014-05-25T11:29:46Z</time>
      </trkpt>
      <trkpt lat="47.17469" lon="5.53123">
        <ele>359.5</ele>
        <time>2014-05-25T11:29:49Z</time>
      </trkpt>
      <trkpt lat="47.1746" lon="5.53128">
        <ele>358.9</ele>
        <time>2014-05-25T11:29:52Z</time>
      </trkpt>
      <trkpt lat="47.1745" lon="5.53122">
        <ele>357.9</ele>
        <time>2014-05-25T11:29:56Z</time>
      </trkpt>
      <trkpt lat="47.17439" lon="5.53122">
        <ele>357.1</ele>
        <time>2014-05-25T11:30:00Z</time>
      </trkpt>
      <trkpt lat="47.17429" lon="5.53119">
        <ele>356.1</ele>
        <time>2014-05-25T11:30:04Z</time>
      </trkpt>
      <trkpt lat="47.17421" lon="5.53113">
        <ele>355.8</ele>
        <time>2014-05-25T11:30:08Z</time>
      </trkpt>
      <trkpt lat="47.17413" lon="5.53109">
        <ele>355.2</ele>
        <time>2014-05-25T11:30:12Z</time>
      </trkpt>
      <trkpt lat="47.17406" lon="5.53099">
        <ele>354.4</ele>
        <time>2014-05-25T11:30:17Z</time>
      </trkpt>
      <trkpt lat="47.17396" lon="5.5309">
        <ele>353.9</ele>
        <time>2014-05-25T11:30:21Z</time>
      </trkpt>
      <trkpt lat="47.17387" lon="5.53082">
        <ele>352.8</ele>
        <time>2014-05-25T11:30:25Z</time>
      </trkpt>
      <trkpt lat="47.17369" lon="5.53067">
        <ele>349.6</ele>
        <time>2014-05-25T11:30:33Z</time>
      </trkpt>
      <trkpt lat="47.17359" lon="5.53062">
        <ele>347.7</ele>
        <time>2014-05-25T11:30:38Z</time>
      </trkpt>
      <trkpt lat="47.17349" lon="5.53057">
        <ele>347.2</ele>
        <time>2014-05-25T11:30:41Z</time>
      </trkpt>
      <trkpt lat="47.1734" lon="5.53051">
        <ele>345.5</ele>
        <time>2014-05-25T11:30:44Z</time>
      </trkpt>
      <trkpt lat="47.1733" lon="5.53041">
        <ele>344.3</ele>
        <time>2014-05-25T11:30:47Z</time>
      </trkpt>
      <trkpt lat="47.17322" lon="5.53035">
        <ele>343</ele>
        <time>2014-05-25T11:30:49Z</time>
      </trkpt>
      <trkpt lat="47.17314" lon="5.53028">
        <ele>341.8</ele>
        <time>2014-05-25T11:30:51Z</time>
      </trkpt>
      <trkpt lat="47.17304" lon="5.5302">
        <ele>340.7</ele>
        <time>2014-05-25T11:30:53Z</time>
      </trkpt>
      <trkpt lat="47.17293" lon="5.53013">
        <ele>339.4</ele>
        <time>2014-05-25T11:30:56Z</time>
      </trkpt>
      <trkpt lat="47.17286" lon="5.53004">
        <ele>337.8</ele>
        <time>2014-05-25T11:31:02Z</time>
      </trkpt>
      <trkpt lat="47.17278" lon="5.52998">
        <ele>335.2</ele>
        <time>2014-05-25T11:31:15Z</time>
      </trkpt>
      <trkpt lat="47.17265" lon="5.52992">
        <ele>335.1</ele>
        <time>2014-05-25T11:31:48Z</time>
      </trkpt>
      <trkpt lat="47.17245" lon="5.5298">
        <ele>333.4</ele>
        <time>2014-05-25T11:31:55Z</time>
      </trkpt>
      <trkpt lat="47.17236" lon="5.52976">
        <ele>333.1</ele>
        <time>2014-05-25T11:32:04Z</time>
      </trkpt>
      <trkpt lat="47.17227" lon="5.52971">
        <ele>333.2</ele>
        <time>2014-05-25T11:32:09Z</time>
      </trkpt>
      <trkpt lat="47.17219" lon="5.52964">
        <ele>333.1</ele>
        <time>2014-05-25T11:32:14Z</time>
      </trkpt>
      <trkpt lat="47.1721" lon="5.52958">
        <ele>332.1</ele>
        <time>2014-05-25T11:32:18Z</time>
      </trkpt>
      <trkpt lat="47.17199" lon="5.52955">
        <ele>331.7</ele>
        <time>2014-05-25T11:32:22Z</time>
      </trkpt>
      <trkpt lat="47.17191" lon="5.52948">
        <ele>331.4</ele>
        <time>2014-05-25T11:32:38Z</time>
      </trkpt>
      <trkpt lat="47.17182" lon="5.52943">
        <ele>330.7</ele>
        <time>2014-05-25T11:32:42Z</time>
      </trkpt>
      <trkpt lat="47.17174" lon="5.52936">
        <ele>330.2</ele>
        <time>2014-05-25T11:32:46Z</time>
      </trkpt>
      <trkpt lat="47.17165" lon="5.52929">
        <ele>329.7</ele>
        <time>2014-05-25T11:32:50Z</time>
      </trkpt>
      <trkpt lat="47.17146" lon="5.52917">
        <ele>328.3</ele>
        <time>2014-05-25T11:32:57Z</time>
      </trkpt>
      <trkpt lat="47.17137" lon="5.52916">
        <ele>326.8</ele>
        <time>2014-05-25T11:33:06Z</time>
      </trkpt>
      <trkpt lat="47.17127" lon="5.52916">
        <ele>324.9</ele>
        <time>2014-05-25T11:33:15Z</time>
      </trkpt>
      <trkpt lat="47.17119" lon="5.52909">
        <ele>324.5</ele>
        <time>2014-05-25T11:33:21Z</time>
      </trkpt>
      <trkpt lat="47.17108" lon="5.529">
        <ele>324.4</ele>
        <time>2014-05-25T11:33:26Z</time>
      </trkpt>
      <trkpt lat="47.17099" lon="5.52899">
        <ele>324.5</ele>
        <time>2014-05-25T11:33:29Z</time>
      </trkpt>
      <trkpt lat="47.17089" lon="5.52893">
        <ele>324.6</ele>
        <time>2014-05-25T11:33:35Z</time>
      </trkpt>
      <trkpt lat="47.17081" lon="5.52886">
        <ele>324.2</ele>
        <time>2014-05-25T11:33:38Z</time>
      </trkpt>
      <trkpt lat="47.17071" lon="5.52883">
        <ele>323.8</ele>
        <time>2014-05-25T11:33:41Z</time>
      </trkpt>
      <trkpt lat="47.17061" lon="5.5288">
        <ele>323.3</ele>
        <time>2014-05-25T11:33:44Z</time>
      </trkpt>
      <trkpt lat="47.17051" lon="5.52878">
        <ele>323.4</ele>
        <time>2014-05-25T11:33:48Z</time>
      </trkpt>
      <trkpt lat="47.17043" lon="5.52868">
        <ele>322.7</ele>
        <time>2014-05-25T11:33:51Z</time>
      </trkpt>
      <trkpt lat="47.17031" lon="5.52862">
        <ele>321</ele>
        <time>2014-05-25T11:33:54Z</time>
      </trkpt>
      <trkpt lat="47.17006" lon="5.52858">
        <ele>318.4</ele>
        <time>2014-05-25T11:34:00Z</time>
      </trkpt>
      <trkpt lat="47.16997" lon="5.52855">
        <ele>317.7</ele>
        <time>2014-05-25T11:34:03Z</time>
      </trkpt>
      <trkpt lat="47.16986" lon="5.52851">
        <ele>316.3</ele>
        <time>2014-05-25T11:34:07Z</time>
      </trkpt>
      <trkpt lat="47.16977" lon="5.52852">
        <ele>315.5</ele>
        <time>2014-05-25T11:34:11Z</time>
      </trkpt>
      <trkpt lat="47.16966" lon="5.5285">
        <ele>315</ele>
        <time>2014-05-25T11:34:15Z</time>
      </trkpt>
      <trkpt lat="47.16954" lon="5.52848">
        <ele>314.2</ele>
        <time>2014-05-25T11:34:19Z</time>
      </trkpt>
      <trkpt lat="47.16945" lon="5.52846">
        <ele>312.6</ele>
        <time>2014-05-25T11:34:22Z</time>
      </trkpt>
      <trkpt lat="47.16932" lon="5.52846">
        <ele>311.9</ele>
        <time>2014-05-25T11:34:24Z</time>
      </trkpt>
      <trkpt lat="47.16921" lon="5.52844">
        <ele>311.9</ele>
        <time>2014-05-25T11:34:26Z</time>
      </trkpt>
      <trkpt lat="47.16908" lon="5.52843">
        <ele>312</ele>
        <time>2014-05-25T11:34:29Z</time>
      </trkpt>
      <trkpt lat="47.16896" lon="5.52841">
        <ele>310.8</ele>
        <time>2014-05-25T11:34:32Z</time>
      </trkpt>
      <trkpt lat="47.16885" lon="5.52838">
        <ele>310</ele>
        <time>2014-05-25T11:34:35Z</time>
      </trkpt>
      <trkpt lat="47.16874" lon="5.52836">
        <ele>308.9</ele>
        <time>2014-05-25T11:34:38Z</time>
      </trkpt>
      <trkpt lat="47.1686" lon="5.52835">
        <ele>306.1</ele>
        <time>2014-05-25T11:34:42Z</time>
      </trkpt>
      <trkpt lat="47.16851" lon="5.52833">
        <ele>305.2</ele>
        <time>2014-05-25T11:34:44Z</time>
      </trkpt>
      <trkpt lat="47.16842" lon="5.52832">
        <ele>303.9</ele>
        <time>2014-05-25T11:34:46Z</time>
      </trkpt>
      <trkpt lat="47.16829" lon="5.5283">
        <ele>303.1</ele>
        <time>2014-05-25T11:34:49Z</time>
      </trkpt>
      <trkpt lat="47.16818" lon="5.52827">
        <ele>302.2</ele>
        <time>2014-05-25T11:34:52Z</time>
      </trkpt>
      <trkpt lat="47.16809" lon="5.52821">
        <ele>301.7</ele>
        <time>2014-05-25T11:34:54Z</time>
      </trkpt>
      <trkpt lat="47.168" lon="5.52817">
        <ele>301.6</ele>
        <time>2014-05-25T11:34:56Z</time>
      </trkpt>
      <trkpt lat="47.16779" lon="5.52814">
        <ele>300</ele>
        <time>2014-05-25T11:36:50Z</time>
      </trkpt>
      <trkpt lat="47.16759" lon="5.52808">
        <ele>299.8</ele>
        <time>2014-05-25T11:36:54Z</time>
      </trkpt>
      <trkpt lat="47.1675" lon="5.52806">
        <ele>299.4</ele>
        <time>2014-05-25T11:36:56Z</time>
      </trkpt>
      <trkpt lat="47.16738" lon="5.528">
        <ele>299.1</ele>
        <time>2014-05-25T11:36:59Z</time>
      </trkpt>
      <trkpt lat="47.16724" lon="5.52796">
        <ele>298.5</ele>
        <time>2014-05-25T11:37:02Z</time>
      </trkpt>
      <trkpt lat="47.16714" lon="5.52794">
        <ele>297.8</ele>
        <time>2014-05-25T11:37:04Z</time>
      </trkpt>
      <trkpt lat="47.16703" lon="5.52795">
        <ele>296.8</ele>
        <time>2014-05-25T11:37:06Z</time>
      </trkpt>
      <trkpt lat="47.16692" lon="5.52797">
        <ele>295.9</ele>
        <time>2014-05-25T11:37:08Z</time>
      </trkpt>
      <trkpt lat="47.1668" lon="5.52803">
        <ele>294.9</ele>
        <time>2014-05-25T11:37:11Z</time>
      </trkpt>
      <trkpt lat="47.16671" lon="5.52814">
        <ele>293.5</ele>
        <time>2014-05-25T11:37:15Z</time>
      </trkpt>
      <trkpt lat="47.1666" lon="5.52822">
        <ele>292.2</ele>
        <time>2014-05-25T11:37:19Z</time>
      </trkpt>
      <trkpt lat="47.16647" lon="5.52829">
        <ele>290.4</ele>
        <time>2014-05-25T11:37:22Z</time>
      </trkpt>
      <trkpt lat="47.16637" lon="5.52836">
        <ele>288.2</ele>
        <time>2014-05-25T11:37:26Z</time>
      </trkpt>
      <trkpt lat="47.16631" lon="5.52845">
        <ele>285.8</ele>
        <time>2014-05-25T11:37:41Z</time>
      </trkpt>
      <trkpt lat="47.16621" lon="5.5285">
        <ele>285.8</ele>
        <time>2014-05-25T11:37:52Z</time>
      </trkpt>
      <trkpt lat="47.16604" lon="5.52864">
        <ele>284.1</ele>
        <time>2014-05-25T11:37:59Z</time>
      </trkpt>
      <trkpt lat="47.16595" lon="5.52872">
        <ele>283.6</ele>
        <time>2014-05-25T11:38:02Z</time>
      </trkpt>
      <trkpt lat="47.16586" lon="5.5288">
        <ele>282.9</ele>
        <time>2014-05-25T11:38:08Z</time>
      </trkpt>
      <trkpt lat="47.16578" lon="5.52888">
        <ele>282.4</ele>
        <time>2014-05-25T11:38:13Z</time>
      </trkpt>
      <trkpt lat="47.16571" lon="5.52898">
        <ele>281.9</ele>
        <time>2014-05-25T11:38:19Z</time>
      </trkpt>
      <trkpt lat="47.16562" lon="5.52902">
        <ele>280.6</ele>
        <time>2014-05-25T11:38:28Z</time>
      </trkpt>
      <trkpt lat="47.16552" lon="5.52904">
        <ele>280.5</ele>
        <time>2014-05-25T11:38:35Z</time>
      </trkpt>
      <trkpt lat="47.16543" lon="5.52908">
        <ele>280.8</ele>
        <time>2014-05-25T11:38:39Z</time>
      </trkpt>
      <trkpt lat="47.16533" lon="5.5291">
        <ele>281</ele>
        <time>2014-05-25T11:38:44Z</time>
      </trkpt>
      <trkpt lat="47.16522" lon="5.52912">
        <ele>280.2</ele>
        <time>2014-05-25T11:38:48Z</time>
      </trkpt>
      <trkpt lat="47.16511" lon="5.52915">
        <ele>279</ele>
        <time>2014-05-25T11:38:51Z</time>
      </trkpt>
      <trkpt lat="47.16499" lon="5.52915">
        <ele>278.4</ele>
        <time>2014-05-25T11:38:54Z</time>
      </trkpt>
      <trkpt lat="47.1648" lon="5.52916">
        <ele>275.9</ele>
        <time>2014-05-25T11:39:02Z</time>
      </trkpt>
      <trkpt lat="47.16469" lon="5.52919">
        <ele>275.8</ele>
        <time>2014-05-25T11:39:05Z</time>
      </trkpt>
      <trkpt lat="47.16461" lon="5.52925">
        <ele>275.7</ele>
        <time>2014-05-25T11:39:07Z</time>
      </trkpt>
      <trkpt lat="47.16451" lon="5.52933">
        <ele>274.7</ele>
        <time>2014-05-25T11:39:11Z</time>
      </trkpt>
      <trkpt lat="47.16445" lon="5.52944">
        <ele>273.9</ele>
        <time>2014-05-25T11:39:19Z</time>
      </trkpt>
      <trkpt lat="47.16436" lon="5.52951">
        <ele>274.7</ele>
        <time>2014-05-25T11:39:24Z</time>
      </trkpt>
      <trkpt lat="47.16428" lon="5.52958">
        <ele>273.7</ele>
        <time>2014-05-25T11:39:27Z</time>
      </trkpt>
      <trkpt lat="47.16418" lon="5.52972">
        <ele>272.8</ele>
        <time>2014-05-25T11:39:30Z</time>
      </trkpt>
      <trkpt lat="47.16409" lon="5.52982">
        <ele>271.8</ele>
        <time>2014-05-25T11:39:32Z</time>
      </trkpt>
      <trkpt lat="47.164" lon="5.52992">
        <ele>272.4</ele>
        <time>2014-05-25T11:39:35Z</time>
      </trkpt>
      <trkpt lat="47.16392" lon="5.53004">
        <ele>272.7</ele>
        <time>2014-05-25T11:39:38Z</time>
      </trkpt>
      <trkpt lat="47.16382" lon="5.53013">
        <ele>273.1</ele>
        <time>2014-05-25T11:39:41Z</time>
      </trkpt>
      <trkpt lat="47.16372" lon="5.53021">
        <ele>273.4</ele>
        <time>2014-05-25T11:39:44Z</time>
      </trkpt>
      <trkpt lat="47.16364" lon="5.5303">
        <ele>273.4</ele>
        <time>2014-05-25T11:39:47Z</time>
      </trkpt>
      <trkpt lat="47.16354" lon="5.53035">
        <ele>273.6</ele>
        <time>2014-05-25T11:39:52Z</time>
      </trkpt>
      <trkpt lat="47.16345" lon="5.53029">
        <ele>272.3</ele>
        <time>2014-05-25T11:39:56Z</time>
      </trkpt>
      <trkpt lat="47.16321" lon="5.53025">
        <ele>275.3</ele>
        <time>2014-05-25T11:41:13Z</time>
      </trkpt>
      <trkpt lat="47.16303" lon="5.53033">
        <ele>275.3</ele>
        <time>2014-05-25T11:41:18Z</time>
      </trkpt>
      <trkpt lat="47.16293" lon="5.53038">
        <ele>274.7</ele>
        <time>2014-05-25T11:41:21Z</time>
      </trkpt>
      <trkpt lat="47.16283" lon="5.53045">
        <ele>274.7</ele>
        <time>2014-05-25T11:41:24Z</time>
      </trkpt>
      <trkpt lat="47.16273" lon="5.5305">
        <ele>274.6</ele>
        <time>2014-05-25T11:41:27Z</time>
      </trkpt>
      <trkpt lat="47.16261" lon="5.53056">
        <ele>274.3</ele>
        <time>2014-05-25T11:41:30Z</time>
      </trkpt>
      <trkpt lat="47.1625" lon="5.5306">
        <ele>273.4</ele>
        <time>2014-05-25T11:41:33Z</time>
      </trkpt>
      <trkpt lat="47.1624" lon="5.53067">
        <ele>273.8</ele>
        <time>2014-05-25T11:41:36Z</time>
      </trkpt>
      <trkpt lat="47.1623" lon="5.53077">
        <ele>273.8</ele>
        <time>2014-05-25T11:41:39Z</time>
      </trkpt>
      <trkpt lat="47.16221" lon="5.53087">
        <ele>274.1</ele>
        <time>2014-05-25T11:41:42Z</time>
      </trkpt>
      <trkpt lat="47.16213" lon="5.53097">
        <ele>274.1</ele>
        <time>2014-05-25T11:41:44Z</time>
      </trkpt>
      <trkpt lat="47.16206" lon="5.53105">
        <ele>274.2</ele>
        <time>2014-05-25T11:41:46Z</time>
      </trkpt>
      <trkpt lat="47.16197" lon="5.53113">
        <ele>274.4</ele>
        <time>2014-05-25T11:41:49Z</time>
      </trkpt>
      <trkpt lat="47.16187" lon="5.53122">
        <ele>275</ele>
        <time>2014-05-25T11:41:53Z</time>
      </trkpt>
      <trkpt lat="47.16179" lon="5.53131">
        <ele>275.5</ele>
        <time>2014-05-25T11:41:58Z</time>
      </trkpt>
      <trkpt lat="47.16171" lon="5.53137">
        <ele>276.1</ele>
        <time>2014-05-25T11:42:02Z</time>
      </trkpt>
      <trkpt lat="47.16162" lon="5.53144">
        <ele>276.5</ele>
        <time>2014-05-25T11:42:07Z</time>
      </trkpt>
      <trkpt lat="47.16154" lon="5.53153">
        <ele>278.2</ele>
        <time>2014-05-25T11:42:12Z</time>
      </trkpt>
      <trkpt lat="47.16143" lon="5.53159">
        <ele>278.5</ele>
        <time>2014-05-25T11:42:17Z</time>
      </trkpt>
      <trkpt lat="47.16123" lon="5.53165">
        <ele>280.3</ele>
        <time>2014-05-25T11:42:25Z</time>
      </trkpt>
      <trkpt lat="47.16114" lon="5.53163">
        <ele>281.5</ele>
        <time>2014-05-25T11:42:30Z</time>
      </trkpt>
      <trkpt lat="47.16104" lon="5.53156">
        <ele>282.9</ele>
        <time>2014-05-25T11:42:36Z</time>
      </trkpt>
      <trkpt lat="47.16096" lon="5.53148">
        <ele>282.7</ele>
        <time>2014-05-25T11:42:41Z</time>
      </trkpt>
      <trkpt lat="47.16087" lon="5.53142">
        <ele>283.3</ele>
        <time>2014-05-25T11:42:45Z</time>
      </trkpt>
      <trkpt lat="47.16075" lon="5.53137">
        <ele>283.2</ele>
        <time>2014-05-25T11:42:48Z</time>
      </trkpt>
      <trkpt lat="47.16064" lon="5.5313">
        <ele>282.9</ele>
        <time>2014-05-25T11:42:51Z</time>
      </trkpt>
      <trkpt lat="47.16052" lon="5.53122">
        <ele>282.6</ele>
        <time>2014-05-25T11:42:54Z</time>
      </trkpt>
      <trkpt lat="47.16043" lon="5.53116">
        <ele>282.1</ele>
        <time>2014-05-25T11:42:56Z</time>
      </trkpt>
      <trkpt lat="47.16033" lon="5.53107">
        <ele>281.4</ele>
        <time>2014-05-25T11:42:59Z</time>
      </trkpt>
      <trkpt lat="47.16026" lon="5.53095">
        <ele>280.8</ele>
        <time>2014-05-25T11:43:01Z</time>
      </trkpt>
      <trkpt lat="47.16024" lon="5.53082">
        <ele>280.8</ele>
        <time>2014-05-25T11:43:03Z</time>
      </trkpt>
      <trkpt lat="47.16028" lon="5.53069">
        <ele>281.4</ele>
        <time>2014-05-25T11:43:07Z</time>
      </trkpt>
      <trkpt lat="47.16027" lon="5.53054">
        <ele>281.7</ele>
        <time>2014-05-25T11:43:11Z</time>
      </trkpt>
      <trkpt lat="47.1602" lon="5.53037">
        <ele>281.7</ele>
        <time>2014-05-25T11:43:14Z</time>
      </trkpt>
      <trkpt lat="47.16014" lon="5.53026">
        <ele>281.2</ele>
        <time>2014-05-25T11:43:16Z</time>
      </trkpt>
      <trkpt lat="47.16008" lon="5.53013">
        <ele>281.6</ele>
        <time>2014-05-25T11:43:18Z</time>
      </trkpt>
      <trkpt lat="47.16001" lon="5.52997">
        <ele>281.8</ele>
        <time>2014-05-25T11:43:21Z</time>
      </trkpt>
      <trkpt lat="47.15995" lon="5.52965">
        <ele>281.1</ele>
        <time>2014-05-25T11:43:26Z</time>
      </trkpt>
      <trkpt lat="47.15993" lon="5.52947">
        <ele>281</ele>
        <time>2014-05-25T11:43:29Z</time>
      </trkpt>
      <trkpt lat="47.1599" lon="5.52929">
        <ele>281.1</ele>
        <time>2014-05-25T11:43:32Z</time>
      </trkpt>
      <trkpt lat="47.15987" lon="5.52916">
        <ele>280.8</ele>
        <time>2014-05-25T11:43:34Z</time>
      </trkpt>
      <trkpt lat="47.15982" lon="5.52899">
        <ele>280.7</ele>
        <time>2014-05-25T11:43:37Z</time>
      </trkpt>
      <trkpt lat="47.15975" lon="5.52886">
        <ele>280.1</ele>
        <time>2014-05-25T11:43:40Z</time>
      </trkpt>
      <trkpt lat="47.15966" lon="5.52868">
        <ele>279.6</ele>
        <time>2014-05-25T11:43:43Z</time>
      </trkpt>
      <trkpt lat="47.1596" lon="5.52854">
        <ele>279.4</ele>
        <time>2014-05-25T11:43:45Z</time>
      </trkpt>
      <trkpt lat="47.15955" lon="5.52839">
        <ele>278.9</ele>
        <time>2014-05-25T11:43:47Z</time>
      </trkpt>
      <trkpt lat="47.15948" lon="5.52819">
        <ele>278.8</ele>
        <time>2014-05-25T11:43:49Z</time>
      </trkpt>
      <trkpt lat="47.15943" lon="5.52799">
        <ele>278.3</ele>
        <time>2014-05-25T11:43:51Z</time>
      </trkpt>
      <trkpt lat="47.15938" lon="5.52782">
        <ele>277.7</ele>
        <time>2014-05-25T11:43:53Z</time>
      </trkpt>
      <trkpt lat="47.15932" lon="5.52765">
        <ele>276.8</ele>
        <time>2014-05-25T11:43:55Z</time>
      </trkpt>
      <trkpt lat="47.15928" lon="5.52752">
        <ele>276.2</ele>
        <time>2014-05-25T11:43:57Z</time>
      </trkpt>
      <trkpt lat="47.15922" lon="5.52737">
        <ele>275.1</ele>
        <time>2014-05-25T11:44:00Z</time>
      </trkpt>
      <trkpt lat="47.15917" lon="5.52721">
        <ele>273.3</ele>
        <time>2014-05-25T11:44:03Z</time>
      </trkpt>
      <trkpt lat="47.15912" lon="5.52709">
        <ele>272</ele>
        <time>2014-05-25T11:44:07Z</time>
      </trkpt>
      <trkpt lat="47.15905" lon="5.52699">
        <ele>269.6</ele>
        <time>2014-05-25T11:44:18Z</time>
      </trkpt>
      <trkpt lat="47.15896" lon="5.52695">
        <ele>266.1</ele>
        <time>2014-05-25T11:44:35Z</time>
      </trkpt>
      <trkpt lat="47.15875" lon="5.52682">
        <ele>264.7</ele>
        <time>2014-05-25T11:44:46Z</time>
      </trkpt>
      <trkpt lat="47.15867" lon="5.52674">
        <ele>264.1</ele>
        <time>2014-05-25T11:44:49Z</time>
      </trkpt>
      <trkpt lat="47.1586" lon="5.52665">
        <ele>264.4</ele>
        <time>2014-05-25T11:44:52Z</time>
      </trkpt>
      <trkpt lat="47.15849" lon="5.52655">
        <ele>264.5</ele>
        <time>2014-05-25T11:44:55Z</time>
      </trkpt>
      <trkpt lat="47.15839" lon="5.52648">
        <ele>265.4</ele>
        <time>2014-05-25T11:44:58Z</time>
      </trkpt>
      <trkpt lat="47.15829" lon="5.52641">
        <ele>265.9</ele>
        <time>2014-05-25T11:45:01Z</time>
      </trkpt>
      <trkpt lat="47.15818" lon="5.52642">
        <ele>265.6</ele>
        <time>2014-05-25T11:45:05Z</time>
      </trkpt>
      <trkpt lat="47.1581" lon="5.52653">
        <ele>265.6</ele>
        <time>2014-05-25T11:45:08Z</time>
      </trkpt>
      <trkpt lat="47.15803" lon="5.52664">
        <ele>265.6</ele>
        <time>2014-05-25T11:45:11Z</time>
      </trkpt>
      <trkpt lat="47.15794" lon="5.52665">
        <ele>265.7</ele>
        <time>2014-05-25T11:45:14Z</time>
      </trkpt>
      <trkpt lat="47.15785" lon="5.52668">
        <ele>266.4</ele>
        <time>2014-05-25T11:45:22Z</time>
      </trkpt>
      <trkpt lat="47.15782" lon="5.52681">
        <ele>270.4</ele>
        <time>2014-05-25T11:45:41Z</time>
      </trkpt>
      <trkpt lat="47.15769" lon="5.52697">
        <ele>273.9</ele>
        <time>2014-05-25T11:46:12Z</time>
      </trkpt>
      <trkpt lat="47.15761" lon="5.52705">
        <ele>276.1</ele>
        <time>2014-05-25T11:46:26Z</time>
      </trkpt>
      <trkpt lat="47.15752" lon="5.52714">
        <ele>277.5</ele>
        <time>2014-05-25T11:46:32Z</time>
      </trkpt>
      <trkpt lat="47.15745" lon="5.52722">
        <ele>278</ele>
        <time>2014-05-25T11:46:38Z</time>
      </trkpt>
      <trkpt lat="47.15738" lon="5.52731">
        <ele>280.1</ele>
        <time>2014-05-25T11:46:45Z</time>
      </trkpt>
      <trkpt lat="47.15722" lon="5.52748">
        <ele>281.3</ele>
        <time>2014-05-25T11:46:59Z</time>
      </trkpt>
      <trkpt lat="47.15715" lon="5.52756">
        <ele>282.7</ele>
        <time>2014-05-25T11:47:10Z</time>
      </trkpt>
      <trkpt lat="47.15707" lon="5.52763">
        <ele>282.8</ele>
        <time>2014-05-25T11:47:20Z</time>
      </trkpt>
      <trkpt lat="47.15702" lon="5.52776">
        <ele>285.4</ele>
        <time>2014-05-25T11:47:43Z</time>
      </trkpt>
      <trkpt lat="47.15694" lon="5.52787">
        <ele>288.8</ele>
        <time>2014-05-25T11:50:03Z</time>
      </trkpt>
      <trkpt lat="47.15676" lon="5.52798">
        <ele>291.2</ele>
        <time>2014-05-25T11:50:14Z</time>
      </trkpt>
      <trkpt lat="47.15668" lon="5.52806">
        <ele>292.4</ele>
        <time>2014-05-25T11:50:23Z</time>
      </trkpt>
      <trkpt lat="47.15661" lon="5.52814">
        <ele>293.9</ele>
        <time>2014-05-25T11:50:32Z</time>
      </trkpt>
      <trkpt lat="47.15656" lon="5.52825">
        <ele>295.5</ele>
        <time>2014-05-25T11:50:39Z</time>
      </trkpt>
      <trkpt lat="47.15647" lon="5.52833">
        <ele>296.5</ele>
        <time>2014-05-25T11:50:46Z</time>
      </trkpt>
      <trkpt lat="47.15638" lon="5.52841">
        <ele>298</ele>
        <time>2014-05-25T11:50:53Z</time>
      </trkpt>
      <trkpt lat="47.1563" lon="5.52848">
        <ele>299.7</ele>
        <time>2014-05-25T11:51:01Z</time>
      </trkpt>
      <trkpt lat="47.15624" lon="5.52858">
        <ele>300.9</ele>
        <time>2014-05-25T11:51:10Z</time>
      </trkpt>
      <trkpt lat="47.15607" lon="5.52872">
        <ele>303.6</ele>
        <time>2014-05-25T11:51:20Z</time>
      </trkpt>
      <trkpt lat="47.15599" lon="5.52879">
        <ele>304</ele>
        <time>2014-05-25T11:51:27Z</time>
      </trkpt>
      <trkpt lat="47.15591" lon="5.52887">
        <ele>304.4</ele>
        <time>2014-05-25T11:51:34Z</time>
      </trkpt>
      <trkpt lat="47.15582" lon="5.52893">
        <ele>305.7</ele>
        <time>2014-05-25T11:51:41Z</time>
      </trkpt>
      <trkpt lat="47.15572" lon="5.52898">
        <ele>306.2</ele>
        <time>2014-05-25T11:51:44Z</time>
      </trkpt>
      <trkpt lat="47.15562" lon="5.52898">
        <ele>306.1</ele>
        <time>2014-05-25T11:51:50Z</time>
      </trkpt>
      <trkpt lat="47.15553" lon="5.52895">
        <ele>306.7</ele>
        <time>2014-05-25T11:51:55Z</time>
      </trkpt>
      <trkpt lat="47.15544" lon="5.52889">
        <ele>307.2</ele>
        <time>2014-05-25T11:52:00Z</time>
      </trkpt>
      <trkpt lat="47.15536" lon="5.52878">
        <ele>308</ele>
        <time>2014-05-25T11:52:05Z</time>
      </trkpt>
      <trkpt lat="47.15528" lon="5.52867">
        <ele>308.7</ele>
        <time>2014-05-25T11:52:10Z</time>
      </trkpt>
      <trkpt lat="47.15522" lon="5.52857">
        <ele>308.5</ele>
        <time>2014-05-25T11:52:14Z</time>
      </trkpt>
      <trkpt lat="47.15507" lon="5.52838">
        <ele>309</ele>
        <time>2014-05-25T11:52:23Z</time>
      </trkpt>
      <trkpt lat="47.15498" lon="5.52832">
        <ele>309.4</ele>
        <time>2014-05-25T11:52:28Z</time>
      </trkpt>
      <trkpt lat="47.15488" lon="5.52826">
        <ele>309.4</ele>
        <time>2014-05-25T11:52:32Z</time>
      </trkpt>
      <trkpt lat="47.15479" lon="5.52822">
        <ele>309.9</ele>
        <time>2014-05-25T11:52:37Z</time>
      </trkpt>
      <trkpt lat="47.1547" lon="5.52814">
        <ele>309.8</ele>
        <time>2014-05-25T11:52:42Z</time>
      </trkpt>
      <trkpt lat="47.15461" lon="5.52807">
        <ele>310.4</ele>
        <time>2014-05-25T11:52:45Z</time>
      </trkpt>
      <trkpt lat="47.15451" lon="5.52801">
        <ele>311.2</ele>
        <time>2014-05-25T11:52:49Z</time>
      </trkpt>
      <trkpt lat="47.15441" lon="5.52797">
        <ele>311.5</ele>
        <time>2014-05-25T11:52:54Z</time>
      </trkpt>
      <trkpt lat="47.15432" lon="5.52795">
        <ele>311.9</ele>
        <time>2014-05-25T11:52:59Z</time>
      </trkpt>
      <trkpt lat="47.15422" lon="5.52794">
        <ele>312.6</ele>
        <time>2014-05-25T11:53:04Z</time>
      </trkpt>
      <trkpt lat="47.15411" lon="5.52786">
        <ele>313.2</ele>
        <time>2014-05-25T11:53:08Z</time>
      </trkpt>
      <trkpt lat="47.15404" lon="5.52777">
        <ele>313.7</ele>
        <time>2014-05-25T11:53:13Z</time>
      </trkpt>
      <trkpt lat="47.15395" lon="5.52769">
        <ele>314.1</ele>
        <time>2014-05-25T11:53:16Z</time>
      </trkpt>
      <trkpt lat="47.15377" lon="5.52751">
        <ele>315.5</ele>
        <time>2014-05-25T11:53:24Z</time>
      </trkpt>
      <trkpt lat="47.15367" lon="5.52744">
        <ele>316.4</ele>
        <time>2014-05-25T11:53:29Z</time>
      </trkpt>
      <trkpt lat="47.15359" lon="5.52737">
        <ele>317.7</ele>
        <time>2014-05-25T11:53:34Z</time>
      </trkpt>
      <trkpt lat="47.15352" lon="5.52726">
        <ele>318</ele>
        <time>2014-05-25T11:53:39Z</time>
      </trkpt>
      <trkpt lat="47.15343" lon="5.52716">
        <ele>318.2</ele>
        <time>2014-05-25T11:53:44Z</time>
      </trkpt>
      <trkpt lat="47.15336" lon="5.52708">
        <ele>318.3</ele>
        <time>2014-05-25T11:53:46Z</time>
      </trkpt>
      <trkpt lat="47.15329" lon="5.52699">
        <ele>318.5</ele>
        <time>2014-05-25T11:53:49Z</time>
      </trkpt>
      <trkpt lat="47.15322" lon="5.52689">
        <ele>319.1</ele>
        <time>2014-05-25T11:53:54Z</time>
      </trkpt>
      <trkpt lat="47.15315" lon="5.52677">
        <ele>319.4</ele>
        <time>2014-05-25T11:53:58Z</time>
      </trkpt>
      <trkpt lat="47.15305" lon="5.52668">
        <ele>319.7</ele>
        <time>2014-05-25T11:54:03Z</time>
      </trkpt>
      <trkpt lat="47.15297" lon="5.5266">
        <ele>320.1</ele>
        <time>2014-05-25T11:54:07Z</time>
      </trkpt>
      <trkpt lat="47.15288" lon="5.52652">
        <ele>319.9</ele>
        <time>2014-05-25T11:54:11Z</time>
      </trkpt>
      <trkpt lat="47.1528" lon="5.52645">
        <ele>319.9</ele>
        <time>2014-05-25T11:54:14Z</time>
      </trkpt>
      <trkpt lat="47.15268" lon="5.52638">
        <ele>320.1</ele>
        <time>2014-05-25T11:54:17Z</time>
      </trkpt>
      <trkpt lat="47.15257" lon="5.52633">
        <ele>319.5</ele>
        <time>2014-05-25T11:54:19Z</time>
      </trkpt>
      <trkpt lat="47.15243" lon="5.5261">
        <ele>320</ele>
        <time>2014-05-25T11:54:25Z</time>
      </trkpt>
      <trkpt lat="47.15236" lon="5.52597">
        <ele>320.2</ele>
        <time>2014-05-25T11:54:28Z</time>
      </trkpt>
      <trkpt lat="47.15229" lon="5.52583">
        <ele>319.7</ele>
        <time>2014-05-25T11:54:31Z</time>
      </trkpt>
      <trkpt lat="47.15221" lon="5.52568">
        <ele>319.8</ele>
        <time>2014-05-25T11:54:34Z</time>
      </trkpt>
      <trkpt lat="47.15212" lon="5.52554">
        <ele>319</ele>
        <time>2014-05-25T11:54:37Z</time>
      </trkpt>
      <trkpt lat="47.15207" lon="5.52543">
        <ele>318.5</ele>
        <time>2014-05-25T11:54:39Z</time>
      </trkpt>
      <trkpt lat="47.15202" lon="5.5253">
        <ele>318.3</ele>
        <time>2014-05-25T11:54:41Z</time>
      </trkpt>
      <trkpt lat="47.15198" lon="5.52513">
        <ele>318.1</ele>
        <time>2014-05-25T11:54:43Z</time>
      </trkpt>
      <trkpt lat="47.15197" lon="5.52497">
        <ele>317.7</ele>
        <time>2014-05-25T11:54:45Z</time>
      </trkpt>
      <trkpt lat="47.15197" lon="5.52481">
        <ele>317.4</ele>
        <time>2014-05-25T11:54:47Z</time>
      </trkpt>
      <trkpt lat="47.15195" lon="5.52464">
        <ele>317</ele>
        <time>2014-05-25T11:54:49Z</time>
      </trkpt>
      <trkpt lat="47.15193" lon="5.52448">
        <ele>316.4</ele>
        <time>2014-05-25T11:54:51Z</time>
      </trkpt>
      <trkpt lat="47.15195" lon="5.5243">
        <ele>315.8</ele>
        <time>2014-05-25T11:54:53Z</time>
      </trkpt>
      <trkpt lat="47.15195" lon="5.52412">
        <ele>315.7</ele>
        <time>2014-05-25T11:54:55Z</time>
      </trkpt>
      <trkpt lat="47.15195" lon="5.52393">
        <ele>314.8</ele>
        <time>2014-05-25T11:54:57Z</time>
      </trkpt>
      <trkpt lat="47.15191" lon="5.52374">
        <ele>313.7</ele>
        <time>2014-05-25T11:54:59Z</time>
      </trkpt>
      <trkpt lat="47.15186" lon="5.52356">
        <ele>313.1</ele>
        <time>2014-05-25T11:55:01Z</time>
      </trkpt>
      <trkpt lat="47.15181" lon="5.52337">
        <ele>312.1</ele>
        <time>2014-05-25T11:55:03Z</time>
      </trkpt>
      <trkpt lat="47.15174" lon="5.5232">
        <ele>311.4</ele>
        <time>2014-05-25T11:55:05Z</time>
      </trkpt>
      <trkpt lat="47.15167" lon="5.52305">
        <ele>311.5</ele>
        <time>2014-05-25T11:55:07Z</time>
      </trkpt>
      <trkpt lat="47.15157" lon="5.52292">
        <ele>311</ele>
        <time>2014-05-25T11:55:09Z</time>
      </trkpt>
      <trkpt lat="47.15147" lon="5.52283">
        <ele>310.5</ele>
        <time>2014-05-25T11:55:11Z</time>
      </trkpt>
      <trkpt lat="47.15138" lon="5.52273">
        <ele>310.2</ele>
        <time>2014-05-25T11:55:13Z</time>
      </trkpt>
      <trkpt lat="47.15129" lon="5.52263">
        <ele>310.5</ele>
        <time>2014-05-25T11:55:15Z</time>
      </trkpt>
      <trkpt lat="47.1512" lon="5.52254">
        <ele>310.6</ele>
        <time>2014-05-25T11:55:17Z</time>
      </trkpt>
      <trkpt lat="47.15108" lon="5.52247">
        <ele>310.4</ele>
        <time>2014-05-25T11:55:19Z</time>
      </trkpt>
      <trkpt lat="47.151" lon="5.52239">
        <ele>310.6</ele>
        <time>2014-05-25T11:55:21Z</time>
      </trkpt>
      <trkpt lat="47.15085" lon="5.52216">
        <ele>311</ele>
        <time>2014-05-25T11:55:28Z</time>
      </trkpt>
      <trkpt lat="47.15078" lon="5.52207">
        <ele>311.8</ele>
        <time>2014-05-25T11:55:31Z</time>
      </trkpt>
      <trkpt lat="47.15072" lon="5.52197">
        <ele>311.9</ele>
        <time>2014-05-25T11:55:34Z</time>
      </trkpt>
      <trkpt lat="47.15065" lon="5.52186">
        <ele>312.4</ele>
        <time>2014-05-25T11:55:37Z</time>
      </trkpt>
      <trkpt lat="47.15058" lon="5.52175">
        <ele>312.5</ele>
        <time>2014-05-25T11:55:40Z</time>
      </trkpt>
      <trkpt lat="47.15051" lon="5.52163">
        <ele>312.9</ele>
        <time>2014-05-25T11:55:43Z</time>
      </trkpt>
      <trkpt lat="47.15045" lon="5.52152">
        <ele>313.7</ele>
        <time>2014-05-25T11:55:46Z</time>
      </trkpt>
      <trkpt lat="47.15039" lon="5.5214">
        <ele>313.5</ele>
        <time>2014-05-25T11:55:49Z</time>
      </trkpt>
      <trkpt lat="47.15035" lon="5.52127">
        <ele>313.7</ele>
        <time>2014-05-25T11:55:52Z</time>
      </trkpt>
      <trkpt lat="47.1503" lon="5.52115">
        <ele>314</ele>
        <time>2014-05-25T11:55:55Z</time>
      </trkpt>
      <trkpt lat="47.15024" lon="5.52102">
        <ele>314.3</ele>
        <time>2014-05-25T11:55:58Z</time>
      </trkpt>
      <trkpt lat="47.15018" lon="5.52089">
        <ele>314.8</ele>
        <time>2014-05-25T11:56:01Z</time>
      </trkpt>
      <trkpt lat="47.15011" lon="5.52076">
        <ele>314.7</ele>
        <time>2014-05-25T11:56:04Z</time>
      </trkpt>
      <trkpt lat="47.15004" lon="5.52062">
        <ele>314.8</ele>
        <time>2014-05-25T11:56:07Z</time>
      </trkpt>
      <trkpt lat="47.14996" lon="5.52048">
        <ele>314.9</ele>
        <time>2014-05-25T11:56:10Z</time>
      </trkpt>
      <trkpt lat="47.14989" lon="5.52034">
        <ele>314.6</ele>
        <time>2014-05-25T11:56:13Z</time>
      </trkpt>
      <trkpt lat="47.14981" lon="5.52018">
        <ele>314.5</ele>
        <time>2014-05-25T11:56:16Z</time>
      </trkpt>
      <trkpt lat="47.14974" lon="5.52002">
        <ele>314.3</ele>
        <time>2014-05-25T11:56:19Z</time>
      </trkpt>
      <trkpt lat="47.14967" lon="5.51993">
        <ele>314.1</ele>
        <time>2014-05-25T11:56:21Z</time>
      </trkpt>
      <trkpt lat="47.14962" lon="5.51981">
        <ele>314.1</ele>
        <time>2014-05-25T11:56:23Z</time>
      </trkpt>
      <trkpt lat="47.14947" lon="5.51959">
        <ele>313.5</ele>
        <time>2014-05-25T11:56:27Z</time>
      </trkpt>
      <trkpt lat="47.14938" lon="5.51948">
        <ele>312.8</ele>
        <time>2014-05-25T11:56:29Z</time>
      </trkpt>
      <trkpt lat="47.14929" lon="5.51933">
        <ele>312.4</ele>
        <time>2014-05-25T11:56:31Z</time>
      </trkpt>
      <trkpt lat="47.1492" lon="5.51917">
        <ele>311.8</ele>
        <time>2014-05-25T11:56:33Z</time>
      </trkpt>
      <trkpt lat="47.14911" lon="5.519">
        <ele>311.2</ele>
        <time>2014-05-25T11:56:35Z</time>
      </trkpt>
      <trkpt lat="47.14902" lon="5.51882">
        <ele>310.7</ele>
        <time>2014-05-25T11:56:37Z</time>
      </trkpt>
      <trkpt lat="47.14891" lon="5.51867">
        <ele>310</ele>
        <time>2014-05-25T11:56:39Z</time>
      </trkpt>
      <trkpt lat="47.14884" lon="5.51859">
        <ele>309.5</ele>
        <time>2014-05-25T11:56:40Z</time>
      </trkpt>
      <trkpt lat="47.14868" lon="5.51843">
        <ele>309</ele>
        <time>2014-05-25T11:56:42Z</time>
      </trkpt>
      <trkpt lat="47.14861" lon="5.51835">
        <ele>308.6</ele>
        <time>2014-05-25T11:56:43Z</time>
      </trkpt>
      <trkpt lat="47.14853" lon="5.51826">
        <ele>308.4</ele>
        <time>2014-05-25T11:56:44Z</time>
      </trkpt>
      <trkpt lat="47.14846" lon="5.51817">
        <ele>307.9</ele>
        <time>2014-05-25T11:56:45Z</time>
      </trkpt>
      <trkpt lat="47.14838" lon="5.51809">
        <ele>307.4</ele>
        <time>2014-05-25T11:56:46Z</time>
      </trkpt>
      <trkpt lat="47.14829" lon="5.51801">
        <ele>307</ele>
        <time>2014-05-25T11:56:47Z</time>
      </trkpt>
      <trkpt lat="47.14821" lon="5.51793">
        <ele>306.3</ele>
        <time>2014-05-25T11:56:48Z</time>
      </trkpt>
      <trkpt lat="47.14813" lon="5.51784">
        <ele>305.9</ele>
        <time>2014-05-25T11:56:49Z</time>
      </trkpt>
      <trkpt lat="47.14805" lon="5.51774">
        <ele>305.2</ele>
        <time>2014-05-25T11:56:50Z</time>
      </trkpt>
      <trkpt lat="47.14797" lon="5.51764">
        <ele>304.7</ele>
        <time>2014-05-25T11:56:51Z</time>
      </trkpt>
      <trkpt lat="47.1479" lon="5.51753">
        <ele>304.1</ele>
        <time>2014-05-25T11:56:52Z</time>
      </trkpt>
      <trkpt lat="47.14783" lon="5.51742">
        <ele>303.9</ele>
        <time>2014-05-25T11:56:53Z</time>
      </trkpt>
      <trkpt lat="47.14776" lon="5.51731">
        <ele>303.2</ele>
        <time>2014-05-25T11:56:54Z</time>
      </trkpt>
      <trkpt lat="47.14769" lon="5.5172">
        <ele>302.8</ele>
        <time>2014-05-25T11:56:55Z</time>
      </trkpt>
      <trkpt lat="47.14762" lon="5.51709">
        <ele>302.2</ele>
        <time>2014-05-25T11:56:56Z</time>
      </trkpt>
      <trkpt lat="47.14755" lon="5.51698">
        <ele>301.8</ele>
        <time>2014-05-25T11:56:57Z</time>
      </trkpt>
      <trkpt lat="47.14749" lon="5.51687">
        <ele>300.8</ele>
        <time>2014-05-25T11:56:58Z</time>
      </trkpt>
      <trkpt lat="47.14743" lon="5.51676">
        <ele>300.1</ele>
        <time>2014-05-25T11:56:59Z</time>
      </trkpt>
      <trkpt lat="47.14738" lon="5.51665">
        <ele>299.8</ele>
        <time>2014-05-25T11:57:00Z</time>
      </trkpt>
      <trkpt lat="47.14733" lon="5.51654">
        <ele>299.4</ele>
        <time>2014-05-25T11:57:01Z</time>
      </trkpt>
      <trkpt lat="47.14729" lon="5.51641">
        <ele>299.1</ele>
        <time>2014-05-25T11:57:02Z</time>
      </trkpt>
      <trkpt lat="47.14725" lon="5.51618">
        <ele>298.5</ele>
        <time>2014-05-25T11:57:04Z</time>
      </trkpt>
      <trkpt lat="47.14722" lon="5.51598">
        <ele>297.6</ele>
        <time>2014-05-25T11:57:06Z</time>
      </trkpt>
      <trkpt lat="47.14721" lon="5.51583">
        <ele>296.8</ele>
        <time>2014-05-25T11:57:08Z</time>
      </trkpt>
      <trkpt lat="47.14722" lon="5.51568">
        <ele>295.9</ele>
        <time>2014-05-25T11:57:10Z</time>
      </trkpt>
      <trkpt lat="47.14726" lon="5.51551">
        <ele>294.9</ele>
        <time>2014-05-25T11:57:12Z</time>
      </trkpt>
      <trkpt lat="47.14731" lon="5.51534">
        <ele>294.3</ele>
        <time>2014-05-25T11:57:14Z</time>
      </trkpt>
      <trkpt lat="47.14736" lon="5.51518">
        <ele>293.7</ele>
        <time>2014-05-25T11:57:16Z</time>
      </trkpt>
      <trkpt lat="47.14737" lon="5.51501">
        <ele>293.2</ele>
        <time>2014-05-25T11:57:18Z</time>
      </trkpt>
      <trkpt lat="47.14734" lon="5.51485">
        <ele>292.2</ele>
        <time>2014-05-25T11:57:20Z</time>
      </trkpt>
      <trkpt lat="47.1473" lon="5.51472">
        <ele>291.4</ele>
        <time>2014-05-25T11:57:22Z</time>
      </trkpt>
      <trkpt lat="47.14723" lon="5.51458">
        <ele>290.2</ele>
        <time>2014-05-25T11:57:25Z</time>
      </trkpt>
      <trkpt lat="47.14699" lon="5.51446">
        <ele>288.6</ele>
        <time>2014-05-25T11:57:31Z</time>
      </trkpt>
      <trkpt lat="47.14691" lon="5.51437">
        <ele>288.1</ele>
        <time>2014-05-25T11:57:33Z</time>
      </trkpt>
      <trkpt lat="47.14686" lon="5.51426">
        <ele>287.3</ele>
        <time>2014-05-25T11:57:35Z</time>
      </trkpt>
      <trkpt lat="47.14678" lon="5.51414">
        <ele>286.6</ele>
        <time>2014-05-25T11:57:38Z</time>
      </trkpt>
      <trkpt lat="47.1467" lon="5.51407">
        <ele>286.2</ele>
        <time>2014-05-25T11:57:42Z</time>
      </trkpt>
      <trkpt lat="47.14661" lon="5.51411">
        <ele>285.8</ele>
        <time>2014-05-25T11:57:45Z</time>
      </trkpt>
      <trkpt lat="47.1465" lon="5.51416">
        <ele>286.4</ele>
        <time>2014-05-25T11:57:48Z</time>
      </trkpt>
      <trkpt lat="47.14638" lon="5.51417">
        <ele>285.7</ele>
        <time>2014-05-25T11:57:51Z</time>
      </trkpt>
      <trkpt lat="47.14627" lon="5.51413">
        <ele>285.5</ele>
        <time>2014-05-25T11:57:54Z</time>
      </trkpt>
      <trkpt lat="47.14614" lon="5.51412">
        <ele>285.6</ele>
        <time>2014-05-25T11:57:58Z</time>
      </trkpt>
      <trkpt lat="47.14604" lon="5.51414">
        <ele>285.9</ele>
        <time>2014-05-25T11:58:00Z</time>
      </trkpt>
      <trkpt lat="47.14594" lon="5.51415">
        <ele>286.4</ele>
        <time>2014-05-25T11:58:02Z</time>
      </trkpt>
      <trkpt lat="47.14584" lon="5.51416">
        <ele>286.1</ele>
        <time>2014-05-25T11:58:04Z</time>
      </trkpt>
      <trkpt lat="47.14573" lon="5.51419">
        <ele>285.8</ele>
        <time>2014-05-25T11:58:06Z</time>
      </trkpt>
      <trkpt lat="47.14561" lon="5.5142">
        <ele>285.7</ele>
        <time>2014-05-25T11:58:08Z</time>
      </trkpt>
      <trkpt lat="47.14551" lon="5.51426">
        <ele>285.6</ele>
        <time>2014-05-25T11:58:10Z</time>
      </trkpt>
      <trkpt lat="47.14541" lon="5.51432">
        <ele>285.7</ele>
        <time>2014-05-25T11:58:12Z</time>
      </trkpt>
      <trkpt lat="47.1453" lon="5.51441">
        <ele>285.4</ele>
        <time>2014-05-25T11:58:15Z</time>
      </trkpt>
      <trkpt lat="47.14519" lon="5.51447">
        <ele>285.5</ele>
        <time>2014-05-25T11:58:18Z</time>
      </trkpt>
      <trkpt lat="47.14509" lon="5.51451">
        <ele>285.5</ele>
        <time>2014-05-25T11:58:20Z</time>
      </trkpt>
      <trkpt lat="47.14499" lon="5.51451">
        <ele>285.1</ele>
        <time>2014-05-25T11:58:22Z</time>
      </trkpt>
      <trkpt lat="47.14488" lon="5.5145">
        <ele>284.6</ele>
        <time>2014-05-25T11:58:24Z</time>
      </trkpt>
      <trkpt lat="47.14478" lon="5.51448">
        <ele>284.7</ele>
        <time>2014-05-25T11:58:26Z</time>
      </trkpt>
      <trkpt lat="47.14468" lon="5.51446">
        <ele>285.3</ele>
        <time>2014-05-25T11:58:28Z</time>
      </trkpt>
      <trkpt lat="47.1445" lon="5.51442">
        <ele>285.7</ele>
        <time>2014-05-25T11:58:32Z</time>
      </trkpt>
      <trkpt lat="47.14441" lon="5.51439">
        <ele>285.8</ele>
        <time>2014-05-25T11:58:34Z</time>
      </trkpt>
      <trkpt lat="47.14428" lon="5.51435">
        <ele>286.5</ele>
        <time>2014-05-25T11:58:37Z</time>
      </trkpt>
      <trkpt lat="47.14418" lon="5.51431">
        <ele>286.7</ele>
        <time>2014-05-25T11:58:40Z</time>
      </trkpt>
      <trkpt lat="47.14408" lon="5.51428">
        <ele>286.9</ele>
        <time>2014-05-25T11:58:43Z</time>
      </trkpt>
      <trkpt lat="47.14399" lon="5.51425">
        <ele>287.3</ele>
        <time>2014-05-25T11:58:46Z</time>
      </trkpt>
      <trkpt lat="47.14389" lon="5.51422">
        <ele>288</ele>
        <time>2014-05-25T11:58:49Z</time>
      </trkpt>
      <trkpt lat="47.14379" lon="5.51418">
        <ele>288.1</ele>
        <time>2014-05-25T11:58:52Z</time>
      </trkpt>
      <trkpt lat="47.1437" lon="5.51413">
        <ele>289.2</ele>
        <time>2014-05-25T11:58:55Z</time>
      </trkpt>
      <trkpt lat="47.14362" lon="5.51407">
        <ele>289.8</ele>
        <time>2014-05-25T11:58:58Z</time>
      </trkpt>
      <trkpt lat="47.14354" lon="5.51399">
        <ele>289.8</ele>
        <time>2014-05-25T11:59:01Z</time>
      </trkpt>
      <trkpt lat="47.14346" lon="5.51392">
        <ele>290</ele>
        <time>2014-05-25T11:59:04Z</time>
      </trkpt>
      <trkpt lat="47.14337" lon="5.51385">
        <ele>289.8</ele>
        <time>2014-05-25T11:59:07Z</time>
      </trkpt>
      <trkpt lat="47.14327" lon="5.51379">
        <ele>290.1</ele>
        <time>2014-05-25T11:59:10Z</time>
      </trkpt>
      <trkpt lat="47.14317" lon="5.51373">
        <ele>290.6</ele>
        <time>2014-05-25T11:59:13Z</time>
      </trkpt>
      <trkpt lat="47.14308" lon="5.51368">
        <ele>291</ele>
        <time>2014-05-25T11:59:16Z</time>
      </trkpt>
      <trkpt lat="47.14299" lon="5.51362">
        <ele>290.6</ele>
        <time>2014-05-25T11:59:19Z</time>
      </trkpt>
      <trkpt lat="47.14288" lon="5.51355">
        <ele>291.3</ele>
        <time>2014-05-25T11:59:23Z</time>
      </trkpt>
      <trkpt lat="47.14279" lon="5.51353">
        <ele>291.6</ele>
        <time>2014-05-25T11:59:28Z</time>
      </trkpt>
      <trkpt lat="47.14272" lon="5.51366">
        <ele>291.8</ele>
        <time>2014-05-25T11:59:33Z</time>
      </trkpt>
      <trkpt lat="47.14274" lon="5.51369">
        <ele>290.9</ele>
        <time>2014-05-25T11:59:54Z</time>
      </trkpt>
      <trkpt lat="47.1428" lon="5.51356">
        <ele>291.8</ele>
        <time>2014-05-25T11:59:59Z</time>
      </trkpt>
      <trkpt lat="47.14275" lon="5.51343">
        <ele>292.4</ele>
        <time>2014-05-25T12:00:04Z</time>
      </trkpt>
      <trkpt lat="47.14267" lon="5.51337">
        <ele>293</ele>
        <time>2014-05-25T12:00:08Z</time>
      </trkpt>
      <trkpt lat="47.14257" lon="5.51333">
        <ele>293.1</ele>
        <time>2014-05-25T12:00:12Z</time>
      </trkpt>
      <trkpt lat="47.14247" lon="5.51336">
        <ele>293.6</ele>
        <time>2014-05-25T12:00:16Z</time>
      </trkpt>
      <trkpt lat="47.14238" lon="5.5134">
        <ele>293.7</ele>
        <time>2014-05-25T12:00:20Z</time>
      </trkpt>
      <trkpt lat="47.14227" lon="5.51343">
        <ele>294</ele>
        <time>2014-05-25T12:00:25Z</time>
      </trkpt>
      <trkpt lat="47.14218" lon="5.51345">
        <ele>294.3</ele>
        <time>2014-05-25T12:00:30Z</time>
      </trkpt>
      <trkpt lat="47.14208" lon="5.51343">
        <ele>294.7</ele>
        <time>2014-05-25T12:00:37Z</time>
      </trkpt>
      <trkpt lat="47.14205" lon="5.51351">
        <ele>294.8</ele>
        <time>2014-05-25T12:02:47Z</time>
      </trkpt>
      <trkpt lat="47.14197" lon="5.51339">
        <ele>297.1</ele>
        <time>2014-05-25T12:11:20Z</time>
      </trkpt>
      <trkpt lat="47.14178" lon="5.51337">
        <ele>296.5</ele>
        <time>2014-05-25T12:11:52Z</time>
      </trkpt>
      <trkpt lat="47.14169" lon="5.51335">
        <ele>296.7</ele>
        <time>2014-05-25T12:12:21Z</time>
      </trkpt>
      <trkpt lat="47.14151" lon="5.51341">
        <ele>297.3</ele>
        <time>2014-05-25T12:12:49Z</time>
      </trkpt>
      <trkpt lat="47.14142" lon="5.51348">
        <ele>297.6</ele>
        <time>2014-05-25T12:12:56Z</time>
      </trkpt>
      <trkpt lat="47.14136" lon="5.51359">
        <ele>297.7</ele>
        <time>2014-05-25T12:13:12Z</time>
      </trkpt>
      <trkpt lat="47.1413" lon="5.5137">
        <ele>298.1</ele>
        <time>2014-05-25T12:13:23Z</time>
      </trkpt>
      <trkpt lat="47.14127" lon="5.51398">
        <ele>298.9</ele>
        <time>2014-05-25T12:13:39Z</time>
      </trkpt>
      <trkpt lat="47.14126" lon="5.51412">
        <ele>299</ele>
        <time>2014-05-25T12:13:48Z</time>
      </trkpt>
      <trkpt lat="47.14124" lon="5.51425">
        <ele>299</ele>
        <time>2014-05-25T12:13:56Z</time>
      </trkpt>
      <trkpt lat="47.14123" lon="5.51439">
        <ele>299.6</ele>
        <time>2014-05-25T12:14:06Z</time>
      </trkpt>
      <trkpt lat="47.14123" lon="5.51453">
        <ele>299.3</ele>
        <time>2014-05-25T12:14:16Z</time>
      </trkpt>
      <trkpt lat="47.14122" lon="5.51466">
        <ele>299.3</ele>
        <time>2014-05-25T12:14:25Z</time>
      </trkpt>
      <trkpt lat="47.14112" lon="5.51489">
        <ele>300</ele>
        <time>2014-05-25T12:14:49Z</time>
      </trkpt>
      <trkpt lat="47.1411" lon="5.51503">
        <ele>300.7</ele>
        <time>2014-05-25T12:15:03Z</time>
      </trkpt>
      <trkpt lat="47.14106" lon="5.51516">
        <ele>300.5</ele>
        <time>2014-05-25T12:15:13Z</time>
      </trkpt>
      <trkpt lat="47.14104" lon="5.5153">
        <ele>300.6</ele>
        <time>2014-05-25T12:15:23Z</time>
      </trkpt>
      <trkpt lat="47.14103" lon="5.51544">
        <ele>300.5</ele>
        <time>2014-05-25T12:15:32Z</time>
      </trkpt>
      <trkpt lat="47.14098" lon="5.51569">
        <ele>300.9</ele>
        <time>2014-05-25T12:15:52Z</time>
      </trkpt>
      <trkpt lat="47.1409" lon="5.51577">
        <ele>301</ele>
        <time>2014-05-25T12:16:03Z</time>
      </trkpt>
      <trkpt lat="47.14087" lon="5.5159">
        <ele>300.6</ele>
        <time>2014-05-25T12:16:13Z</time>
      </trkpt>
      <trkpt lat="47.14088" lon="5.51594">
        <ele>300.1</ele>
        <time>2014-05-25T12:17:02Z</time>
      </trkpt>
    </trkseg>
  </trk>
</gpx>